<?xml version="1.0" encoding="UTF-8" standalone="no" ?>
<gpx xmlns="http://www.topografix.com/GPX/1/1" xmlns:xsi="http://www.w3.org/2001/XMLSchema-instance" xsi:schemaLocation="http://www.topografix.com/GPX/1/1 http://www.topografix.com/GPX/1/1/gpx.xsd" version="1.1" creator="VisuGPX - https://www.visugpx.com">
  <metadata>
    <name>boucles beaumont</name>
    <desc><![CDATA[boucles beaumont du périgord]]></desc>
  </metadata>
  <trk>
    <name><![CDATA[BBmt01]]></name>
    <trkseg>
      <trkpt lat="44.79503" lon="0.78515">
        <ele>104</ele>
        <time>2008-12-08T11:39:11Z</time>
      </trkpt>
      <trkpt lat="44.79488" lon="0.78495">
        <ele>106</ele>
        <time>2008-12-08T11:39:18Z</time>
      </trkpt>
      <trkpt lat="44.7947" lon="0.7848">
        <ele>107</ele>
        <time>2008-12-08T11:39:21Z</time>
      </trkpt>
      <trkpt lat="44.79455" lon="0.78455">
        <ele>108</ele>
        <time>2008-12-08T11:39:24Z</time>
      </trkpt>
      <trkpt lat="44.79448" lon="0.7842">
        <ele>109</ele>
        <time>2008-12-08T11:39:27Z</time>
      </trkpt>
      <trkpt lat="44.79443" lon="0.78385">
        <ele>112</ele>
        <time>2008-12-08T11:39:30Z</time>
      </trkpt>
      <trkpt lat="44.79433" lon="0.78358">
        <ele>114</ele>
        <time>2008-12-08T11:39:33Z</time>
      </trkpt>
      <trkpt lat="44.79418" lon="0.78343">
        <ele>117</ele>
        <time>2008-12-08T11:39:38Z</time>
      </trkpt>
      <trkpt lat="44.79408" lon="0.78318">
        <ele>122</ele>
        <time>2008-12-08T11:39:57Z</time>
      </trkpt>
      <trkpt lat="44.79408" lon="0.7829">
        <ele>119</ele>
        <time>2008-12-08T11:40:04Z</time>
      </trkpt>
      <trkpt lat="44.79415" lon="0.78265">
        <ele>117</ele>
        <time>2008-12-08T11:40:10Z</time>
      </trkpt>
      <trkpt lat="44.79428" lon="0.78243">
        <ele>118</ele>
        <time>2008-12-08T11:40:15Z</time>
      </trkpt>
      <trkpt lat="44.7944" lon="0.78215">
        <ele>119</ele>
        <time>2008-12-08T11:40:19Z</time>
      </trkpt>
      <trkpt lat="44.79448" lon="0.7819">
        <ele>118</ele>
        <time>2008-12-08T11:40:22Z</time>
      </trkpt>
      <trkpt lat="44.7945" lon="0.7816">
        <ele>119</ele>
        <time>2008-12-08T11:40:26Z</time>
      </trkpt>
      <trkpt lat="44.79453" lon="0.78128">
        <ele>119</ele>
        <time>2008-12-08T11:40:30Z</time>
      </trkpt>
      <trkpt lat="44.79453" lon="0.78095">
        <ele>119</ele>
        <time>2008-12-08T11:40:34Z</time>
      </trkpt>
      <trkpt lat="44.7945" lon="0.78065">
        <ele>121</ele>
        <time>2008-12-08T11:40:38Z</time>
      </trkpt>
      <trkpt lat="44.79443" lon="0.7804">
        <ele>122</ele>
        <time>2008-12-08T11:40:42Z</time>
      </trkpt>
      <trkpt lat="44.79425" lon="0.78048">
        <ele>124</ele>
        <time>2008-12-08T11:40:54Z</time>
      </trkpt>
      <trkpt lat="44.79408" lon="0.78065">
        <ele>131</ele>
        <time>2008-12-08T11:40:58Z</time>
      </trkpt>
      <trkpt lat="44.79393" lon="0.78083">
        <ele>135</ele>
        <time>2008-12-08T11:41:02Z</time>
      </trkpt>
      <trkpt lat="44.79378" lon="0.78103">
        <ele>136</ele>
        <time>2008-12-08T11:41:06Z</time>
      </trkpt>
      <trkpt lat="44.79363" lon="0.78128">
        <ele>134</ele>
        <time>2008-12-08T11:41:10Z</time>
      </trkpt>
      <trkpt lat="44.79348" lon="0.78148">
        <ele>135</ele>
        <time>2008-12-08T11:41:14Z</time>
      </trkpt>
      <trkpt lat="44.79333" lon="0.7817">
        <ele>136</ele>
        <time>2008-12-08T11:41:18Z</time>
      </trkpt>
      <trkpt lat="44.79318" lon="0.78188">
        <ele>141</ele>
        <time>2008-12-08T11:41:22Z</time>
      </trkpt>
      <trkpt lat="44.79298" lon="0.78195">
        <ele>144</ele>
        <time>2008-12-08T11:41:28Z</time>
      </trkpt>
      <trkpt lat="44.7928" lon="0.78203">
        <ele>146</ele>
        <time>2008-12-08T11:41:34Z</time>
      </trkpt>
      <trkpt lat="44.79258" lon="0.7821">
        <ele>146</ele>
        <time>2008-12-08T11:41:39Z</time>
      </trkpt>
      <trkpt lat="44.79238" lon="0.78218">
        <ele>147</ele>
        <time>2008-12-08T11:41:43Z</time>
      </trkpt>
      <trkpt lat="44.7922" lon="0.78225">
        <ele>148</ele>
        <time>2008-12-08T11:41:47Z</time>
      </trkpt>
      <trkpt lat="44.79203" lon="0.78235">
        <ele>149</ele>
        <time>2008-12-08T11:41:52Z</time>
      </trkpt>
      <trkpt lat="44.79185" lon="0.78225">
        <ele>149</ele>
        <time>2008-12-08T11:42:08Z</time>
      </trkpt>
      <trkpt lat="44.7917" lon="0.7821">
        <ele>149</ele>
        <time>2008-12-08T11:42:13Z</time>
      </trkpt>
      <trkpt lat="44.79153" lon="0.78198">
        <ele>148</ele>
        <time>2008-12-08T11:42:18Z</time>
      </trkpt>
      <trkpt lat="44.79133" lon="0.78183">
        <ele>148</ele>
        <time>2008-12-08T11:42:23Z</time>
      </trkpt>
      <trkpt lat="44.79118" lon="0.78168">
        <ele>148</ele>
        <time>2008-12-08T11:42:27Z</time>
      </trkpt>
      <trkpt lat="44.79103" lon="0.78153">
        <ele>148</ele>
        <time>2008-12-08T11:42:31Z</time>
      </trkpt>
      <trkpt lat="44.79085" lon="0.78145">
        <ele>153</ele>
        <time>2008-12-08T11:49:54Z</time>
      </trkpt>
      <trkpt lat="44.79093" lon="0.7812">
        <ele>150</ele>
        <time>2008-12-08T11:52:41Z</time>
      </trkpt>
      <trkpt lat="44.7909" lon="0.7809">
        <ele>150</ele>
        <time>2008-12-08T11:52:45Z</time>
      </trkpt>
      <trkpt lat="44.79088" lon="0.7806">
        <ele>150</ele>
        <time>2008-12-08T11:52:48Z</time>
      </trkpt>
      <trkpt lat="44.79085" lon="0.78028">
        <ele>150</ele>
        <time>2008-12-08T11:52:51Z</time>
      </trkpt>
      <trkpt lat="44.79085" lon="0.77993">
        <ele>150</ele>
        <time>2008-12-08T11:52:54Z</time>
      </trkpt>
      <trkpt lat="44.79085" lon="0.77958">
        <ele>150</ele>
        <time>2008-12-08T11:52:57Z</time>
      </trkpt>
      <trkpt lat="44.79083" lon="0.77925">
        <ele>150</ele>
        <time>2008-12-08T11:53:00Z</time>
      </trkpt>
      <trkpt lat="44.7908" lon="0.7789">
        <ele>150</ele>
        <time>2008-12-08T11:53:03Z</time>
      </trkpt>
      <trkpt lat="44.7908" lon="0.77863">
        <ele>150</ele>
        <time>2008-12-08T11:53:06Z</time>
      </trkpt>
      <trkpt lat="44.79075" lon="0.7783">
        <ele>149</ele>
        <time>2008-12-08T11:53:57Z</time>
      </trkpt>
      <trkpt lat="44.7907" lon="0.77805">
        <ele>149</ele>
        <time>2008-12-08T11:54:00Z</time>
      </trkpt>
      <trkpt lat="44.79063" lon="0.77778">
        <ele>149</ele>
        <time>2008-12-08T11:54:03Z</time>
      </trkpt>
      <trkpt lat="44.7906" lon="0.7775">
        <ele>149</ele>
        <time>2008-12-08T11:54:06Z</time>
      </trkpt>
      <trkpt lat="44.79058" lon="0.77718">
        <ele>151</ele>
        <time>2008-12-08T11:54:10Z</time>
      </trkpt>
      <trkpt lat="44.7906" lon="0.7769">
        <ele>152</ele>
        <time>2008-12-08T11:54:14Z</time>
      </trkpt>
      <trkpt lat="44.79065" lon="0.77663">
        <ele>152</ele>
        <time>2008-12-08T11:54:19Z</time>
      </trkpt>
      <trkpt lat="44.79073" lon="0.77635">
        <ele>149</ele>
        <time>2008-12-08T11:54:23Z</time>
      </trkpt>
      <trkpt lat="44.79078" lon="0.7761">
        <ele>148</ele>
        <time>2008-12-08T11:54:27Z</time>
      </trkpt>
      <trkpt lat="44.79085" lon="0.77583">
        <ele>147</ele>
        <time>2008-12-08T11:54:31Z</time>
      </trkpt>
      <trkpt lat="44.7909" lon="0.77558">
        <ele>147</ele>
        <time>2008-12-08T11:54:35Z</time>
      </trkpt>
      <trkpt lat="44.79095" lon="0.77525">
        <ele>147</ele>
        <time>2008-12-08T11:54:39Z</time>
      </trkpt>
      <trkpt lat="44.79095" lon="0.77495">
        <ele>147</ele>
        <time>2008-12-08T11:54:43Z</time>
      </trkpt>
      <trkpt lat="44.79095" lon="0.7746">
        <ele>146</ele>
        <time>2008-12-08T11:54:47Z</time>
      </trkpt>
      <trkpt lat="44.79093" lon="0.77433">
        <ele>147</ele>
        <time>2008-12-08T11:54:51Z</time>
      </trkpt>
      <trkpt lat="44.79085" lon="0.77408">
        <ele>147</ele>
        <time>2008-12-08T11:54:56Z</time>
      </trkpt>
      <trkpt lat="44.79073" lon="0.77385">
        <ele>147</ele>
        <time>2008-12-08T11:55:01Z</time>
      </trkpt>
      <trkpt lat="44.79063" lon="0.77363">
        <ele>150</ele>
        <time>2008-12-08T11:55:07Z</time>
      </trkpt>
      <trkpt lat="44.7905" lon="0.77343">
        <ele>153</ele>
        <time>2008-12-08T11:55:13Z</time>
      </trkpt>
      <trkpt lat="44.79038" lon="0.77318">
        <ele>154</ele>
        <time>2008-12-08T11:55:19Z</time>
      </trkpt>
      <trkpt lat="44.79028" lon="0.77293">
        <ele>153</ele>
        <time>2008-12-08T11:55:32Z</time>
      </trkpt>
      <trkpt lat="44.79018" lon="0.77268">
        <ele>152</ele>
        <time>2008-12-08T11:55:37Z</time>
      </trkpt>
      <trkpt lat="44.79008" lon="0.7724">
        <ele>153</ele>
        <time>2008-12-08T11:55:42Z</time>
      </trkpt>
      <trkpt lat="44.78998" lon="0.77215">
        <ele>152</ele>
        <time>2008-12-08T11:55:48Z</time>
      </trkpt>
      <trkpt lat="44.78988" lon="0.7719">
        <ele>152</ele>
        <time>2008-12-08T11:55:54Z</time>
      </trkpt>
      <trkpt lat="44.78975" lon="0.77165">
        <ele>150</ele>
        <time>2008-12-08T11:55:59Z</time>
      </trkpt>
      <trkpt lat="44.78965" lon="0.77143">
        <ele>147</ele>
        <time>2008-12-08T11:56:04Z</time>
      </trkpt>
      <trkpt lat="44.78955" lon="0.7712">
        <ele>146</ele>
        <time>2008-12-08T11:56:09Z</time>
      </trkpt>
      <trkpt lat="44.78948" lon="0.77095">
        <ele>146</ele>
        <time>2008-12-08T11:56:15Z</time>
      </trkpt>
      <trkpt lat="44.7894" lon="0.7707">
        <ele>148</ele>
        <time>2008-12-08T11:56:22Z</time>
      </trkpt>
      <trkpt lat="44.78935" lon="0.77043">
        <ele>148</ele>
        <time>2008-12-08T11:56:27Z</time>
      </trkpt>
      <trkpt lat="44.78935" lon="0.77015">
        <ele>149</ele>
        <time>2008-12-08T11:56:32Z</time>
      </trkpt>
      <trkpt lat="44.78933" lon="0.76988">
        <ele>151</ele>
        <time>2008-12-08T11:56:40Z</time>
      </trkpt>
      <trkpt lat="44.78923" lon="0.76958">
        <ele>158</ele>
        <time>2008-12-08T11:57:19Z</time>
      </trkpt>
      <trkpt lat="44.7892" lon="0.76928">
        <ele>156</ele>
        <time>2008-12-08T11:57:24Z</time>
      </trkpt>
      <trkpt lat="44.78923" lon="0.769">
        <ele>152</ele>
        <time>2008-12-08T11:57:30Z</time>
      </trkpt>
      <trkpt lat="44.7892" lon="0.76868">
        <ele>152</ele>
        <time>2008-12-08T11:57:44Z</time>
      </trkpt>
      <trkpt lat="44.7892" lon="0.76835">
        <ele>151</ele>
        <time>2008-12-08T11:57:49Z</time>
      </trkpt>
      <trkpt lat="44.7892" lon="0.76805">
        <ele>150</ele>
        <time>2008-12-08T11:57:53Z</time>
      </trkpt>
      <trkpt lat="44.7892" lon="0.76773">
        <ele>148</ele>
        <time>2008-12-08T11:57:57Z</time>
      </trkpt>
      <trkpt lat="44.7892" lon="0.76745">
        <ele>146</ele>
        <time>2008-12-08T11:58:01Z</time>
      </trkpt>
      <trkpt lat="44.7892" lon="0.76715">
        <ele>144</ele>
        <time>2008-12-08T11:58:06Z</time>
      </trkpt>
      <trkpt lat="44.78923" lon="0.76685">
        <ele>147</ele>
        <time>2008-12-08T11:58:11Z</time>
      </trkpt>
      <trkpt lat="44.78923" lon="0.76658">
        <ele>148</ele>
        <time>2008-12-08T11:58:19Z</time>
      </trkpt>
      <trkpt lat="44.78925" lon="0.76628">
        <ele>147</ele>
        <time>2008-12-08T11:58:32Z</time>
      </trkpt>
      <trkpt lat="44.78928" lon="0.76598">
        <ele>145</ele>
        <time>2008-12-08T11:58:38Z</time>
      </trkpt>
      <trkpt lat="44.7893" lon="0.7657">
        <ele>145</ele>
        <time>2008-12-08T11:58:45Z</time>
      </trkpt>
      <trkpt lat="44.7893" lon="0.7654">
        <ele>146</ele>
        <time>2008-12-08T11:58:53Z</time>
      </trkpt>
      <trkpt lat="44.7892" lon="0.76518">
        <ele>148</ele>
        <time>2008-12-08T11:59:00Z</time>
      </trkpt>
      <trkpt lat="44.78918" lon="0.7649">
        <ele>150</ele>
        <time>2008-12-08T11:59:08Z</time>
      </trkpt>
      <trkpt lat="44.78923" lon="0.76463">
        <ele>153</ele>
        <time>2008-12-08T11:59:15Z</time>
      </trkpt>
      <trkpt lat="44.7893" lon="0.76438">
        <ele>151</ele>
        <time>2008-12-08T11:59:21Z</time>
      </trkpt>
      <trkpt lat="44.7894" lon="0.76413">
        <ele>150</ele>
        <time>2008-12-08T11:59:27Z</time>
      </trkpt>
      <trkpt lat="44.7895" lon="0.76388">
        <ele>145</ele>
        <time>2008-12-08T11:59:33Z</time>
      </trkpt>
      <trkpt lat="44.7896" lon="0.76363">
        <ele>139</ele>
        <time>2008-12-08T11:59:40Z</time>
      </trkpt>
      <trkpt lat="44.7897" lon="0.7634">
        <ele>138</ele>
        <time>2008-12-08T11:59:45Z</time>
      </trkpt>
      <trkpt lat="44.78978" lon="0.76315">
        <ele>134</ele>
        <time>2008-12-08T11:59:50Z</time>
      </trkpt>
      <trkpt lat="44.78985" lon="0.76288">
        <ele>131</ele>
        <time>2008-12-08T11:59:55Z</time>
      </trkpt>
      <trkpt lat="44.78995" lon="0.76263">
        <ele>129</ele>
        <time>2008-12-08T12:00:01Z</time>
      </trkpt>
      <trkpt lat="44.79" lon="0.76235">
        <ele>130</ele>
        <time>2008-12-08T12:00:07Z</time>
      </trkpt>
      <trkpt lat="44.79013" lon="0.76213">
        <ele>128</ele>
        <time>2008-12-08T12:00:14Z</time>
      </trkpt>
      <trkpt lat="44.7903" lon="0.76203">
        <ele>130</ele>
        <time>2008-12-08T12:01:10Z</time>
      </trkpt>
      <trkpt lat="44.79048" lon="0.7619">
        <ele>130</ele>
        <time>2008-12-08T12:01:17Z</time>
      </trkpt>
      <trkpt lat="44.79065" lon="0.76175">
        <ele>124</ele>
        <time>2008-12-08T12:01:24Z</time>
      </trkpt>
      <trkpt lat="44.79083" lon="0.76163">
        <ele>125</ele>
        <time>2008-12-08T12:01:32Z</time>
      </trkpt>
      <trkpt lat="44.791" lon="0.7615">
        <ele>126</ele>
        <time>2008-12-08T12:01:40Z</time>
      </trkpt>
      <trkpt lat="44.79115" lon="0.76135">
        <ele>125</ele>
        <time>2008-12-08T12:01:47Z</time>
      </trkpt>
      <trkpt lat="44.79133" lon="0.76123">
        <ele>124</ele>
        <time>2008-12-08T12:01:54Z</time>
      </trkpt>
      <trkpt lat="44.79148" lon="0.76108">
        <ele>125</ele>
        <time>2008-12-08T12:02:00Z</time>
      </trkpt>
      <trkpt lat="44.79163" lon="0.7609">
        <ele>125</ele>
        <time>2008-12-08T12:02:07Z</time>
      </trkpt>
      <trkpt lat="44.7918" lon="0.76075">
        <ele>123</ele>
        <time>2008-12-08T12:02:23Z</time>
      </trkpt>
      <trkpt lat="44.79193" lon="0.76053">
        <ele>120</ele>
        <time>2008-12-08T12:02:30Z</time>
      </trkpt>
      <trkpt lat="44.79203" lon="0.7603">
        <ele>117</ele>
        <time>2008-12-08T12:02:36Z</time>
      </trkpt>
      <trkpt lat="44.79218" lon="0.7601">
        <ele>112</ele>
        <time>2008-12-08T12:02:42Z</time>
      </trkpt>
      <trkpt lat="44.79233" lon="0.75995">
        <ele>110</ele>
        <time>2008-12-08T12:02:49Z</time>
      </trkpt>
      <trkpt lat="44.7925" lon="0.75978">
        <ele>111</ele>
        <time>2008-12-08T12:02:55Z</time>
      </trkpt>
      <trkpt lat="44.79265" lon="0.75963">
        <ele>113</ele>
        <time>2008-12-08T12:03:00Z</time>
      </trkpt>
      <trkpt lat="44.7928" lon="0.75945">
        <ele>117</ele>
        <time>2008-12-08T12:03:05Z</time>
      </trkpt>
      <trkpt lat="44.79298" lon="0.75928">
        <ele>115</ele>
        <time>2008-12-08T12:03:11Z</time>
      </trkpt>
      <trkpt lat="44.7931" lon="0.75908">
        <ele>117</ele>
        <time>2008-12-08T12:03:16Z</time>
      </trkpt>
      <trkpt lat="44.79323" lon="0.75888">
        <ele>114</ele>
        <time>2008-12-08T12:03:22Z</time>
      </trkpt>
      <trkpt lat="44.79338" lon="0.75868">
        <ele>112</ele>
        <time>2008-12-08T12:03:28Z</time>
      </trkpt>
      <trkpt lat="44.79353" lon="0.75848">
        <ele>115</ele>
        <time>2008-12-08T12:03:34Z</time>
      </trkpt>
      <trkpt lat="44.7937" lon="0.75833">
        <ele>115</ele>
        <time>2008-12-08T12:03:40Z</time>
      </trkpt>
      <trkpt lat="44.7938" lon="0.7581">
        <ele>116</ele>
        <time>2008-12-08T12:03:45Z</time>
      </trkpt>
      <trkpt lat="44.79393" lon="0.75788">
        <ele>117</ele>
        <time>2008-12-08T12:03:52Z</time>
      </trkpt>
      <trkpt lat="44.79403" lon="0.75763">
        <ele>115</ele>
        <time>2008-12-08T12:03:58Z</time>
      </trkpt>
      <trkpt lat="44.79405" lon="0.75735">
        <ele>108</ele>
        <time>2008-12-08T12:04:05Z</time>
      </trkpt>
      <trkpt lat="44.79408" lon="0.75708">
        <ele>103</ele>
        <time>2008-12-08T12:04:10Z</time>
      </trkpt>
      <trkpt lat="44.79418" lon="0.7568">
        <ele>98</ele>
        <time>2008-12-08T12:04:17Z</time>
      </trkpt>
      <trkpt lat="44.79428" lon="0.75658">
        <ele>94</ele>
        <time>2008-12-08T12:04:22Z</time>
      </trkpt>
      <trkpt lat="44.79438" lon="0.75635">
        <ele>94</ele>
        <time>2008-12-08T12:04:30Z</time>
      </trkpt>
      <trkpt lat="44.79448" lon="0.7561">
        <ele>91</ele>
        <time>2008-12-08T12:04:37Z</time>
      </trkpt>
      <trkpt lat="44.79455" lon="0.75583">
        <ele>88</ele>
        <time>2008-12-08T12:04:44Z</time>
      </trkpt>
      <trkpt lat="44.79468" lon="0.75558">
        <ele>87</ele>
        <time>2008-12-08T12:04:51Z</time>
      </trkpt>
      <trkpt lat="44.79475" lon="0.75533">
        <ele>82</ele>
        <time>2008-12-08T12:04:58Z</time>
      </trkpt>
      <trkpt lat="44.7949" lon="0.7551">
        <ele>81</ele>
        <time>2008-12-08T12:05:04Z</time>
      </trkpt>
      <trkpt lat="44.79508" lon="0.75493">
        <ele>81</ele>
        <time>2008-12-08T12:05:10Z</time>
      </trkpt>
      <trkpt lat="44.79523" lon="0.75475">
        <ele>79</ele>
        <time>2008-12-08T12:05:16Z</time>
      </trkpt>
      <trkpt lat="44.79538" lon="0.7546">
        <ele>77</ele>
        <time>2008-12-08T12:05:23Z</time>
      </trkpt>
      <trkpt lat="44.79553" lon="0.75443">
        <ele>76</ele>
        <time>2008-12-08T12:05:31Z</time>
      </trkpt>
      <trkpt lat="44.79568" lon="0.75425">
        <ele>75</ele>
        <time>2008-12-08T12:05:38Z</time>
      </trkpt>
      <trkpt lat="44.79583" lon="0.7541">
        <ele>70</ele>
        <time>2008-12-08T12:05:49Z</time>
      </trkpt>
      <trkpt lat="44.79595" lon="0.7539">
        <ele>64</ele>
        <time>2008-12-08T12:07:57Z</time>
      </trkpt>
      <trkpt lat="44.79608" lon="0.7537">
        <ele>59</ele>
        <time>2008-12-08T12:08:15Z</time>
      </trkpt>
      <trkpt lat="44.79628" lon="0.75363">
        <ele>60</ele>
        <time>2008-12-08T12:08:19Z</time>
      </trkpt>
      <trkpt lat="44.7965" lon="0.75355">
        <ele>63</ele>
        <time>2008-12-08T12:08:23Z</time>
      </trkpt>
      <trkpt lat="44.79668" lon="0.75348">
        <ele>62</ele>
        <time>2008-12-08T12:08:26Z</time>
      </trkpt>
      <trkpt lat="44.79685" lon="0.75335">
        <ele>64</ele>
        <time>2008-12-08T12:08:29Z</time>
      </trkpt>
      <trkpt lat="44.797" lon="0.75313">
        <ele>61</ele>
        <time>2008-12-08T12:08:36Z</time>
      </trkpt>
      <trkpt lat="44.7971" lon="0.75288">
        <ele>62</ele>
        <time>2008-12-08T12:08:41Z</time>
      </trkpt>
      <trkpt lat="44.79703" lon="0.75263">
        <ele>60</ele>
        <time>2008-12-08T12:08:52Z</time>
      </trkpt>
      <trkpt lat="44.79688" lon="0.75238">
        <ele>58</ele>
        <time>2008-12-08T12:08:56Z</time>
      </trkpt>
      <trkpt lat="44.79675" lon="0.7521">
        <ele>57</ele>
        <time>2008-12-08T12:08:59Z</time>
      </trkpt>
      <trkpt lat="44.79658" lon="0.7518">
        <ele>58</ele>
        <time>2008-12-08T12:09:02Z</time>
      </trkpt>
      <trkpt lat="44.79643" lon="0.75153">
        <ele>60</ele>
        <time>2008-12-08T12:09:05Z</time>
      </trkpt>
      <trkpt lat="44.7963" lon="0.75125">
        <ele>59</ele>
        <time>2008-12-08T12:09:08Z</time>
      </trkpt>
      <trkpt lat="44.79618" lon="0.75098">
        <ele>57</ele>
        <time>2008-12-08T12:09:11Z</time>
      </trkpt>
      <trkpt lat="44.79603" lon="0.7507">
        <ele>58</ele>
        <time>2008-12-08T12:09:14Z</time>
      </trkpt>
      <trkpt lat="44.79588" lon="0.7504">
        <ele>57</ele>
        <time>2008-12-08T12:09:17Z</time>
      </trkpt>
      <trkpt lat="44.79575" lon="0.75013">
        <ele>57</ele>
        <time>2008-12-08T12:09:20Z</time>
      </trkpt>
      <trkpt lat="44.79563" lon="0.7499">
        <ele>59</ele>
        <time>2008-12-08T12:09:23Z</time>
      </trkpt>
      <trkpt lat="44.79548" lon="0.74975">
        <ele>60</ele>
        <time>2008-12-08T12:09:28Z</time>
      </trkpt>
      <trkpt lat="44.7953" lon="0.7499">
        <ele>63</ele>
        <time>2008-12-08T12:09:32Z</time>
      </trkpt>
      <trkpt lat="44.79513" lon="0.75">
        <ele>63</ele>
        <time>2008-12-08T12:09:34Z</time>
      </trkpt>
      <trkpt lat="44.79495" lon="0.7501">
        <ele>65</ele>
        <time>2008-12-08T12:09:38Z</time>
      </trkpt>
      <trkpt lat="44.79473" lon="0.75015">
        <ele>63</ele>
        <time>2008-12-08T12:09:41Z</time>
      </trkpt>
      <trkpt lat="44.79453" lon="0.7502">
        <ele>61</ele>
        <time>2008-12-08T12:09:44Z</time>
      </trkpt>
      <trkpt lat="44.79435" lon="0.7503">
        <ele>62</ele>
        <time>2008-12-08T12:09:47Z</time>
      </trkpt>
      <trkpt lat="44.79418" lon="0.7504">
        <ele>63</ele>
        <time>2008-12-08T12:09:50Z</time>
      </trkpt>
      <trkpt lat="44.794" lon="0.7505">
        <ele>63</ele>
        <time>2008-12-08T12:09:53Z</time>
      </trkpt>
      <trkpt lat="44.79383" lon="0.7506">
        <ele>64</ele>
        <time>2008-12-08T12:09:56Z</time>
      </trkpt>
      <trkpt lat="44.79363" lon="0.7506">
        <ele>64</ele>
        <time>2008-12-08T12:10:07Z</time>
      </trkpt>
      <trkpt lat="44.79358" lon="0.7503">
        <ele>65</ele>
        <time>2008-12-08T12:10:12Z</time>
      </trkpt>
      <trkpt lat="44.79355" lon="0.75003">
        <ele>65</ele>
        <time>2008-12-08T12:10:15Z</time>
      </trkpt>
      <trkpt lat="44.79353" lon="0.7497">
        <ele>66</ele>
        <time>2008-12-08T12:10:18Z</time>
      </trkpt>
      <trkpt lat="44.79353" lon="0.74933">
        <ele>67</ele>
        <time>2008-12-08T12:10:21Z</time>
      </trkpt>
      <trkpt lat="44.79353" lon="0.74905">
        <ele>67</ele>
        <time>2008-12-08T12:10:23Z</time>
      </trkpt>
      <trkpt lat="44.79358" lon="0.7487">
        <ele>70</ele>
        <time>2008-12-08T12:10:26Z</time>
      </trkpt>
      <trkpt lat="44.79363" lon="0.74845">
        <ele>72</ele>
        <time>2008-12-08T12:10:28Z</time>
      </trkpt>
      <trkpt lat="44.79373" lon="0.74823">
        <ele>72</ele>
        <time>2008-12-08T12:10:30Z</time>
      </trkpt>
      <trkpt lat="44.79385" lon="0.74803">
        <ele>74</ele>
        <time>2008-12-08T12:10:32Z</time>
      </trkpt>
      <trkpt lat="44.79395" lon="0.74773">
        <ele>75</ele>
        <time>2008-12-08T12:10:35Z</time>
      </trkpt>
      <trkpt lat="44.79402" lon="0.74754">
        <ele>78</ele>
        <time>2008-12-08T12:10:39Z</time>
      </trkpt>
      <trkpt lat="44.79403" lon="0.74741">
        <ele>79</ele>
        <time>2008-12-08T12:14:03Z</time>
      </trkpt>
    </trkseg>
  </trk>
  <trk>
    <name><![CDATA[BBmt02]]></name>
    <trkseg>
      <trkpt lat="44.79401" lon="0.74734">
        <ele>80</ele>
        <time>2008-12-08T14:18:40Z</time>
      </trkpt>
      <trkpt lat="44.79385" lon="0.7472">
        <ele>81</ele>
        <time>2008-12-08T14:18:48Z</time>
      </trkpt>
      <trkpt lat="44.79368" lon="0.74705">
        <ele>83</ele>
        <time>2008-12-08T14:18:51Z</time>
      </trkpt>
      <trkpt lat="44.79345" lon="0.74688">
        <ele>87</ele>
        <time>2008-12-08T14:18:54Z</time>
      </trkpt>
      <trkpt lat="44.79328" lon="0.74675">
        <ele>89</ele>
        <time>2008-12-08T14:18:56Z</time>
      </trkpt>
      <trkpt lat="44.79298" lon="0.7466">
        <ele>91</ele>
        <time>2008-12-08T14:18:59Z</time>
      </trkpt>
      <trkpt lat="44.79278" lon="0.7465">
        <ele>91</ele>
        <time>2008-12-08T14:19:01Z</time>
      </trkpt>
      <trkpt lat="44.79258" lon="0.7464">
        <ele>94</ele>
        <time>2008-12-08T14:19:03Z</time>
      </trkpt>
      <trkpt lat="44.79225" lon="0.74628">
        <ele>97</ele>
        <time>2008-12-08T14:19:06Z</time>
      </trkpt>
      <trkpt lat="44.79208" lon="0.7462">
        <ele>99</ele>
        <time>2008-12-08T14:19:08Z</time>
      </trkpt>
      <trkpt lat="44.79195" lon="0.74615">
        <ele>103</ele>
        <time>2008-12-08T14:19:26Z</time>
      </trkpt>
      <trkpt lat="44.79185" lon="0.7464">
        <ele>105</ele>
        <time>2008-12-08T14:20:09Z</time>
      </trkpt>
      <trkpt lat="44.79173" lon="0.7466">
        <ele>105</ele>
        <time>2008-12-08T14:20:15Z</time>
      </trkpt>
      <trkpt lat="44.79158" lon="0.74678">
        <ele>101</ele>
        <time>2008-12-08T14:20:22Z</time>
      </trkpt>
      <trkpt lat="44.79148" lon="0.747">
        <ele>103</ele>
        <time>2008-12-08T14:20:28Z</time>
      </trkpt>
      <trkpt lat="44.79138" lon="0.74728">
        <ele>110</ele>
        <time>2008-12-08T14:20:35Z</time>
      </trkpt>
      <trkpt lat="44.79128" lon="0.74753">
        <ele>113</ele>
        <time>2008-12-08T14:20:41Z</time>
      </trkpt>
      <trkpt lat="44.79113" lon="0.74773">
        <ele>115</ele>
        <time>2008-12-08T14:20:47Z</time>
      </trkpt>
      <trkpt lat="44.79095" lon="0.7478">
        <ele>118</ele>
        <time>2008-12-08T14:20:53Z</time>
      </trkpt>
      <trkpt lat="44.79078" lon="0.74788">
        <ele>121</ele>
        <time>2008-12-08T14:20:58Z</time>
      </trkpt>
      <trkpt lat="44.79058" lon="0.74798">
        <ele>120</ele>
        <time>2008-12-08T14:21:03Z</time>
      </trkpt>
      <trkpt lat="44.7904" lon="0.74813">
        <ele>120</ele>
        <time>2008-12-08T14:21:08Z</time>
      </trkpt>
      <trkpt lat="44.79023" lon="0.74828">
        <ele>122</ele>
        <time>2008-12-08T14:21:14Z</time>
      </trkpt>
      <trkpt lat="44.79008" lon="0.74843">
        <ele>127</ele>
        <time>2008-12-08T14:21:37Z</time>
      </trkpt>
      <trkpt lat="44.7899" lon="0.74853">
        <ele>130</ele>
        <time>2008-12-08T14:21:44Z</time>
      </trkpt>
      <trkpt lat="44.78973" lon="0.7486">
        <ele>130</ele>
        <time>2008-12-08T14:21:49Z</time>
      </trkpt>
      <trkpt lat="44.78955" lon="0.74875">
        <ele>130</ele>
        <time>2008-12-08T14:21:57Z</time>
      </trkpt>
      <trkpt lat="44.78935" lon="0.74888">
        <ele>128</ele>
        <time>2008-12-08T14:22:03Z</time>
      </trkpt>
      <trkpt lat="44.78915" lon="0.74898">
        <ele>127</ele>
        <time>2008-12-08T14:22:09Z</time>
      </trkpt>
      <trkpt lat="44.78898" lon="0.74913">
        <ele>125</ele>
        <time>2008-12-08T14:22:15Z</time>
      </trkpt>
      <trkpt lat="44.7888" lon="0.74928">
        <ele>123</ele>
        <time>2008-12-08T14:22:21Z</time>
      </trkpt>
      <trkpt lat="44.78865" lon="0.74943">
        <ele>124</ele>
        <time>2008-12-08T14:22:27Z</time>
      </trkpt>
      <trkpt lat="44.7885" lon="0.74958">
        <ele>123</ele>
        <time>2008-12-08T14:22:32Z</time>
      </trkpt>
      <trkpt lat="44.78835" lon="0.74973">
        <ele>122</ele>
        <time>2008-12-08T14:22:38Z</time>
      </trkpt>
      <trkpt lat="44.78818" lon="0.74985">
        <ele>121</ele>
        <time>2008-12-08T14:22:44Z</time>
      </trkpt>
      <trkpt lat="44.78803" lon="0.75">
        <ele>120</ele>
        <time>2008-12-08T14:22:51Z</time>
      </trkpt>
      <trkpt lat="44.78783" lon="0.75008">
        <ele>118</ele>
        <time>2008-12-08T14:22:57Z</time>
      </trkpt>
      <trkpt lat="44.78763" lon="0.75013">
        <ele>117</ele>
        <time>2008-12-08T14:23:03Z</time>
      </trkpt>
      <trkpt lat="44.7874" lon="0.75018">
        <ele>115</ele>
        <time>2008-12-08T14:23:09Z</time>
      </trkpt>
      <trkpt lat="44.7872" lon="0.7502">
        <ele>114</ele>
        <time>2008-12-08T14:23:16Z</time>
      </trkpt>
      <trkpt lat="44.787" lon="0.75028">
        <ele>111</ele>
        <time>2008-12-08T14:23:21Z</time>
      </trkpt>
      <trkpt lat="44.7868" lon="0.7504">
        <ele>109</ele>
        <time>2008-12-08T14:23:26Z</time>
      </trkpt>
      <trkpt lat="44.7866" lon="0.75055">
        <ele>107</ele>
        <time>2008-12-08T14:23:31Z</time>
      </trkpt>
      <trkpt lat="44.7864" lon="0.7507">
        <ele>106</ele>
        <time>2008-12-08T14:23:36Z</time>
      </trkpt>
      <trkpt lat="44.78623" lon="0.75078">
        <ele>103</ele>
        <time>2008-12-08T14:23:42Z</time>
      </trkpt>
      <trkpt lat="44.78608" lon="0.75063">
        <ele>103</ele>
        <time>2008-12-08T14:23:49Z</time>
      </trkpt>
      <trkpt lat="44.7859" lon="0.75053">
        <ele>106</ele>
        <time>2008-12-08T14:23:56Z</time>
      </trkpt>
      <trkpt lat="44.78573" lon="0.75045">
        <ele>106</ele>
        <time>2008-12-08T14:24:01Z</time>
      </trkpt>
      <trkpt lat="44.78555" lon="0.75035">
        <ele>103</ele>
        <time>2008-12-08T14:24:06Z</time>
      </trkpt>
      <trkpt lat="44.78535" lon="0.7502">
        <ele>100</ele>
        <time>2008-12-08T14:24:11Z</time>
      </trkpt>
      <trkpt lat="44.7852" lon="0.75003">
        <ele>99</ele>
        <time>2008-12-08T14:24:16Z</time>
      </trkpt>
      <trkpt lat="44.7851" lon="0.7498">
        <ele>97</ele>
        <time>2008-12-08T14:24:23Z</time>
      </trkpt>
      <trkpt lat="44.785" lon="0.75005">
        <ele>103</ele>
        <time>2008-12-08T14:24:44Z</time>
      </trkpt>
      <trkpt lat="44.785" lon="0.75035">
        <ele>98</ele>
        <time>2008-12-08T14:24:50Z</time>
      </trkpt>
      <trkpt lat="44.78508" lon="0.7506">
        <ele>94</ele>
        <time>2008-12-08T14:24:56Z</time>
      </trkpt>
      <trkpt lat="44.78513" lon="0.7509">
        <ele>89</ele>
        <time>2008-12-08T14:25:02Z</time>
      </trkpt>
      <trkpt lat="44.78513" lon="0.7512">
        <ele>85</ele>
        <time>2008-12-08T14:25:09Z</time>
      </trkpt>
      <trkpt lat="44.78518" lon="0.75145">
        <ele>86</ele>
        <time>2008-12-08T14:25:25Z</time>
      </trkpt>
      <trkpt lat="44.78525" lon="0.75173">
        <ele>85</ele>
        <time>2008-12-08T14:25:31Z</time>
      </trkpt>
      <trkpt lat="44.78525" lon="0.752">
        <ele>87</ele>
        <time>2008-12-08T14:25:46Z</time>
      </trkpt>
      <trkpt lat="44.78535" lon="0.75223">
        <ele>89</ele>
        <time>2008-12-08T14:25:52Z</time>
      </trkpt>
      <trkpt lat="44.78545" lon="0.75245">
        <ele>92</ele>
        <time>2008-12-08T14:25:58Z</time>
      </trkpt>
      <trkpt lat="44.78553" lon="0.7527">
        <ele>93</ele>
        <time>2008-12-08T14:26:04Z</time>
      </trkpt>
      <trkpt lat="44.78563" lon="0.75293">
        <ele>94</ele>
        <time>2008-12-08T14:26:10Z</time>
      </trkpt>
      <trkpt lat="44.78578" lon="0.75308">
        <ele>97</ele>
        <time>2008-12-08T14:26:16Z</time>
      </trkpt>
      <trkpt lat="44.78573" lon="0.75338">
        <ele>94</ele>
        <time>2008-12-08T14:26:30Z</time>
      </trkpt>
      <trkpt lat="44.78563" lon="0.75365">
        <ele>91</ele>
        <time>2008-12-08T14:26:35Z</time>
      </trkpt>
      <trkpt lat="44.7856" lon="0.75395">
        <ele>89</ele>
        <time>2008-12-08T14:26:39Z</time>
      </trkpt>
      <trkpt lat="44.78555" lon="0.7542">
        <ele>86</ele>
        <time>2008-12-08T14:26:42Z</time>
      </trkpt>
      <trkpt lat="44.78545" lon="0.7545">
        <ele>82</ele>
        <time>2008-12-08T14:26:46Z</time>
      </trkpt>
      <trkpt lat="44.78535" lon="0.75478">
        <ele>81</ele>
        <time>2008-12-08T14:26:49Z</time>
      </trkpt>
      <trkpt lat="44.78523" lon="0.75503">
        <ele>78</ele>
        <time>2008-12-08T14:26:52Z</time>
      </trkpt>
      <trkpt lat="44.78505" lon="0.75513">
        <ele>75</ele>
        <time>2008-12-08T14:26:55Z</time>
      </trkpt>
      <trkpt lat="44.785" lon="0.75543">
        <ele>72</ele>
        <time>2008-12-08T14:26:58Z</time>
      </trkpt>
      <trkpt lat="44.78515" lon="0.75563">
        <ele>70</ele>
        <time>2008-12-08T14:27:03Z</time>
      </trkpt>
      <trkpt lat="44.78535" lon="0.75558">
        <ele>75</ele>
        <time>2008-12-08T14:27:12Z</time>
      </trkpt>
      <trkpt lat="44.78515" lon="0.7557">
        <ele>71</ele>
        <time>2008-12-08T14:27:23Z</time>
      </trkpt>
      <trkpt lat="44.78493" lon="0.75563">
        <ele>70</ele>
        <time>2008-12-08T14:27:27Z</time>
      </trkpt>
      <trkpt lat="44.78483" lon="0.75538">
        <ele>70</ele>
        <time>2008-12-08T14:27:30Z</time>
      </trkpt>
      <trkpt lat="44.78468" lon="0.7551">
        <ele>67</ele>
        <time>2008-12-08T14:27:33Z</time>
      </trkpt>
      <trkpt lat="44.7845" lon="0.75498">
        <ele>68</ele>
        <time>2008-12-08T14:27:36Z</time>
      </trkpt>
      <trkpt lat="44.78433" lon="0.75488">
        <ele>70</ele>
        <time>2008-12-08T14:27:39Z</time>
      </trkpt>
      <trkpt lat="44.78418" lon="0.75465">
        <ele>69</ele>
        <time>2008-12-08T14:27:43Z</time>
      </trkpt>
      <trkpt lat="44.78405" lon="0.75443">
        <ele>69</ele>
        <time>2008-12-08T14:27:46Z</time>
      </trkpt>
      <trkpt lat="44.78393" lon="0.75415">
        <ele>68</ele>
        <time>2008-12-08T14:27:49Z</time>
      </trkpt>
      <trkpt lat="44.78378" lon="0.75383">
        <ele>68</ele>
        <time>2008-12-08T14:27:52Z</time>
      </trkpt>
      <trkpt lat="44.78365" lon="0.7536">
        <ele>68</ele>
        <time>2008-12-08T14:27:54Z</time>
      </trkpt>
      <trkpt lat="44.7835" lon="0.75328">
        <ele>70</ele>
        <time>2008-12-08T14:27:57Z</time>
      </trkpt>
      <trkpt lat="44.7834" lon="0.75303">
        <ele>71</ele>
        <time>2008-12-08T14:27:59Z</time>
      </trkpt>
      <trkpt lat="44.78335" lon="0.75278">
        <ele>72</ele>
        <time>2008-12-08T14:28:01Z</time>
      </trkpt>
      <trkpt lat="44.78325" lon="0.7524">
        <ele>73</ele>
        <time>2008-12-08T14:28:04Z</time>
      </trkpt>
      <trkpt lat="44.78313" lon="0.75218">
        <ele>73</ele>
        <time>2008-12-08T14:28:06Z</time>
      </trkpt>
      <trkpt lat="44.78293" lon="0.75188">
        <ele>74</ele>
        <time>2008-12-08T14:28:09Z</time>
      </trkpt>
      <trkpt lat="44.78273" lon="0.75165">
        <ele>77</ele>
        <time>2008-12-08T14:28:12Z</time>
      </trkpt>
      <trkpt lat="44.7825" lon="0.7515">
        <ele>77</ele>
        <time>2008-12-08T14:28:15Z</time>
      </trkpt>
      <trkpt lat="44.7823" lon="0.75145">
        <ele>78</ele>
        <time>2008-12-08T14:28:18Z</time>
      </trkpt>
      <trkpt lat="44.78205" lon="0.75148">
        <ele>80</ele>
        <time>2008-12-08T14:28:30Z</time>
      </trkpt>
      <trkpt lat="44.78183" lon="0.7515">
        <ele>80</ele>
        <time>2008-12-08T14:28:33Z</time>
      </trkpt>
      <trkpt lat="44.78155" lon="0.75153">
        <ele>79</ele>
        <time>2008-12-08T14:28:36Z</time>
      </trkpt>
      <trkpt lat="44.78128" lon="0.75148">
        <ele>79</ele>
        <time>2008-12-08T14:28:39Z</time>
      </trkpt>
      <trkpt lat="44.78098" lon="0.75143">
        <ele>79</ele>
        <time>2008-12-08T14:28:42Z</time>
      </trkpt>
      <trkpt lat="44.78075" lon="0.7514">
        <ele>80</ele>
        <time>2008-12-08T14:28:44Z</time>
      </trkpt>
      <trkpt lat="44.78048" lon="0.75133">
        <ele>81</ele>
        <time>2008-12-08T14:28:47Z</time>
      </trkpt>
      <trkpt lat="44.78028" lon="0.7513">
        <ele>82</ele>
        <time>2008-12-08T14:28:49Z</time>
      </trkpt>
      <trkpt lat="44.78005" lon="0.75133">
        <ele>82</ele>
        <time>2008-12-08T14:28:53Z</time>
      </trkpt>
    </trkseg>
  </trk>
  <trk>
    <name><![CDATA[BBmt03]]></name>
    <trkseg>
      <trkpt lat="44.79408" lon="0.74735">
        <ele>80</ele>
        <time>2008-12-08T12:14:03Z</time>
      </trkpt>
      <trkpt lat="44.7943" lon="0.74708">
        <ele>85</ele>
        <time>2008-12-08T12:14:08Z</time>
      </trkpt>
      <trkpt lat="44.79448" lon="0.74698">
        <ele>81</ele>
        <time>2008-12-08T12:14:14Z</time>
      </trkpt>
      <trkpt lat="44.79468" lon="0.747">
        <ele>87</ele>
        <time>2008-12-08T12:14:27Z</time>
      </trkpt>
      <trkpt lat="44.79414" lon="0.74653">
        <ele>93</ele>
        <time>2009-06-18T16:43:36Z</time>
      </trkpt>
      <trkpt lat="44.79345" lon="0.7458">
        <ele>103</ele>
        <time>2009-06-18T16:43:36Z</time>
      </trkpt>
      <trkpt lat="44.79336" lon="0.74568">
        <ele>104</ele>
        <time>2008-12-08T13:28:17Z</time>
      </trkpt>
      <trkpt lat="44.79328" lon="0.74563">
        <ele>113</ele>
        <time>2008-12-08T13:28:42Z</time>
      </trkpt>
      <trkpt lat="44.79335" lon="0.74538">
        <ele>106</ele>
        <time>2008-12-08T13:29:06Z</time>
      </trkpt>
      <trkpt lat="44.79343" lon="0.74513">
        <ele>105</ele>
        <time>2008-12-08T13:29:14Z</time>
      </trkpt>
      <trkpt lat="44.79353" lon="0.7449">
        <ele>108</ele>
        <time>2008-12-08T13:29:22Z</time>
      </trkpt>
      <trkpt lat="44.79363" lon="0.74468">
        <ele>110</ele>
        <time>2008-12-08T13:29:31Z</time>
      </trkpt>
      <trkpt lat="44.79375" lon="0.74443">
        <ele>108</ele>
        <time>2008-12-08T13:29:38Z</time>
      </trkpt>
      <trkpt lat="44.79388" lon="0.74418">
        <ele>110</ele>
        <time>2008-12-08T13:29:44Z</time>
      </trkpt>
      <trkpt lat="44.794" lon="0.74398">
        <ele>110</ele>
        <time>2008-12-08T13:29:53Z</time>
      </trkpt>
      <trkpt lat="44.79413" lon="0.74378">
        <ele>114</ele>
        <time>2008-12-08T13:30:06Z</time>
      </trkpt>
      <trkpt lat="44.79428" lon="0.74363">
        <ele>122</ele>
        <time>2008-12-08T13:30:13Z</time>
      </trkpt>
      <trkpt lat="44.79443" lon="0.74345">
        <ele>118</ele>
        <time>2008-12-08T13:30:22Z</time>
      </trkpt>
      <trkpt lat="44.79458" lon="0.74325">
        <ele>123</ele>
        <time>2008-12-08T13:30:32Z</time>
      </trkpt>
      <trkpt lat="44.79473" lon="0.74303">
        <ele>128</ele>
        <time>2008-12-08T13:30:40Z</time>
      </trkpt>
      <trkpt lat="44.79483" lon="0.7428">
        <ele>126</ele>
        <time>2008-12-08T13:30:46Z</time>
      </trkpt>
      <trkpt lat="44.79488" lon="0.74255">
        <ele>119</ele>
        <time>2008-12-08T13:30:52Z</time>
      </trkpt>
      <trkpt lat="44.79488" lon="0.74225">
        <ele>99</ele>
        <time>2008-12-08T13:30:58Z</time>
      </trkpt>
      <trkpt lat="44.79488" lon="0.74198">
        <ele>88</ele>
        <time>2008-12-08T13:31:07Z</time>
      </trkpt>
      <trkpt lat="44.79485" lon="0.7417">
        <ele>87</ele>
        <time>2008-12-08T13:31:14Z</time>
      </trkpt>
      <trkpt lat="44.79488" lon="0.74138">
        <ele>82</ele>
        <time>2008-12-08T13:31:19Z</time>
      </trkpt>
      <trkpt lat="44.79493" lon="0.74108">
        <ele>80</ele>
        <time>2008-12-08T13:31:25Z</time>
      </trkpt>
      <trkpt lat="44.79498" lon="0.74083">
        <ele>84</ele>
        <time>2008-12-08T13:31:30Z</time>
      </trkpt>
      <trkpt lat="44.79503" lon="0.74058">
        <ele>82</ele>
        <time>2008-12-08T13:31:35Z</time>
      </trkpt>
      <trkpt lat="44.79508" lon="0.7403">
        <ele>75</ele>
        <time>2008-12-08T13:31:42Z</time>
      </trkpt>
      <trkpt lat="44.7951" lon="0.74">
        <ele>67</ele>
        <time>2008-12-08T13:31:49Z</time>
      </trkpt>
      <trkpt lat="44.79515" lon="0.73975">
        <ele>62</ele>
        <time>2008-12-08T13:31:55Z</time>
      </trkpt>
      <trkpt lat="44.79518" lon="0.73948">
        <ele>59</ele>
        <time>2008-12-08T13:32:01Z</time>
      </trkpt>
      <trkpt lat="44.79528" lon="0.73923">
        <ele>58</ele>
        <time>2008-12-08T13:32:07Z</time>
      </trkpt>
      <trkpt lat="44.79535" lon="0.73895">
        <ele>59</ele>
        <time>2008-12-08T13:32:53Z</time>
      </trkpt>
      <trkpt lat="44.7954" lon="0.73868">
        <ele>61</ele>
        <time>2008-12-08T13:32:58Z</time>
      </trkpt>
      <trkpt lat="44.79553" lon="0.73843">
        <ele>61</ele>
        <time>2008-12-08T13:33:03Z</time>
      </trkpt>
      <trkpt lat="44.79563" lon="0.7382">
        <ele>64</ele>
        <time>2008-12-08T13:33:07Z</time>
      </trkpt>
      <trkpt lat="44.79578" lon="0.73805">
        <ele>71</ele>
        <time>2008-12-08T13:33:11Z</time>
      </trkpt>
      <trkpt lat="44.79598" lon="0.7379">
        <ele>78</ele>
        <time>2008-12-08T13:33:17Z</time>
      </trkpt>
      <trkpt lat="44.79615" lon="0.73775">
        <ele>83</ele>
        <time>2008-12-08T13:33:22Z</time>
      </trkpt>
      <trkpt lat="44.79635" lon="0.73763">
        <ele>92</ele>
        <time>2008-12-08T13:33:27Z</time>
      </trkpt>
      <trkpt lat="44.7965" lon="0.73748">
        <ele>95</ele>
        <time>2008-12-08T13:33:31Z</time>
      </trkpt>
      <trkpt lat="44.79665" lon="0.73733">
        <ele>97</ele>
        <time>2008-12-08T13:33:37Z</time>
      </trkpt>
      <trkpt lat="44.79683" lon="0.73718">
        <ele>97</ele>
        <time>2008-12-08T13:33:43Z</time>
      </trkpt>
      <trkpt lat="44.797" lon="0.737">
        <ele>100</ele>
        <time>2008-12-08T13:33:48Z</time>
      </trkpt>
      <trkpt lat="44.79715" lon="0.7368">
        <ele>104</ele>
        <time>2008-12-08T13:33:53Z</time>
      </trkpt>
      <trkpt lat="44.79735" lon="0.73663">
        <ele>104</ele>
        <time>2008-12-08T13:33:58Z</time>
      </trkpt>
      <trkpt lat="44.79753" lon="0.73645">
        <ele>105</ele>
        <time>2008-12-08T13:34:02Z</time>
      </trkpt>
      <trkpt lat="44.79768" lon="0.73625">
        <ele>109</ele>
        <time>2008-12-08T13:34:07Z</time>
      </trkpt>
      <trkpt lat="44.79783" lon="0.73608">
        <ele>117</ele>
        <time>2008-12-08T13:34:11Z</time>
      </trkpt>
      <trkpt lat="44.79795" lon="0.73588">
        <ele>119</ele>
        <time>2008-12-08T13:34:15Z</time>
      </trkpt>
      <trkpt lat="44.7981" lon="0.73563">
        <ele>107</ele>
        <time>2008-12-08T13:34:20Z</time>
      </trkpt>
      <trkpt lat="44.7982" lon="0.7354">
        <ele>89</ele>
        <time>2008-12-08T13:34:24Z</time>
      </trkpt>
      <trkpt lat="44.79835" lon="0.73523">
        <ele>83</ele>
        <time>2008-12-08T13:34:29Z</time>
      </trkpt>
    </trkseg>
  </trk>
  <trk>
    <name><![CDATA[BBmt04]]></name>
    <trkseg>
      <trkpt lat="44.79836" lon="0.73508">
        <ele>56</ele>
        <time>2008-12-09T13:04:50Z</time>
      </trkpt>
      <trkpt lat="44.79821" lon="0.73482">
        <ele>57</ele>
        <time>2009-06-18T16:43:36Z</time>
      </trkpt>
      <trkpt lat="44.79532" lon="0.72741">
        <ele>84</ele>
        <time>2009-06-18T16:43:36Z</time>
      </trkpt>
      <trkpt lat="44.79153" lon="0.71798">
        <ele>144</ele>
        <time>2009-06-18T16:43:36Z</time>
      </trkpt>
      <trkpt lat="44.79133" lon="0.71793">
        <ele>148</ele>
        <time>2008-12-09T13:05:10Z</time>
      </trkpt>
      <trkpt lat="44.79113" lon="0.71788">
        <ele>146</ele>
        <time>2008-12-09T13:05:25Z</time>
      </trkpt>
      <trkpt lat="44.79095" lon="0.71778">
        <ele>147</ele>
        <time>2008-12-09T13:05:30Z</time>
      </trkpt>
      <trkpt lat="44.79078" lon="0.7177">
        <ele>147</ele>
        <time>2008-12-09T13:05:35Z</time>
      </trkpt>
      <trkpt lat="44.7906" lon="0.71763">
        <ele>148</ele>
        <time>2008-12-09T13:05:48Z</time>
      </trkpt>
      <trkpt lat="44.7904" lon="0.7176">
        <ele>149</ele>
        <time>2008-12-09T13:05:52Z</time>
      </trkpt>
      <trkpt lat="44.79018" lon="0.71753">
        <ele>150</ele>
        <time>2008-12-09T13:05:56Z</time>
      </trkpt>
      <trkpt lat="44.79" lon="0.7174">
        <ele>151</ele>
        <time>2008-12-09T13:05:59Z</time>
      </trkpt>
      <trkpt lat="44.78983" lon="0.71728">
        <ele>153</ele>
        <time>2008-12-09T13:06:04Z</time>
      </trkpt>
      <trkpt lat="44.7897" lon="0.71748">
        <ele>154</ele>
        <time>2008-12-09T13:06:19Z</time>
      </trkpt>
      <trkpt lat="44.7896" lon="0.7177">
        <ele>158</ele>
        <time>2008-12-09T13:06:28Z</time>
      </trkpt>
      <trkpt lat="44.78945" lon="0.71788">
        <ele>160</ele>
        <time>2008-12-09T13:06:36Z</time>
      </trkpt>
      <trkpt lat="44.78928" lon="0.71798">
        <ele>159</ele>
        <time>2008-12-09T13:06:44Z</time>
      </trkpt>
      <trkpt lat="44.78913" lon="0.71818">
        <ele>161</ele>
        <time>2008-12-09T13:07:01Z</time>
      </trkpt>
      <trkpt lat="44.78895" lon="0.7183">
        <ele>156</ele>
        <time>2008-12-09T13:07:09Z</time>
      </trkpt>
      <trkpt lat="44.78878" lon="0.71843">
        <ele>155</ele>
        <time>2008-12-09T13:07:16Z</time>
      </trkpt>
      <trkpt lat="44.7886" lon="0.71855">
        <ele>153</ele>
        <time>2008-12-09T13:07:22Z</time>
      </trkpt>
      <trkpt lat="44.78843" lon="0.71865">
        <ele>150</ele>
        <time>2008-12-09T13:07:27Z</time>
      </trkpt>
      <trkpt lat="44.78823" lon="0.71868">
        <ele>148</ele>
        <time>2008-12-09T13:07:32Z</time>
      </trkpt>
      <trkpt lat="44.788" lon="0.71865">
        <ele>145</ele>
        <time>2008-12-09T13:07:38Z</time>
      </trkpt>
      <trkpt lat="44.78783" lon="0.71855">
        <ele>143</ele>
        <time>2008-12-09T13:07:43Z</time>
      </trkpt>
      <trkpt lat="44.78765" lon="0.71848">
        <ele>141</ele>
        <time>2008-12-09T13:07:48Z</time>
      </trkpt>
      <trkpt lat="44.78748" lon="0.7184">
        <ele>138</ele>
        <time>2008-12-09T13:07:54Z</time>
      </trkpt>
      <trkpt lat="44.7873" lon="0.7183">
        <ele>140</ele>
        <time>2008-12-09T13:08:00Z</time>
      </trkpt>
      <trkpt lat="44.7871" lon="0.71818">
        <ele>139</ele>
        <time>2008-12-09T13:08:05Z</time>
      </trkpt>
      <trkpt lat="44.7869" lon="0.71818">
        <ele>138</ele>
        <time>2008-12-09T13:08:11Z</time>
      </trkpt>
      <trkpt lat="44.78675" lon="0.71835">
        <ele>132</ele>
        <time>2008-12-09T13:08:17Z</time>
      </trkpt>
      <trkpt lat="44.78663" lon="0.71855">
        <ele>129</ele>
        <time>2008-12-09T13:08:21Z</time>
      </trkpt>
      <trkpt lat="44.78648" lon="0.71875">
        <ele>125</ele>
        <time>2008-12-09T13:08:25Z</time>
      </trkpt>
      <trkpt lat="44.78635" lon="0.71898">
        <ele>123</ele>
        <time>2008-12-09T13:08:30Z</time>
      </trkpt>
      <trkpt lat="44.7862" lon="0.71918">
        <ele>125</ele>
        <time>2008-12-09T13:08:36Z</time>
      </trkpt>
      <trkpt lat="44.78605" lon="0.71935">
        <ele>121</ele>
        <time>2008-12-09T13:09:06Z</time>
      </trkpt>
      <trkpt lat="44.78585" lon="0.71928">
        <ele>120</ele>
        <time>2008-12-09T13:09:14Z</time>
      </trkpt>
      <trkpt lat="44.78565" lon="0.71915">
        <ele>125</ele>
        <time>2008-12-09T13:09:22Z</time>
      </trkpt>
      <trkpt lat="44.78548" lon="0.71903">
        <ele>130</ele>
        <time>2008-12-09T13:09:28Z</time>
      </trkpt>
      <trkpt lat="44.7853" lon="0.71893">
        <ele>131</ele>
        <time>2008-12-09T13:09:36Z</time>
      </trkpt>
      <trkpt lat="44.78515" lon="0.71878">
        <ele>129</ele>
        <time>2008-12-09T13:09:42Z</time>
      </trkpt>
      <trkpt lat="44.78495" lon="0.71875">
        <ele>133</ele>
        <time>2008-12-09T13:09:48Z</time>
      </trkpt>
      <trkpt lat="44.78475" lon="0.71873">
        <ele>136</ele>
        <time>2008-12-09T13:09:56Z</time>
      </trkpt>
      <trkpt lat="44.78455" lon="0.7187">
        <ele>140</ele>
        <time>2008-12-09T13:10:03Z</time>
      </trkpt>
      <trkpt lat="44.78435" lon="0.71868">
        <ele>144</ele>
        <time>2008-12-09T13:10:10Z</time>
      </trkpt>
      <trkpt lat="44.78415" lon="0.71863">
        <ele>145</ele>
        <time>2008-12-09T13:10:16Z</time>
      </trkpt>
      <trkpt lat="44.78398" lon="0.7185">
        <ele>149</ele>
        <time>2008-12-09T13:10:23Z</time>
      </trkpt>
      <trkpt lat="44.7838" lon="0.71843">
        <ele>152</ele>
        <time>2008-12-09T13:10:29Z</time>
      </trkpt>
      <trkpt lat="44.78358" lon="0.71845">
        <ele>151</ele>
        <time>2008-12-09T13:10:36Z</time>
      </trkpt>
      <trkpt lat="44.78338" lon="0.71848">
        <ele>151</ele>
        <time>2008-12-09T13:10:44Z</time>
      </trkpt>
      <trkpt lat="44.78315" lon="0.71843">
        <ele>150</ele>
        <time>2008-12-09T13:10:51Z</time>
      </trkpt>
      <trkpt lat="44.78295" lon="0.71838">
        <ele>152</ele>
        <time>2008-12-09T13:10:59Z</time>
      </trkpt>
      <trkpt lat="44.78275" lon="0.71838">
        <ele>153</ele>
        <time>2008-12-09T13:11:07Z</time>
      </trkpt>
      <trkpt lat="44.78255" lon="0.71838">
        <ele>153</ele>
        <time>2008-12-09T13:11:12Z</time>
      </trkpt>
      <trkpt lat="44.78235" lon="0.7184">
        <ele>150</ele>
        <time>2008-12-09T13:11:18Z</time>
      </trkpt>
      <trkpt lat="44.78215" lon="0.71843">
        <ele>146</ele>
        <time>2008-12-09T13:11:24Z</time>
      </trkpt>
      <trkpt lat="44.78195" lon="0.71843">
        <ele>142</ele>
        <time>2008-12-09T13:11:29Z</time>
      </trkpt>
      <trkpt lat="44.78175" lon="0.7184">
        <ele>140</ele>
        <time>2008-12-09T13:11:36Z</time>
      </trkpt>
      <trkpt lat="44.78153" lon="0.7184">
        <ele>137</ele>
        <time>2008-12-09T13:11:42Z</time>
      </trkpt>
      <trkpt lat="44.78133" lon="0.7184">
        <ele>135</ele>
        <time>2008-12-09T13:11:47Z</time>
      </trkpt>
      <trkpt lat="44.78113" lon="0.71838">
        <ele>137</ele>
        <time>2008-12-09T13:11:56Z</time>
      </trkpt>
    </trkseg>
  </trk>
  <trk>
    <name><![CDATA[BBmt05]]></name>
    <trkseg>
      <trkpt lat="44.78" lon="0.75125">
        <ele>90</ele>
        <time>2008-12-08T14:29:21Z</time>
      </trkpt>
      <trkpt lat="44.7799" lon="0.75103">
        <ele>91</ele>
        <time>2008-12-08T14:39:05Z</time>
      </trkpt>
      <trkpt lat="44.77983" lon="0.75073">
        <ele>93</ele>
        <time>2008-12-08T14:39:16Z</time>
      </trkpt>
      <trkpt lat="44.77973" lon="0.7505">
        <ele>94</ele>
        <time>2008-12-08T14:39:20Z</time>
      </trkpt>
      <trkpt lat="44.77965" lon="0.7502">
        <ele>97</ele>
        <time>2008-12-08T14:39:24Z</time>
      </trkpt>
      <trkpt lat="44.77955" lon="0.74993">
        <ele>97</ele>
        <time>2008-12-08T14:39:27Z</time>
      </trkpt>
      <trkpt lat="44.77943" lon="0.7496">
        <ele>100</ele>
        <time>2008-12-08T14:39:30Z</time>
      </trkpt>
      <trkpt lat="44.77933" lon="0.7493">
        <ele>104</ele>
        <time>2008-12-08T14:39:33Z</time>
      </trkpt>
      <trkpt lat="44.77925" lon="0.749">
        <ele>105</ele>
        <time>2008-12-08T14:39:36Z</time>
      </trkpt>
      <trkpt lat="44.7792" lon="0.74863">
        <ele>108</ele>
        <time>2008-12-08T14:39:39Z</time>
      </trkpt>
      <trkpt lat="44.77918" lon="0.74828">
        <ele>110</ele>
        <time>2008-12-08T14:39:42Z</time>
      </trkpt>
      <trkpt lat="44.77918" lon="0.74795">
        <ele>112</ele>
        <time>2008-12-08T14:39:45Z</time>
      </trkpt>
      <trkpt lat="44.7792" lon="0.74763">
        <ele>113</ele>
        <time>2008-12-08T14:39:48Z</time>
      </trkpt>
      <trkpt lat="44.77925" lon="0.74733">
        <ele>112</ele>
        <time>2008-12-08T14:39:51Z</time>
      </trkpt>
      <trkpt lat="44.77928" lon="0.747">
        <ele>111</ele>
        <time>2008-12-08T14:39:54Z</time>
      </trkpt>
      <trkpt lat="44.77935" lon="0.74673">
        <ele>110</ele>
        <time>2008-12-08T14:39:57Z</time>
      </trkpt>
      <trkpt lat="44.77945" lon="0.74648">
        <ele>109</ele>
        <time>2008-12-08T14:40:00Z</time>
      </trkpt>
      <trkpt lat="44.77958" lon="0.74623">
        <ele>108</ele>
        <time>2008-12-08T14:40:03Z</time>
      </trkpt>
      <trkpt lat="44.77975" lon="0.746">
        <ele>106</ele>
        <time>2008-12-08T14:40:05Z</time>
      </trkpt>
      <trkpt lat="44.77993" lon="0.74575">
        <ele>103</ele>
        <time>2008-12-08T14:40:09Z</time>
      </trkpt>
      <trkpt lat="44.7801" lon="0.74548">
        <ele>102</ele>
        <time>2008-12-08T14:40:12Z</time>
      </trkpt>
      <trkpt lat="44.7803" lon="0.74523">
        <ele>99</ele>
        <time>2008-12-08T14:40:15Z</time>
      </trkpt>
      <trkpt lat="44.7805" lon="0.74498">
        <ele>94</ele>
        <time>2008-12-08T14:40:18Z</time>
      </trkpt>
      <trkpt lat="44.7807" lon="0.7448">
        <ele>93</ele>
        <time>2008-12-08T14:40:21Z</time>
      </trkpt>
      <trkpt lat="44.78088" lon="0.74463">
        <ele>92</ele>
        <time>2008-12-08T14:40:24Z</time>
      </trkpt>
      <trkpt lat="44.78093" lon="0.74428">
        <ele>90</ele>
        <time>2008-12-08T14:40:28Z</time>
      </trkpt>
      <trkpt lat="44.78085" lon="0.74393">
        <ele>90</ele>
        <time>2008-12-08T14:40:31Z</time>
      </trkpt>
      <trkpt lat="44.78078" lon="0.74365">
        <ele>90</ele>
        <time>2008-12-08T14:40:33Z</time>
      </trkpt>
      <trkpt lat="44.78075" lon="0.74338">
        <ele>93</ele>
        <time>2008-12-08T14:40:35Z</time>
      </trkpt>
      <trkpt lat="44.78075" lon="0.7431">
        <ele>95</ele>
        <time>2008-12-08T14:40:37Z</time>
      </trkpt>
      <trkpt lat="44.78088" lon="0.74268">
        <ele>99</ele>
        <time>2008-12-08T14:40:40Z</time>
      </trkpt>
      <trkpt lat="44.781" lon="0.7424">
        <ele>101</ele>
        <time>2008-12-08T14:40:42Z</time>
      </trkpt>
      <trkpt lat="44.78115" lon="0.74218">
        <ele>104</ele>
        <time>2008-12-08T14:40:44Z</time>
      </trkpt>
      <trkpt lat="44.7813" lon="0.74193">
        <ele>106</ele>
        <time>2008-12-08T14:40:46Z</time>
      </trkpt>
      <trkpt lat="44.7815" lon="0.7416">
        <ele>109</ele>
        <time>2008-12-08T14:40:49Z</time>
      </trkpt>
      <trkpt lat="44.78163" lon="0.7414">
        <ele>112</ele>
        <time>2008-12-08T14:40:51Z</time>
      </trkpt>
      <trkpt lat="44.78178" lon="0.74113">
        <ele>114</ele>
        <time>2008-12-08T14:40:54Z</time>
      </trkpt>
      <trkpt lat="44.78195" lon="0.74083">
        <ele>116</ele>
        <time>2008-12-08T14:40:57Z</time>
      </trkpt>
      <trkpt lat="44.78205" lon="0.7406">
        <ele>120</ele>
        <time>2008-12-08T14:40:59Z</time>
      </trkpt>
      <trkpt lat="44.78215" lon="0.74038">
        <ele>122</ele>
        <time>2008-12-08T14:41:01Z</time>
      </trkpt>
      <trkpt lat="44.78223" lon="0.74008">
        <ele>125</ele>
        <time>2008-12-08T14:41:04Z</time>
      </trkpt>
      <trkpt lat="44.78233" lon="0.73985">
        <ele>131</ele>
        <time>2008-12-08T14:41:09Z</time>
      </trkpt>
      <trkpt lat="44.78238" lon="0.7396">
        <ele>136</ele>
        <time>2008-12-08T14:41:24Z</time>
      </trkpt>
      <trkpt lat="44.78243" lon="0.73935">
        <ele>141</ele>
        <time>2008-12-08T14:41:30Z</time>
      </trkpt>
      <trkpt lat="44.78248" lon="0.73905">
        <ele>144</ele>
        <time>2008-12-08T14:41:34Z</time>
      </trkpt>
      <trkpt lat="44.78253" lon="0.73878">
        <ele>148</ele>
        <time>2008-12-08T14:41:38Z</time>
      </trkpt>
      <trkpt lat="44.78255" lon="0.7385">
        <ele>152</ele>
        <time>2008-12-08T14:41:42Z</time>
      </trkpt>
      <trkpt lat="44.78258" lon="0.7382">
        <ele>156</ele>
        <time>2008-12-08T14:41:48Z</time>
      </trkpt>
      <trkpt lat="44.7826" lon="0.7379">
        <ele>155</ele>
        <time>2008-12-08T14:41:53Z</time>
      </trkpt>
      <trkpt lat="44.7826" lon="0.73763">
        <ele>152</ele>
        <time>2008-12-08T14:41:57Z</time>
      </trkpt>
      <trkpt lat="44.78258" lon="0.7373">
        <ele>149</ele>
        <time>2008-12-08T14:42:01Z</time>
      </trkpt>
      <trkpt lat="44.78253" lon="0.73703">
        <ele>147</ele>
        <time>2008-12-08T14:42:05Z</time>
      </trkpt>
      <trkpt lat="44.78243" lon="0.73678">
        <ele>144</ele>
        <time>2008-12-08T14:42:09Z</time>
      </trkpt>
      <trkpt lat="44.78235" lon="0.73653">
        <ele>143</ele>
        <time>2008-12-08T14:42:13Z</time>
      </trkpt>
      <trkpt lat="44.78225" lon="0.7363">
        <ele>144</ele>
        <time>2008-12-08T14:42:17Z</time>
      </trkpt>
      <trkpt lat="44.7822" lon="0.73605">
        <ele>143</ele>
        <time>2008-12-08T14:42:22Z</time>
      </trkpt>
      <trkpt lat="44.78215" lon="0.7358">
        <ele>141</ele>
        <time>2008-12-08T14:42:27Z</time>
      </trkpt>
      <trkpt lat="44.78203" lon="0.7356">
        <ele>136</ele>
        <time>2008-12-08T14:42:33Z</time>
      </trkpt>
      <trkpt lat="44.78188" lon="0.7354">
        <ele>129</ele>
        <time>2008-12-08T14:42:39Z</time>
      </trkpt>
      <trkpt lat="44.78173" lon="0.7352">
        <ele>125</ele>
        <time>2008-12-08T14:42:45Z</time>
      </trkpt>
      <trkpt lat="44.78155" lon="0.73503">
        <ele>124</ele>
        <time>2008-12-08T14:42:50Z</time>
      </trkpt>
      <trkpt lat="44.7814" lon="0.73483">
        <ele>118</ele>
        <time>2008-12-08T14:42:56Z</time>
      </trkpt>
      <trkpt lat="44.78123" lon="0.73463">
        <ele>118</ele>
        <time>2008-12-08T14:43:00Z</time>
      </trkpt>
      <trkpt lat="44.78108" lon="0.73445">
        <ele>118</ele>
        <time>2008-12-08T14:43:04Z</time>
      </trkpt>
      <trkpt lat="44.78093" lon="0.73425">
        <ele>117</ele>
        <time>2008-12-08T14:43:09Z</time>
      </trkpt>
      <trkpt lat="44.78078" lon="0.73408">
        <ele>118</ele>
        <time>2008-12-08T14:43:16Z</time>
      </trkpt>
      <trkpt lat="44.7806" lon="0.73393">
        <ele>117</ele>
        <time>2008-12-08T14:43:21Z</time>
      </trkpt>
      <trkpt lat="44.7805" lon="0.73365">
        <ele>118</ele>
        <time>2008-12-08T14:43:27Z</time>
      </trkpt>
      <trkpt lat="44.78043" lon="0.7334">
        <ele>120</ele>
        <time>2008-12-08T14:43:30Z</time>
      </trkpt>
      <trkpt lat="44.78045" lon="0.7331">
        <ele>121</ele>
        <time>2008-12-08T14:43:36Z</time>
      </trkpt>
      <trkpt lat="44.78055" lon="0.73283">
        <ele>122</ele>
        <time>2008-12-08T14:43:40Z</time>
      </trkpt>
      <trkpt lat="44.7806" lon="0.73258">
        <ele>122</ele>
        <time>2008-12-08T14:43:44Z</time>
      </trkpt>
      <trkpt lat="44.78068" lon="0.73228">
        <ele>122</ele>
        <time>2008-12-08T14:43:48Z</time>
      </trkpt>
      <trkpt lat="44.7807" lon="0.73195">
        <ele>121</ele>
        <time>2008-12-08T14:43:53Z</time>
      </trkpt>
      <trkpt lat="44.78073" lon="0.73168">
        <ele>125</ele>
        <time>2008-12-08T14:43:57Z</time>
      </trkpt>
      <trkpt lat="44.7808" lon="0.7314">
        <ele>129</ele>
        <time>2008-12-08T14:44:01Z</time>
      </trkpt>
      <trkpt lat="44.78088" lon="0.7311">
        <ele>133</ele>
        <time>2008-12-08T14:44:05Z</time>
      </trkpt>
      <trkpt lat="44.7809" lon="0.7308">
        <ele>136</ele>
        <time>2008-12-08T14:44:11Z</time>
      </trkpt>
      <trkpt lat="44.78093" lon="0.7305">
        <ele>139</ele>
        <time>2008-12-08T14:44:16Z</time>
      </trkpt>
      <trkpt lat="44.78095" lon="0.7302">
        <ele>140</ele>
        <time>2008-12-08T14:44:20Z</time>
      </trkpt>
      <trkpt lat="44.781" lon="0.7299">
        <ele>142</ele>
        <time>2008-12-08T14:44:24Z</time>
      </trkpt>
      <trkpt lat="44.78103" lon="0.72958">
        <ele>145</ele>
        <time>2008-12-08T14:44:29Z</time>
      </trkpt>
      <trkpt lat="44.78105" lon="0.72925">
        <ele>148</ele>
        <time>2008-12-08T14:44:34Z</time>
      </trkpt>
      <trkpt lat="44.78108" lon="0.72895">
        <ele>152</ele>
        <time>2008-12-08T14:44:39Z</time>
      </trkpt>
      <trkpt lat="44.7811" lon="0.72863">
        <ele>155</ele>
        <time>2008-12-08T14:44:43Z</time>
      </trkpt>
      <trkpt lat="44.7811" lon="0.72833">
        <ele>157</ele>
        <time>2008-12-08T14:44:49Z</time>
      </trkpt>
      <trkpt lat="44.7811" lon="0.72805">
        <ele>159</ele>
        <time>2008-12-08T14:44:53Z</time>
      </trkpt>
      <trkpt lat="44.78108" lon="0.72773">
        <ele>164</ele>
        <time>2008-12-08T14:44:57Z</time>
      </trkpt>
      <trkpt lat="44.78108" lon="0.7274">
        <ele>166</ele>
        <time>2008-12-08T14:45:01Z</time>
      </trkpt>
      <trkpt lat="44.78105" lon="0.72713">
        <ele>167</ele>
        <time>2008-12-08T14:45:06Z</time>
      </trkpt>
      <trkpt lat="44.781" lon="0.72688">
        <ele>160</ele>
        <time>2008-12-08T14:45:23Z</time>
      </trkpt>
      <trkpt lat="44.781" lon="0.7266">
        <ele>159</ele>
        <time>2008-12-08T14:45:35Z</time>
      </trkpt>
      <trkpt lat="44.78098" lon="0.7263">
        <ele>159</ele>
        <time>2008-12-08T14:45:41Z</time>
      </trkpt>
      <trkpt lat="44.78095" lon="0.72603">
        <ele>158</ele>
        <time>2008-12-08T14:45:45Z</time>
      </trkpt>
      <trkpt lat="44.7809" lon="0.72575">
        <ele>156</ele>
        <time>2008-12-08T14:45:55Z</time>
      </trkpt>
      <trkpt lat="44.78088" lon="0.72545">
        <ele>153</ele>
        <time>2008-12-08T14:46:00Z</time>
      </trkpt>
      <trkpt lat="44.78083" lon="0.7252">
        <ele>149</ele>
        <time>2008-12-08T14:46:04Z</time>
      </trkpt>
      <trkpt lat="44.7808" lon="0.7249">
        <ele>149</ele>
        <time>2008-12-08T14:46:09Z</time>
      </trkpt>
      <trkpt lat="44.78078" lon="0.72458">
        <ele>150</ele>
        <time>2008-12-08T14:46:14Z</time>
      </trkpt>
      <trkpt lat="44.78075" lon="0.72425">
        <ele>151</ele>
        <time>2008-12-08T14:46:19Z</time>
      </trkpt>
      <trkpt lat="44.78073" lon="0.72395">
        <ele>152</ele>
        <time>2008-12-08T14:46:23Z</time>
      </trkpt>
      <trkpt lat="44.7807" lon="0.72368">
        <ele>154</ele>
        <time>2008-12-08T14:46:27Z</time>
      </trkpt>
      <trkpt lat="44.78078" lon="0.72343">
        <ele>155</ele>
        <time>2008-12-08T14:46:31Z</time>
      </trkpt>
      <trkpt lat="44.78085" lon="0.72318">
        <ele>155</ele>
        <time>2008-12-08T14:46:34Z</time>
      </trkpt>
      <trkpt lat="44.7809" lon="0.72293">
        <ele>155</ele>
        <time>2008-12-08T14:46:36Z</time>
      </trkpt>
      <trkpt lat="44.78093" lon="0.7226">
        <ele>156</ele>
        <time>2008-12-08T14:46:41Z</time>
      </trkpt>
      <trkpt lat="44.78093" lon="0.72233">
        <ele>155</ele>
        <time>2008-12-08T14:46:46Z</time>
      </trkpt>
      <trkpt lat="44.78095" lon="0.72205">
        <ele>152</ele>
        <time>2008-12-08T14:46:50Z</time>
      </trkpt>
      <trkpt lat="44.78095" lon="0.72178">
        <ele>151</ele>
        <time>2008-12-08T14:46:54Z</time>
      </trkpt>
      <trkpt lat="44.78093" lon="0.7215">
        <ele>148</ele>
        <time>2008-12-08T14:46:58Z</time>
      </trkpt>
      <trkpt lat="44.78093" lon="0.72123">
        <ele>145</ele>
        <time>2008-12-08T14:47:02Z</time>
      </trkpt>
      <trkpt lat="44.7809" lon="0.7209">
        <ele>143</ele>
        <time>2008-12-08T14:47:06Z</time>
      </trkpt>
      <trkpt lat="44.7809" lon="0.72058">
        <ele>140</ele>
        <time>2008-12-08T14:47:10Z</time>
      </trkpt>
      <trkpt lat="44.78088" lon="0.7203">
        <ele>136</ele>
        <time>2008-12-08T14:47:15Z</time>
      </trkpt>
      <trkpt lat="44.78088" lon="0.72003">
        <ele>135</ele>
        <time>2008-12-08T14:47:19Z</time>
      </trkpt>
      <trkpt lat="44.7809" lon="0.71975">
        <ele>134</ele>
        <time>2008-12-08T14:47:25Z</time>
      </trkpt>
      <trkpt lat="44.7809" lon="0.71945">
        <ele>134</ele>
        <time>2008-12-08T14:47:32Z</time>
      </trkpt>
      <trkpt lat="44.78093" lon="0.71913">
        <ele>130</ele>
        <time>2008-12-08T14:47:38Z</time>
      </trkpt>
      <trkpt lat="44.78098" lon="0.71888">
        <ele>134</ele>
        <time>2008-12-08T14:47:42Z</time>
      </trkpt>
      <trkpt lat="44.781" lon="0.71858">
        <ele>138</ele>
        <time>2008-12-08T14:47:45Z</time>
      </trkpt>
      <trkpt lat="44.78105" lon="0.7183">
        <ele>139</ele>
        <time>2008-12-08T14:47:51Z</time>
      </trkpt>
    </trkseg>
  </trk>
  <trk>
    <name><![CDATA[BBmt06]]></name>
    <trkseg>
      <trkpt lat="44.78105" lon="0.71826">
        <ele>141</ele>
        <time>2008-12-08T14:51:58Z</time>
      </trkpt>
      <trkpt lat="44.78105" lon="0.71813">
        <ele>157</ele>
        <time>2008-12-08T14:52:07Z</time>
      </trkpt>
      <trkpt lat="44.78115" lon="0.71788">
        <ele>168</ele>
        <time>2008-12-08T14:52:13Z</time>
      </trkpt>
      <trkpt lat="44.78123" lon="0.71763">
        <ele>174</ele>
        <time>2008-12-08T14:52:19Z</time>
      </trkpt>
      <trkpt lat="44.78133" lon="0.71735">
        <ele>177</ele>
        <time>2008-12-08T14:52:28Z</time>
      </trkpt>
      <trkpt lat="44.7814" lon="0.7171">
        <ele>178</ele>
        <time>2008-12-08T14:52:33Z</time>
      </trkpt>
      <trkpt lat="44.78148" lon="0.71685">
        <ele>176</ele>
        <time>2008-12-08T14:52:39Z</time>
      </trkpt>
      <trkpt lat="44.7815" lon="0.71658">
        <ele>174</ele>
        <time>2008-12-08T14:52:46Z</time>
      </trkpt>
      <trkpt lat="44.78155" lon="0.71633">
        <ele>171</ele>
        <time>2008-12-08T14:52:51Z</time>
      </trkpt>
      <trkpt lat="44.7816" lon="0.71603">
        <ele>171</ele>
        <time>2008-12-08T14:52:55Z</time>
      </trkpt>
      <trkpt lat="44.78165" lon="0.71578">
        <ele>171</ele>
        <time>2008-12-08T14:52:58Z</time>
      </trkpt>
      <trkpt lat="44.78173" lon="0.71548">
        <ele>171</ele>
        <time>2008-12-08T14:53:02Z</time>
      </trkpt>
      <trkpt lat="44.78183" lon="0.71518">
        <ele>173</ele>
        <time>2008-12-08T14:53:06Z</time>
      </trkpt>
      <trkpt lat="44.7819" lon="0.71493">
        <ele>175</ele>
        <time>2008-12-08T14:53:09Z</time>
      </trkpt>
      <trkpt lat="44.78198" lon="0.71463">
        <ele>175</ele>
        <time>2008-12-08T14:53:13Z</time>
      </trkpt>
      <trkpt lat="44.78205" lon="0.71435">
        <ele>174</ele>
        <time>2008-12-08T14:53:17Z</time>
      </trkpt>
      <trkpt lat="44.78213" lon="0.71408">
        <ele>173</ele>
        <time>2008-12-08T14:53:21Z</time>
      </trkpt>
      <trkpt lat="44.7822" lon="0.7138">
        <ele>171</ele>
        <time>2008-12-08T14:53:24Z</time>
      </trkpt>
      <trkpt lat="44.78225" lon="0.7135">
        <ele>168</ele>
        <time>2008-12-08T14:53:27Z</time>
      </trkpt>
      <trkpt lat="44.7823" lon="0.71325">
        <ele>165</ele>
        <time>2008-12-08T14:53:32Z</time>
      </trkpt>
      <trkpt lat="44.7823" lon="0.71298">
        <ele>163</ele>
        <time>2008-12-08T14:53:40Z</time>
      </trkpt>
      <trkpt lat="44.7822" lon="0.71275">
        <ele>165</ele>
        <time>2008-12-08T14:54:10Z</time>
      </trkpt>
      <trkpt lat="44.7822" lon="0.71245">
        <ele>162</ele>
        <time>2008-12-08T14:54:26Z</time>
      </trkpt>
      <trkpt lat="44.78213" lon="0.71213">
        <ele>160</ele>
        <time>2008-12-08T14:54:31Z</time>
      </trkpt>
      <trkpt lat="44.78208" lon="0.71185">
        <ele>158</ele>
        <time>2008-12-08T14:54:34Z</time>
      </trkpt>
      <trkpt lat="44.78203" lon="0.71155">
        <ele>156</ele>
        <time>2008-12-08T14:54:37Z</time>
      </trkpt>
      <trkpt lat="44.78195" lon="0.71128">
        <ele>156</ele>
        <time>2008-12-08T14:54:40Z</time>
      </trkpt>
      <trkpt lat="44.78175" lon="0.71128">
        <ele>153</ele>
        <time>2008-12-08T14:56:33Z</time>
      </trkpt>
      <trkpt lat="44.78155" lon="0.7114">
        <ele>152</ele>
        <time>2008-12-08T14:56:37Z</time>
      </trkpt>
      <trkpt lat="44.78135" lon="0.7115">
        <ele>152</ele>
        <time>2008-12-08T14:56:52Z</time>
      </trkpt>
      <trkpt lat="44.78118" lon="0.71163">
        <ele>152</ele>
        <time>2008-12-08T14:56:55Z</time>
      </trkpt>
      <trkpt lat="44.78093" lon="0.71178">
        <ele>152</ele>
        <time>2008-12-08T14:56:58Z</time>
      </trkpt>
      <trkpt lat="44.78075" lon="0.7119">
        <ele>152</ele>
        <time>2008-12-08T14:57:00Z</time>
      </trkpt>
      <trkpt lat="44.77884" lon="0.71274">
        <ele>163</ele>
        <time>2009-06-18T16:43:36Z</time>
      </trkpt>
      <trkpt lat="44.77825" lon="0.70906">
        <ele>154</ele>
        <time>2009-06-18T16:43:36Z</time>
      </trkpt>
      <trkpt lat="44.77836" lon="0.70882">
        <ele>153</ele>
        <time>2009-06-18T16:43:36Z</time>
      </trkpt>
      <trkpt lat="44.77848" lon="0.70862">
        <ele>152</ele>
        <time>2009-06-18T16:43:36Z</time>
      </trkpt>
      <trkpt lat="44.77837" lon="0.70837">
        <ele>150</ele>
        <time>2009-06-18T16:43:36Z</time>
      </trkpt>
      <trkpt lat="44.7783" lon="0.7081">
        <ele>150</ele>
        <time>2009-06-18T16:43:36Z</time>
      </trkpt>
      <trkpt lat="44.7782" lon="0.70789">
        <ele>149</ele>
        <time>2009-06-18T16:43:36Z</time>
      </trkpt>
      <trkpt lat="44.77809" lon="0.70766">
        <ele>148</ele>
        <time>2009-06-18T16:43:36Z</time>
      </trkpt>
      <trkpt lat="44.77802" lon="0.70741">
        <ele>147</ele>
        <time>2009-06-18T16:43:36Z</time>
      </trkpt>
      <trkpt lat="44.77793" lon="0.7072">
        <ele>145</ele>
        <time>2009-06-18T16:43:36Z</time>
      </trkpt>
      <trkpt lat="44.77774" lon="0.70712">
        <ele>145</ele>
        <time>2009-06-18T16:43:36Z</time>
      </trkpt>
      <trkpt lat="44.77754" lon="0.70708">
        <ele>145</ele>
        <time>2009-06-18T16:43:36Z</time>
      </trkpt>
      <trkpt lat="44.7774" lon="0.70716">
        <ele>145</ele>
        <time>2009-06-18T16:43:36Z</time>
      </trkpt>
      <trkpt lat="44.7772" lon="0.70708">
        <ele>145</ele>
        <time>2009-06-18T16:43:36Z</time>
      </trkpt>
      <trkpt lat="44.77701" lon="0.70696">
        <ele>144</ele>
        <time>2009-06-18T16:43:36Z</time>
      </trkpt>
      <trkpt lat="44.7769" lon="0.70455">
        <ele>127</ele>
        <time>2009-06-18T16:43:36Z</time>
      </trkpt>
    </trkseg>
  </trk>
  <trk>
    <name><![CDATA[BBmt07]]></name>
    <trkseg>
      <trkpt lat="44.79843" lon="0.7352">
        <ele>81</ele>
        <time>2008-12-08T13:34:46Z</time>
      </trkpt>
      <trkpt lat="44.79865" lon="0.73513">
        <ele>83</ele>
        <time>2008-12-08T13:36:42Z</time>
      </trkpt>
      <trkpt lat="44.79885" lon="0.73513">
        <ele>87</ele>
        <time>2008-12-08T13:36:50Z</time>
      </trkpt>
      <trkpt lat="44.79908" lon="0.73518">
        <ele>93</ele>
        <time>2008-12-08T13:36:56Z</time>
      </trkpt>
      <trkpt lat="44.79928" lon="0.7352">
        <ele>96</ele>
        <time>2008-12-08T13:37:01Z</time>
      </trkpt>
      <trkpt lat="44.79948" lon="0.7352">
        <ele>106</ele>
        <time>2008-12-08T13:37:08Z</time>
      </trkpt>
      <trkpt lat="44.79968" lon="0.73518">
        <ele>117</ele>
        <time>2008-12-08T13:37:14Z</time>
      </trkpt>
      <trkpt lat="44.79988" lon="0.73513">
        <ele>127</ele>
        <time>2008-12-08T13:37:20Z</time>
      </trkpt>
      <trkpt lat="44.80005" lon="0.73505">
        <ele>135</ele>
        <time>2008-12-08T13:37:26Z</time>
      </trkpt>
      <trkpt lat="44.80025" lon="0.735">
        <ele>139</ele>
        <time>2008-12-08T13:37:32Z</time>
      </trkpt>
      <trkpt lat="44.80043" lon="0.7349">
        <ele>145</ele>
        <time>2008-12-08T13:37:37Z</time>
      </trkpt>
      <trkpt lat="44.80063" lon="0.73485">
        <ele>156</ele>
        <time>2008-12-08T13:37:42Z</time>
      </trkpt>
      <trkpt lat="44.8008" lon="0.73475">
        <ele>161</ele>
        <time>2008-12-08T13:37:47Z</time>
      </trkpt>
      <trkpt lat="44.80098" lon="0.73465">
        <ele>163</ele>
        <time>2008-12-08T13:37:52Z</time>
      </trkpt>
      <trkpt lat="44.80115" lon="0.7345">
        <ele>163</ele>
        <time>2008-12-08T13:37:57Z</time>
      </trkpt>
      <trkpt lat="44.80128" lon="0.73425">
        <ele>133</ele>
        <time>2008-12-08T13:38:00Z</time>
      </trkpt>
      <trkpt lat="44.8014" lon="0.73405">
        <ele>128</ele>
        <time>2008-12-08T13:38:04Z</time>
      </trkpt>
      <trkpt lat="44.80155" lon="0.73385">
        <ele>125</ele>
        <time>2008-12-08T13:38:08Z</time>
      </trkpt>
      <trkpt lat="44.80165" lon="0.7336">
        <ele>123</ele>
        <time>2008-12-08T13:38:12Z</time>
      </trkpt>
      <trkpt lat="44.80178" lon="0.73335">
        <ele>122</ele>
        <time>2008-12-08T13:38:16Z</time>
      </trkpt>
      <trkpt lat="44.8019" lon="0.73308">
        <ele>126</ele>
        <time>2008-12-08T13:38:20Z</time>
      </trkpt>
      <trkpt lat="44.80198" lon="0.73283">
        <ele>126</ele>
        <time>2008-12-08T13:38:24Z</time>
      </trkpt>
      <trkpt lat="44.8021" lon="0.7326">
        <ele>128</ele>
        <time>2008-12-08T13:38:28Z</time>
      </trkpt>
      <trkpt lat="44.8022" lon="0.73235">
        <ele>122</ele>
        <time>2008-12-08T13:38:32Z</time>
      </trkpt>
      <trkpt lat="44.80233" lon="0.73215">
        <ele>119</ele>
        <time>2008-12-08T13:38:38Z</time>
      </trkpt>
      <trkpt lat="44.80248" lon="0.73195">
        <ele>106</ele>
        <time>2008-12-08T13:38:51Z</time>
      </trkpt>
      <trkpt lat="44.80263" lon="0.73175">
        <ele>109</ele>
        <time>2008-12-08T13:38:56Z</time>
      </trkpt>
      <trkpt lat="44.80283" lon="0.7316">
        <ele>109</ele>
        <time>2008-12-08T13:39:01Z</time>
      </trkpt>
      <trkpt lat="44.803" lon="0.73138">
        <ele>115</ele>
        <time>2008-12-08T13:39:05Z</time>
      </trkpt>
      <trkpt lat="44.80315" lon="0.73115">
        <ele>120</ele>
        <time>2008-12-08T13:39:09Z</time>
      </trkpt>
      <trkpt lat="44.8033" lon="0.73095">
        <ele>121</ele>
        <time>2008-12-08T13:39:15Z</time>
      </trkpt>
      <trkpt lat="44.80333" lon="0.73068">
        <ele>64</ele>
        <time>2008-12-08T13:40:25Z</time>
      </trkpt>
      <trkpt lat="44.8035" lon="0.73058">
        <ele>70</ele>
        <time>2008-12-08T13:40:31Z</time>
      </trkpt>
      <trkpt lat="44.80368" lon="0.73045">
        <ele>91</ele>
        <time>2008-12-08T13:40:37Z</time>
      </trkpt>
      <trkpt lat="44.80385" lon="0.73033">
        <ele>104</ele>
        <time>2008-12-08T13:40:43Z</time>
      </trkpt>
      <trkpt lat="44.804" lon="0.73018">
        <ele>105</ele>
        <time>2008-12-08T13:40:49Z</time>
      </trkpt>
      <trkpt lat="44.80408" lon="0.7299">
        <ele>90</ele>
        <time>2008-12-08T13:41:01Z</time>
      </trkpt>
      <trkpt lat="44.80418" lon="0.72965">
        <ele>90</ele>
        <time>2008-12-08T13:41:04Z</time>
      </trkpt>
      <trkpt lat="44.8043" lon="0.72935">
        <ele>87</ele>
        <time>2008-12-08T13:41:07Z</time>
      </trkpt>
      <trkpt lat="44.8044" lon="0.72913">
        <ele>86</ele>
        <time>2008-12-08T13:41:09Z</time>
      </trkpt>
      <trkpt lat="44.80453" lon="0.72878">
        <ele>77</ele>
        <time>2008-12-08T13:41:12Z</time>
      </trkpt>
      <trkpt lat="44.8046" lon="0.72853">
        <ele>69</ele>
        <time>2008-12-08T13:41:14Z</time>
      </trkpt>
      <trkpt lat="44.80468" lon="0.72823">
        <ele>70</ele>
        <time>2008-12-08T13:41:17Z</time>
      </trkpt>
      <trkpt lat="44.80475" lon="0.72798">
        <ele>76</ele>
        <time>2008-12-08T13:41:19Z</time>
      </trkpt>
      <trkpt lat="44.80478" lon="0.72758">
        <ele>77</ele>
        <time>2008-12-08T13:41:22Z</time>
      </trkpt>
      <trkpt lat="44.80473" lon="0.72723">
        <ele>75</ele>
        <time>2008-12-08T13:41:25Z</time>
      </trkpt>
      <trkpt lat="44.8046" lon="0.72698">
        <ele>71</ele>
        <time>2008-12-08T13:41:28Z</time>
      </trkpt>
      <trkpt lat="44.80445" lon="0.7268">
        <ele>68</ele>
        <time>2008-12-08T13:41:32Z</time>
      </trkpt>
      <trkpt lat="44.8043" lon="0.72665">
        <ele>66</ele>
        <time>2008-12-08T13:41:36Z</time>
      </trkpt>
    </trkseg>
  </trk>
  <trk>
    <name><![CDATA[BBmt08]]></name>
    <trkseg>
      <trkpt lat="44.79508" lon="0.78513">
        <ele>104</ele>
        <time>2008-12-08T11:27:34Z</time>
      </trkpt>
      <trkpt lat="44.79505" lon="0.78543">
        <ele>101</ele>
        <time>2008-12-08T11:29:45Z</time>
      </trkpt>
      <trkpt lat="44.79503" lon="0.78573">
        <ele>104</ele>
        <time>2008-12-08T11:29:50Z</time>
      </trkpt>
      <trkpt lat="44.79505" lon="0.786">
        <ele>105</ele>
        <time>2008-12-08T11:29:57Z</time>
      </trkpt>
      <trkpt lat="44.79518" lon="0.78625">
        <ele>106</ele>
        <time>2008-12-08T11:30:03Z</time>
      </trkpt>
      <trkpt lat="44.7952" lon="0.78653">
        <ele>103</ele>
        <time>2008-12-08T11:30:08Z</time>
      </trkpt>
      <trkpt lat="44.79513" lon="0.78678">
        <ele>103</ele>
        <time>2008-12-08T11:30:12Z</time>
      </trkpt>
      <trkpt lat="44.79508" lon="0.78705">
        <ele>103</ele>
        <time>2008-12-08T11:30:16Z</time>
      </trkpt>
      <trkpt lat="44.79513" lon="0.78733">
        <ele>104</ele>
        <time>2008-12-08T11:30:20Z</time>
      </trkpt>
      <trkpt lat="44.79528" lon="0.78755">
        <ele>104</ele>
        <time>2008-12-08T11:30:24Z</time>
      </trkpt>
      <trkpt lat="44.7954" lon="0.78778">
        <ele>105</ele>
        <time>2008-12-08T11:30:28Z</time>
      </trkpt>
      <trkpt lat="44.79548" lon="0.78805">
        <ele>105</ele>
        <time>2008-12-08T11:30:33Z</time>
      </trkpt>
      <trkpt lat="44.79545" lon="0.78835">
        <ele>105</ele>
        <time>2008-12-08T11:30:39Z</time>
      </trkpt>
      <trkpt lat="44.79543" lon="0.78865">
        <ele>104</ele>
        <time>2008-12-08T11:30:44Z</time>
      </trkpt>
      <trkpt lat="44.79545" lon="0.78893">
        <ele>108</ele>
        <time>2008-12-08T11:30:49Z</time>
      </trkpt>
      <trkpt lat="44.79545" lon="0.78923">
        <ele>108</ele>
        <time>2008-12-08T11:30:55Z</time>
      </trkpt>
      <trkpt lat="44.79538" lon="0.7895">
        <ele>104</ele>
        <time>2008-12-08T11:31:01Z</time>
      </trkpt>
      <trkpt lat="44.79533" lon="0.78978">
        <ele>103</ele>
        <time>2008-12-08T11:31:16Z</time>
      </trkpt>
      <trkpt lat="44.79538" lon="0.79005">
        <ele>105</ele>
        <time>2008-12-08T11:31:21Z</time>
      </trkpt>
      <trkpt lat="44.7954" lon="0.79035">
        <ele>106</ele>
        <time>2008-12-08T11:31:26Z</time>
      </trkpt>
      <trkpt lat="44.79535" lon="0.79063">
        <ele>103</ele>
        <time>2008-12-08T11:31:30Z</time>
      </trkpt>
      <trkpt lat="44.79525" lon="0.7909">
        <ele>103</ele>
        <time>2008-12-08T11:31:35Z</time>
      </trkpt>
      <trkpt lat="44.79515" lon="0.79118">
        <ele>102</ele>
        <time>2008-12-08T11:31:40Z</time>
      </trkpt>
      <trkpt lat="44.79508" lon="0.79145">
        <ele>101</ele>
        <time>2008-12-08T11:31:45Z</time>
      </trkpt>
      <trkpt lat="44.79498" lon="0.7917">
        <ele>99</ele>
        <time>2008-12-08T11:31:49Z</time>
      </trkpt>
      <trkpt lat="44.7949" lon="0.79195">
        <ele>96</ele>
        <time>2008-12-08T11:31:53Z</time>
      </trkpt>
      <trkpt lat="44.7948" lon="0.79223">
        <ele>95</ele>
        <time>2008-12-08T11:31:58Z</time>
      </trkpt>
      <trkpt lat="44.79468" lon="0.79243">
        <ele>99</ele>
        <time>2008-12-08T11:32:03Z</time>
      </trkpt>
      <trkpt lat="44.79455" lon="0.79263">
        <ele>106</ele>
        <time>2008-12-08T11:32:08Z</time>
      </trkpt>
      <trkpt lat="44.7944" lon="0.7928">
        <ele>114</ele>
        <time>2008-12-08T11:32:13Z</time>
      </trkpt>
      <trkpt lat="44.79425" lon="0.79295">
        <ele>112</ele>
        <time>2008-12-08T11:32:20Z</time>
      </trkpt>
      <trkpt lat="44.79408" lon="0.7931">
        <ele>110</ele>
        <time>2008-12-08T11:32:31Z</time>
      </trkpt>
      <trkpt lat="44.79393" lon="0.79325">
        <ele>111</ele>
        <time>2008-12-08T11:32:35Z</time>
      </trkpt>
      <trkpt lat="44.79383" lon="0.79353">
        <ele>114</ele>
        <time>2008-12-08T11:32:39Z</time>
      </trkpt>
      <trkpt lat="44.79373" lon="0.79383">
        <ele>118</ele>
        <time>2008-12-08T11:32:44Z</time>
      </trkpt>
      <trkpt lat="44.79365" lon="0.79408">
        <ele>122</ele>
        <time>2008-12-08T11:32:48Z</time>
      </trkpt>
      <trkpt lat="44.79355" lon="0.79435">
        <ele>123</ele>
        <time>2008-12-08T11:32:52Z</time>
      </trkpt>
      <trkpt lat="44.79348" lon="0.79463">
        <ele>124</ele>
        <time>2008-12-08T11:32:56Z</time>
      </trkpt>
      <trkpt lat="44.79338" lon="0.7949">
        <ele>123</ele>
        <time>2008-12-08T11:33:01Z</time>
      </trkpt>
      <trkpt lat="44.79333" lon="0.79515">
        <ele>122</ele>
        <time>2008-12-08T11:33:06Z</time>
      </trkpt>
      <trkpt lat="44.79323" lon="0.79543">
        <ele>120</ele>
        <time>2008-12-08T11:33:12Z</time>
      </trkpt>
      <trkpt lat="44.7931" lon="0.79568">
        <ele>119</ele>
        <time>2008-12-08T11:33:18Z</time>
      </trkpt>
      <trkpt lat="44.793" lon="0.79593">
        <ele>116</ele>
        <time>2008-12-08T11:33:24Z</time>
      </trkpt>
      <trkpt lat="44.79288" lon="0.79613">
        <ele>111</ele>
        <time>2008-12-08T11:33:32Z</time>
      </trkpt>
      <trkpt lat="44.79273" lon="0.79633">
        <ele>110</ele>
        <time>2008-12-08T11:33:39Z</time>
      </trkpt>
      <trkpt lat="44.79258" lon="0.79648">
        <ele>111</ele>
        <time>2008-12-08T11:33:44Z</time>
      </trkpt>
      <trkpt lat="44.79245" lon="0.7967">
        <ele>113</ele>
        <time>2008-12-08T11:33:49Z</time>
      </trkpt>
      <trkpt lat="44.79238" lon="0.79698">
        <ele>115</ele>
        <time>2008-12-08T11:33:56Z</time>
      </trkpt>
      <trkpt lat="44.79235" lon="0.79728">
        <ele>120</ele>
        <time>2008-12-08T11:34:29Z</time>
      </trkpt>
      <trkpt lat="44.79205" lon="0.79995">
        <ele>123</ele>
        <time>2008-12-08T11:34:37Z</time>
      </trkpt>
    </trkseg>
  </trk>
  <trk>
    <name><![CDATA[BBmt09]]></name>
    <trkseg>
      <trkpt lat="44.80283" lon="0.78985">
        <ele>91</ele>
        <time>2008-12-08T11:24:12Z</time>
      </trkpt>
      <trkpt lat="44.80265" lon="0.78975">
        <ele>90</ele>
        <time>2008-12-08T11:24:20Z</time>
      </trkpt>
      <trkpt lat="44.80253" lon="0.78948">
        <ele>98</ele>
        <time>2008-12-08T11:24:24Z</time>
      </trkpt>
      <trkpt lat="44.80238" lon="0.78928">
        <ele>102</ele>
        <time>2008-12-08T11:24:27Z</time>
      </trkpt>
      <trkpt lat="44.80223" lon="0.7891">
        <ele>104</ele>
        <time>2008-12-08T11:24:30Z</time>
      </trkpt>
      <trkpt lat="44.80205" lon="0.78895">
        <ele>106</ele>
        <time>2008-12-08T11:24:33Z</time>
      </trkpt>
      <trkpt lat="44.80183" lon="0.78883">
        <ele>106</ele>
        <time>2008-12-08T11:24:36Z</time>
      </trkpt>
      <trkpt lat="44.8016" lon="0.7887">
        <ele>107</ele>
        <time>2008-12-08T11:24:39Z</time>
      </trkpt>
      <trkpt lat="44.80138" lon="0.78865">
        <ele>109</ele>
        <time>2008-12-08T11:24:42Z</time>
      </trkpt>
      <trkpt lat="44.80118" lon="0.7886">
        <ele>111</ele>
        <time>2008-12-08T11:24:45Z</time>
      </trkpt>
      <trkpt lat="44.80098" lon="0.78855">
        <ele>106</ele>
        <time>2008-12-08T11:24:58Z</time>
      </trkpt>
      <trkpt lat="44.80083" lon="0.78838">
        <ele>100</ele>
        <time>2008-12-08T11:25:02Z</time>
      </trkpt>
      <trkpt lat="44.80065" lon="0.78823">
        <ele>97</ele>
        <time>2008-12-08T11:25:05Z</time>
      </trkpt>
      <trkpt lat="44.8004" lon="0.78815">
        <ele>98</ele>
        <time>2008-12-08T11:25:08Z</time>
      </trkpt>
      <trkpt lat="44.8002" lon="0.78815">
        <ele>98</ele>
        <time>2008-12-08T11:25:10Z</time>
      </trkpt>
      <trkpt lat="44.79993" lon="0.78813">
        <ele>97</ele>
        <time>2008-12-08T11:25:13Z</time>
      </trkpt>
      <trkpt lat="44.79968" lon="0.78808">
        <ele>97</ele>
        <time>2008-12-08T11:25:16Z</time>
      </trkpt>
      <trkpt lat="44.79948" lon="0.78805">
        <ele>99</ele>
        <time>2008-12-08T11:25:18Z</time>
      </trkpt>
      <trkpt lat="44.7992" lon="0.788">
        <ele>97</ele>
        <time>2008-12-08T11:25:21Z</time>
      </trkpt>
      <trkpt lat="44.79893" lon="0.78793">
        <ele>95</ele>
        <time>2008-12-08T11:25:24Z</time>
      </trkpt>
      <trkpt lat="44.79868" lon="0.78788">
        <ele>93</ele>
        <time>2008-12-08T11:25:27Z</time>
      </trkpt>
      <trkpt lat="44.7984" lon="0.78785">
        <ele>91</ele>
        <time>2008-12-08T11:25:30Z</time>
      </trkpt>
      <trkpt lat="44.79815" lon="0.78785">
        <ele>93</ele>
        <time>2008-12-08T11:25:33Z</time>
      </trkpt>
      <trkpt lat="44.7979" lon="0.78785">
        <ele>94</ele>
        <time>2008-12-08T11:25:36Z</time>
      </trkpt>
      <trkpt lat="44.79765" lon="0.7878">
        <ele>97</ele>
        <time>2008-12-08T11:25:39Z</time>
      </trkpt>
      <trkpt lat="44.79745" lon="0.78768">
        <ele>98</ele>
        <time>2008-12-08T11:25:42Z</time>
      </trkpt>
      <trkpt lat="44.7973" lon="0.7875">
        <ele>97</ele>
        <time>2008-12-08T11:25:46Z</time>
      </trkpt>
      <trkpt lat="44.79715" lon="0.78725">
        <ele>100</ele>
        <time>2008-12-08T11:25:50Z</time>
      </trkpt>
      <trkpt lat="44.79705" lon="0.78703">
        <ele>84</ele>
        <time>2008-12-08T11:26:03Z</time>
      </trkpt>
      <trkpt lat="44.79693" lon="0.78675">
        <ele>87</ele>
        <time>2008-12-08T11:26:09Z</time>
      </trkpt>
      <trkpt lat="44.79683" lon="0.7865">
        <ele>90</ele>
        <time>2008-12-08T11:26:12Z</time>
      </trkpt>
      <trkpt lat="44.7967" lon="0.78625">
        <ele>92</ele>
        <time>2008-12-08T11:26:15Z</time>
      </trkpt>
      <trkpt lat="44.79655" lon="0.78605">
        <ele>94</ele>
        <time>2008-12-08T11:26:18Z</time>
      </trkpt>
      <trkpt lat="44.79635" lon="0.7859">
        <ele>94</ele>
        <time>2008-12-08T11:26:21Z</time>
      </trkpt>
      <trkpt lat="44.79618" lon="0.7858">
        <ele>94</ele>
        <time>2008-12-08T11:26:23Z</time>
      </trkpt>
      <trkpt lat="44.796" lon="0.78573">
        <ele>94</ele>
        <time>2008-12-08T11:26:25Z</time>
      </trkpt>
      <trkpt lat="44.79575" lon="0.78565">
        <ele>94</ele>
        <time>2008-12-08T11:26:28Z</time>
      </trkpt>
      <trkpt lat="44.79553" lon="0.78558">
        <ele>96</ele>
        <time>2008-12-08T11:26:31Z</time>
      </trkpt>
      <trkpt lat="44.7953" lon="0.78543">
        <ele>99</ele>
        <time>2008-12-08T11:26:34Z</time>
      </trkpt>
      <trkpt lat="44.79513" lon="0.7852">
        <ele>98</ele>
        <time>2008-12-08T11:26:37Z</time>
      </trkpt>
    </trkseg>
  </trk>
  <trk>
    <name><![CDATA[BBmt10]]></name>
    <trkseg>
      <trkpt lat="44.725" lon="0.75833">
        <ele>146</ele>
        <time>2008-12-03T13:29:39Z</time>
      </trkpt>
      <trkpt lat="44.7252" lon="0.75835">
        <ele>148</ele>
        <time>2008-12-03T13:30:04Z</time>
      </trkpt>
      <trkpt lat="44.7254" lon="0.7583">
        <ele>152</ele>
        <time>2008-12-03T13:30:11Z</time>
      </trkpt>
      <trkpt lat="44.72538" lon="0.75858">
        <ele>154</ele>
        <time>2008-12-03T13:30:34Z</time>
      </trkpt>
      <trkpt lat="44.7252" lon="0.75873">
        <ele>152</ele>
        <time>2008-12-03T13:30:37Z</time>
      </trkpt>
      <trkpt lat="44.72503" lon="0.75883">
        <ele>151</ele>
        <time>2008-12-03T13:30:40Z</time>
      </trkpt>
      <trkpt lat="44.72483" lon="0.75888">
        <ele>151</ele>
        <time>2008-12-03T13:30:44Z</time>
      </trkpt>
      <trkpt lat="44.72475" lon="0.75913">
        <ele>151</ele>
        <time>2008-12-03T13:30:54Z</time>
      </trkpt>
      <trkpt lat="44.7248" lon="0.7595">
        <ele>150</ele>
        <time>2008-12-03T13:30:58Z</time>
      </trkpt>
      <trkpt lat="44.72483" lon="0.75988">
        <ele>150</ele>
        <time>2008-12-03T13:31:01Z</time>
      </trkpt>
      <trkpt lat="44.72485" lon="0.76015">
        <ele>151</ele>
        <time>2008-12-03T13:31:03Z</time>
      </trkpt>
      <trkpt lat="44.72488" lon="0.76048">
        <ele>151</ele>
        <time>2008-12-03T13:31:05Z</time>
      </trkpt>
      <trkpt lat="44.72493" lon="0.76095">
        <ele>151</ele>
        <time>2008-12-03T13:31:08Z</time>
      </trkpt>
      <trkpt lat="44.72498" lon="0.7613">
        <ele>151</ele>
        <time>2008-12-03T13:31:10Z</time>
      </trkpt>
      <trkpt lat="44.72503" lon="0.76163">
        <ele>150</ele>
        <time>2008-12-03T13:31:12Z</time>
      </trkpt>
      <trkpt lat="44.72513" lon="0.76213">
        <ele>150</ele>
        <time>2008-12-03T13:31:15Z</time>
      </trkpt>
      <trkpt lat="44.7253" lon="0.76263">
        <ele>151</ele>
        <time>2008-12-03T13:31:18Z</time>
      </trkpt>
      <trkpt lat="44.72543" lon="0.763">
        <ele>152</ele>
        <time>2008-12-03T13:31:20Z</time>
      </trkpt>
      <trkpt lat="44.72558" lon="0.76335">
        <ele>153</ele>
        <time>2008-12-03T13:31:22Z</time>
      </trkpt>
      <trkpt lat="44.72578" lon="0.76388">
        <ele>153</ele>
        <time>2008-12-03T13:31:25Z</time>
      </trkpt>
      <trkpt lat="44.7259" lon="0.76423">
        <ele>154</ele>
        <time>2008-12-03T13:31:27Z</time>
      </trkpt>
      <trkpt lat="44.72598" lon="0.76458">
        <ele>155</ele>
        <time>2008-12-03T13:31:29Z</time>
      </trkpt>
      <trkpt lat="44.72605" lon="0.76493">
        <ele>155</ele>
        <time>2008-12-03T13:31:31Z</time>
      </trkpt>
      <trkpt lat="44.72623" lon="0.7654">
        <ele>156</ele>
        <time>2008-12-03T13:31:34Z</time>
      </trkpt>
      <trkpt lat="44.72633" lon="0.76565">
        <ele>157</ele>
        <time>2008-12-03T13:31:36Z</time>
      </trkpt>
    </trkseg>
  </trk>
  <trk>
    <name><![CDATA[BBmt11]]></name>
    <trkseg>
      <trkpt lat="44.69438" lon="0.75103">
        <ele>137</ele>
        <time>2008-12-03T13:43:07Z</time>
      </trkpt>
      <trkpt lat="44.6942" lon="0.7511">
        <ele>135</ele>
        <time>2008-12-03T13:43:14Z</time>
      </trkpt>
      <trkpt lat="44.694" lon="0.75115">
        <ele>131</ele>
        <time>2008-12-03T13:43:21Z</time>
      </trkpt>
      <trkpt lat="44.69378" lon="0.7512">
        <ele>130</ele>
        <time>2008-12-03T13:43:25Z</time>
      </trkpt>
      <trkpt lat="44.69358" lon="0.75125">
        <ele>130</ele>
        <time>2008-12-03T13:43:38Z</time>
      </trkpt>
      <trkpt lat="44.69338" lon="0.75128">
        <ele>131</ele>
        <time>2008-12-03T13:43:44Z</time>
      </trkpt>
      <trkpt lat="44.69323" lon="0.75105">
        <ele>137</ele>
        <time>2008-12-03T13:43:59Z</time>
      </trkpt>
      <trkpt lat="44.69315" lon="0.75078">
        <ele>138</ele>
        <time>2008-12-03T13:44:03Z</time>
      </trkpt>
      <trkpt lat="44.69308" lon="0.75045">
        <ele>136</ele>
        <time>2008-12-03T13:44:06Z</time>
      </trkpt>
      <trkpt lat="44.69298" lon="0.7501">
        <ele>135</ele>
        <time>2008-12-03T13:44:09Z</time>
      </trkpt>
      <trkpt lat="44.69288" lon="0.74978">
        <ele>132</ele>
        <time>2008-12-03T13:44:12Z</time>
      </trkpt>
      <trkpt lat="44.69283" lon="0.74953">
        <ele>129</ele>
        <time>2008-12-03T13:44:14Z</time>
      </trkpt>
      <trkpt lat="44.69275" lon="0.7492">
        <ele>127</ele>
        <time>2008-12-03T13:44:17Z</time>
      </trkpt>
      <trkpt lat="44.69273" lon="0.74893">
        <ele>125</ele>
        <time>2008-12-03T13:44:19Z</time>
      </trkpt>
      <trkpt lat="44.69265" lon="0.7485">
        <ele>122</ele>
        <time>2008-12-03T13:44:22Z</time>
      </trkpt>
      <trkpt lat="44.69263" lon="0.7482">
        <ele>119</ele>
        <time>2008-12-03T13:44:24Z</time>
      </trkpt>
      <trkpt lat="44.69258" lon="0.74793">
        <ele>117</ele>
        <time>2008-12-03T13:44:26Z</time>
      </trkpt>
      <trkpt lat="44.69253" lon="0.74745">
        <ele>116</ele>
        <time>2008-12-03T13:44:29Z</time>
      </trkpt>
      <trkpt lat="44.69248" lon="0.74715">
        <ele>114</ele>
        <time>2008-12-03T13:44:31Z</time>
      </trkpt>
      <trkpt lat="44.69243" lon="0.74683">
        <ele>115</ele>
        <time>2008-12-03T13:44:33Z</time>
      </trkpt>
      <trkpt lat="44.69228" lon="0.74633">
        <ele>115</ele>
        <time>2008-12-03T13:44:36Z</time>
      </trkpt>
      <trkpt lat="44.69213" lon="0.74585">
        <ele>114</ele>
        <time>2008-12-03T13:44:39Z</time>
      </trkpt>
      <trkpt lat="44.69203" lon="0.74553">
        <ele>112</ele>
        <time>2008-12-03T13:44:41Z</time>
      </trkpt>
      <trkpt lat="44.69188" lon="0.74523">
        <ele>110</ele>
        <time>2008-12-03T13:44:43Z</time>
      </trkpt>
      <trkpt lat="44.69173" lon="0.74495">
        <ele>109</ele>
        <time>2008-12-03T13:44:45Z</time>
      </trkpt>
      <trkpt lat="44.69155" lon="0.74465">
        <ele>108</ele>
        <time>2008-12-03T13:44:48Z</time>
      </trkpt>
      <trkpt lat="44.6914" lon="0.74443">
        <ele>106</ele>
        <time>2008-12-03T13:45:02Z</time>
      </trkpt>
      <trkpt lat="44.69125" lon="0.74418">
        <ele>105</ele>
        <time>2008-12-03T13:45:05Z</time>
      </trkpt>
      <trkpt lat="44.69113" lon="0.74393">
        <ele>105</ele>
        <time>2008-12-03T13:45:07Z</time>
      </trkpt>
      <trkpt lat="44.69088" lon="0.7435">
        <ele>106</ele>
        <time>2008-12-03T13:45:10Z</time>
      </trkpt>
      <trkpt lat="44.69063" lon="0.74303">
        <ele>106</ele>
        <time>2008-12-03T13:45:13Z</time>
      </trkpt>
      <trkpt lat="44.69048" lon="0.74275">
        <ele>106</ele>
        <time>2008-12-03T13:45:15Z</time>
      </trkpt>
      <trkpt lat="44.69035" lon="0.7425">
        <ele>106</ele>
        <time>2008-12-03T13:45:17Z</time>
      </trkpt>
      <trkpt lat="44.69028" lon="0.74225">
        <ele>105</ele>
        <time>2008-12-03T13:45:28Z</time>
      </trkpt>
      <trkpt lat="44.69023" lon="0.7419">
        <ele>107</ele>
        <time>2008-12-03T13:45:32Z</time>
      </trkpt>
      <trkpt lat="44.69023" lon="0.7416">
        <ele>108</ele>
        <time>2008-12-03T13:45:34Z</time>
      </trkpt>
      <trkpt lat="44.69025" lon="0.74125">
        <ele>111</ele>
        <time>2008-12-03T13:45:36Z</time>
      </trkpt>
      <trkpt lat="44.69035" lon="0.74068">
        <ele>112</ele>
        <time>2008-12-03T13:45:39Z</time>
      </trkpt>
      <trkpt lat="44.69043" lon="0.7403">
        <ele>114</ele>
        <time>2008-12-03T13:45:41Z</time>
      </trkpt>
      <trkpt lat="44.6905" lon="0.7399">
        <ele>115</ele>
        <time>2008-12-03T13:45:43Z</time>
      </trkpt>
      <trkpt lat="44.69058" lon="0.73953">
        <ele>117</ele>
        <time>2008-12-03T13:45:45Z</time>
      </trkpt>
      <trkpt lat="44.69068" lon="0.739">
        <ele>119</ele>
        <time>2008-12-03T13:45:48Z</time>
      </trkpt>
      <trkpt lat="44.69073" lon="0.73868">
        <ele>121</ele>
        <time>2008-12-03T13:45:50Z</time>
      </trkpt>
      <trkpt lat="44.6908" lon="0.7384">
        <ele>121</ele>
        <time>2008-12-03T13:45:52Z</time>
      </trkpt>
      <trkpt lat="44.6909" lon="0.73813">
        <ele>122</ele>
        <time>2008-12-03T13:45:54Z</time>
      </trkpt>
      <trkpt lat="44.69108" lon="0.73775">
        <ele>122</ele>
        <time>2008-12-03T13:45:56Z</time>
      </trkpt>
      <trkpt lat="44.69125" lon="0.73748">
        <ele>122</ele>
        <time>2008-12-03T13:45:59Z</time>
      </trkpt>
      <trkpt lat="44.69138" lon="0.7372">
        <ele>123</ele>
        <time>2008-12-03T13:46:01Z</time>
      </trkpt>
      <trkpt lat="44.6915" lon="0.73695">
        <ele>124</ele>
        <time>2008-12-03T13:46:03Z</time>
      </trkpt>
      <trkpt lat="44.69155" lon="0.73668">
        <ele>123</ele>
        <time>2008-12-03T13:46:22Z</time>
      </trkpt>
      <trkpt lat="44.6916" lon="0.73633">
        <ele>123</ele>
        <time>2008-12-03T13:46:25Z</time>
      </trkpt>
      <trkpt lat="44.69165" lon="0.73603">
        <ele>123</ele>
        <time>2008-12-03T13:46:27Z</time>
      </trkpt>
      <trkpt lat="44.69168" lon="0.73568">
        <ele>125</ele>
        <time>2008-12-03T13:46:29Z</time>
      </trkpt>
      <trkpt lat="44.69175" lon="0.7353">
        <ele>127</ele>
        <time>2008-12-03T13:46:31Z</time>
      </trkpt>
      <trkpt lat="44.69183" lon="0.73493">
        <ele>128</ele>
        <time>2008-12-03T13:46:33Z</time>
      </trkpt>
      <trkpt lat="44.69195" lon="0.73443">
        <ele>130</ele>
        <time>2008-12-03T13:46:36Z</time>
      </trkpt>
      <trkpt lat="44.69203" lon="0.73415">
        <ele>132</ele>
        <time>2008-12-03T13:46:38Z</time>
      </trkpt>
      <trkpt lat="44.69213" lon="0.7338">
        <ele>133</ele>
        <time>2008-12-03T13:46:41Z</time>
      </trkpt>
      <trkpt lat="44.69223" lon="0.73348">
        <ele>133</ele>
        <time>2008-12-03T13:46:44Z</time>
      </trkpt>
      <trkpt lat="44.69235" lon="0.73315">
        <ele>133</ele>
        <time>2008-12-03T13:46:47Z</time>
      </trkpt>
      <trkpt lat="44.69245" lon="0.73283">
        <ele>132</ele>
        <time>2008-12-03T13:46:50Z</time>
      </trkpt>
      <trkpt lat="44.6924" lon="0.73258">
        <ele>131</ele>
        <time>2008-12-03T13:47:05Z</time>
      </trkpt>
      <trkpt lat="44.69223" lon="0.73265">
        <ele>130</ele>
        <time>2008-12-03T13:47:08Z</time>
      </trkpt>
      <trkpt lat="44.69203" lon="0.73275">
        <ele>128</ele>
        <time>2008-12-03T13:47:11Z</time>
      </trkpt>
      <trkpt lat="44.69183" lon="0.73288">
        <ele>127</ele>
        <time>2008-12-03T13:47:14Z</time>
      </trkpt>
      <trkpt lat="44.69165" lon="0.73298">
        <ele>124</ele>
        <time>2008-12-03T13:47:17Z</time>
      </trkpt>
      <trkpt lat="44.69145" lon="0.73308">
        <ele>120</ele>
        <time>2008-12-03T13:47:21Z</time>
      </trkpt>
      <trkpt lat="44.69145" lon="0.73335">
        <ele>123</ele>
        <time>2008-12-03T13:48:48Z</time>
      </trkpt>
      <trkpt lat="44.69153" lon="0.73308">
        <ele>117</ele>
        <time>2008-12-03T13:55:44Z</time>
      </trkpt>
      <trkpt lat="44.6917" lon="0.73298">
        <ele>123</ele>
        <time>2008-12-03T13:55:48Z</time>
      </trkpt>
      <trkpt lat="44.6919" lon="0.7329">
        <ele>127</ele>
        <time>2008-12-03T13:55:51Z</time>
      </trkpt>
      <trkpt lat="44.69208" lon="0.7328">
        <ele>129</ele>
        <time>2008-12-03T13:55:54Z</time>
      </trkpt>
      <trkpt lat="44.69228" lon="0.7327">
        <ele>129</ele>
        <time>2008-12-03T13:55:57Z</time>
      </trkpt>
      <trkpt lat="44.69248" lon="0.73263">
        <ele>129</ele>
        <time>2008-12-03T13:56:00Z</time>
      </trkpt>
      <trkpt lat="44.69263" lon="0.7324">
        <ele>126</ele>
        <time>2008-12-03T13:56:08Z</time>
      </trkpt>
      <trkpt lat="44.69273" lon="0.73208">
        <ele>127</ele>
        <time>2008-12-03T13:56:11Z</time>
      </trkpt>
      <trkpt lat="44.6928" lon="0.73178">
        <ele>128</ele>
        <time>2008-12-03T13:56:13Z</time>
      </trkpt>
      <trkpt lat="44.69287" lon="0.73142">
        <ele>131</ele>
        <time>2009-06-18T16:43:36Z</time>
      </trkpt>
      <trkpt lat="44.69291" lon="0.73132">
        <ele>131</ele>
        <time>2009-06-18T16:43:36Z</time>
      </trkpt>
      <trkpt lat="44.69311" lon="0.73145">
        <ele>131</ele>
        <time>2009-06-18T16:43:36Z</time>
      </trkpt>
      <trkpt lat="44.69328" lon="0.7316">
        <ele>131</ele>
        <time>2009-06-18T16:43:36Z</time>
      </trkpt>
      <trkpt lat="44.69385" lon="0.73197">
        <ele>133</ele>
        <time>2009-06-18T16:43:36Z</time>
      </trkpt>
      <trkpt lat="44.69408" lon="0.73206">
        <ele>135</ele>
        <time>2008-12-03T13:56:16Z</time>
      </trkpt>
    </trkseg>
  </trk>
  <trk>
    <name><![CDATA[BBmt12]]></name>
    <trkseg>
      <trkpt lat="44.69418" lon="0.7321">
        <ele>141</ele>
        <time>2008-12-03T14:01:14Z</time>
      </trkpt>
      <trkpt lat="44.69435" lon="0.73223">
        <ele>143</ele>
        <time>2008-12-03T14:01:18Z</time>
      </trkpt>
      <trkpt lat="44.6945" lon="0.73238">
        <ele>144</ele>
        <time>2008-12-03T14:01:21Z</time>
      </trkpt>
      <trkpt lat="44.6946" lon="0.7326">
        <ele>145</ele>
        <time>2008-12-03T14:01:24Z</time>
      </trkpt>
      <trkpt lat="44.6947" lon="0.7329">
        <ele>142</ele>
        <time>2008-12-03T14:01:27Z</time>
      </trkpt>
      <trkpt lat="44.69478" lon="0.7332">
        <ele>138</ele>
        <time>2008-12-03T14:01:30Z</time>
      </trkpt>
      <trkpt lat="44.6949" lon="0.73353">
        <ele>135</ele>
        <time>2008-12-03T14:01:33Z</time>
      </trkpt>
      <trkpt lat="44.69513" lon="0.73363">
        <ele>132</ele>
        <time>2008-12-03T14:01:36Z</time>
      </trkpt>
      <trkpt lat="44.69538" lon="0.73358">
        <ele>130</ele>
        <time>2008-12-03T14:01:39Z</time>
      </trkpt>
      <trkpt lat="44.69558" lon="0.73355">
        <ele>127</ele>
        <time>2008-12-03T14:01:41Z</time>
      </trkpt>
      <trkpt lat="44.69585" lon="0.7336">
        <ele>126</ele>
        <time>2008-12-03T14:01:44Z</time>
      </trkpt>
      <trkpt lat="44.69605" lon="0.73363">
        <ele>125</ele>
        <time>2008-12-03T14:01:46Z</time>
      </trkpt>
      <trkpt lat="44.69625" lon="0.73365">
        <ele>124</ele>
        <time>2008-12-03T14:01:48Z</time>
      </trkpt>
      <trkpt lat="44.69653" lon="0.7337">
        <ele>122</ele>
        <time>2008-12-03T14:01:51Z</time>
      </trkpt>
      <trkpt lat="44.69673" lon="0.73375">
        <ele>120</ele>
        <time>2008-12-03T14:01:53Z</time>
      </trkpt>
      <trkpt lat="44.69695" lon="0.7338">
        <ele>119</ele>
        <time>2008-12-03T14:01:56Z</time>
      </trkpt>
      <trkpt lat="44.69718" lon="0.7339">
        <ele>118</ele>
        <time>2008-12-03T14:01:59Z</time>
      </trkpt>
      <trkpt lat="44.70046" lon="0.73433">
        <ele>124</ele>
        <time>2008-12-03T14:02:02Z</time>
      </trkpt>
      <trkpt lat="44.70008" lon="0.72829">
        <ele>131</ele>
        <time>2008-12-03T14:02:05Z</time>
      </trkpt>
      <trkpt lat="44.69429" lon="0.73196">
        <ele>136</ele>
        <time>2008-12-03T14:02:08Z</time>
      </trkpt>
    </trkseg>
  </trk>
  <trk>
    <name><![CDATA[BBmt13]]></name>
    <trkseg>
      <trkpt lat="44.77689" lon="0.7045">
        <ele>126</ele>
        <time>2009-06-18T16:43:36Z</time>
      </trkpt>
      <trkpt lat="44.77809" lon="0.70164">
        <ele>131</ele>
        <time>2008-12-08T15:11:21Z</time>
      </trkpt>
      <trkpt lat="44.77838" lon="0.7016">
        <ele>130</ele>
        <time>2008-12-08T15:11:29Z</time>
      </trkpt>
      <trkpt lat="44.77858" lon="0.7016">
        <ele>130</ele>
        <time>2008-12-08T15:11:32Z</time>
      </trkpt>
      <trkpt lat="44.77883" lon="0.70168">
        <ele>133</ele>
        <time>2008-12-08T15:11:36Z</time>
      </trkpt>
      <trkpt lat="44.77898" lon="0.70183">
        <ele>139</ele>
        <time>2008-12-08T15:11:48Z</time>
      </trkpt>
      <trkpt lat="44.77913" lon="0.70198">
        <ele>140</ele>
        <time>2008-12-08T15:11:52Z</time>
      </trkpt>
      <trkpt lat="44.77928" lon="0.70178">
        <ele>141</ele>
        <time>2008-12-08T15:12:07Z</time>
      </trkpt>
      <trkpt lat="44.77928" lon="0.70145">
        <ele>139</ele>
        <time>2008-12-08T15:12:09Z</time>
      </trkpt>
      <trkpt lat="44.77935" lon="0.70095">
        <ele>134</ele>
        <time>2008-12-08T15:12:12Z</time>
      </trkpt>
      <trkpt lat="44.77943" lon="0.70063">
        <ele>132</ele>
        <time>2008-12-08T15:12:14Z</time>
      </trkpt>
      <trkpt lat="44.77945" lon="0.70028">
        <ele>130</ele>
        <time>2008-12-08T15:12:16Z</time>
      </trkpt>
      <trkpt lat="44.77948" lon="0.69993">
        <ele>128</ele>
        <time>2008-12-08T15:12:18Z</time>
      </trkpt>
      <trkpt lat="44.77945" lon="0.69943">
        <ele>127</ele>
        <time>2008-12-08T15:12:21Z</time>
      </trkpt>
      <trkpt lat="44.77945" lon="0.69908">
        <ele>125</ele>
        <time>2008-12-08T15:12:23Z</time>
      </trkpt>
      <trkpt lat="44.77948" lon="0.69878">
        <ele>123</ele>
        <time>2008-12-08T15:12:25Z</time>
      </trkpt>
      <trkpt lat="44.77953" lon="0.69833">
        <ele>123</ele>
        <time>2008-12-08T15:12:28Z</time>
      </trkpt>
      <trkpt lat="44.77955" lon="0.69795">
        <ele>123</ele>
        <time>2008-12-08T15:12:31Z</time>
      </trkpt>
      <trkpt lat="44.77953" lon="0.69763">
        <ele>124</ele>
        <time>2008-12-08T15:12:34Z</time>
      </trkpt>
      <trkpt lat="44.77965" lon="0.69738">
        <ele>133</ele>
        <time>2008-12-08T15:15:43Z</time>
      </trkpt>
      <trkpt lat="44.77948" lon="0.69725">
        <ele>121</ele>
        <time>2008-12-08T15:16:26Z</time>
      </trkpt>
      <trkpt lat="44.77925" lon="0.69718">
        <ele>119</ele>
        <time>2008-12-08T15:16:29Z</time>
      </trkpt>
      <trkpt lat="44.77908" lon="0.69708">
        <ele>117</ele>
        <time>2008-12-08T15:16:32Z</time>
      </trkpt>
      <trkpt lat="44.77893" lon="0.69725">
        <ele>112</ele>
        <time>2008-12-08T15:16:47Z</time>
      </trkpt>
      <trkpt lat="44.77883" lon="0.6975">
        <ele>111</ele>
        <time>2008-12-08T15:16:51Z</time>
      </trkpt>
      <trkpt lat="44.77873" lon="0.69775">
        <ele>109</ele>
        <time>2008-12-08T15:16:55Z</time>
      </trkpt>
    </trkseg>
  </trk>
  <trk>
    <name><![CDATA[BBmt14]]></name>
    <trkseg>
      <trkpt lat="44.77683" lon="0.7044">
        <ele>121</ele>
        <time>2008-12-09T13:51:51Z</time>
      </trkpt>
      <trkpt lat="44.77673" lon="0.70418">
        <ele>118</ele>
        <time>2008-12-09T13:52:08Z</time>
      </trkpt>
      <trkpt lat="44.7766" lon="0.70398">
        <ele>117</ele>
        <time>2008-12-09T13:52:24Z</time>
      </trkpt>
      <trkpt lat="44.77645" lon="0.70383">
        <ele>113</ele>
        <time>2008-12-09T13:52:39Z</time>
      </trkpt>
      <trkpt lat="44.7763" lon="0.70365">
        <ele>111</ele>
        <time>2008-12-09T13:52:55Z</time>
      </trkpt>
      <trkpt lat="44.77615" lon="0.7035">
        <ele>109</ele>
        <time>2008-12-09T13:53:08Z</time>
      </trkpt>
      <trkpt lat="44.776" lon="0.7033">
        <ele>107</ele>
        <time>2008-12-09T13:53:24Z</time>
      </trkpt>
      <trkpt lat="44.77585" lon="0.70313">
        <ele>108</ele>
        <time>2008-12-09T13:53:39Z</time>
      </trkpt>
      <trkpt lat="44.7757" lon="0.70298">
        <ele>107</ele>
        <time>2008-12-09T13:53:54Z</time>
      </trkpt>
      <trkpt lat="44.77578" lon="0.70273">
        <ele>104</ele>
        <time>2008-12-09T13:54:14Z</time>
      </trkpt>
      <trkpt lat="44.7756" lon="0.70288">
        <ele>103</ele>
        <time>2008-12-09T13:55:23Z</time>
      </trkpt>
      <trkpt lat="44.77543" lon="0.7031">
        <ele>101</ele>
        <time>2008-12-09T13:55:27Z</time>
      </trkpt>
      <trkpt lat="44.77528" lon="0.7033">
        <ele>101</ele>
        <time>2008-12-09T13:55:30Z</time>
      </trkpt>
      <trkpt lat="44.7751" lon="0.70353">
        <ele>102</ele>
        <time>2008-12-09T13:55:33Z</time>
      </trkpt>
      <trkpt lat="44.77495" lon="0.7038">
        <ele>104</ele>
        <time>2008-12-09T13:55:36Z</time>
      </trkpt>
      <trkpt lat="44.77483" lon="0.70408">
        <ele>107</ele>
        <time>2008-12-09T13:55:39Z</time>
      </trkpt>
      <trkpt lat="44.7747" lon="0.70438">
        <ele>109</ele>
        <time>2008-12-09T13:55:42Z</time>
      </trkpt>
      <trkpt lat="44.7746" lon="0.70463">
        <ele>110</ele>
        <time>2008-12-09T13:55:45Z</time>
      </trkpt>
      <trkpt lat="44.77445" lon="0.7048">
        <ele>112</ele>
        <time>2008-12-09T13:55:56Z</time>
      </trkpt>
      <trkpt lat="44.77318" lon="0.7058">
        <ele>135</ele>
        <time>2009-06-18T16:43:36Z</time>
      </trkpt>
      <trkpt lat="44.77353" lon="0.7068">
        <ele>138</ele>
        <time>2009-06-18T16:43:36Z</time>
      </trkpt>
      <trkpt lat="44.77108" lon="0.70856">
        <ele>151</ele>
        <time>2008-12-09T13:56:37Z</time>
      </trkpt>
    </trkseg>
  </trk>
  <trk>
    <name><![CDATA[BBmt15]]></name>
    <trkseg>
      <trkpt lat="44.77868" lon="0.69788">
        <ele>109</ele>
        <time>2009-06-18T16:43:36Z</time>
      </trkpt>
      <trkpt lat="44.77855" lon="0.69813">
        <ele>107</ele>
        <time>2009-06-18T16:43:36Z</time>
      </trkpt>
      <trkpt lat="44.77845" lon="0.6979">
        <ele>105</ele>
        <time>2009-06-18T16:43:36Z</time>
      </trkpt>
      <trkpt lat="44.7784" lon="0.69763">
        <ele>104</ele>
        <time>2009-06-18T16:43:36Z</time>
      </trkpt>
      <trkpt lat="44.77833" lon="0.69733">
        <ele>103</ele>
        <time>2009-06-18T16:43:36Z</time>
      </trkpt>
      <trkpt lat="44.77825" lon="0.69708">
        <ele>103</ele>
        <time>2009-06-18T16:43:36Z</time>
      </trkpt>
      <trkpt lat="44.77818" lon="0.69683">
        <ele>101</ele>
        <time>2009-06-18T16:43:36Z</time>
      </trkpt>
      <trkpt lat="44.77803" lon="0.6966">
        <ele>100</ele>
        <time>2009-06-18T16:43:36Z</time>
      </trkpt>
      <trkpt lat="44.77785" lon="0.6965">
        <ele>99</ele>
        <time>2009-06-18T16:43:36Z</time>
      </trkpt>
      <trkpt lat="44.77765" lon="0.69645">
        <ele>99</ele>
        <time>2009-06-18T16:43:36Z</time>
      </trkpt>
      <trkpt lat="44.77748" lon="0.69638">
        <ele>100</ele>
        <time>2009-06-18T16:43:36Z</time>
      </trkpt>
      <trkpt lat="44.7773" lon="0.69625">
        <ele>101</ele>
        <time>2009-06-18T16:43:36Z</time>
      </trkpt>
      <trkpt lat="44.77713" lon="0.69613">
        <ele>102</ele>
        <time>2009-06-18T16:43:36Z</time>
      </trkpt>
      <trkpt lat="44.77693" lon="0.69598">
        <ele>102</ele>
        <time>2009-06-18T16:43:36Z</time>
      </trkpt>
      <trkpt lat="44.77673" lon="0.69585">
        <ele>102</ele>
        <time>2009-06-18T16:43:36Z</time>
      </trkpt>
      <trkpt lat="44.77658" lon="0.6957">
        <ele>101</ele>
        <time>2009-06-18T16:43:36Z</time>
      </trkpt>
      <trkpt lat="44.7764" lon="0.69553">
        <ele>101</ele>
        <time>2009-06-18T16:43:36Z</time>
      </trkpt>
      <trkpt lat="44.77628" lon="0.69533">
        <ele>102</ele>
        <time>2009-06-18T16:43:36Z</time>
      </trkpt>
      <trkpt lat="44.77613" lon="0.69515">
        <ele>104</ele>
        <time>2009-06-18T16:43:36Z</time>
      </trkpt>
      <trkpt lat="44.77593" lon="0.69513">
        <ele>98</ele>
        <time>2009-06-18T16:43:36Z</time>
      </trkpt>
      <trkpt lat="44.7758" lon="0.69535">
        <ele>99</ele>
        <time>2009-06-18T16:43:36Z</time>
      </trkpt>
      <trkpt lat="44.7757" lon="0.69558">
        <ele>101</ele>
        <time>2009-06-18T16:43:36Z</time>
      </trkpt>
      <trkpt lat="44.77311" lon="0.69893">
        <ele>145</ele>
        <time>2009-06-18T16:43:36Z</time>
      </trkpt>
      <trkpt lat="44.77118" lon="0.70443">
        <ele>147</ele>
        <time>2009-06-18T16:43:36Z</time>
      </trkpt>
      <trkpt lat="44.77093" lon="0.7085">
        <ele>140</ele>
        <time>2009-06-18T16:43:36Z</time>
      </trkpt>
    </trkseg>
  </trk>
  <trk>
    <name><![CDATA[BBmt16]]></name>
    <trkseg>
      <trkpt lat="44.77108" lon="0.7086">
        <ele>150</ele>
        <time>2008-12-09T14:06:27Z</time>
      </trkpt>
      <trkpt lat="44.77095" lon="0.7088">
        <ele>149</ele>
        <time>2008-12-09T14:06:34Z</time>
      </trkpt>
      <trkpt lat="44.77085" lon="0.70903">
        <ele>150</ele>
        <time>2008-12-09T14:06:40Z</time>
      </trkpt>
      <trkpt lat="44.77073" lon="0.70925">
        <ele>149</ele>
        <time>2008-12-09T14:06:45Z</time>
      </trkpt>
      <trkpt lat="44.77063" lon="0.70948">
        <ele>148</ele>
        <time>2008-12-09T14:06:50Z</time>
      </trkpt>
      <trkpt lat="44.7705" lon="0.7097">
        <ele>147</ele>
        <time>2008-12-09T14:06:56Z</time>
      </trkpt>
      <trkpt lat="44.77038" lon="0.7099">
        <ele>146</ele>
        <time>2008-12-09T14:07:37Z</time>
      </trkpt>
      <trkpt lat="44.77023" lon="0.71008">
        <ele>145</ele>
        <time>2008-12-09T14:07:42Z</time>
      </trkpt>
      <trkpt lat="44.77008" lon="0.71023">
        <ele>144</ele>
        <time>2008-12-09T14:07:47Z</time>
      </trkpt>
      <trkpt lat="44.7699" lon="0.71043">
        <ele>141</ele>
        <time>2008-12-09T14:07:53Z</time>
      </trkpt>
      <trkpt lat="44.76975" lon="0.71063">
        <ele>139</ele>
        <time>2008-12-09T14:07:58Z</time>
      </trkpt>
      <trkpt lat="44.7696" lon="0.71078">
        <ele>138</ele>
        <time>2008-12-09T14:08:03Z</time>
      </trkpt>
      <trkpt lat="44.76943" lon="0.71085">
        <ele>144</ele>
        <time>2008-12-09T14:08:12Z</time>
      </trkpt>
      <trkpt lat="44.76839" lon="0.70994">
        <ele>144</ele>
        <time>2009-06-18T16:43:36Z</time>
      </trkpt>
      <trkpt lat="44.76598" lon="0.71163">
        <ele>132</ele>
        <time>2008-12-09T14:24:19Z</time>
      </trkpt>
      <trkpt lat="44.76578" lon="0.71165">
        <ele>125</ele>
        <time>2008-12-09T14:24:39Z</time>
      </trkpt>
      <trkpt lat="44.76558" lon="0.71168">
        <ele>120</ele>
        <time>2008-12-09T14:24:56Z</time>
      </trkpt>
      <trkpt lat="44.76545" lon="0.71188">
        <ele>127</ele>
        <time>2008-12-09T14:25:21Z</time>
      </trkpt>
      <trkpt lat="44.76548" lon="0.71215">
        <ele>129</ele>
        <time>2008-12-09T14:25:26Z</time>
      </trkpt>
      <trkpt lat="44.76553" lon="0.71245">
        <ele>129</ele>
        <time>2008-12-09T14:25:30Z</time>
      </trkpt>
      <trkpt lat="44.76558" lon="0.71278">
        <ele>130</ele>
        <time>2008-12-09T14:25:34Z</time>
      </trkpt>
      <trkpt lat="44.76563" lon="0.71313">
        <ele>130</ele>
        <time>2008-12-09T14:25:38Z</time>
      </trkpt>
      <trkpt lat="44.76565" lon="0.71343">
        <ele>130</ele>
        <time>2008-12-09T14:25:41Z</time>
      </trkpt>
      <trkpt lat="44.7657" lon="0.71373">
        <ele>130</ele>
        <time>2008-12-09T14:25:44Z</time>
      </trkpt>
      <trkpt lat="44.76575" lon="0.71398">
        <ele>132</ele>
        <time>2008-12-09T14:25:47Z</time>
      </trkpt>
      <trkpt lat="44.76578" lon="0.71425">
        <ele>139</ele>
        <time>2008-12-09T14:25:59Z</time>
      </trkpt>
      <trkpt lat="44.76583" lon="0.7145">
        <ele>139</ele>
        <time>2008-12-09T14:26:02Z</time>
      </trkpt>
      <trkpt lat="44.76588" lon="0.71488">
        <ele>137</ele>
        <time>2008-12-09T14:26:05Z</time>
      </trkpt>
      <trkpt lat="44.7659" lon="0.71515">
        <ele>138</ele>
        <time>2008-12-09T14:26:07Z</time>
      </trkpt>
      <trkpt lat="44.76595" lon="0.7154">
        <ele>139</ele>
        <time>2008-12-09T14:26:09Z</time>
      </trkpt>
      <trkpt lat="44.76598" lon="0.71568">
        <ele>140</ele>
        <time>2008-12-09T14:26:11Z</time>
      </trkpt>
      <trkpt lat="44.76605" lon="0.71605">
        <ele>140</ele>
        <time>2008-12-09T14:26:14Z</time>
      </trkpt>
      <trkpt lat="44.76613" lon="0.7164">
        <ele>141</ele>
        <time>2008-12-09T14:26:17Z</time>
      </trkpt>
      <trkpt lat="44.76618" lon="0.71673">
        <ele>142</ele>
        <time>2008-12-09T14:26:20Z</time>
      </trkpt>
      <trkpt lat="44.76618" lon="0.717">
        <ele>142</ele>
        <time>2008-12-09T14:26:36Z</time>
      </trkpt>
      <trkpt lat="44.76603" lon="0.71715">
        <ele>143</ele>
        <time>2008-12-09T14:26:41Z</time>
      </trkpt>
      <trkpt lat="44.76588" lon="0.71738">
        <ele>143</ele>
        <time>2008-12-09T14:26:46Z</time>
      </trkpt>
      <trkpt lat="44.76573" lon="0.71758">
        <ele>143</ele>
        <time>2008-12-09T14:26:50Z</time>
      </trkpt>
      <trkpt lat="44.76558" lon="0.71778">
        <ele>143</ele>
        <time>2008-12-09T14:26:54Z</time>
      </trkpt>
      <trkpt lat="44.76543" lon="0.718">
        <ele>143</ele>
        <time>2008-12-09T14:26:58Z</time>
      </trkpt>
      <trkpt lat="44.76528" lon="0.71823">
        <ele>142</ele>
        <time>2008-12-09T14:27:02Z</time>
      </trkpt>
      <trkpt lat="44.7651" lon="0.71843">
        <ele>142</ele>
        <time>2008-12-09T14:27:06Z</time>
      </trkpt>
      <trkpt lat="44.76495" lon="0.71865">
        <ele>142</ele>
        <time>2008-12-09T14:27:11Z</time>
      </trkpt>
      <trkpt lat="44.76478" lon="0.71888">
        <ele>142</ele>
        <time>2008-12-09T14:27:16Z</time>
      </trkpt>
      <trkpt lat="44.76465" lon="0.71908">
        <ele>142</ele>
        <time>2008-12-09T14:27:20Z</time>
      </trkpt>
      <trkpt lat="44.7645" lon="0.71928">
        <ele>142</ele>
        <time>2008-12-09T14:27:25Z</time>
      </trkpt>
      <trkpt lat="44.7643" lon="0.71928">
        <ele>143</ele>
        <time>2008-12-09T14:29:04Z</time>
      </trkpt>
      <trkpt lat="44.76226" lon="0.71684">
        <ele>143</ele>
        <time>2009-06-18T16:43:36Z</time>
      </trkpt>
      <trkpt lat="44.76022" lon="0.71837">
        <ele>140</ele>
        <time>2009-06-18T16:43:36Z</time>
      </trkpt>
      <trkpt lat="44.75868" lon="0.72063">
        <ele>138</ele>
        <time>2008-12-09T14:35:18Z</time>
      </trkpt>
      <trkpt lat="44.75853" lon="0.72083">
        <ele>139</ele>
        <time>2008-12-09T14:35:28Z</time>
      </trkpt>
      <trkpt lat="44.75838" lon="0.72098">
        <ele>138</ele>
        <time>2008-12-09T14:35:38Z</time>
      </trkpt>
      <trkpt lat="44.75818" lon="0.72105">
        <ele>140</ele>
        <time>2008-12-09T14:35:51Z</time>
      </trkpt>
      <trkpt lat="44.75813" lon="0.72133">
        <ele>139</ele>
        <time>2008-12-09T14:35:55Z</time>
      </trkpt>
      <trkpt lat="44.75805" lon="0.72158">
        <ele>139</ele>
        <time>2008-12-09T14:35:59Z</time>
      </trkpt>
      <trkpt lat="44.758" lon="0.72183">
        <ele>139</ele>
        <time>2008-12-09T14:36:08Z</time>
      </trkpt>
      <trkpt lat="44.75793" lon="0.72208">
        <ele>139</ele>
        <time>2008-12-09T14:36:13Z</time>
      </trkpt>
      <trkpt lat="44.75788" lon="0.72233">
        <ele>141</ele>
        <time>2008-12-09T14:36:21Z</time>
      </trkpt>
      <trkpt lat="44.7578" lon="0.72258">
        <ele>143</ele>
        <time>2008-12-09T14:36:26Z</time>
      </trkpt>
      <trkpt lat="44.75778" lon="0.72285">
        <ele>148</ele>
        <time>2008-12-09T14:36:33Z</time>
      </trkpt>
      <trkpt lat="44.75745" lon="0.72419">
        <ele>148</ele>
        <time>2008-12-09T14:36:39Z</time>
      </trkpt>
    </trkseg>
  </trk>
  <trk>
    <name><![CDATA[BBmt17]]></name>
    <trkseg>
      <trkpt lat="44.81658" lon="0.79965">
        <ele>166</ele>
        <time>2008-12-08T10:59:26Z</time>
      </trkpt>
      <trkpt lat="44.81638" lon="0.79963">
        <ele>162</ele>
        <time>2008-12-08T11:04:16Z</time>
      </trkpt>
      <trkpt lat="44.8162" lon="0.7997">
        <ele>162</ele>
        <time>2008-12-08T11:04:20Z</time>
      </trkpt>
      <trkpt lat="44.81603" lon="0.79978">
        <ele>161</ele>
        <time>2008-12-08T11:04:24Z</time>
      </trkpt>
      <trkpt lat="44.81583" lon="0.7999">
        <ele>163</ele>
        <time>2008-12-08T11:04:29Z</time>
      </trkpt>
      <trkpt lat="44.81563" lon="0.8">
        <ele>164</ele>
        <time>2008-12-08T11:04:33Z</time>
      </trkpt>
      <trkpt lat="44.81543" lon="0.80013">
        <ele>166</ele>
        <time>2008-12-08T11:04:37Z</time>
      </trkpt>
      <trkpt lat="44.81523" lon="0.80025">
        <ele>167</ele>
        <time>2008-12-08T11:04:40Z</time>
      </trkpt>
      <trkpt lat="44.81505" lon="0.80035">
        <ele>168</ele>
        <time>2008-12-08T11:04:43Z</time>
      </trkpt>
      <trkpt lat="44.8149" lon="0.8002">
        <ele>171</ele>
        <time>2008-12-08T11:04:59Z</time>
      </trkpt>
      <trkpt lat="44.8149" lon="0.7999">
        <ele>172</ele>
        <time>2008-12-08T11:05:02Z</time>
      </trkpt>
      <trkpt lat="44.81493" lon="0.79958">
        <ele>170</ele>
        <time>2008-12-08T11:05:05Z</time>
      </trkpt>
      <trkpt lat="44.81495" lon="0.79925">
        <ele>170</ele>
        <time>2008-12-08T11:05:08Z</time>
      </trkpt>
      <trkpt lat="44.815" lon="0.79895">
        <ele>170</ele>
        <time>2008-12-08T11:05:11Z</time>
      </trkpt>
      <trkpt lat="44.81498" lon="0.7986">
        <ele>169</ele>
        <time>2008-12-08T11:05:14Z</time>
      </trkpt>
      <trkpt lat="44.81488" lon="0.7983">
        <ele>170</ele>
        <time>2008-12-08T11:05:17Z</time>
      </trkpt>
      <trkpt lat="44.81478" lon="0.79805">
        <ele>173</ele>
        <time>2008-12-08T11:05:20Z</time>
      </trkpt>
      <trkpt lat="44.81478" lon="0.79778">
        <ele>175</ele>
        <time>2008-12-08T11:05:32Z</time>
      </trkpt>
      <trkpt lat="44.81475" lon="0.7975">
        <ele>176</ele>
        <time>2008-12-08T11:05:37Z</time>
      </trkpt>
      <trkpt lat="44.81473" lon="0.7972">
        <ele>177</ele>
        <time>2008-12-08T11:05:40Z</time>
      </trkpt>
      <trkpt lat="44.81473" lon="0.79693">
        <ele>174</ele>
        <time>2008-12-08T11:05:49Z</time>
      </trkpt>
      <trkpt lat="44.81463" lon="0.79668">
        <ele>170</ele>
        <time>2008-12-08T11:05:55Z</time>
      </trkpt>
      <trkpt lat="44.81445" lon="0.79653">
        <ele>168</ele>
        <time>2008-12-08T11:05:58Z</time>
      </trkpt>
      <trkpt lat="44.81423" lon="0.79643">
        <ele>166</ele>
        <time>2008-12-08T11:06:01Z</time>
      </trkpt>
      <trkpt lat="44.81398" lon="0.79635">
        <ele>165</ele>
        <time>2008-12-08T11:06:04Z</time>
      </trkpt>
      <trkpt lat="44.81375" lon="0.79625">
        <ele>164</ele>
        <time>2008-12-08T11:06:07Z</time>
      </trkpt>
      <trkpt lat="44.81353" lon="0.79618">
        <ele>163</ele>
        <time>2008-12-08T11:06:10Z</time>
      </trkpt>
      <trkpt lat="44.8133" lon="0.7961">
        <ele>161</ele>
        <time>2008-12-08T11:06:13Z</time>
      </trkpt>
      <trkpt lat="44.8131" lon="0.79598">
        <ele>159</ele>
        <time>2008-12-08T11:06:16Z</time>
      </trkpt>
      <trkpt lat="44.81293" lon="0.79583">
        <ele>157</ele>
        <time>2008-12-08T11:06:25Z</time>
      </trkpt>
      <trkpt lat="44.81283" lon="0.7956">
        <ele>156</ele>
        <time>2008-12-08T11:06:28Z</time>
      </trkpt>
      <trkpt lat="44.81273" lon="0.79538">
        <ele>156</ele>
        <time>2008-12-08T11:06:32Z</time>
      </trkpt>
      <trkpt lat="44.81258" lon="0.79523">
        <ele>153</ele>
        <time>2008-12-08T11:06:45Z</time>
      </trkpt>
      <trkpt lat="44.81243" lon="0.79508">
        <ele>156</ele>
        <time>2008-12-08T11:06:51Z</time>
      </trkpt>
      <trkpt lat="44.81228" lon="0.79493">
        <ele>161</ele>
        <time>2008-12-08T11:06:58Z</time>
      </trkpt>
      <trkpt lat="44.81213" lon="0.79478">
        <ele>160</ele>
        <time>2008-12-08T11:07:03Z</time>
      </trkpt>
      <trkpt lat="44.8028" lon="0.79009">
        <ele>105</ele>
        <time>2009-06-18T16:43:36Z</time>
      </trkpt>
      <trkpt lat="44.8028" lon="0.79001">
        <ele>105</ele>
        <time>2009-06-18T16:43:36Z</time>
      </trkpt>
      <trkpt lat="44.8028" lon="0.78991">
        <ele>105</ele>
        <time>2008-12-08T11:07:08Z</time>
      </trkpt>
    </trkseg>
  </trk>
  <trk>
    <name><![CDATA[BBmt18]]></name>
    <trkseg>
      <trkpt lat="44.81065" lon="0.82418">
        <ele>153</ele>
        <time>2008-12-08T10:29:44Z</time>
      </trkpt>
      <trkpt lat="44.81065" lon="0.8239">
        <ele>154</ele>
        <time>2008-12-08T10:30:03Z</time>
      </trkpt>
      <trkpt lat="44.8105" lon="0.82375">
        <ele>160</ele>
        <time>2008-12-08T10:30:19Z</time>
      </trkpt>
      <trkpt lat="44.81033" lon="0.82365">
        <ele>165</ele>
        <time>2008-12-08T10:30:32Z</time>
      </trkpt>
      <trkpt lat="44.81018" lon="0.82348">
        <ele>158</ele>
        <time>2008-12-08T10:31:05Z</time>
      </trkpt>
      <trkpt lat="44.81028" lon="0.82323">
        <ele>164</ele>
        <time>2008-12-08T10:32:09Z</time>
      </trkpt>
      <trkpt lat="44.81035" lon="0.82295">
        <ele>163</ele>
        <time>2008-12-08T10:32:14Z</time>
      </trkpt>
      <trkpt lat="44.81045" lon="0.82273">
        <ele>161</ele>
        <time>2008-12-08T10:32:21Z</time>
      </trkpt>
      <trkpt lat="44.81053" lon="0.82245">
        <ele>161</ele>
        <time>2008-12-08T10:32:29Z</time>
      </trkpt>
      <trkpt lat="44.81063" lon="0.82215">
        <ele>157</ele>
        <time>2008-12-08T10:32:33Z</time>
      </trkpt>
      <trkpt lat="44.81068" lon="0.82188">
        <ele>156</ele>
        <time>2008-12-08T10:32:36Z</time>
      </trkpt>
      <trkpt lat="44.81068" lon="0.82155">
        <ele>154</ele>
        <time>2008-12-08T10:32:39Z</time>
      </trkpt>
      <trkpt lat="44.81063" lon="0.82123">
        <ele>152</ele>
        <time>2008-12-08T10:32:42Z</time>
      </trkpt>
      <trkpt lat="44.81058" lon="0.82085">
        <ele>151</ele>
        <time>2008-12-08T10:32:45Z</time>
      </trkpt>
      <trkpt lat="44.81055" lon="0.82048">
        <ele>150</ele>
        <time>2008-12-08T10:32:48Z</time>
      </trkpt>
      <trkpt lat="44.81058" lon="0.82015">
        <ele>150</ele>
        <time>2008-12-08T10:32:51Z</time>
      </trkpt>
      <trkpt lat="44.81058" lon="0.81983">
        <ele>150</ele>
        <time>2008-12-08T10:32:54Z</time>
      </trkpt>
      <trkpt lat="44.81063" lon="0.81948">
        <ele>147</ele>
        <time>2008-12-08T10:32:57Z</time>
      </trkpt>
      <trkpt lat="44.81068" lon="0.81918">
        <ele>147</ele>
        <time>2008-12-08T10:33:00Z</time>
      </trkpt>
      <trkpt lat="44.81078" lon="0.81888">
        <ele>147</ele>
        <time>2008-12-08T10:33:03Z</time>
      </trkpt>
      <trkpt lat="44.81093" lon="0.81858">
        <ele>148</ele>
        <time>2008-12-08T10:33:06Z</time>
      </trkpt>
      <trkpt lat="44.81108" lon="0.81835">
        <ele>147</ele>
        <time>2008-12-08T10:33:09Z</time>
      </trkpt>
      <trkpt lat="44.81103" lon="0.8181">
        <ele>150</ele>
        <time>2008-12-08T10:33:23Z</time>
      </trkpt>
      <trkpt lat="44.81113" lon="0.81788">
        <ele>160</ele>
        <time>2008-12-08T10:33:38Z</time>
      </trkpt>
      <trkpt lat="44.81123" lon="0.81765">
        <ele>166</ele>
        <time>2008-12-08T10:33:44Z</time>
      </trkpt>
      <trkpt lat="44.81133" lon="0.81743">
        <ele>171</ele>
        <time>2008-12-08T10:33:49Z</time>
      </trkpt>
      <trkpt lat="44.81145" lon="0.81715">
        <ele>172</ele>
        <time>2008-12-08T10:33:55Z</time>
      </trkpt>
      <trkpt lat="44.81153" lon="0.8169">
        <ele>173</ele>
        <time>2008-12-08T10:34:02Z</time>
      </trkpt>
      <trkpt lat="44.8116" lon="0.81663">
        <ele>177</ele>
        <time>2008-12-08T10:34:10Z</time>
      </trkpt>
      <trkpt lat="44.81168" lon="0.81638">
        <ele>175</ele>
        <time>2008-12-08T10:34:16Z</time>
      </trkpt>
      <trkpt lat="44.81173" lon="0.81605">
        <ele>176</ele>
        <time>2008-12-08T10:34:23Z</time>
      </trkpt>
      <trkpt lat="44.81175" lon="0.81575">
        <ele>181</ele>
        <time>2008-12-08T10:34:30Z</time>
      </trkpt>
      <trkpt lat="44.81185" lon="0.81553">
        <ele>173</ele>
        <time>2008-12-08T10:34:36Z</time>
      </trkpt>
      <trkpt lat="44.8119" lon="0.81528">
        <ele>177</ele>
        <time>2008-12-08T10:34:46Z</time>
      </trkpt>
      <trkpt lat="44.81195" lon="0.81503">
        <ele>175</ele>
        <time>2008-12-08T10:34:51Z</time>
      </trkpt>
      <trkpt lat="44.81195" lon="0.81473">
        <ele>174</ele>
        <time>2008-12-08T10:34:57Z</time>
      </trkpt>
      <trkpt lat="44.8119" lon="0.81445">
        <ele>175</ele>
        <time>2008-12-08T10:35:11Z</time>
      </trkpt>
      <trkpt lat="44.81173" lon="0.81428">
        <ele>177</ele>
        <time>2008-12-08T10:35:15Z</time>
      </trkpt>
      <trkpt lat="44.8117" lon="0.814">
        <ele>182</ele>
        <time>2008-12-08T10:35:30Z</time>
      </trkpt>
      <trkpt lat="44.8118" lon="0.81378">
        <ele>180</ele>
        <time>2008-12-08T10:35:37Z</time>
      </trkpt>
      <trkpt lat="44.81193" lon="0.81358">
        <ele>177</ele>
        <time>2008-12-08T10:35:47Z</time>
      </trkpt>
      <trkpt lat="44.81198" lon="0.81333">
        <ele>176</ele>
        <time>2008-12-08T10:36:04Z</time>
      </trkpt>
      <trkpt lat="44.81208" lon="0.81308">
        <ele>171</ele>
        <time>2008-12-08T10:36:13Z</time>
      </trkpt>
      <trkpt lat="44.8122" lon="0.81285">
        <ele>170</ele>
        <time>2008-12-08T10:36:16Z</time>
      </trkpt>
      <trkpt lat="44.81235" lon="0.81255">
        <ele>169</ele>
        <time>2008-12-08T10:36:19Z</time>
      </trkpt>
      <trkpt lat="44.81248" lon="0.81225">
        <ele>167</ele>
        <time>2008-12-08T10:36:22Z</time>
      </trkpt>
      <trkpt lat="44.8126" lon="0.81205">
        <ele>165</ele>
        <time>2008-12-08T10:36:24Z</time>
      </trkpt>
      <trkpt lat="44.8128" lon="0.8118">
        <ele>164</ele>
        <time>2008-12-08T10:36:27Z</time>
      </trkpt>
      <trkpt lat="44.81295" lon="0.81165">
        <ele>163</ele>
        <time>2008-12-08T10:36:29Z</time>
      </trkpt>
      <trkpt lat="44.8131" lon="0.81145">
        <ele>161</ele>
        <time>2008-12-08T10:36:32Z</time>
      </trkpt>
      <trkpt lat="44.8131" lon="0.81115">
        <ele>159</ele>
        <time>2008-12-08T10:36:37Z</time>
      </trkpt>
      <trkpt lat="44.81308" lon="0.81088">
        <ele>158</ele>
        <time>2008-12-08T10:36:41Z</time>
      </trkpt>
      <trkpt lat="44.81323" lon="0.81073">
        <ele>159</ele>
        <time>2008-12-08T10:36:46Z</time>
      </trkpt>
      <trkpt lat="44.8134" lon="0.8106">
        <ele>158</ele>
        <time>2008-12-08T10:36:51Z</time>
      </trkpt>
      <trkpt lat="44.81358" lon="0.81048">
        <ele>155</ele>
        <time>2008-12-08T10:36:55Z</time>
      </trkpt>
      <trkpt lat="44.81375" lon="0.81033">
        <ele>154</ele>
        <time>2008-12-08T10:36:59Z</time>
      </trkpt>
      <trkpt lat="44.8139" lon="0.8101">
        <ele>159</ele>
        <time>2008-12-08T10:37:05Z</time>
      </trkpt>
      <trkpt lat="44.814" lon="0.80983">
        <ele>162</ele>
        <time>2008-12-08T10:37:09Z</time>
      </trkpt>
      <trkpt lat="44.8141" lon="0.80953">
        <ele>167</ele>
        <time>2008-12-08T10:37:14Z</time>
      </trkpt>
      <trkpt lat="44.8142" lon="0.80928">
        <ele>169</ele>
        <time>2008-12-08T10:37:18Z</time>
      </trkpt>
      <trkpt lat="44.8143" lon="0.809">
        <ele>166</ele>
        <time>2008-12-08T10:37:22Z</time>
      </trkpt>
      <trkpt lat="44.8144" lon="0.80873">
        <ele>162</ele>
        <time>2008-12-08T10:37:26Z</time>
      </trkpt>
      <trkpt lat="44.8145" lon="0.80843">
        <ele>160</ele>
        <time>2008-12-08T10:37:31Z</time>
      </trkpt>
      <trkpt lat="44.81458" lon="0.80815">
        <ele>156</ele>
        <time>2008-12-08T10:37:35Z</time>
      </trkpt>
      <trkpt lat="44.81465" lon="0.80788">
        <ele>157</ele>
        <time>2008-12-08T10:37:39Z</time>
      </trkpt>
      <trkpt lat="44.8148" lon="0.80768">
        <ele>156</ele>
        <time>2008-12-08T10:37:43Z</time>
      </trkpt>
      <trkpt lat="44.81493" lon="0.80748">
        <ele>157</ele>
        <time>2008-12-08T10:37:46Z</time>
      </trkpt>
      <trkpt lat="44.81508" lon="0.8073">
        <ele>164</ele>
        <time>2008-12-08T10:37:49Z</time>
      </trkpt>
      <trkpt lat="44.81523" lon="0.80715">
        <ele>166</ele>
        <time>2008-12-08T10:37:52Z</time>
      </trkpt>
      <trkpt lat="44.8153" lon="0.8069">
        <ele>172</ele>
        <time>2008-12-08T10:38:09Z</time>
      </trkpt>
      <trkpt lat="44.81535" lon="0.80665">
        <ele>167</ele>
        <time>2008-12-08T10:38:15Z</time>
      </trkpt>
      <trkpt lat="44.8154" lon="0.8064">
        <ele>168</ele>
        <time>2008-12-08T10:38:20Z</time>
      </trkpt>
      <trkpt lat="44.81565" lon="0.80568">
        <ele>160</ele>
        <time>2009-06-18T16:43:36Z</time>
      </trkpt>
      <trkpt lat="44.81568" lon="0.80535">
        <ele>154</ele>
        <time>2009-06-18T16:43:36Z</time>
      </trkpt>
      <trkpt lat="44.81573" lon="0.80508">
        <ele>164</ele>
        <time>2009-06-18T16:43:36Z</time>
      </trkpt>
      <trkpt lat="44.81578" lon="0.80483">
        <ele>166</ele>
        <time>2009-06-18T16:43:36Z</time>
      </trkpt>
      <trkpt lat="44.81575" lon="0.80453">
        <ele>169</ele>
        <time>2009-06-18T16:43:36Z</time>
      </trkpt>
      <trkpt lat="44.81568" lon="0.80428">
        <ele>170</ele>
        <time>2009-06-18T16:43:36Z</time>
      </trkpt>
      <trkpt lat="44.8156" lon="0.80403">
        <ele>166</ele>
        <time>2009-06-18T16:43:36Z</time>
      </trkpt>
      <trkpt lat="44.8157" lon="0.8038">
        <ele>157</ele>
        <time>2009-06-18T16:43:36Z</time>
      </trkpt>
      <trkpt lat="44.81585" lon="0.80363">
        <ele>157</ele>
        <time>2009-06-18T16:43:36Z</time>
      </trkpt>
      <trkpt lat="44.816" lon="0.80348">
        <ele>155</ele>
        <time>2009-06-18T16:43:36Z</time>
      </trkpt>
      <trkpt lat="44.81613" lon="0.80328">
        <ele>163</ele>
        <time>2009-06-18T16:43:36Z</time>
      </trkpt>
      <trkpt lat="44.81625" lon="0.80305">
        <ele>168</ele>
        <time>2009-06-18T16:43:36Z</time>
      </trkpt>
      <trkpt lat="44.8163" lon="0.8028">
        <ele>160</ele>
        <time>2009-06-18T16:43:36Z</time>
      </trkpt>
      <trkpt lat="44.81633" lon="0.80253">
        <ele>161</ele>
        <time>2009-06-18T16:43:36Z</time>
      </trkpt>
      <trkpt lat="44.81635" lon="0.80225">
        <ele>160</ele>
        <time>2009-06-18T16:43:36Z</time>
      </trkpt>
      <trkpt lat="44.81633" lon="0.80198">
        <ele>156</ele>
        <time>2009-06-18T16:43:36Z</time>
      </trkpt>
      <trkpt lat="44.81635" lon="0.8017">
        <ele>156</ele>
        <time>2009-06-18T16:43:36Z</time>
      </trkpt>
      <trkpt lat="44.81638" lon="0.8014">
        <ele>156</ele>
        <time>2009-06-18T16:43:36Z</time>
      </trkpt>
      <trkpt lat="44.8164" lon="0.8011">
        <ele>159</ele>
        <time>2009-06-18T16:43:36Z</time>
      </trkpt>
      <trkpt lat="44.81643" lon="0.8008">
        <ele>163</ele>
        <time>2009-06-18T16:43:36Z</time>
      </trkpt>
      <trkpt lat="44.81645" lon="0.80053">
        <ele>165</ele>
        <time>2009-06-18T16:43:36Z</time>
      </trkpt>
      <trkpt lat="44.81648" lon="0.80023">
        <ele>168</ele>
        <time>2009-06-18T16:43:36Z</time>
      </trkpt>
      <trkpt lat="44.8165" lon="0.79995">
        <ele>168</ele>
        <time>2009-06-18T16:43:36Z</time>
      </trkpt>
      <trkpt lat="44.81655" lon="0.79968">
        <ele>166</ele>
        <time>2009-06-18T16:43:36Z</time>
      </trkpt>
    </trkseg>
  </trk>
  <trk>
    <name><![CDATA[BBmt19]]></name>
    <trkseg>
      <trkpt lat="44.7692" lon="0.76865">
        <ele>149</ele>
        <time>2008-12-18T12:58:44Z</time>
      </trkpt>
      <trkpt lat="44.7694" lon="0.76875">
        <ele>142</ele>
        <time>2008-12-18T12:58:53Z</time>
      </trkpt>
      <trkpt lat="44.76955" lon="0.76893">
        <ele>139</ele>
        <time>2008-12-18T12:58:59Z</time>
      </trkpt>
      <trkpt lat="44.7696" lon="0.76923">
        <ele>134</ele>
        <time>2008-12-18T12:59:13Z</time>
      </trkpt>
      <trkpt lat="44.7697" lon="0.7695">
        <ele>132</ele>
        <time>2008-12-18T12:59:18Z</time>
      </trkpt>
      <trkpt lat="44.76978" lon="0.76975">
        <ele>130</ele>
        <time>2008-12-18T12:59:21Z</time>
      </trkpt>
      <trkpt lat="44.76988" lon="0.76998">
        <ele>127</ele>
        <time>2008-12-18T12:59:34Z</time>
      </trkpt>
      <trkpt lat="44.77008" lon="0.76998">
        <ele>122</ele>
        <time>2008-12-18T12:59:43Z</time>
      </trkpt>
      <trkpt lat="44.77028" lon="0.77">
        <ele>121</ele>
        <time>2008-12-18T12:59:49Z</time>
      </trkpt>
      <trkpt lat="44.77058" lon="0.76988">
        <ele>130</ele>
        <time>2008-12-18T13:01:23Z</time>
      </trkpt>
      <trkpt lat="44.77075" lon="0.76975">
        <ele>130</ele>
        <time>2008-12-18T13:01:31Z</time>
      </trkpt>
      <trkpt lat="44.77065" lon="0.76953">
        <ele>130</ele>
        <time>2008-12-18T13:01:43Z</time>
      </trkpt>
      <trkpt lat="44.77053" lon="0.76933">
        <ele>129</ele>
        <time>2008-12-18T13:01:47Z</time>
      </trkpt>
      <trkpt lat="44.77063" lon="0.76908">
        <ele>127</ele>
        <time>2008-12-18T13:02:04Z</time>
      </trkpt>
      <trkpt lat="44.7708" lon="0.7689">
        <ele>126</ele>
        <time>2008-12-18T13:02:08Z</time>
      </trkpt>
      <trkpt lat="44.77098" lon="0.76878">
        <ele>124</ele>
        <time>2008-12-18T13:02:18Z</time>
      </trkpt>
    </trkseg>
  </trk>
  <trk>
    <name><![CDATA[BBmt20]]></name>
    <trkseg>
      <trkpt lat="44.771" lon="0.7688">
        <ele>126</ele>
        <time>2008-12-18T13:02:39Z</time>
      </trkpt>
      <trkpt lat="44.77115" lon="0.769">
        <ele>120</ele>
        <time>2008-12-18T13:04:22Z</time>
      </trkpt>
      <trkpt lat="44.7713" lon="0.76928">
        <ele>119</ele>
        <time>2008-12-18T13:04:27Z</time>
      </trkpt>
      <trkpt lat="44.77143" lon="0.76948">
        <ele>118</ele>
        <time>2008-12-18T13:04:30Z</time>
      </trkpt>
      <trkpt lat="44.77155" lon="0.76973">
        <ele>116</ele>
        <time>2008-12-18T13:04:33Z</time>
      </trkpt>
      <trkpt lat="44.77173" lon="0.77">
        <ele>114</ele>
        <time>2008-12-18T13:04:36Z</time>
      </trkpt>
      <trkpt lat="44.77188" lon="0.77028">
        <ele>113</ele>
        <time>2008-12-18T13:04:39Z</time>
      </trkpt>
      <trkpt lat="44.77203" lon="0.77053">
        <ele>112</ele>
        <time>2008-12-18T13:04:42Z</time>
      </trkpt>
      <trkpt lat="44.77215" lon="0.77078">
        <ele>111</ele>
        <time>2008-12-18T13:04:45Z</time>
      </trkpt>
      <trkpt lat="44.77233" lon="0.77103">
        <ele>110</ele>
        <time>2008-12-18T13:04:48Z</time>
      </trkpt>
      <trkpt lat="44.77245" lon="0.77123">
        <ele>108</ele>
        <time>2008-12-18T13:04:51Z</time>
      </trkpt>
      <trkpt lat="44.77258" lon="0.77143">
        <ele>103</ele>
        <time>2008-12-18T13:05:01Z</time>
      </trkpt>
      <trkpt lat="44.77273" lon="0.77163">
        <ele>102</ele>
        <time>2008-12-18T13:05:05Z</time>
      </trkpt>
      <trkpt lat="44.77288" lon="0.77178">
        <ele>100</ele>
        <time>2008-12-18T13:05:07Z</time>
      </trkpt>
      <trkpt lat="44.77308" lon="0.77203">
        <ele>99</ele>
        <time>2008-12-18T13:05:10Z</time>
      </trkpt>
      <trkpt lat="44.77325" lon="0.77225">
        <ele>99</ele>
        <time>2008-12-18T13:05:13Z</time>
      </trkpt>
      <trkpt lat="44.77343" lon="0.7725">
        <ele>99</ele>
        <time>2008-12-18T13:05:16Z</time>
      </trkpt>
      <trkpt lat="44.77355" lon="0.77273">
        <ele>98</ele>
        <time>2008-12-18T13:05:28Z</time>
      </trkpt>
      <trkpt lat="44.77343" lon="0.77295">
        <ele>97</ele>
        <time>2008-12-18T13:05:33Z</time>
      </trkpt>
      <trkpt lat="44.77323" lon="0.7732">
        <ele>96</ele>
        <time>2008-12-18T13:05:37Z</time>
      </trkpt>
      <trkpt lat="44.77305" lon="0.7734">
        <ele>96</ele>
        <time>2008-12-18T13:05:40Z</time>
      </trkpt>
      <trkpt lat="44.77285" lon="0.77363">
        <ele>96</ele>
        <time>2008-12-18T13:05:43Z</time>
      </trkpt>
      <trkpt lat="44.7727" lon="0.77383">
        <ele>97</ele>
        <time>2008-12-18T13:05:46Z</time>
      </trkpt>
      <trkpt lat="44.77183" lon="0.77915">
        <ele>132</ele>
        <time>2008-12-18T13:11:52Z</time>
      </trkpt>
      <trkpt lat="44.77178" lon="0.7794">
        <ele>132</ele>
        <time>2008-12-18T13:12:02Z</time>
      </trkpt>
      <trkpt lat="44.77173" lon="0.7797">
        <ele>133</ele>
        <time>2008-12-18T13:12:07Z</time>
      </trkpt>
      <trkpt lat="44.7717" lon="0.78">
        <ele>134</ele>
        <time>2008-12-18T13:12:12Z</time>
      </trkpt>
      <trkpt lat="44.7717" lon="0.78028">
        <ele>136</ele>
        <time>2008-12-18T13:12:16Z</time>
      </trkpt>
      <trkpt lat="44.77173" lon="0.78055">
        <ele>138</ele>
        <time>2008-12-18T13:12:29Z</time>
      </trkpt>
      <trkpt lat="44.77173" lon="0.78083">
        <ele>140</ele>
        <time>2008-12-18T13:12:35Z</time>
      </trkpt>
      <trkpt lat="44.7718" lon="0.78108">
        <ele>141</ele>
        <time>2008-12-18T13:12:40Z</time>
      </trkpt>
      <trkpt lat="44.7719" lon="0.78133">
        <ele>140</ele>
        <time>2008-12-18T13:12:44Z</time>
      </trkpt>
      <trkpt lat="44.77198" lon="0.78158">
        <ele>140</ele>
        <time>2008-12-18T13:12:48Z</time>
      </trkpt>
      <trkpt lat="44.77208" lon="0.78183">
        <ele>139</ele>
        <time>2008-12-18T13:12:52Z</time>
      </trkpt>
      <trkpt lat="44.77218" lon="0.78205">
        <ele>138</ele>
        <time>2008-12-18T13:12:56Z</time>
      </trkpt>
      <trkpt lat="44.77228" lon="0.78228">
        <ele>138</ele>
        <time>2008-12-18T13:13:00Z</time>
      </trkpt>
      <trkpt lat="44.77238" lon="0.78258">
        <ele>138</ele>
        <time>2008-12-18T13:13:05Z</time>
      </trkpt>
      <trkpt lat="44.7724" lon="0.7829">
        <ele>139</ele>
        <time>2008-12-18T13:13:10Z</time>
      </trkpt>
      <trkpt lat="44.7724" lon="0.78318">
        <ele>138</ele>
        <time>2008-12-18T13:13:14Z</time>
      </trkpt>
      <trkpt lat="44.7724" lon="0.78345">
        <ele>138</ele>
        <time>2008-12-18T13:13:18Z</time>
      </trkpt>
      <trkpt lat="44.7724" lon="0.78375">
        <ele>135</ele>
        <time>2008-12-18T13:13:23Z</time>
      </trkpt>
      <trkpt lat="44.77248" lon="0.78403">
        <ele>137</ele>
        <time>2008-12-18T13:13:27Z</time>
      </trkpt>
      <trkpt lat="44.77258" lon="0.78433">
        <ele>141</ele>
        <time>2008-12-18T13:13:31Z</time>
      </trkpt>
      <trkpt lat="44.77268" lon="0.78458">
        <ele>142</ele>
        <time>2008-12-18T13:13:34Z</time>
      </trkpt>
      <trkpt lat="44.77278" lon="0.7848">
        <ele>144</ele>
        <time>2008-12-18T13:13:37Z</time>
      </trkpt>
      <trkpt lat="44.77283" lon="0.78505">
        <ele>146</ele>
        <time>2008-12-18T13:13:40Z</time>
      </trkpt>
      <trkpt lat="44.77285" lon="0.78538">
        <ele>147</ele>
        <time>2008-12-18T13:13:44Z</time>
      </trkpt>
      <trkpt lat="44.77288" lon="0.78568">
        <ele>146</ele>
        <time>2008-12-18T13:13:48Z</time>
      </trkpt>
      <trkpt lat="44.77293" lon="0.78595">
        <ele>145</ele>
        <time>2008-12-18T13:14:04Z</time>
      </trkpt>
      <trkpt lat="44.7731" lon="0.7861">
        <ele>144</ele>
        <time>2008-12-18T13:14:08Z</time>
      </trkpt>
      <trkpt lat="44.77323" lon="0.78633">
        <ele>144</ele>
        <time>2008-12-18T13:14:11Z</time>
      </trkpt>
      <trkpt lat="44.77338" lon="0.78648">
        <ele>144</ele>
        <time>2008-12-18T13:14:14Z</time>
      </trkpt>
    </trkseg>
  </trk>
  <trk>
    <name><![CDATA[BBmt21]]></name>
    <trkseg>
      <trkpt lat="44.77825" lon="0.78405">
        <ele>126</ele>
        <time>2008-12-18T13:16:21Z</time>
      </trkpt>
      <trkpt lat="44.77833" lon="0.78433">
        <ele>126</ele>
        <time>2008-12-18T13:16:33Z</time>
      </trkpt>
      <trkpt lat="44.77835" lon="0.7846">
        <ele>126</ele>
        <time>2008-12-18T13:16:38Z</time>
      </trkpt>
      <trkpt lat="44.7784" lon="0.7849">
        <ele>125</ele>
        <time>2008-12-18T13:16:44Z</time>
      </trkpt>
      <trkpt lat="44.77848" lon="0.78518">
        <ele>120</ele>
        <time>2008-12-18T13:16:50Z</time>
      </trkpt>
      <trkpt lat="44.77858" lon="0.78545">
        <ele>117</ele>
        <time>2008-12-18T13:16:57Z</time>
      </trkpt>
      <trkpt lat="44.77873" lon="0.78568">
        <ele>119</ele>
        <time>2008-12-18T13:17:03Z</time>
      </trkpt>
      <trkpt lat="44.77888" lon="0.78583">
        <ele>119</ele>
        <time>2008-12-18T13:17:08Z</time>
      </trkpt>
      <trkpt lat="44.77898" lon="0.78605">
        <ele>119</ele>
        <time>2008-12-18T13:17:13Z</time>
      </trkpt>
      <trkpt lat="44.77908" lon="0.78628">
        <ele>117</ele>
        <time>2008-12-18T13:17:24Z</time>
      </trkpt>
      <trkpt lat="44.77908" lon="0.78658">
        <ele>115</ele>
        <time>2008-12-18T13:17:29Z</time>
      </trkpt>
      <trkpt lat="44.77905" lon="0.78688">
        <ele>110</ele>
        <time>2008-12-18T13:17:35Z</time>
      </trkpt>
      <trkpt lat="44.77908" lon="0.78718">
        <ele>102</ele>
        <time>2008-12-18T13:17:42Z</time>
      </trkpt>
      <trkpt lat="44.77908" lon="0.78745">
        <ele>92</ele>
        <time>2008-12-18T13:17:48Z</time>
      </trkpt>
      <trkpt lat="44.77915" lon="0.7877">
        <ele>86</ele>
        <time>2008-12-18T13:18:00Z</time>
      </trkpt>
      <trkpt lat="44.77928" lon="0.78793">
        <ele>85</ele>
        <time>2008-12-18T13:18:06Z</time>
      </trkpt>
      <trkpt lat="44.77943" lon="0.78813">
        <ele>86</ele>
        <time>2008-12-18T13:18:12Z</time>
      </trkpt>
      <trkpt lat="44.77955" lon="0.78833">
        <ele>83</ele>
        <time>2008-12-18T13:20:30Z</time>
      </trkpt>
      <trkpt lat="44.77968" lon="0.78853">
        <ele>89</ele>
        <time>2008-12-18T13:21:08Z</time>
      </trkpt>
      <trkpt lat="44.77985" lon="0.78865">
        <ele>80</ele>
        <time>2008-12-18T13:21:22Z</time>
      </trkpt>
      <trkpt lat="44.78003" lon="0.78878">
        <ele>75</ele>
        <time>2008-12-18T13:21:33Z</time>
      </trkpt>
      <trkpt lat="44.78025" lon="0.78883">
        <ele>75</ele>
        <time>2008-12-18T13:21:40Z</time>
      </trkpt>
      <trkpt lat="44.78045" lon="0.78883">
        <ele>72</ele>
        <time>2008-12-18T13:21:47Z</time>
      </trkpt>
      <trkpt lat="44.78065" lon="0.78875">
        <ele>69</ele>
        <time>2008-12-18T13:21:52Z</time>
      </trkpt>
      <trkpt lat="44.78085" lon="0.78873">
        <ele>68</ele>
        <time>2008-12-18T13:21:56Z</time>
      </trkpt>
      <trkpt lat="44.78108" lon="0.78875">
        <ele>67</ele>
        <time>2008-12-18T13:22:01Z</time>
      </trkpt>
      <trkpt lat="44.7813" lon="0.78873">
        <ele>69</ele>
        <time>2008-12-18T13:22:07Z</time>
      </trkpt>
      <trkpt lat="44.78153" lon="0.78878">
        <ele>70</ele>
        <time>2008-12-18T13:22:12Z</time>
      </trkpt>
      <trkpt lat="44.78173" lon="0.7889">
        <ele>71</ele>
        <time>2008-12-18T13:22:16Z</time>
      </trkpt>
      <trkpt lat="44.7819" lon="0.78903">
        <ele>71</ele>
        <time>2008-12-18T13:22:20Z</time>
      </trkpt>
      <trkpt lat="44.78208" lon="0.78918">
        <ele>72</ele>
        <time>2008-12-18T13:22:23Z</time>
      </trkpt>
      <trkpt lat="44.7822" lon="0.78925">
        <ele>70</ele>
        <time>2008-12-18T13:25:27Z</time>
      </trkpt>
      <trkpt lat="44.78238" lon="0.7895">
        <ele>77</ele>
        <time>2008-12-18T13:28:23Z</time>
      </trkpt>
      <trkpt lat="44.7826" lon="0.78978">
        <ele>73</ele>
        <time>2008-12-18T13:29:09Z</time>
      </trkpt>
      <trkpt lat="44.78275" lon="0.78998">
        <ele>73</ele>
        <time>2008-12-18T13:29:12Z</time>
      </trkpt>
      <trkpt lat="44.7829" lon="0.79018">
        <ele>77</ele>
        <time>2008-12-18T13:29:15Z</time>
      </trkpt>
      <trkpt lat="44.78303" lon="0.79043">
        <ele>80</ele>
        <time>2008-12-18T13:29:20Z</time>
      </trkpt>
      <trkpt lat="44.78305" lon="0.7907">
        <ele>84</ele>
        <time>2008-12-18T13:29:26Z</time>
      </trkpt>
      <trkpt lat="44.78303" lon="0.791">
        <ele>87</ele>
        <time>2008-12-18T13:29:31Z</time>
      </trkpt>
      <trkpt lat="44.783" lon="0.7913">
        <ele>91</ele>
        <time>2008-12-18T13:29:36Z</time>
      </trkpt>
      <trkpt lat="44.783" lon="0.7916">
        <ele>92</ele>
        <time>2008-12-18T13:29:39Z</time>
      </trkpt>
      <trkpt lat="44.783" lon="0.7919">
        <ele>92</ele>
        <time>2008-12-18T13:29:42Z</time>
      </trkpt>
      <trkpt lat="44.78303" lon="0.7922">
        <ele>92</ele>
        <time>2008-12-18T13:29:45Z</time>
      </trkpt>
      <trkpt lat="44.7831" lon="0.79248">
        <ele>95</ele>
        <time>2008-12-18T13:29:48Z</time>
      </trkpt>
      <trkpt lat="44.78318" lon="0.79278">
        <ele>100</ele>
        <time>2008-12-18T13:29:51Z</time>
      </trkpt>
      <trkpt lat="44.78323" lon="0.79308">
        <ele>102</ele>
        <time>2008-12-18T13:29:54Z</time>
      </trkpt>
      <trkpt lat="44.78328" lon="0.79343">
        <ele>103</ele>
        <time>2008-12-18T13:29:57Z</time>
      </trkpt>
      <trkpt lat="44.78335" lon="0.79373">
        <ele>104</ele>
        <time>2008-12-18T13:30:00Z</time>
      </trkpt>
      <trkpt lat="44.7834" lon="0.79403">
        <ele>105</ele>
        <time>2008-12-18T13:30:03Z</time>
      </trkpt>
      <trkpt lat="44.78353" lon="0.79423">
        <ele>109</ele>
        <time>2008-12-18T13:30:06Z</time>
      </trkpt>
      <trkpt lat="44.7837" lon="0.7944">
        <ele>113</ele>
        <time>2008-12-18T13:30:09Z</time>
      </trkpt>
      <trkpt lat="44.7839" lon="0.79453">
        <ele>115</ele>
        <time>2008-12-18T13:30:12Z</time>
      </trkpt>
      <trkpt lat="44.78408" lon="0.7946">
        <ele>116</ele>
        <time>2008-12-18T13:30:15Z</time>
      </trkpt>
      <trkpt lat="44.78425" lon="0.7947">
        <ele>115</ele>
        <time>2008-12-18T13:30:55Z</time>
      </trkpt>
      <trkpt lat="44.78445" lon="0.79488">
        <ele>116</ele>
        <time>2008-12-18T13:31:06Z</time>
      </trkpt>
      <trkpt lat="44.78465" lon="0.79503">
        <ele>118</ele>
        <time>2008-12-18T13:31:09Z</time>
      </trkpt>
      <trkpt lat="44.78488" lon="0.7952">
        <ele>119</ele>
        <time>2008-12-18T13:31:12Z</time>
      </trkpt>
      <trkpt lat="44.78508" lon="0.7954">
        <ele>121</ele>
        <time>2008-12-18T13:31:15Z</time>
      </trkpt>
      <trkpt lat="44.78528" lon="0.79558">
        <ele>123</ele>
        <time>2008-12-18T13:31:18Z</time>
      </trkpt>
      <trkpt lat="44.78548" lon="0.79575">
        <ele>124</ele>
        <time>2008-12-18T13:31:20Z</time>
      </trkpt>
      <trkpt lat="44.78568" lon="0.7959">
        <ele>126</ele>
        <time>2008-12-18T13:31:24Z</time>
      </trkpt>
      <trkpt lat="44.78588" lon="0.79608">
        <ele>129</ele>
        <time>2008-12-18T13:31:27Z</time>
      </trkpt>
      <trkpt lat="44.78605" lon="0.7963">
        <ele>133</ele>
        <time>2008-12-18T13:31:30Z</time>
      </trkpt>
      <trkpt lat="44.78623" lon="0.79653">
        <ele>138</ele>
        <time>2008-12-18T13:31:33Z</time>
      </trkpt>
      <trkpt lat="44.7864" lon="0.79675">
        <ele>140</ele>
        <time>2008-12-18T13:31:36Z</time>
      </trkpt>
      <trkpt lat="44.78658" lon="0.79695">
        <ele>142</ele>
        <time>2008-12-18T13:31:39Z</time>
      </trkpt>
      <trkpt lat="44.78675" lon="0.79715">
        <ele>145</ele>
        <time>2008-12-18T13:31:42Z</time>
      </trkpt>
      <trkpt lat="44.78688" lon="0.79735">
        <ele>148</ele>
        <time>2008-12-18T13:31:45Z</time>
      </trkpt>
      <trkpt lat="44.78703" lon="0.79753">
        <ele>150</ele>
        <time>2008-12-18T13:31:49Z</time>
      </trkpt>
      <trkpt lat="44.78718" lon="0.79775">
        <ele>152</ele>
        <time>2008-12-18T13:31:52Z</time>
      </trkpt>
      <trkpt lat="44.78735" lon="0.798">
        <ele>153</ele>
        <time>2008-12-18T13:31:55Z</time>
      </trkpt>
      <trkpt lat="44.7875" lon="0.7982">
        <ele>155</ele>
        <time>2008-12-18T13:32:05Z</time>
      </trkpt>
      <trkpt lat="44.78765" lon="0.79835">
        <ele>155</ele>
        <time>2008-12-18T13:32:17Z</time>
      </trkpt>
      <trkpt lat="44.78783" lon="0.7985">
        <ele>155</ele>
        <time>2008-12-18T13:32:22Z</time>
      </trkpt>
      <trkpt lat="44.78798" lon="0.7987">
        <ele>156</ele>
        <time>2008-12-18T13:32:29Z</time>
      </trkpt>
      <trkpt lat="44.78813" lon="0.79885">
        <ele>155</ele>
        <time>2008-12-18T13:32:37Z</time>
      </trkpt>
      <trkpt lat="44.78828" lon="0.79903">
        <ele>153</ele>
        <time>2008-12-18T13:32:45Z</time>
      </trkpt>
      <trkpt lat="44.78845" lon="0.7991">
        <ele>152</ele>
        <time>2008-12-18T13:32:53Z</time>
      </trkpt>
      <trkpt lat="44.78853" lon="0.79935">
        <ele>150</ele>
        <time>2008-12-18T13:33:01Z</time>
      </trkpt>
      <trkpt lat="44.7886" lon="0.7996">
        <ele>151</ele>
        <time>2008-12-18T13:33:08Z</time>
      </trkpt>
      <trkpt lat="44.78878" lon="0.79973">
        <ele>151</ele>
        <time>2008-12-18T13:33:14Z</time>
      </trkpt>
      <trkpt lat="44.78893" lon="0.79988">
        <ele>153</ele>
        <time>2008-12-18T13:33:20Z</time>
      </trkpt>
      <trkpt lat="44.7891" lon="0.79998">
        <ele>152</ele>
        <time>2008-12-18T13:33:26Z</time>
      </trkpt>
      <trkpt lat="44.7893" lon="0.79995">
        <ele>147</ele>
        <time>2008-12-18T13:33:33Z</time>
      </trkpt>
      <trkpt lat="44.78935" lon="0.79968">
        <ele>146</ele>
        <time>2008-12-18T13:33:40Z</time>
      </trkpt>
      <trkpt lat="44.78938" lon="0.79938">
        <ele>145</ele>
        <time>2008-12-18T13:33:46Z</time>
      </trkpt>
      <trkpt lat="44.78948" lon="0.79915">
        <ele>145</ele>
        <time>2008-12-18T13:33:51Z</time>
      </trkpt>
      <trkpt lat="44.7896" lon="0.79895">
        <ele>143</ele>
        <time>2008-12-18T13:33:56Z</time>
      </trkpt>
      <trkpt lat="44.78978" lon="0.7988">
        <ele>142</ele>
        <time>2008-12-18T13:34:01Z</time>
      </trkpt>
      <trkpt lat="44.78995" lon="0.79873">
        <ele>139</ele>
        <time>2008-12-18T13:34:08Z</time>
      </trkpt>
      <trkpt lat="44.79015" lon="0.79873">
        <ele>143</ele>
        <time>2008-12-18T13:34:14Z</time>
      </trkpt>
      <trkpt lat="44.79038" lon="0.79873">
        <ele>144</ele>
        <time>2008-12-18T13:34:19Z</time>
      </trkpt>
      <trkpt lat="44.79058" lon="0.7987">
        <ele>147</ele>
        <time>2008-12-18T13:34:24Z</time>
      </trkpt>
      <trkpt lat="44.79078" lon="0.7987">
        <ele>148</ele>
        <time>2008-12-18T13:34:30Z</time>
      </trkpt>
      <trkpt lat="44.79095" lon="0.79883">
        <ele>147</ele>
        <time>2008-12-18T13:34:36Z</time>
      </trkpt>
      <trkpt lat="44.79113" lon="0.79898">
        <ele>144</ele>
        <time>2008-12-18T13:34:42Z</time>
      </trkpt>
      <trkpt lat="44.7913" lon="0.79905">
        <ele>139</ele>
        <time>2008-12-18T13:34:48Z</time>
      </trkpt>
      <trkpt lat="44.79145" lon="0.79923">
        <ele>133</ele>
        <time>2008-12-18T13:34:54Z</time>
      </trkpt>
      <trkpt lat="44.79158" lon="0.79948">
        <ele>129</ele>
        <time>2008-12-18T13:35:00Z</time>
      </trkpt>
      <trkpt lat="44.79173" lon="0.79968">
        <ele>124</ele>
        <time>2008-12-18T13:35:05Z</time>
      </trkpt>
      <trkpt lat="44.7919" lon="0.79985">
        <ele>117</ele>
        <time>2008-12-18T13:35:10Z</time>
      </trkpt>
      <trkpt lat="44.792" lon="0.80008">
        <ele>112</ele>
        <time>2008-12-18T13:35:25Z</time>
      </trkpt>
    </trkseg>
  </trk>
  <trk>
    <name><![CDATA[BBmt22]]></name>
    <trkseg>
      <trkpt lat="44.79205" lon="0.80015">
        <ele>117</ele>
        <time>2008-12-18T13:35:58Z</time>
      </trkpt>
      <trkpt lat="44.7921" lon="0.80043">
        <ele>122</ele>
        <time>2008-12-18T13:38:54Z</time>
      </trkpt>
      <trkpt lat="44.7922" lon="0.80065">
        <ele>119</ele>
        <time>2008-12-18T13:38:59Z</time>
      </trkpt>
      <trkpt lat="44.79225" lon="0.80093">
        <ele>115</ele>
        <time>2008-12-18T13:39:05Z</time>
      </trkpt>
      <trkpt lat="44.79223" lon="0.8012">
        <ele>112</ele>
        <time>2008-12-18T13:39:14Z</time>
      </trkpt>
      <trkpt lat="44.79223" lon="0.8015">
        <ele>109</ele>
        <time>2008-12-18T13:39:25Z</time>
      </trkpt>
      <trkpt lat="44.79214" lon="0.80168">
        <ele>110</ele>
        <time>2008-12-18T13:40:10Z</time>
      </trkpt>
      <trkpt lat="44.79209" lon="0.80181">
        <ele>109</ele>
        <time>2008-12-18T13:40:17Z</time>
      </trkpt>
      <trkpt lat="44.79209" lon="0.80187">
        <ele>109</ele>
        <time>2008-12-18T13:40:22Z</time>
      </trkpt>
      <trkpt lat="44.79208" lon="0.80197">
        <ele>109</ele>
        <time>2008-12-18T13:40:51Z</time>
      </trkpt>
      <trkpt lat="44.79205" lon="0.80205">
        <ele>109</ele>
        <time>2008-12-18T13:41:18Z</time>
      </trkpt>
      <trkpt lat="44.79204" lon="0.80212">
        <ele>109</ele>
        <time>2008-12-18T13:41:23Z</time>
      </trkpt>
      <trkpt lat="44.79202" lon="0.8023">
        <ele>109</ele>
        <time>2008-12-18T13:41:30Z</time>
      </trkpt>
      <trkpt lat="44.79084" lon="0.8047">
        <ele>119</ele>
        <time>2009-06-18T16:43:36Z</time>
      </trkpt>
      <trkpt lat="44.78851" lon="0.80732">
        <ele>119</ele>
        <time>2009-06-18T16:43:36Z</time>
      </trkpt>
      <trkpt lat="44.78745" lon="0.80868">
        <ele>124</ele>
        <time>2009-06-18T16:43:36Z</time>
      </trkpt>
      <trkpt lat="44.7862" lon="0.80863">
        <ele>150</ele>
        <time>2008-12-18T13:55:08Z</time>
      </trkpt>
      <trkpt lat="44.78605" lon="0.80878">
        <ele>135</ele>
        <time>2008-12-18T13:55:27Z</time>
      </trkpt>
      <trkpt lat="44.7859" lon="0.80893">
        <ele>130</ele>
        <time>2008-12-18T13:55:45Z</time>
      </trkpt>
      <trkpt lat="44.78578" lon="0.80915">
        <ele>133</ele>
        <time>2008-12-18T13:55:59Z</time>
      </trkpt>
      <trkpt lat="44.78568" lon="0.8094">
        <ele>136</ele>
        <time>2008-12-18T13:56:08Z</time>
      </trkpt>
      <trkpt lat="44.78555" lon="0.80963">
        <ele>137</ele>
        <time>2008-12-18T13:56:26Z</time>
      </trkpt>
      <trkpt lat="44.78538" lon="0.8097">
        <ele>135</ele>
        <time>2008-12-18T13:56:40Z</time>
      </trkpt>
      <trkpt lat="44.78523" lon="0.80985">
        <ele>133</ele>
        <time>2008-12-18T13:56:56Z</time>
      </trkpt>
      <trkpt lat="44.78505" lon="0.80995">
        <ele>135</ele>
        <time>2008-12-18T13:57:09Z</time>
      </trkpt>
      <trkpt lat="44.78488" lon="0.81005">
        <ele>133</ele>
        <time>2008-12-18T13:57:24Z</time>
      </trkpt>
      <trkpt lat="44.7847" lon="0.8102">
        <ele>129</ele>
        <time>2008-12-18T13:57:37Z</time>
      </trkpt>
      <trkpt lat="44.78463" lon="0.81045">
        <ele>128</ele>
        <time>2008-12-18T13:57:54Z</time>
      </trkpt>
      <trkpt lat="44.7845" lon="0.81065">
        <ele>131</ele>
        <time>2008-12-18T13:58:07Z</time>
      </trkpt>
      <trkpt lat="44.78435" lon="0.8108">
        <ele>133</ele>
        <time>2008-12-18T13:58:18Z</time>
      </trkpt>
      <trkpt lat="44.78423" lon="0.811">
        <ele>137</ele>
        <time>2008-12-18T13:58:33Z</time>
      </trkpt>
      <trkpt lat="44.78408" lon="0.81118">
        <ele>142</ele>
        <time>2008-12-18T13:58:47Z</time>
      </trkpt>
      <trkpt lat="44.7839" lon="0.8113">
        <ele>139</ele>
        <time>2008-12-18T13:59:04Z</time>
      </trkpt>
      <trkpt lat="44.78383" lon="0.81155">
        <ele>139</ele>
        <time>2008-12-18T13:59:22Z</time>
      </trkpt>
      <trkpt lat="44.78373" lon="0.81178">
        <ele>140</ele>
        <time>2008-12-18T13:59:40Z</time>
      </trkpt>
      <trkpt lat="44.78355" lon="0.81193">
        <ele>141</ele>
        <time>2008-12-18T13:59:59Z</time>
      </trkpt>
      <trkpt lat="44.78338" lon="0.81203">
        <ele>149</ele>
        <time>2008-12-18T14:00:32Z</time>
      </trkpt>
      <trkpt lat="44.7832" lon="0.81215">
        <ele>149</ele>
        <time>2008-12-18T14:00:40Z</time>
      </trkpt>
      <trkpt lat="44.78303" lon="0.81228">
        <ele>150</ele>
        <time>2008-12-18T14:00:49Z</time>
      </trkpt>
      <trkpt lat="44.78288" lon="0.8121">
        <ele>156</ele>
        <time>2008-12-18T14:00:58Z</time>
      </trkpt>
      <trkpt lat="44.78273" lon="0.81193">
        <ele>159</ele>
        <time>2008-12-18T14:01:03Z</time>
      </trkpt>
      <trkpt lat="44.78258" lon="0.81175">
        <ele>160</ele>
        <time>2008-12-18T14:01:08Z</time>
      </trkpt>
      <trkpt lat="44.78243" lon="0.8116">
        <ele>161</ele>
        <time>2008-12-18T14:01:12Z</time>
      </trkpt>
      <trkpt lat="44.78228" lon="0.8114">
        <ele>165</ele>
        <time>2008-12-18T14:01:19Z</time>
      </trkpt>
      <trkpt lat="44.78208" lon="0.81128">
        <ele>170</ele>
        <time>2008-12-18T14:01:32Z</time>
      </trkpt>
      <trkpt lat="44.7819" lon="0.81113">
        <ele>168</ele>
        <time>2008-12-18T14:01:37Z</time>
      </trkpt>
      <trkpt lat="44.78175" lon="0.81105">
        <ele>162</ele>
        <time>2008-12-18T15:23:48Z</time>
      </trkpt>
      <trkpt lat="44.78163" lon="0.81128">
        <ele>162</ele>
        <time>2008-12-18T15:23:56Z</time>
      </trkpt>
      <trkpt lat="44.78155" lon="0.81163">
        <ele>164</ele>
        <time>2008-12-18T15:23:59Z</time>
      </trkpt>
      <trkpt lat="44.78143" lon="0.81208">
        <ele>167</ele>
        <time>2008-12-18T15:24:02Z</time>
      </trkpt>
      <trkpt lat="44.78133" lon="0.81243">
        <ele>169</ele>
        <time>2008-12-18T15:24:04Z</time>
      </trkpt>
      <trkpt lat="44.78115" lon="0.81288">
        <ele>170</ele>
        <time>2008-12-18T15:24:07Z</time>
      </trkpt>
      <trkpt lat="44.78103" lon="0.8133">
        <ele>171</ele>
        <time>2008-12-18T15:24:10Z</time>
      </trkpt>
      <trkpt lat="44.78095" lon="0.81355">
        <ele>171</ele>
        <time>2008-12-18T15:24:13Z</time>
      </trkpt>
      <trkpt lat="44.7808" lon="0.81375">
        <ele>172</ele>
        <time>2008-12-18T15:24:22Z</time>
      </trkpt>
      <trkpt lat="44.7806" lon="0.8139">
        <ele>172</ele>
        <time>2008-12-18T15:24:26Z</time>
      </trkpt>
      <trkpt lat="44.7804" lon="0.81405">
        <ele>170</ele>
        <time>2008-12-18T15:24:32Z</time>
      </trkpt>
      <trkpt lat="44.78023" lon="0.81418">
        <ele>169</ele>
        <time>2008-12-18T15:24:35Z</time>
      </trkpt>
      <trkpt lat="44.78005" lon="0.81428">
        <ele>167</ele>
        <time>2008-12-18T15:24:37Z</time>
      </trkpt>
      <trkpt lat="44.77988" lon="0.81438">
        <ele>163</ele>
        <time>2008-12-18T15:24:39Z</time>
      </trkpt>
      <trkpt lat="44.7797" lon="0.81445">
        <ele>161</ele>
        <time>2008-12-18T15:24:41Z</time>
      </trkpt>
      <trkpt lat="44.77945" lon="0.8146">
        <ele>159</ele>
        <time>2008-12-18T15:24:44Z</time>
      </trkpt>
      <trkpt lat="44.77925" lon="0.81468">
        <ele>157</ele>
        <time>2008-12-18T15:24:46Z</time>
      </trkpt>
      <trkpt lat="44.779" lon="0.81483">
        <ele>157</ele>
        <time>2008-12-18T15:24:49Z</time>
      </trkpt>
      <trkpt lat="44.77885" lon="0.81498">
        <ele>157</ele>
        <time>2008-12-18T15:24:51Z</time>
      </trkpt>
      <trkpt lat="44.7787" lon="0.81515">
        <ele>158</ele>
        <time>2008-12-18T15:24:53Z</time>
      </trkpt>
      <trkpt lat="44.77845" lon="0.81543">
        <ele>158</ele>
        <time>2008-12-18T15:24:56Z</time>
      </trkpt>
      <trkpt lat="44.77828" lon="0.81558">
        <ele>158</ele>
        <time>2008-12-18T15:24:58Z</time>
      </trkpt>
      <trkpt lat="44.7781" lon="0.81575">
        <ele>157</ele>
        <time>2008-12-18T15:25:00Z</time>
      </trkpt>
      <trkpt lat="44.77793" lon="0.81595">
        <ele>157</ele>
        <time>2008-12-18T15:25:03Z</time>
      </trkpt>
    </trkseg>
  </trk>
  <trk>
    <name><![CDATA[BBmt23]]></name>
    <trkseg>
      <trkpt lat="44.77788" lon="0.81603">
        <ele>158</ele>
        <time>2008-12-18T15:17:48Z</time>
      </trkpt>
      <trkpt lat="44.77738" lon="0.81653">
        <ele>152</ele>
        <time>2008-12-18T15:18:01Z</time>
      </trkpt>
      <trkpt lat="44.7772" lon="0.81665">
        <ele>152</ele>
        <time>2008-12-18T15:18:08Z</time>
      </trkpt>
      <trkpt lat="44.777" lon="0.81683">
        <ele>154</ele>
        <time>2008-12-18T15:18:12Z</time>
      </trkpt>
      <trkpt lat="44.77678" lon="0.81703">
        <ele>156</ele>
        <time>2008-12-18T15:18:15Z</time>
      </trkpt>
      <trkpt lat="44.77658" lon="0.81723">
        <ele>158</ele>
        <time>2008-12-18T15:18:18Z</time>
      </trkpt>
      <trkpt lat="44.7764" lon="0.81738">
        <ele>160</ele>
        <time>2008-12-18T15:18:22Z</time>
      </trkpt>
      <trkpt lat="44.77623" lon="0.8173">
        <ele>162</ele>
        <time>2008-12-18T15:18:34Z</time>
      </trkpt>
      <trkpt lat="44.77605" lon="0.81713">
        <ele>163</ele>
        <time>2008-12-18T15:18:38Z</time>
      </trkpt>
      <trkpt lat="44.7759" lon="0.81695">
        <ele>163</ele>
        <time>2008-12-18T15:18:42Z</time>
      </trkpt>
      <trkpt lat="44.77575" lon="0.8168">
        <ele>164</ele>
        <time>2008-12-18T15:18:47Z</time>
      </trkpt>
      <trkpt lat="44.7756" lon="0.8166">
        <ele>162</ele>
        <time>2008-12-18T15:18:58Z</time>
      </trkpt>
      <trkpt lat="44.77543" lon="0.81645">
        <ele>162</ele>
        <time>2008-12-18T15:19:01Z</time>
      </trkpt>
      <trkpt lat="44.77528" lon="0.8163">
        <ele>161</ele>
        <time>2008-12-18T15:19:04Z</time>
      </trkpt>
      <trkpt lat="44.7751" lon="0.81618">
        <ele>161</ele>
        <time>2008-12-18T15:19:07Z</time>
      </trkpt>
      <trkpt lat="44.77493" lon="0.81605">
        <ele>161</ele>
        <time>2008-12-18T15:19:11Z</time>
      </trkpt>
      <trkpt lat="44.77475" lon="0.8159">
        <ele>160</ele>
        <time>2008-12-18T15:19:15Z</time>
      </trkpt>
      <trkpt lat="44.77458" lon="0.81578">
        <ele>159</ele>
        <time>2008-12-18T15:19:19Z</time>
      </trkpt>
      <trkpt lat="44.77438" lon="0.8157">
        <ele>159</ele>
        <time>2008-12-18T15:19:23Z</time>
      </trkpt>
      <trkpt lat="44.7742" lon="0.8158">
        <ele>161</ele>
        <time>2008-12-18T15:19:29Z</time>
      </trkpt>
    </trkseg>
  </trk>
  <trk>
    <name><![CDATA[BBmt24]]></name>
    <trkseg>
      <trkpt lat="44.73933" lon="0.8324">
        <ele>148</ele>
        <time>2009-01-20T11:31:22Z</time>
      </trkpt>
      <trkpt lat="44.73933" lon="0.8321">
        <ele>151</ele>
        <time>2009-01-20T11:33:05Z</time>
      </trkpt>
      <trkpt lat="44.7394" lon="0.8318">
        <ele>152</ele>
        <time>2009-01-20T11:33:10Z</time>
      </trkpt>
      <trkpt lat="44.73955" lon="0.83163">
        <ele>153</ele>
        <time>2009-01-20T11:33:13Z</time>
      </trkpt>
      <trkpt lat="44.73973" lon="0.83148">
        <ele>154</ele>
        <time>2009-01-20T11:33:19Z</time>
      </trkpt>
      <trkpt lat="44.73988" lon="0.8313">
        <ele>154</ele>
        <time>2009-01-20T11:33:25Z</time>
      </trkpt>
      <trkpt lat="44.74" lon="0.8311">
        <ele>159</ele>
        <time>2009-01-20T11:33:34Z</time>
      </trkpt>
      <trkpt lat="44.74003" lon="0.83078">
        <ele>161</ele>
        <time>2009-01-20T11:33:41Z</time>
      </trkpt>
      <trkpt lat="44.74008" lon="0.83048">
        <ele>162</ele>
        <time>2009-01-20T11:33:46Z</time>
      </trkpt>
      <trkpt lat="44.74023" lon="0.83025">
        <ele>162</ele>
        <time>2009-01-20T11:33:58Z</time>
      </trkpt>
      <trkpt lat="44.74043" lon="0.83018">
        <ele>162</ele>
        <time>2009-01-20T11:34:01Z</time>
      </trkpt>
      <trkpt lat="44.74068" lon="0.8301">
        <ele>162</ele>
        <time>2009-01-20T11:34:04Z</time>
      </trkpt>
      <trkpt lat="44.74093" lon="0.83">
        <ele>161</ele>
        <time>2009-01-20T11:34:07Z</time>
      </trkpt>
      <trkpt lat="44.74113" lon="0.82993">
        <ele>160</ele>
        <time>2009-01-20T11:34:10Z</time>
      </trkpt>
      <trkpt lat="44.7413" lon="0.82985">
        <ele>159</ele>
        <time>2009-01-20T11:34:17Z</time>
      </trkpt>
      <trkpt lat="44.74155" lon="0.82978">
        <ele>158</ele>
        <time>2009-01-20T11:34:21Z</time>
      </trkpt>
      <trkpt lat="44.74178" lon="0.82973">
        <ele>158</ele>
        <time>2009-01-20T11:34:24Z</time>
      </trkpt>
      <trkpt lat="44.74198" lon="0.8297">
        <ele>158</ele>
        <time>2009-01-20T11:34:27Z</time>
      </trkpt>
    </trkseg>
  </trk>
  <trk>
    <name><![CDATA[BBmt25]]></name>
    <trkseg>
      <trkpt lat="44.77338" lon="0.7866">
        <ele>145</ele>
        <time>2008-12-03T11:52:52Z</time>
      </trkpt>
      <trkpt lat="44.77353" lon="0.78645">
        <ele>140</ele>
        <time>2008-12-03T11:54:26Z</time>
      </trkpt>
      <trkpt lat="44.77373" lon="0.78645">
        <ele>139</ele>
        <time>2008-12-03T11:54:30Z</time>
      </trkpt>
      <trkpt lat="44.77395" lon="0.78643">
        <ele>138</ele>
        <time>2008-12-03T11:54:33Z</time>
      </trkpt>
      <trkpt lat="44.77418" lon="0.78633">
        <ele>136</ele>
        <time>2008-12-03T11:54:36Z</time>
      </trkpt>
      <trkpt lat="44.7744" lon="0.78618">
        <ele>135</ele>
        <time>2008-12-03T11:54:39Z</time>
      </trkpt>
      <trkpt lat="44.77463" lon="0.78603">
        <ele>135</ele>
        <time>2008-12-03T11:54:42Z</time>
      </trkpt>
      <trkpt lat="44.77485" lon="0.78595">
        <ele>135</ele>
        <time>2008-12-03T11:54:45Z</time>
      </trkpt>
      <trkpt lat="44.77508" lon="0.78588">
        <ele>134</ele>
        <time>2008-12-03T11:54:48Z</time>
      </trkpt>
      <trkpt lat="44.7753" lon="0.78585">
        <ele>135</ele>
        <time>2008-12-03T11:54:51Z</time>
      </trkpt>
      <trkpt lat="44.7755" lon="0.78583">
        <ele>135</ele>
        <time>2008-12-03T11:54:54Z</time>
      </trkpt>
      <trkpt lat="44.77573" lon="0.78585">
        <ele>137</ele>
        <time>2008-12-03T11:54:58Z</time>
      </trkpt>
      <trkpt lat="44.77598" lon="0.7859">
        <ele>138</ele>
        <time>2008-12-03T11:55:02Z</time>
      </trkpt>
      <trkpt lat="44.77618" lon="0.78585">
        <ele>134</ele>
        <time>2008-12-03T11:55:13Z</time>
      </trkpt>
      <trkpt lat="44.77635" lon="0.7857">
        <ele>130</ele>
        <time>2008-12-03T11:55:18Z</time>
      </trkpt>
      <trkpt lat="44.77655" lon="0.78553">
        <ele>128</ele>
        <time>2008-12-03T11:55:22Z</time>
      </trkpt>
      <trkpt lat="44.77678" lon="0.78535">
        <ele>124</ele>
        <time>2008-12-03T11:55:26Z</time>
      </trkpt>
      <trkpt lat="44.77695" lon="0.7852">
        <ele>121</ele>
        <time>2008-12-03T11:55:29Z</time>
      </trkpt>
      <trkpt lat="44.77713" lon="0.78505">
        <ele>120</ele>
        <time>2008-12-03T11:55:32Z</time>
      </trkpt>
      <trkpt lat="44.7773" lon="0.78493">
        <ele>119</ele>
        <time>2008-12-03T11:55:35Z</time>
      </trkpt>
      <trkpt lat="44.77745" lon="0.78478">
        <ele>118</ele>
        <time>2008-12-03T11:55:38Z</time>
      </trkpt>
      <trkpt lat="44.77763" lon="0.78463">
        <ele>119</ele>
        <time>2008-12-03T11:55:42Z</time>
      </trkpt>
      <trkpt lat="44.7778" lon="0.78445">
        <ele>119</ele>
        <time>2008-12-03T11:55:46Z</time>
      </trkpt>
      <trkpt lat="44.77798" lon="0.78428">
        <ele>118</ele>
        <time>2008-12-03T11:55:50Z</time>
      </trkpt>
      <trkpt lat="44.77815" lon="0.78413">
        <ele>119</ele>
        <time>2008-12-03T11:55:54Z</time>
      </trkpt>
    </trkseg>
  </trk>
  <trk>
    <name><![CDATA[BBmt26]]></name>
    <trkseg>
      <trkpt lat="44.81064" lon="0.82432">
        <ele>159</ele>
        <time>2009-06-18T16:43:36Z</time>
      </trkpt>
      <trkpt lat="44.81155" lon="0.82481">
        <ele>158</ele>
        <time>2009-06-18T16:43:36Z</time>
      </trkpt>
      <trkpt lat="44.81173" lon="0.82488">
        <ele>152</ele>
        <time>2009-06-18T16:43:36Z</time>
      </trkpt>
      <trkpt lat="44.81193" lon="0.82493">
        <ele>148</ele>
        <time>2009-06-18T16:43:36Z</time>
      </trkpt>
      <trkpt lat="44.8121" lon="0.825">
        <ele>147</ele>
        <time>2009-06-18T16:43:36Z</time>
      </trkpt>
      <trkpt lat="44.81228" lon="0.82508">
        <ele>145</ele>
        <time>2009-06-18T16:43:36Z</time>
      </trkpt>
      <trkpt lat="44.8125" lon="0.82515">
        <ele>142</ele>
        <time>2009-06-18T16:43:36Z</time>
      </trkpt>
      <trkpt lat="44.81275" lon="0.82525">
        <ele>141</ele>
        <time>2009-06-18T16:43:36Z</time>
      </trkpt>
      <trkpt lat="44.81298" lon="0.82533">
        <ele>138</ele>
        <time>2009-06-18T16:43:36Z</time>
      </trkpt>
      <trkpt lat="44.8132" lon="0.8254">
        <ele>137</ele>
        <time>2009-06-18T16:43:36Z</time>
      </trkpt>
      <trkpt lat="44.81338" lon="0.82528">
        <ele>131</ele>
        <time>2009-06-18T16:43:36Z</time>
      </trkpt>
      <trkpt lat="44.81338" lon="0.825">
        <ele>129</ele>
        <time>2009-06-18T16:43:36Z</time>
      </trkpt>
      <trkpt lat="44.81348" lon="0.82478">
        <ele>127</ele>
        <time>2009-06-18T16:43:36Z</time>
      </trkpt>
      <trkpt lat="44.81365" lon="0.8247">
        <ele>127</ele>
        <time>2009-06-18T16:43:36Z</time>
      </trkpt>
      <trkpt lat="44.81383" lon="0.82463">
        <ele>128</ele>
        <time>2009-06-18T16:43:36Z</time>
      </trkpt>
      <trkpt lat="44.81408" lon="0.82465">
        <ele>131</ele>
        <time>2009-06-18T16:43:36Z</time>
      </trkpt>
      <trkpt lat="44.81428" lon="0.82485">
        <ele>134</ele>
        <time>2009-06-18T16:43:36Z</time>
      </trkpt>
      <trkpt lat="44.81448" lon="0.82503">
        <ele>139</ele>
        <time>2009-06-18T16:43:36Z</time>
      </trkpt>
      <trkpt lat="44.81468" lon="0.82515">
        <ele>142</ele>
        <time>2009-06-18T16:43:36Z</time>
      </trkpt>
      <trkpt lat="44.8149" lon="0.8252">
        <ele>143</ele>
        <time>2009-06-18T16:43:36Z</time>
      </trkpt>
      <trkpt lat="44.8151" lon="0.8251">
        <ele>143</ele>
        <time>2009-06-18T16:43:36Z</time>
      </trkpt>
      <trkpt lat="44.81528" lon="0.82495">
        <ele>144</ele>
        <time>2009-06-18T16:43:36Z</time>
      </trkpt>
      <trkpt lat="44.8154" lon="0.82473">
        <ele>144</ele>
        <time>2009-06-18T16:43:36Z</time>
      </trkpt>
      <trkpt lat="44.81548" lon="0.82448">
        <ele>145</ele>
        <time>2009-06-18T16:43:36Z</time>
      </trkpt>
      <trkpt lat="44.81555" lon="0.82418">
        <ele>145</ele>
        <time>2009-06-18T16:43:36Z</time>
      </trkpt>
      <trkpt lat="44.81563" lon="0.82388">
        <ele>145</ele>
        <time>2009-06-18T16:43:36Z</time>
      </trkpt>
      <trkpt lat="44.81565" lon="0.8236">
        <ele>145</ele>
        <time>2009-06-18T16:43:36Z</time>
      </trkpt>
      <trkpt lat="44.81565" lon="0.82325">
        <ele>143</ele>
        <time>2009-06-18T16:43:36Z</time>
      </trkpt>
      <trkpt lat="44.81568" lon="0.82298">
        <ele>143</ele>
        <time>2009-06-18T16:43:36Z</time>
      </trkpt>
      <trkpt lat="44.81578" lon="0.82275">
        <ele>144</ele>
        <time>2009-06-18T16:43:36Z</time>
      </trkpt>
      <trkpt lat="44.8159" lon="0.8225">
        <ele>145</ele>
        <time>2009-06-18T16:43:36Z</time>
      </trkpt>
      <trkpt lat="44.816" lon="0.82225">
        <ele>146</ele>
        <time>2009-06-18T16:43:36Z</time>
      </trkpt>
      <trkpt lat="44.81618" lon="0.82218">
        <ele>147</ele>
        <time>2009-06-18T16:43:36Z</time>
      </trkpt>
      <trkpt lat="44.8164" lon="0.82223">
        <ele>145</ele>
        <time>2009-06-18T16:43:36Z</time>
      </trkpt>
      <trkpt lat="44.8166" lon="0.8223">
        <ele>146</ele>
        <time>2009-06-18T16:43:36Z</time>
      </trkpt>
      <trkpt lat="44.8168" lon="0.82238">
        <ele>145</ele>
        <time>2009-06-18T16:43:36Z</time>
      </trkpt>
      <trkpt lat="44.81695" lon="0.82258">
        <ele>147</ele>
        <time>2009-06-18T16:43:36Z</time>
      </trkpt>
      <trkpt lat="44.81705" lon="0.82283">
        <ele>149</ele>
        <time>2009-06-18T16:43:36Z</time>
      </trkpt>
      <trkpt lat="44.81713" lon="0.8231">
        <ele>149</ele>
        <time>2009-06-18T16:43:36Z</time>
      </trkpt>
      <trkpt lat="44.81733" lon="0.823">
        <ele>151</ele>
        <time>2009-06-18T16:43:36Z</time>
      </trkpt>
      <trkpt lat="44.8175" lon="0.82288">
        <ele>152</ele>
        <time>2009-06-18T16:43:36Z</time>
      </trkpt>
      <trkpt lat="44.81768" lon="0.82298">
        <ele>154</ele>
        <time>2009-06-18T16:43:36Z</time>
      </trkpt>
      <trkpt lat="44.8179" lon="0.82293">
        <ele>154</ele>
        <time>2009-06-18T16:43:36Z</time>
      </trkpt>
      <trkpt lat="44.81795" lon="0.82268">
        <ele>154</ele>
        <time>2009-06-18T16:43:36Z</time>
      </trkpt>
      <trkpt lat="44.81788" lon="0.82243">
        <ele>155</ele>
        <time>2009-06-18T16:43:36Z</time>
      </trkpt>
      <trkpt lat="44.81793" lon="0.82218">
        <ele>155</ele>
        <time>2009-06-18T16:43:36Z</time>
      </trkpt>
      <trkpt lat="44.818" lon="0.82193">
        <ele>156</ele>
        <time>2009-06-18T16:43:36Z</time>
      </trkpt>
      <trkpt lat="44.81808" lon="0.82168">
        <ele>155</ele>
        <time>2009-06-18T16:43:36Z</time>
      </trkpt>
      <trkpt lat="44.81815" lon="0.8214">
        <ele>154</ele>
        <time>2009-06-18T16:43:36Z</time>
      </trkpt>
      <trkpt lat="44.81825" lon="0.82118">
        <ele>154</ele>
        <time>2009-06-18T16:43:36Z</time>
      </trkpt>
      <trkpt lat="44.81835" lon="0.82093">
        <ele>153</ele>
        <time>2009-06-18T16:43:36Z</time>
      </trkpt>
      <trkpt lat="44.81845" lon="0.82065">
        <ele>153</ele>
        <time>2009-06-18T16:43:36Z</time>
      </trkpt>
      <trkpt lat="44.81855" lon="0.82043">
        <ele>153</ele>
        <time>2009-06-18T16:43:36Z</time>
      </trkpt>
      <trkpt lat="44.8187" lon="0.82025">
        <ele>154</ele>
        <time>2009-06-18T16:43:36Z</time>
      </trkpt>
      <trkpt lat="44.81885" lon="0.8201">
        <ele>152</ele>
        <time>2009-06-18T16:43:36Z</time>
      </trkpt>
      <trkpt lat="44.82268" lon="0.82093">
        <ele>149</ele>
        <time>2009-06-18T16:43:36Z</time>
      </trkpt>
      <trkpt lat="44.82265" lon="0.82065">
        <ele>150</ele>
        <time>2009-06-18T16:43:36Z</time>
      </trkpt>
      <trkpt lat="44.82265" lon="0.82035">
        <ele>151</ele>
        <time>2009-06-18T16:43:36Z</time>
      </trkpt>
      <trkpt lat="44.8226" lon="0.82003">
        <ele>151</ele>
        <time>2009-06-18T16:43:36Z</time>
      </trkpt>
      <trkpt lat="44.82248" lon="0.81975">
        <ele>151</ele>
        <time>2009-06-18T16:43:36Z</time>
      </trkpt>
      <trkpt lat="44.82233" lon="0.81945">
        <ele>149</ele>
        <time>2009-06-18T16:43:36Z</time>
      </trkpt>
      <trkpt lat="44.82215" lon="0.8192">
        <ele>148</ele>
        <time>2009-06-18T16:43:36Z</time>
      </trkpt>
      <trkpt lat="44.82198" lon="0.81898">
        <ele>147</ele>
        <time>2009-06-18T16:43:36Z</time>
      </trkpt>
      <trkpt lat="44.82183" lon="0.81878">
        <ele>146</ele>
        <time>2009-06-18T16:43:36Z</time>
      </trkpt>
      <trkpt lat="44.82168" lon="0.81855">
        <ele>146</ele>
        <time>2009-06-18T16:43:36Z</time>
      </trkpt>
      <trkpt lat="44.82153" lon="0.81835">
        <ele>146</ele>
        <time>2009-06-18T16:43:36Z</time>
      </trkpt>
      <trkpt lat="44.82135" lon="0.81818">
        <ele>146</ele>
        <time>2009-06-18T16:43:36Z</time>
      </trkpt>
      <trkpt lat="44.82115" lon="0.81798">
        <ele>147</ele>
        <time>2009-06-18T16:43:36Z</time>
      </trkpt>
      <trkpt lat="44.82105" lon="0.81773">
        <ele>147</ele>
        <time>2009-06-18T16:43:36Z</time>
      </trkpt>
      <trkpt lat="44.82128" lon="0.81768">
        <ele>147</ele>
        <time>2009-06-18T16:43:36Z</time>
      </trkpt>
      <trkpt lat="44.82148" lon="0.8176">
        <ele>145</ele>
        <time>2009-06-18T16:43:36Z</time>
      </trkpt>
      <trkpt lat="44.82175" lon="0.81743">
        <ele>144</ele>
        <time>2009-06-18T16:43:36Z</time>
      </trkpt>
      <trkpt lat="44.82193" lon="0.8173">
        <ele>145</ele>
        <time>2009-06-18T16:43:36Z</time>
      </trkpt>
      <trkpt lat="44.82218" lon="0.81715">
        <ele>145</ele>
        <time>2009-06-18T16:43:36Z</time>
      </trkpt>
      <trkpt lat="44.8224" lon="0.81698">
        <ele>145</ele>
        <time>2009-06-18T16:43:36Z</time>
      </trkpt>
      <trkpt lat="44.82258" lon="0.81683">
        <ele>145</ele>
        <time>2009-06-18T16:43:36Z</time>
      </trkpt>
      <trkpt lat="44.82278" lon="0.81665">
        <ele>144</ele>
        <time>2009-06-18T16:43:36Z</time>
      </trkpt>
      <trkpt lat="44.82305" lon="0.8164">
        <ele>144</ele>
        <time>2009-06-18T16:43:36Z</time>
      </trkpt>
      <trkpt lat="44.82323" lon="0.81623">
        <ele>144</ele>
        <time>2009-06-18T16:43:36Z</time>
      </trkpt>
      <trkpt lat="44.8234" lon="0.81605">
        <ele>143</ele>
        <time>2009-06-18T16:43:36Z</time>
      </trkpt>
      <trkpt lat="44.82365" lon="0.8158">
        <ele>143</ele>
        <time>2009-06-18T16:43:36Z</time>
      </trkpt>
      <trkpt lat="44.82388" lon="0.81553">
        <ele>141</ele>
        <time>2009-06-18T16:43:36Z</time>
      </trkpt>
      <trkpt lat="44.82403" lon="0.81533">
        <ele>141</ele>
        <time>2009-06-18T16:43:36Z</time>
      </trkpt>
      <trkpt lat="44.82418" lon="0.815">
        <ele>141</ele>
        <time>2009-06-18T16:43:36Z</time>
      </trkpt>
      <trkpt lat="44.8243" lon="0.8148">
        <ele>140</ele>
        <time>2009-06-18T16:43:36Z</time>
      </trkpt>
      <trkpt lat="44.82445" lon="0.81463">
        <ele>141</ele>
        <time>2009-06-18T16:43:36Z</time>
      </trkpt>
      <trkpt lat="44.82465" lon="0.81443">
        <ele>142</ele>
        <time>2009-06-18T16:43:36Z</time>
      </trkpt>
      <trkpt lat="44.82488" lon="0.81428">
        <ele>142</ele>
        <time>2009-06-18T16:43:36Z</time>
      </trkpt>
      <trkpt lat="44.8251" lon="0.81415">
        <ele>144</ele>
        <time>2009-06-18T16:43:36Z</time>
      </trkpt>
      <trkpt lat="44.82528" lon="0.81408">
        <ele>143</ele>
        <time>2009-06-18T16:43:36Z</time>
      </trkpt>
      <trkpt lat="44.82545" lon="0.814">
        <ele>142</ele>
        <time>2009-06-18T16:43:36Z</time>
      </trkpt>
      <trkpt lat="44.82565" lon="0.81398">
        <ele>144</ele>
        <time>2009-06-18T16:43:36Z</time>
      </trkpt>
      <trkpt lat="44.82588" lon="0.81395">
        <ele>145</ele>
        <time>2009-06-18T16:43:36Z</time>
      </trkpt>
      <trkpt lat="44.8261" lon="0.81393">
        <ele>147</ele>
        <time>2009-06-18T16:43:36Z</time>
      </trkpt>
      <trkpt lat="44.82633" lon="0.81385">
        <ele>148</ele>
        <time>2009-06-18T16:43:36Z</time>
      </trkpt>
      <trkpt lat="44.82655" lon="0.81388">
        <ele>146</ele>
        <time>2009-06-18T16:43:36Z</time>
      </trkpt>
      <trkpt lat="44.82678" lon="0.81393">
        <ele>144</ele>
        <time>2009-06-18T16:43:36Z</time>
      </trkpt>
      <trkpt lat="44.82698" lon="0.81398">
        <ele>145</ele>
        <time>2009-06-18T16:43:36Z</time>
      </trkpt>
      <trkpt lat="44.8272" lon="0.81398">
        <ele>145</ele>
        <time>2009-06-18T16:43:36Z</time>
      </trkpt>
      <trkpt lat="44.82743" lon="0.814">
        <ele>145</ele>
        <time>2009-06-18T16:43:36Z</time>
      </trkpt>
      <trkpt lat="44.82765" lon="0.81405">
        <ele>148</ele>
        <time>2009-06-18T16:43:36Z</time>
      </trkpt>
      <trkpt lat="44.82788" lon="0.81413">
        <ele>150</ele>
        <time>2009-06-18T16:43:36Z</time>
      </trkpt>
      <trkpt lat="44.82808" lon="0.8142">
        <ele>150</ele>
        <time>2009-06-18T16:43:36Z</time>
      </trkpt>
      <trkpt lat="44.82828" lon="0.81428">
        <ele>149</ele>
        <time>2009-06-18T16:43:36Z</time>
      </trkpt>
      <trkpt lat="44.82848" lon="0.81433">
        <ele>150</ele>
        <time>2009-06-18T16:43:36Z</time>
      </trkpt>
      <trkpt lat="44.82865" lon="0.8144">
        <ele>151</ele>
        <time>2009-06-18T16:43:36Z</time>
      </trkpt>
      <trkpt lat="44.82885" lon="0.81443">
        <ele>151</ele>
        <time>2009-06-18T16:43:36Z</time>
      </trkpt>
      <trkpt lat="44.82908" lon="0.81443">
        <ele>151</ele>
        <time>2009-06-18T16:43:36Z</time>
      </trkpt>
      <trkpt lat="44.82928" lon="0.81443">
        <ele>152</ele>
        <time>2009-06-18T16:43:36Z</time>
      </trkpt>
      <trkpt lat="44.82948" lon="0.81443">
        <ele>153</ele>
        <time>2009-06-18T16:43:36Z</time>
      </trkpt>
      <trkpt lat="44.82979" lon="0.81444">
        <ele>156</ele>
        <time>2009-06-18T16:43:36Z</time>
      </trkpt>
      <trkpt lat="44.82984" lon="0.81467">
        <ele>156</ele>
        <time>2009-06-18T16:43:36Z</time>
      </trkpt>
      <trkpt lat="44.83039" lon="0.81461">
        <ele>158</ele>
        <time>2009-06-18T16:43:36Z</time>
      </trkpt>
      <trkpt lat="44.83046" lon="0.81444">
        <ele>158</ele>
        <time>2009-06-18T16:43:36Z</time>
      </trkpt>
      <trkpt lat="44.83078" lon="0.81453">
        <ele>170</ele>
        <time>2009-06-18T16:43:36Z</time>
      </trkpt>
      <trkpt lat="44.83098" lon="0.81455">
        <ele>161</ele>
        <time>2009-06-18T16:43:36Z</time>
      </trkpt>
      <trkpt lat="44.83118" lon="0.81458">
        <ele>166</ele>
        <time>2009-06-18T16:43:36Z</time>
      </trkpt>
      <trkpt lat="44.83138" lon="0.81463">
        <ele>169</ele>
        <time>2009-06-18T16:43:36Z</time>
      </trkpt>
      <trkpt lat="44.83158" lon="0.81465">
        <ele>169</ele>
        <time>2009-06-18T16:43:36Z</time>
      </trkpt>
      <trkpt lat="44.83178" lon="0.81468">
        <ele>169</ele>
        <time>2009-06-18T16:43:36Z</time>
      </trkpt>
      <trkpt lat="44.83198" lon="0.81473">
        <ele>172</ele>
        <time>2009-06-18T16:43:36Z</time>
      </trkpt>
      <trkpt lat="44.83218" lon="0.81475">
        <ele>174</ele>
        <time>2009-06-18T16:43:36Z</time>
      </trkpt>
      <trkpt lat="44.83238" lon="0.81475">
        <ele>175</ele>
        <time>2009-06-18T16:43:36Z</time>
      </trkpt>
      <trkpt lat="44.83258" lon="0.81475">
        <ele>177</ele>
        <time>2009-06-18T16:43:36Z</time>
      </trkpt>
      <trkpt lat="44.83278" lon="0.8148">
        <ele>177</ele>
        <time>2009-06-18T16:43:36Z</time>
      </trkpt>
      <trkpt lat="44.83838" lon="0.81706">
        <ele>164</ele>
        <time>2009-06-18T16:43:36Z</time>
      </trkpt>
    </trkseg>
  </trk>
  <trk>
    <name><![CDATA[BBmt27]]></name>
    <trkseg>
      <trkpt lat="44.83851" lon="0.81727">
        <ele>163</ele>
        <time>2009-06-18T16:43:36Z</time>
      </trkpt>
      <trkpt lat="44.83543" lon="0.82365">
        <ele>80</ele>
        <time>2009-06-18T16:43:36Z</time>
      </trkpt>
      <trkpt lat="44.83535" lon="0.8239">
        <ele>73</ele>
        <time>2009-06-18T16:43:36Z</time>
      </trkpt>
      <trkpt lat="44.8355" lon="0.82408">
        <ele>72</ele>
        <time>2009-06-18T16:43:36Z</time>
      </trkpt>
      <trkpt lat="44.8354" lon="0.8243">
        <ele>72</ele>
        <time>2009-06-18T16:43:36Z</time>
      </trkpt>
      <trkpt lat="44.8353" lon="0.82455">
        <ele>72</ele>
        <time>2009-06-18T16:43:36Z</time>
      </trkpt>
      <trkpt lat="44.83515" lon="0.82478">
        <ele>76</ele>
        <time>2009-06-18T16:43:36Z</time>
      </trkpt>
      <trkpt lat="44.83503" lon="0.825">
        <ele>78</ele>
        <time>2009-06-18T16:43:36Z</time>
      </trkpt>
      <trkpt lat="44.8349" lon="0.82525">
        <ele>79</ele>
        <time>2009-06-18T16:43:36Z</time>
      </trkpt>
      <trkpt lat="44.83478" lon="0.8255">
        <ele>81</ele>
        <time>2009-06-18T16:43:36Z</time>
      </trkpt>
      <trkpt lat="44.8346" lon="0.82568">
        <ele>94</ele>
        <time>2009-06-18T16:43:36Z</time>
      </trkpt>
      <trkpt lat="44.8344" lon="0.8257">
        <ele>84</ele>
        <time>2009-06-18T16:43:36Z</time>
      </trkpt>
      <trkpt lat="44.8342" lon="0.82585">
        <ele>90</ele>
        <time>2009-06-18T16:43:36Z</time>
      </trkpt>
      <trkpt lat="44.83403" lon="0.82595">
        <ele>95</ele>
        <time>2009-06-18T16:43:36Z</time>
      </trkpt>
      <trkpt lat="44.83388" lon="0.82615">
        <ele>94</ele>
        <time>2009-06-18T16:43:36Z</time>
      </trkpt>
      <trkpt lat="44.8337" lon="0.82625">
        <ele>96</ele>
        <time>2009-06-18T16:43:36Z</time>
      </trkpt>
      <trkpt lat="44.83353" lon="0.82635">
        <ele>100</ele>
        <time>2009-06-18T16:43:36Z</time>
      </trkpt>
      <trkpt lat="44.83338" lon="0.82653">
        <ele>90</ele>
        <time>2009-06-18T16:43:36Z</time>
      </trkpt>
      <trkpt lat="44.8332" lon="0.8266">
        <ele>89</ele>
        <time>2009-06-18T16:43:36Z</time>
      </trkpt>
      <trkpt lat="44.83305" lon="0.82675">
        <ele>98</ele>
        <time>2009-06-18T16:43:36Z</time>
      </trkpt>
      <trkpt lat="44.83018" lon="0.8297">
        <ele>125</ele>
        <time>2009-06-18T16:43:36Z</time>
      </trkpt>
      <trkpt lat="44.8333" lon="0.83373">
        <ele>111</ele>
        <time>2009-06-18T16:43:36Z</time>
      </trkpt>
      <trkpt lat="44.83315" lon="0.8339">
        <ele>112</ele>
        <time>2009-06-18T16:43:36Z</time>
      </trkpt>
      <trkpt lat="44.833" lon="0.83405">
        <ele>111</ele>
        <time>2009-06-18T16:43:36Z</time>
      </trkpt>
      <trkpt lat="44.83278" lon="0.8341">
        <ele>111</ele>
        <time>2009-06-18T16:43:36Z</time>
      </trkpt>
      <trkpt lat="44.83258" lon="0.83418">
        <ele>114</ele>
        <time>2009-06-18T16:43:36Z</time>
      </trkpt>
      <trkpt lat="44.83235" lon="0.83428">
        <ele>111</ele>
        <time>2009-06-18T16:43:36Z</time>
      </trkpt>
      <trkpt lat="44.83213" lon="0.83435">
        <ele>112</ele>
        <time>2009-06-18T16:43:36Z</time>
      </trkpt>
      <trkpt lat="44.83193" lon="0.8345">
        <ele>113</ele>
        <time>2009-06-18T16:43:36Z</time>
      </trkpt>
      <trkpt lat="44.83173" lon="0.83468">
        <ele>114</ele>
        <time>2009-06-18T16:43:36Z</time>
      </trkpt>
      <trkpt lat="44.8315" lon="0.83485">
        <ele>114</ele>
        <time>2009-06-18T16:43:36Z</time>
      </trkpt>
      <trkpt lat="44.83133" lon="0.83495">
        <ele>113</ele>
        <time>2009-06-18T16:43:36Z</time>
      </trkpt>
      <trkpt lat="44.83105" lon="0.83498">
        <ele>111</ele>
        <time>2009-06-18T16:43:36Z</time>
      </trkpt>
      <trkpt lat="44.83088" lon="0.83505">
        <ele>110</ele>
        <time>2009-06-18T16:43:36Z</time>
      </trkpt>
      <trkpt lat="44.83068" lon="0.83528">
        <ele>110</ele>
        <time>2009-06-18T16:43:36Z</time>
      </trkpt>
      <trkpt lat="44.83053" lon="0.83553">
        <ele>112</ele>
        <time>2009-06-18T16:43:36Z</time>
      </trkpt>
      <trkpt lat="44.8304" lon="0.83573">
        <ele>111</ele>
        <time>2009-06-18T16:43:36Z</time>
      </trkpt>
      <trkpt lat="44.83025" lon="0.83588">
        <ele>123</ele>
        <time>2009-06-18T16:43:36Z</time>
      </trkpt>
      <trkpt lat="44.83" lon="0.83595">
        <ele>125</ele>
        <time>2009-06-18T16:43:36Z</time>
      </trkpt>
      <trkpt lat="44.82975" lon="0.83605">
        <ele>127</ele>
        <time>2009-06-18T16:43:36Z</time>
      </trkpt>
      <trkpt lat="44.82955" lon="0.83608">
        <ele>129</ele>
        <time>2009-06-18T16:43:36Z</time>
      </trkpt>
      <trkpt lat="44.82928" lon="0.83603">
        <ele>131</ele>
        <time>2009-06-18T16:43:36Z</time>
      </trkpt>
      <trkpt lat="44.82903" lon="0.83595">
        <ele>131</ele>
        <time>2009-06-18T16:43:36Z</time>
      </trkpt>
      <trkpt lat="44.82885" lon="0.83588">
        <ele>130</ele>
        <time>2009-06-18T16:43:36Z</time>
      </trkpt>
      <trkpt lat="44.82858" lon="0.8358">
        <ele>129</ele>
        <time>2009-06-18T16:43:36Z</time>
      </trkpt>
      <trkpt lat="44.82833" lon="0.83573">
        <ele>129</ele>
        <time>2009-06-18T16:43:36Z</time>
      </trkpt>
      <trkpt lat="44.82805" lon="0.83578">
        <ele>131</ele>
        <time>2009-06-18T16:43:36Z</time>
      </trkpt>
      <trkpt lat="44.8278" lon="0.83593">
        <ele>133</ele>
        <time>2009-06-18T16:43:36Z</time>
      </trkpt>
      <trkpt lat="44.82763" lon="0.83603">
        <ele>135</ele>
        <time>2009-06-18T16:43:36Z</time>
      </trkpt>
      <trkpt lat="44.82745" lon="0.8361">
        <ele>135</ele>
        <time>2009-06-18T16:43:36Z</time>
      </trkpt>
      <trkpt lat="44.82725" lon="0.83618">
        <ele>136</ele>
        <time>2009-06-18T16:43:36Z</time>
      </trkpt>
      <trkpt lat="44.82703" lon="0.8363">
        <ele>137</ele>
        <time>2009-06-18T16:43:36Z</time>
      </trkpt>
      <trkpt lat="44.8268" lon="0.83645">
        <ele>137</ele>
        <time>2009-06-18T16:43:36Z</time>
      </trkpt>
      <trkpt lat="44.82663" lon="0.83658">
        <ele>137</ele>
        <time>2009-06-18T16:43:36Z</time>
      </trkpt>
      <trkpt lat="44.8264" lon="0.83673">
        <ele>136</ele>
        <time>2009-06-18T16:43:36Z</time>
      </trkpt>
      <trkpt lat="44.82615" lon="0.8369">
        <ele>135</ele>
        <time>2009-06-18T16:43:36Z</time>
      </trkpt>
      <trkpt lat="44.8259" lon="0.83708">
        <ele>134</ele>
        <time>2009-06-18T16:43:36Z</time>
      </trkpt>
      <trkpt lat="44.82573" lon="0.8372">
        <ele>134</ele>
        <time>2009-06-18T16:43:36Z</time>
      </trkpt>
      <trkpt lat="44.82558" lon="0.83745">
        <ele>134</ele>
        <time>2009-06-18T16:43:36Z</time>
      </trkpt>
      <trkpt lat="44.82545" lon="0.83768">
        <ele>136</ele>
        <time>2009-06-18T16:43:36Z</time>
      </trkpt>
      <trkpt lat="44.8253" lon="0.83795">
        <ele>137</ele>
        <time>2009-06-18T16:43:36Z</time>
      </trkpt>
      <trkpt lat="44.82518" lon="0.83818">
        <ele>138</ele>
        <time>2009-06-18T16:43:36Z</time>
      </trkpt>
      <trkpt lat="44.82503" lon="0.83845">
        <ele>141</ele>
        <time>2009-06-18T16:43:36Z</time>
      </trkpt>
      <trkpt lat="44.8249" lon="0.83868">
        <ele>142</ele>
        <time>2009-06-18T16:43:36Z</time>
      </trkpt>
      <trkpt lat="44.82475" lon="0.83888">
        <ele>143</ele>
        <time>2009-06-18T16:43:36Z</time>
      </trkpt>
      <trkpt lat="44.82458" lon="0.83913">
        <ele>146</ele>
        <time>2009-06-18T16:43:36Z</time>
      </trkpt>
      <trkpt lat="44.82443" lon="0.8394">
        <ele>148</ele>
        <time>2009-06-18T16:43:36Z</time>
      </trkpt>
      <trkpt lat="44.82433" lon="0.8397">
        <ele>149</ele>
        <time>2009-06-18T16:43:36Z</time>
      </trkpt>
      <trkpt lat="44.82423" lon="0.83995">
        <ele>152</ele>
        <time>2009-06-18T16:43:36Z</time>
      </trkpt>
      <trkpt lat="44.82415" lon="0.84025">
        <ele>152</ele>
        <time>2009-06-18T16:43:36Z</time>
      </trkpt>
      <trkpt lat="44.82405" lon="0.84048">
        <ele>150</ele>
        <time>2009-06-18T16:43:36Z</time>
      </trkpt>
      <trkpt lat="44.82395" lon="0.84075">
        <ele>149</ele>
        <time>2009-06-18T16:43:36Z</time>
      </trkpt>
      <trkpt lat="44.82388" lon="0.841">
        <ele>148</ele>
        <time>2009-06-18T16:43:36Z</time>
      </trkpt>
      <trkpt lat="44.8238" lon="0.8413">
        <ele>148</ele>
        <time>2009-06-18T16:43:36Z</time>
      </trkpt>
      <trkpt lat="44.82368" lon="0.84155">
        <ele>148</ele>
        <time>2009-06-18T16:43:36Z</time>
      </trkpt>
      <trkpt lat="44.82353" lon="0.84175">
        <ele>149</ele>
        <time>2009-06-18T16:43:36Z</time>
      </trkpt>
      <trkpt lat="44.82338" lon="0.84195">
        <ele>149</ele>
        <time>2009-06-18T16:43:36Z</time>
      </trkpt>
      <trkpt lat="44.82315" lon="0.84213">
        <ele>150</ele>
        <time>2009-06-18T16:43:36Z</time>
      </trkpt>
      <trkpt lat="44.82298" lon="0.84238">
        <ele>149</ele>
        <time>2009-06-18T16:43:36Z</time>
      </trkpt>
      <trkpt lat="44.82278" lon="0.84245">
        <ele>143</ele>
        <time>2009-06-18T16:43:36Z</time>
      </trkpt>
      <trkpt lat="44.82255" lon="0.84263">
        <ele>142</ele>
        <time>2009-06-18T16:43:36Z</time>
      </trkpt>
      <trkpt lat="44.82238" lon="0.8428">
        <ele>144</ele>
        <time>2009-06-18T16:43:36Z</time>
      </trkpt>
      <trkpt lat="44.82223" lon="0.84295">
        <ele>144</ele>
        <time>2009-06-18T16:43:36Z</time>
      </trkpt>
      <trkpt lat="44.82208" lon="0.8431">
        <ele>145</ele>
        <time>2009-06-18T16:43:36Z</time>
      </trkpt>
      <trkpt lat="44.82188" lon="0.84335">
        <ele>147</ele>
        <time>2009-06-18T16:43:36Z</time>
      </trkpt>
      <trkpt lat="44.8217" lon="0.84363">
        <ele>146</ele>
        <time>2009-06-18T16:43:36Z</time>
      </trkpt>
      <trkpt lat="44.82155" lon="0.84385">
        <ele>143</ele>
        <time>2009-06-18T16:43:36Z</time>
      </trkpt>
      <trkpt lat="44.82138" lon="0.84405">
        <ele>143</ele>
        <time>2009-06-18T16:43:36Z</time>
      </trkpt>
      <trkpt lat="44.82118" lon="0.84428">
        <ele>143</ele>
        <time>2009-06-18T16:43:36Z</time>
      </trkpt>
      <trkpt lat="44.82095" lon="0.84445">
        <ele>144</ele>
        <time>2009-06-18T16:43:36Z</time>
      </trkpt>
      <trkpt lat="44.8208" lon="0.84463">
        <ele>145</ele>
        <time>2009-06-18T16:43:36Z</time>
      </trkpt>
      <trkpt lat="44.82065" lon="0.84478">
        <ele>143</ele>
        <time>2009-06-18T16:43:36Z</time>
      </trkpt>
      <trkpt lat="44.8205" lon="0.84495">
        <ele>142</ele>
        <time>2009-06-18T16:43:36Z</time>
      </trkpt>
      <trkpt lat="44.82035" lon="0.84518">
        <ele>142</ele>
        <time>2009-06-18T16:43:36Z</time>
      </trkpt>
      <trkpt lat="44.8202" lon="0.84535">
        <ele>141</ele>
        <time>2009-06-18T16:43:36Z</time>
      </trkpt>
      <trkpt lat="44.82005" lon="0.84553">
        <ele>142</ele>
        <time>2009-06-18T16:43:36Z</time>
      </trkpt>
      <trkpt lat="44.8199" lon="0.84573">
        <ele>142</ele>
        <time>2009-06-18T16:43:36Z</time>
      </trkpt>
      <trkpt lat="44.81973" lon="0.84588">
        <ele>142</ele>
        <time>2009-06-18T16:43:36Z</time>
      </trkpt>
      <trkpt lat="44.81948" lon="0.846">
        <ele>140</ele>
        <time>2009-06-18T16:43:36Z</time>
      </trkpt>
      <trkpt lat="44.8193" lon="0.84608">
        <ele>140</ele>
        <time>2009-06-18T16:43:36Z</time>
      </trkpt>
      <trkpt lat="44.81908" lon="0.84623">
        <ele>142</ele>
        <time>2009-06-18T16:43:36Z</time>
      </trkpt>
      <trkpt lat="44.81888" lon="0.84633">
        <ele>142</ele>
        <time>2009-06-18T16:43:36Z</time>
      </trkpt>
      <trkpt lat="44.81868" lon="0.84643">
        <ele>143</ele>
        <time>2009-06-18T16:43:36Z</time>
      </trkpt>
      <trkpt lat="44.81848" lon="0.84648">
        <ele>145</ele>
        <time>2009-06-18T16:43:36Z</time>
      </trkpt>
      <trkpt lat="44.81828" lon="0.84638">
        <ele>145</ele>
        <time>2009-06-18T16:43:36Z</time>
      </trkpt>
      <trkpt lat="44.8181" lon="0.84628">
        <ele>142</ele>
        <time>2009-06-18T16:43:36Z</time>
      </trkpt>
      <trkpt lat="44.81788" lon="0.8462">
        <ele>140</ele>
        <time>2009-06-18T16:43:36Z</time>
      </trkpt>
      <trkpt lat="44.8177" lon="0.84613">
        <ele>136</ele>
        <time>2009-06-18T16:43:36Z</time>
      </trkpt>
      <trkpt lat="44.81643" lon="0.84718">
        <ele>147</ele>
        <time>2009-06-18T16:43:36Z</time>
      </trkpt>
      <trkpt lat="44.81655" lon="0.84738">
        <ele>149</ele>
        <time>2009-06-18T16:43:36Z</time>
      </trkpt>
      <trkpt lat="44.81668" lon="0.8476">
        <ele>149</ele>
        <time>2009-06-18T16:43:36Z</time>
      </trkpt>
      <trkpt lat="44.81675" lon="0.84785">
        <ele>153</ele>
        <time>2009-06-18T16:43:36Z</time>
      </trkpt>
      <trkpt lat="44.81658" lon="0.84798">
        <ele>156</ele>
        <time>2009-06-18T16:43:36Z</time>
      </trkpt>
      <trkpt lat="44.81638" lon="0.84803">
        <ele>157</ele>
        <time>2009-06-18T16:43:36Z</time>
      </trkpt>
      <trkpt lat="44.8162" lon="0.8481">
        <ele>157</ele>
        <time>2009-06-18T16:43:36Z</time>
      </trkpt>
      <trkpt lat="44.81603" lon="0.8482">
        <ele>158</ele>
        <time>2009-06-18T16:43:36Z</time>
      </trkpt>
      <trkpt lat="44.81585" lon="0.8483">
        <ele>157</ele>
        <time>2009-06-18T16:43:36Z</time>
      </trkpt>
      <trkpt lat="44.81568" lon="0.84845">
        <ele>158</ele>
        <time>2009-06-18T16:43:36Z</time>
      </trkpt>
      <trkpt lat="44.8155" lon="0.84858">
        <ele>159</ele>
        <time>2009-06-18T16:43:36Z</time>
      </trkpt>
      <trkpt lat="44.81533" lon="0.8487">
        <ele>161</ele>
        <time>2009-06-18T16:43:36Z</time>
      </trkpt>
      <trkpt lat="44.81515" lon="0.84885">
        <ele>165</ele>
        <time>2009-06-18T16:43:36Z</time>
      </trkpt>
      <trkpt lat="44.815" lon="0.849">
        <ele>167</ele>
        <time>2009-06-18T16:43:36Z</time>
      </trkpt>
      <trkpt lat="44.81485" lon="0.84915">
        <ele>167</ele>
        <time>2009-06-18T16:43:36Z</time>
      </trkpt>
      <trkpt lat="44.81468" lon="0.84925">
        <ele>168</ele>
        <time>2009-06-18T16:43:36Z</time>
      </trkpt>
      <trkpt lat="44.8145" lon="0.84935">
        <ele>167</ele>
        <time>2009-06-18T16:43:36Z</time>
      </trkpt>
      <trkpt lat="44.81433" lon="0.84943">
        <ele>167</ele>
        <time>2009-06-18T16:43:36Z</time>
      </trkpt>
      <trkpt lat="44.81413" lon="0.8494">
        <ele>167</ele>
        <time>2009-06-18T16:43:36Z</time>
      </trkpt>
      <trkpt lat="44.8139" lon="0.8494">
        <ele>167</ele>
        <time>2009-06-18T16:43:36Z</time>
      </trkpt>
      <trkpt lat="44.8137" lon="0.84945">
        <ele>165</ele>
        <time>2009-06-18T16:43:36Z</time>
      </trkpt>
      <trkpt lat="44.8135" lon="0.84943">
        <ele>164</ele>
        <time>2009-06-18T16:43:36Z</time>
      </trkpt>
      <trkpt lat="44.81328" lon="0.84943">
        <ele>162</ele>
        <time>2009-06-18T16:43:36Z</time>
      </trkpt>
      <trkpt lat="44.81305" lon="0.84948">
        <ele>160</ele>
        <time>2009-06-18T16:43:36Z</time>
      </trkpt>
      <trkpt lat="44.81285" lon="0.84948">
        <ele>161</ele>
        <time>2009-06-18T16:43:36Z</time>
      </trkpt>
      <trkpt lat="44.81265" lon="0.84943">
        <ele>162</ele>
        <time>2009-06-18T16:43:36Z</time>
      </trkpt>
      <trkpt lat="44.81245" lon="0.84938">
        <ele>163</ele>
        <time>2009-06-18T16:43:36Z</time>
      </trkpt>
      <trkpt lat="44.81228" lon="0.84928">
        <ele>165</ele>
        <time>2009-06-18T16:43:36Z</time>
      </trkpt>
      <trkpt lat="44.8121" lon="0.8492">
        <ele>169</ele>
        <time>2009-06-18T16:43:36Z</time>
      </trkpt>
    </trkseg>
  </trk>
  <trk>
    <name><![CDATA[BBmt28]]></name>
    <trkseg>
      <trkpt lat="44.81041" lon="0.82489">
        <ele>152</ele>
        <time>2008-12-16T11:17:38Z</time>
      </trkpt>
      <trkpt lat="44.81033" lon="0.82479">
        <ele>153</ele>
        <time>2008-12-16T11:17:58Z</time>
      </trkpt>
      <trkpt lat="44.81014" lon="0.82467">
        <ele>153</ele>
        <time>2008-12-16T11:18:03Z</time>
      </trkpt>
      <trkpt lat="44.80989" lon="0.82447">
        <ele>153</ele>
        <time>2008-12-16T11:18:09Z</time>
      </trkpt>
      <trkpt lat="44.80975" lon="0.82491">
        <ele>148</ele>
        <time>2008-12-16T11:18:30Z</time>
      </trkpt>
    </trkseg>
  </trk>
  <trk>
    <name><![CDATA[BBmt29]]></name>
    <trkseg>
      <trkpt lat="44.8071" lon="0.83485">
        <ele>185</ele>
        <time>2008-12-16T11:30:45Z</time>
      </trkpt>
      <trkpt lat="44.80715" lon="0.83518">
        <ele>184</ele>
        <time>2008-12-16T11:30:50Z</time>
      </trkpt>
      <trkpt lat="44.80718" lon="0.8355">
        <ele>183</ele>
        <time>2008-12-16T11:30:54Z</time>
      </trkpt>
      <trkpt lat="44.80718" lon="0.83578">
        <ele>180</ele>
        <time>2008-12-16T11:30:57Z</time>
      </trkpt>
      <trkpt lat="44.80718" lon="0.83605">
        <ele>184</ele>
        <time>2008-12-16T11:31:01Z</time>
      </trkpt>
      <trkpt lat="44.80718" lon="0.83633">
        <ele>184</ele>
        <time>2008-12-16T11:31:05Z</time>
      </trkpt>
      <trkpt lat="44.80718" lon="0.83665">
        <ele>183</ele>
        <time>2008-12-16T11:31:09Z</time>
      </trkpt>
      <trkpt lat="44.8072" lon="0.83695">
        <ele>180</ele>
        <time>2008-12-16T11:31:13Z</time>
      </trkpt>
      <trkpt lat="44.8073" lon="0.83718">
        <ele>183</ele>
        <time>2008-12-16T11:31:17Z</time>
      </trkpt>
      <trkpt lat="44.80743" lon="0.83745">
        <ele>184</ele>
        <time>2008-12-16T11:31:21Z</time>
      </trkpt>
      <trkpt lat="44.80758" lon="0.83768">
        <ele>183</ele>
        <time>2008-12-16T11:31:24Z</time>
      </trkpt>
      <trkpt lat="44.80773" lon="0.83793">
        <ele>183</ele>
        <time>2008-12-16T11:31:28Z</time>
      </trkpt>
      <trkpt lat="44.80793" lon="0.8381">
        <ele>183</ele>
        <time>2008-12-16T11:31:31Z</time>
      </trkpt>
      <trkpt lat="44.8081" lon="0.83825">
        <ele>183</ele>
        <time>2008-12-16T11:31:34Z</time>
      </trkpt>
      <trkpt lat="44.80828" lon="0.8384">
        <ele>182</ele>
        <time>2008-12-16T11:31:37Z</time>
      </trkpt>
      <trkpt lat="44.80845" lon="0.83855">
        <ele>181</ele>
        <time>2008-12-16T11:31:40Z</time>
      </trkpt>
      <trkpt lat="44.8086" lon="0.8387">
        <ele>181</ele>
        <time>2008-12-16T11:31:43Z</time>
      </trkpt>
      <trkpt lat="44.80878" lon="0.83883">
        <ele>183</ele>
        <time>2008-12-16T11:31:47Z</time>
      </trkpt>
      <trkpt lat="44.80893" lon="0.839">
        <ele>183</ele>
        <time>2008-12-16T11:31:51Z</time>
      </trkpt>
      <trkpt lat="44.80908" lon="0.83925">
        <ele>182</ele>
        <time>2008-12-16T11:31:55Z</time>
      </trkpt>
      <trkpt lat="44.80925" lon="0.83943">
        <ele>180</ele>
        <time>2008-12-16T11:31:58Z</time>
      </trkpt>
      <trkpt lat="44.80943" lon="0.83958">
        <ele>178</ele>
        <time>2008-12-16T11:32:01Z</time>
      </trkpt>
      <trkpt lat="44.8096" lon="0.83973">
        <ele>176</ele>
        <time>2008-12-16T11:32:04Z</time>
      </trkpt>
      <trkpt lat="44.80978" lon="0.83988">
        <ele>176</ele>
        <time>2008-12-16T11:32:07Z</time>
      </trkpt>
      <trkpt lat="44.80995" lon="0.83998">
        <ele>176</ele>
        <time>2008-12-16T11:32:10Z</time>
      </trkpt>
      <trkpt lat="44.81015" lon="0.84003">
        <ele>174</ele>
        <time>2008-12-16T11:32:14Z</time>
      </trkpt>
      <trkpt lat="44.81033" lon="0.84018">
        <ele>175</ele>
        <time>2008-12-16T11:32:18Z</time>
      </trkpt>
      <trkpt lat="44.81048" lon="0.84035">
        <ele>181</ele>
        <time>2008-12-16T11:32:27Z</time>
      </trkpt>
      <trkpt lat="44.81063" lon="0.8405">
        <ele>179</ele>
        <time>2008-12-16T11:32:29Z</time>
      </trkpt>
      <trkpt lat="44.81088" lon="0.84058">
        <ele>174</ele>
        <time>2008-12-16T11:32:33Z</time>
      </trkpt>
      <trkpt lat="44.81108" lon="0.8406">
        <ele>170</ele>
        <time>2008-12-16T11:32:36Z</time>
      </trkpt>
      <trkpt lat="44.81128" lon="0.84065">
        <ele>165</ele>
        <time>2008-12-16T11:32:41Z</time>
      </trkpt>
      <trkpt lat="44.81153" lon="0.84068">
        <ele>163</ele>
        <time>2008-12-16T11:32:51Z</time>
      </trkpt>
      <trkpt lat="44.81173" lon="0.84068">
        <ele>162</ele>
        <time>2008-12-16T11:32:55Z</time>
      </trkpt>
      <trkpt lat="44.81178" lon="0.84115">
        <ele>162</ele>
        <time>2009-06-18T16:43:36Z</time>
      </trkpt>
      <trkpt lat="44.81173" lon="0.8414">
        <ele>165</ele>
        <time>2009-06-18T16:43:36Z</time>
      </trkpt>
      <trkpt lat="44.81178" lon="0.84168">
        <ele>164</ele>
        <time>2009-06-18T16:43:36Z</time>
      </trkpt>
      <trkpt lat="44.81183" lon="0.84193">
        <ele>159</ele>
        <time>2009-06-18T16:43:36Z</time>
      </trkpt>
      <trkpt lat="44.8119" lon="0.84218">
        <ele>151</ele>
        <time>2009-06-18T16:43:36Z</time>
      </trkpt>
      <trkpt lat="44.81193" lon="0.84245">
        <ele>155</ele>
        <time>2009-06-18T16:43:36Z</time>
      </trkpt>
      <trkpt lat="44.81203" lon="0.84268">
        <ele>158</ele>
        <time>2009-06-18T16:43:36Z</time>
      </trkpt>
      <trkpt lat="44.81213" lon="0.8429">
        <ele>157</ele>
        <time>2009-06-18T16:43:36Z</time>
      </trkpt>
      <trkpt lat="44.81218" lon="0.84315">
        <ele>159</ele>
        <time>2009-06-18T16:43:36Z</time>
      </trkpt>
      <trkpt lat="44.81225" lon="0.8434">
        <ele>164</ele>
        <time>2009-06-18T16:43:36Z</time>
      </trkpt>
      <trkpt lat="44.8123" lon="0.84365">
        <ele>162</ele>
        <time>2009-06-18T16:43:36Z</time>
      </trkpt>
      <trkpt lat="44.81235" lon="0.8439">
        <ele>159</ele>
        <time>2009-06-18T16:43:36Z</time>
      </trkpt>
      <trkpt lat="44.81238" lon="0.84418">
        <ele>157</ele>
        <time>2009-06-18T16:43:36Z</time>
      </trkpt>
      <trkpt lat="44.81238" lon="0.84445">
        <ele>156</ele>
        <time>2009-06-18T16:43:36Z</time>
      </trkpt>
      <trkpt lat="44.81235" lon="0.84473">
        <ele>155</ele>
        <time>2009-06-18T16:43:36Z</time>
      </trkpt>
      <trkpt lat="44.8124" lon="0.84498">
        <ele>151</ele>
        <time>2009-06-18T16:43:36Z</time>
      </trkpt>
      <trkpt lat="44.81245" lon="0.84525">
        <ele>149</ele>
        <time>2009-06-18T16:43:36Z</time>
      </trkpt>
      <trkpt lat="44.81245" lon="0.84553">
        <ele>156</ele>
        <time>2009-06-18T16:43:36Z</time>
      </trkpt>
      <trkpt lat="44.81245" lon="0.8458">
        <ele>155</ele>
        <time>2009-06-18T16:43:36Z</time>
      </trkpt>
      <trkpt lat="44.81243" lon="0.84608">
        <ele>161</ele>
        <time>2009-06-18T16:43:36Z</time>
      </trkpt>
      <trkpt lat="44.8124" lon="0.84635">
        <ele>163</ele>
        <time>2009-06-18T16:43:36Z</time>
      </trkpt>
      <trkpt lat="44.8124" lon="0.84663">
        <ele>162</ele>
        <time>2009-06-18T16:43:36Z</time>
      </trkpt>
      <trkpt lat="44.81238" lon="0.8469">
        <ele>159</ele>
        <time>2009-06-18T16:43:36Z</time>
      </trkpt>
      <trkpt lat="44.81245" lon="0.84715">
        <ele>162</ele>
        <time>2009-06-18T16:43:36Z</time>
      </trkpt>
      <trkpt lat="44.8124" lon="0.8474">
        <ele>166</ele>
        <time>2009-06-18T16:43:36Z</time>
      </trkpt>
      <trkpt lat="44.81238" lon="0.84768">
        <ele>164</ele>
        <time>2009-06-18T16:43:36Z</time>
      </trkpt>
      <trkpt lat="44.81243" lon="0.84793">
        <ele>163</ele>
        <time>2009-06-18T16:43:36Z</time>
      </trkpt>
      <trkpt lat="44.81243" lon="0.8482">
        <ele>161</ele>
        <time>2009-06-18T16:43:36Z</time>
      </trkpt>
      <trkpt lat="44.81233" lon="0.84845">
        <ele>166</ele>
        <time>2009-06-18T16:43:36Z</time>
      </trkpt>
      <trkpt lat="44.81223" lon="0.8487">
        <ele>167</ele>
        <time>2009-06-18T16:43:36Z</time>
      </trkpt>
      <trkpt lat="44.81215" lon="0.84895">
        <ele>165</ele>
        <time>2009-06-18T16:43:36Z</time>
      </trkpt>
      <trkpt lat="44.81205" lon="0.8492">
        <ele>159</ele>
        <time>2009-06-18T16:43:36Z</time>
      </trkpt>
    </trkseg>
  </trk>
  <trk>
    <name><![CDATA[BBmt30]]></name>
    <trkseg>
      <trkpt lat="44.8069" lon="0.8585">
        <ele>184</ele>
        <time>2008-12-16T13:45:48Z</time>
      </trkpt>
      <trkpt lat="44.80684" lon="0.85855">
        <ele>185</ele>
        <time>2008-12-16T13:46:02Z</time>
      </trkpt>
      <trkpt lat="44.80675" lon="0.85798">
        <ele>185</ele>
        <time>2008-12-16T13:46:06Z</time>
      </trkpt>
      <trkpt lat="44.80668" lon="0.8577">
        <ele>184</ele>
        <time>2008-12-16T13:46:10Z</time>
      </trkpt>
      <trkpt lat="44.8066" lon="0.85745">
        <ele>185</ele>
        <time>2008-12-16T13:46:14Z</time>
      </trkpt>
      <trkpt lat="44.8066" lon="0.85715">
        <ele>189</ele>
        <time>2008-12-16T13:46:19Z</time>
      </trkpt>
      <trkpt lat="44.80658" lon="0.85688">
        <ele>192</ele>
        <time>2008-12-16T13:46:23Z</time>
      </trkpt>
      <trkpt lat="44.80655" lon="0.85658">
        <ele>193</ele>
        <time>2008-12-16T13:46:27Z</time>
      </trkpt>
      <trkpt lat="44.80653" lon="0.8563">
        <ele>193</ele>
        <time>2008-12-16T13:46:37Z</time>
      </trkpt>
      <trkpt lat="44.8065" lon="0.85598">
        <ele>191</ele>
        <time>2008-12-16T13:46:41Z</time>
      </trkpt>
      <trkpt lat="44.80648" lon="0.85568">
        <ele>190</ele>
        <time>2008-12-16T13:46:44Z</time>
      </trkpt>
      <trkpt lat="44.80645" lon="0.85533">
        <ele>189</ele>
        <time>2008-12-16T13:46:47Z</time>
      </trkpt>
      <trkpt lat="44.80643" lon="0.85498">
        <ele>188</ele>
        <time>2008-12-16T13:46:50Z</time>
      </trkpt>
      <trkpt lat="44.8064" lon="0.85463">
        <ele>188</ele>
        <time>2008-12-16T13:46:53Z</time>
      </trkpt>
      <trkpt lat="44.80638" lon="0.85433">
        <ele>187</ele>
        <time>2008-12-16T13:46:56Z</time>
      </trkpt>
      <trkpt lat="44.80635" lon="0.85405">
        <ele>186</ele>
        <time>2008-12-16T13:46:59Z</time>
      </trkpt>
      <trkpt lat="44.80643" lon="0.85378">
        <ele>187</ele>
        <time>2008-12-16T13:47:03Z</time>
      </trkpt>
      <trkpt lat="44.8066" lon="0.85353">
        <ele>184</ele>
        <time>2008-12-16T13:47:06Z</time>
      </trkpt>
      <trkpt lat="44.80678" lon="0.8533">
        <ele>181</ele>
        <time>2008-12-16T13:47:09Z</time>
      </trkpt>
      <trkpt lat="44.80698" lon="0.8531">
        <ele>178</ele>
        <time>2008-12-16T13:47:12Z</time>
      </trkpt>
      <trkpt lat="44.80718" lon="0.85315">
        <ele>174</ele>
        <time>2008-12-16T13:47:23Z</time>
      </trkpt>
      <trkpt lat="44.80735" lon="0.85323">
        <ele>172</ele>
        <time>2008-12-16T13:47:31Z</time>
      </trkpt>
      <trkpt lat="44.80755" lon="0.85318">
        <ele>172</ele>
        <time>2008-12-16T13:47:35Z</time>
      </trkpt>
      <trkpt lat="44.80778" lon="0.8531">
        <ele>172</ele>
        <time>2008-12-16T13:47:39Z</time>
      </trkpt>
      <trkpt lat="44.808" lon="0.85313">
        <ele>173</ele>
        <time>2008-12-16T13:47:43Z</time>
      </trkpt>
      <trkpt lat="44.8082" lon="0.85315">
        <ele>173</ele>
        <time>2008-12-16T13:47:46Z</time>
      </trkpt>
      <trkpt lat="44.8084" lon="0.85318">
        <ele>173</ele>
        <time>2008-12-16T13:47:49Z</time>
      </trkpt>
      <trkpt lat="44.8086" lon="0.8532">
        <ele>172</ele>
        <time>2008-12-16T13:47:52Z</time>
      </trkpt>
      <trkpt lat="44.80885" lon="0.85323">
        <ele>172</ele>
        <time>2008-12-16T13:47:56Z</time>
      </trkpt>
      <trkpt lat="44.80905" lon="0.8532">
        <ele>172</ele>
        <time>2008-12-16T13:48:41Z</time>
      </trkpt>
      <trkpt lat="44.80905" lon="0.8529">
        <ele>172</ele>
        <time>2008-12-16T13:48:47Z</time>
      </trkpt>
      <trkpt lat="44.80905" lon="0.8526">
        <ele>173</ele>
        <time>2008-12-16T13:48:53Z</time>
      </trkpt>
      <trkpt lat="44.80898" lon="0.85235">
        <ele>174</ele>
        <time>2008-12-16T13:49:01Z</time>
      </trkpt>
      <trkpt lat="44.80885" lon="0.85215">
        <ele>175</ele>
        <time>2008-12-16T13:49:07Z</time>
      </trkpt>
      <trkpt lat="44.80888" lon="0.85188">
        <ele>175</ele>
        <time>2008-12-16T13:49:12Z</time>
      </trkpt>
      <trkpt lat="44.80895" lon="0.85163">
        <ele>172</ele>
        <time>2008-12-16T13:49:40Z</time>
      </trkpt>
      <trkpt lat="44.8091" lon="0.85138">
        <ele>171</ele>
        <time>2008-12-16T13:49:45Z</time>
      </trkpt>
      <trkpt lat="44.80925" lon="0.85118">
        <ele>172</ele>
        <time>2008-12-16T13:49:49Z</time>
      </trkpt>
      <trkpt lat="44.8094" lon="0.85103">
        <ele>173</ele>
        <time>2008-12-16T13:49:53Z</time>
      </trkpt>
      <trkpt lat="44.80955" lon="0.85088">
        <ele>175</ele>
        <time>2008-12-16T13:49:57Z</time>
      </trkpt>
      <trkpt lat="44.80973" lon="0.85075">
        <ele>173</ele>
        <time>2008-12-16T13:50:03Z</time>
      </trkpt>
      <trkpt lat="44.8099" lon="0.85068">
        <ele>173</ele>
        <time>2008-12-16T13:50:15Z</time>
      </trkpt>
      <trkpt lat="44.81008" lon="0.85055">
        <ele>176</ele>
        <time>2008-12-16T13:50:19Z</time>
      </trkpt>
      <trkpt lat="44.81025" lon="0.85045">
        <ele>180</ele>
        <time>2008-12-16T13:50:23Z</time>
      </trkpt>
      <trkpt lat="44.81043" lon="0.85035">
        <ele>181</ele>
        <time>2008-12-16T13:50:27Z</time>
      </trkpt>
      <trkpt lat="44.81063" lon="0.85023">
        <ele>186</ele>
        <time>2008-12-16T13:50:32Z</time>
      </trkpt>
      <trkpt lat="44.8108" lon="0.8501">
        <ele>191</ele>
        <time>2008-12-16T13:50:37Z</time>
      </trkpt>
      <trkpt lat="44.811" lon="0.84995">
        <ele>193</ele>
        <time>2008-12-16T13:50:42Z</time>
      </trkpt>
      <trkpt lat="44.8112" lon="0.8498">
        <ele>196</ele>
        <time>2008-12-16T13:50:47Z</time>
      </trkpt>
      <trkpt lat="44.81138" lon="0.84963">
        <ele>195</ele>
        <time>2008-12-16T13:50:52Z</time>
      </trkpt>
      <trkpt lat="44.81155" lon="0.84948">
        <ele>195</ele>
        <time>2008-12-16T13:50:57Z</time>
      </trkpt>
      <trkpt lat="44.81173" lon="0.84938">
        <ele>195</ele>
        <time>2008-12-16T13:51:02Z</time>
      </trkpt>
      <trkpt lat="44.81193" lon="0.84928">
        <ele>189</ele>
        <time>2008-12-16T13:51:07Z</time>
      </trkpt>
      <trkpt lat="44.81213" lon="0.84923">
        <ele>149</ele>
        <time>2008-12-16T13:53:11Z</time>
      </trkpt>
    </trkseg>
  </trk>
  <trk>
    <name><![CDATA[BBmt31]]></name>
    <trkseg>
      <trkpt lat="44.77433" lon="0.8158">
        <ele>190</ele>
        <time>2008-12-03T11:32:10Z</time>
      </trkpt>
      <trkpt lat="44.77415" lon="0.81573">
        <ele>173</ele>
        <time>2008-12-03T11:32:34Z</time>
      </trkpt>
      <trkpt lat="44.77395" lon="0.8157">
        <ele>170</ele>
        <time>2008-12-03T11:32:41Z</time>
      </trkpt>
      <trkpt lat="44.7738" lon="0.8159">
        <ele>166</ele>
        <time>2008-12-03T11:32:57Z</time>
      </trkpt>
      <trkpt lat="44.7738" lon="0.81625">
        <ele>165</ele>
        <time>2008-12-03T11:33:02Z</time>
      </trkpt>
      <trkpt lat="44.7739" lon="0.81655">
        <ele>167</ele>
        <time>2008-12-03T11:33:06Z</time>
      </trkpt>
      <trkpt lat="44.77395" lon="0.8168">
        <ele>167</ele>
        <time>2008-12-03T11:33:14Z</time>
      </trkpt>
      <trkpt lat="44.77405" lon="0.8171">
        <ele>167</ele>
        <time>2008-12-03T11:33:22Z</time>
      </trkpt>
      <trkpt lat="44.77418" lon="0.81738">
        <ele>166</ele>
        <time>2008-12-03T11:33:25Z</time>
      </trkpt>
      <trkpt lat="44.77433" lon="0.81768">
        <ele>164</ele>
        <time>2008-12-03T11:33:28Z</time>
      </trkpt>
      <trkpt lat="44.77448" lon="0.81795">
        <ele>162</ele>
        <time>2008-12-03T11:33:31Z</time>
      </trkpt>
      <trkpt lat="44.77458" lon="0.81825">
        <ele>155</ele>
        <time>2008-12-03T11:33:35Z</time>
      </trkpt>
      <trkpt lat="44.77447" lon="0.81834">
        <ele>153</ele>
        <time>2008-12-03T11:33:46Z</time>
      </trkpt>
      <trkpt lat="44.77423" lon="0.818">
        <ele>154</ele>
        <time>2008-12-03T11:33:50Z</time>
      </trkpt>
      <trkpt lat="44.77408" lon="0.81783">
        <ele>154</ele>
        <time>2008-12-03T11:33:53Z</time>
      </trkpt>
      <trkpt lat="44.7739" lon="0.81765">
        <ele>154</ele>
        <time>2008-12-03T11:33:56Z</time>
      </trkpt>
      <trkpt lat="44.77375" lon="0.81745">
        <ele>156</ele>
        <time>2008-12-03T11:34:00Z</time>
      </trkpt>
    </trkseg>
  </trk>
  <trk>
    <name><![CDATA[BBmt32]]></name>
    <trkseg>
      <trkpt lat="44.77375" lon="0.81745">
        <ele>156</ele>
        <time>2008-12-03T11:34:00Z</time>
      </trkpt>
      <trkpt lat="44.77358" lon="0.81728">
        <ele>151</ele>
        <time>2008-12-03T11:36:06Z</time>
      </trkpt>
      <trkpt lat="44.77345" lon="0.81705">
        <ele>151</ele>
        <time>2008-12-03T11:36:11Z</time>
      </trkpt>
      <trkpt lat="44.77328" lon="0.81685">
        <ele>153</ele>
        <time>2008-12-03T11:36:16Z</time>
      </trkpt>
      <trkpt lat="44.77318" lon="0.81663">
        <ele>155</ele>
        <time>2008-12-03T11:36:20Z</time>
      </trkpt>
      <trkpt lat="44.7731" lon="0.81638">
        <ele>157</ele>
        <time>2008-12-03T11:36:24Z</time>
      </trkpt>
      <trkpt lat="44.773" lon="0.8161">
        <ele>159</ele>
        <time>2008-12-03T11:36:29Z</time>
      </trkpt>
      <trkpt lat="44.77298" lon="0.81583">
        <ele>160</ele>
        <time>2008-12-03T11:36:33Z</time>
      </trkpt>
      <trkpt lat="44.77295" lon="0.81553">
        <ele>159</ele>
        <time>2008-12-03T11:36:37Z</time>
      </trkpt>
      <trkpt lat="44.77298" lon="0.81525">
        <ele>153</ele>
        <time>2008-12-03T11:36:41Z</time>
      </trkpt>
      <trkpt lat="44.77261" lon="0.81513">
        <ele>136</ele>
        <time>2009-06-18T16:43:36Z</time>
      </trkpt>
      <trkpt lat="44.77287" lon="0.81414">
        <ele>123</ele>
        <time>2009-06-18T16:43:36Z</time>
      </trkpt>
    </trkseg>
  </trk>
  <trk>
    <name><![CDATA[BBmt33]]></name>
    <trkseg>
      <trkpt lat="44.77287" lon="0.81414">
        <ele>123</ele>
        <time>2009-06-18T16:43:36Z</time>
      </trkpt>
      <trkpt lat="44.76985" lon="0.8037">
        <ele>98</ele>
        <time>2008-12-03T11:44:34Z</time>
      </trkpt>
      <trkpt lat="44.76978" lon="0.8034">
        <ele>86</ele>
        <time>2008-12-03T11:44:57Z</time>
      </trkpt>
      <trkpt lat="44.76973" lon="0.8031">
        <ele>86</ele>
        <time>2008-12-03T11:45:02Z</time>
      </trkpt>
      <trkpt lat="44.76973" lon="0.80283">
        <ele>86</ele>
        <time>2008-12-03T11:45:06Z</time>
      </trkpt>
      <trkpt lat="44.7697" lon="0.80253">
        <ele>88</ele>
        <time>2008-12-03T11:45:10Z</time>
      </trkpt>
      <trkpt lat="44.76968" lon="0.80218">
        <ele>88</ele>
        <time>2008-12-03T11:45:14Z</time>
      </trkpt>
      <trkpt lat="44.76963" lon="0.80185">
        <ele>85</ele>
        <time>2008-12-03T11:45:17Z</time>
      </trkpt>
      <trkpt lat="44.76955" lon="0.8016">
        <ele>85</ele>
        <time>2008-12-03T11:45:21Z</time>
      </trkpt>
      <trkpt lat="44.76945" lon="0.80133">
        <ele>83</ele>
        <time>2008-12-03T11:45:25Z</time>
      </trkpt>
      <trkpt lat="44.76945" lon="0.80103">
        <ele>89</ele>
        <time>2008-12-03T11:46:05Z</time>
      </trkpt>
      <trkpt lat="44.7694" lon="0.80078">
        <ele>88</ele>
        <time>2008-12-03T11:46:17Z</time>
      </trkpt>
      <trkpt lat="44.76938" lon="0.8005">
        <ele>82</ele>
        <time>2008-12-03T11:46:22Z</time>
      </trkpt>
      <trkpt lat="44.76935" lon="0.80023">
        <ele>80</ele>
        <time>2008-12-03T11:46:27Z</time>
      </trkpt>
      <trkpt lat="44.76935" lon="0.79995">
        <ele>79</ele>
        <time>2008-12-03T11:46:32Z</time>
      </trkpt>
      <trkpt lat="44.76933" lon="0.79968">
        <ele>81</ele>
        <time>2008-12-03T11:46:38Z</time>
      </trkpt>
      <trkpt lat="44.76933" lon="0.79938">
        <ele>79</ele>
        <time>2008-12-03T11:46:45Z</time>
      </trkpt>
      <trkpt lat="44.76928" lon="0.79913">
        <ele>79</ele>
        <time>2008-12-03T11:46:50Z</time>
      </trkpt>
      <trkpt lat="44.76923" lon="0.79885">
        <ele>84</ele>
        <time>2008-12-03T11:46:56Z</time>
      </trkpt>
      <trkpt lat="44.7692" lon="0.79858">
        <ele>90</ele>
        <time>2008-12-03T11:47:05Z</time>
      </trkpt>
    </trkseg>
  </trk>
  <trk>
    <name><![CDATA[BBmt34]]></name>
    <trkseg>
      <trkpt lat="44.7692" lon="0.79858">
        <ele>90</ele>
        <time>2008-12-03T11:47:05Z</time>
      </trkpt>
      <trkpt lat="44.7692" lon="0.79828">
        <ele>81</ele>
        <time>2008-12-03T11:48:49Z</time>
      </trkpt>
      <trkpt lat="44.76928" lon="0.798">
        <ele>83</ele>
        <time>2008-12-03T11:48:54Z</time>
      </trkpt>
      <trkpt lat="44.76933" lon="0.79775">
        <ele>82</ele>
        <time>2008-12-03T11:49:00Z</time>
      </trkpt>
      <trkpt lat="44.76943" lon="0.79745">
        <ele>82</ele>
        <time>2008-12-03T11:49:05Z</time>
      </trkpt>
      <trkpt lat="44.76948" lon="0.79718">
        <ele>83</ele>
        <time>2008-12-03T11:49:08Z</time>
      </trkpt>
      <trkpt lat="44.7696" lon="0.79693">
        <ele>83</ele>
        <time>2008-12-03T11:49:12Z</time>
      </trkpt>
    </trkseg>
  </trk>
  <trk>
    <name><![CDATA[BBmt35]]></name>
    <trkseg>
      <trkpt lat="44.7696" lon="0.79693">
        <ele>83</ele>
        <time>2008-12-03T11:49:12Z</time>
      </trkpt>
      <trkpt lat="44.76973" lon="0.79673">
        <ele>83</ele>
        <time>2008-12-03T11:49:16Z</time>
      </trkpt>
      <trkpt lat="44.76983" lon="0.79643">
        <ele>84</ele>
        <time>2008-12-03T11:49:20Z</time>
      </trkpt>
      <trkpt lat="44.76995" lon="0.79623">
        <ele>85</ele>
        <time>2008-12-03T11:49:39Z</time>
      </trkpt>
      <trkpt lat="44.77018" lon="0.79633">
        <ele>83</ele>
        <time>2008-12-03T11:49:43Z</time>
      </trkpt>
      <trkpt lat="44.7704" lon="0.79633">
        <ele>82</ele>
        <time>2008-12-03T11:49:47Z</time>
      </trkpt>
      <trkpt lat="44.7706" lon="0.79623">
        <ele>83</ele>
        <time>2008-12-03T11:50:04Z</time>
      </trkpt>
      <trkpt lat="44.77078" lon="0.79608">
        <ele>83</ele>
        <time>2008-12-03T11:50:08Z</time>
      </trkpt>
      <trkpt lat="44.77093" lon="0.79593">
        <ele>84</ele>
        <time>2008-12-03T11:50:12Z</time>
      </trkpt>
      <trkpt lat="44.7711" lon="0.79575">
        <ele>85</ele>
        <time>2008-12-03T11:50:16Z</time>
      </trkpt>
      <trkpt lat="44.77128" lon="0.79555">
        <ele>86</ele>
        <time>2008-12-03T11:50:20Z</time>
      </trkpt>
      <trkpt lat="44.77143" lon="0.7954">
        <ele>88</ele>
        <time>2008-12-03T11:50:22Z</time>
      </trkpt>
      <trkpt lat="44.77158" lon="0.79525">
        <ele>91</ele>
        <time>2008-12-03T11:50:26Z</time>
      </trkpt>
      <trkpt lat="44.77175" lon="0.79508">
        <ele>92</ele>
        <time>2008-12-03T11:50:30Z</time>
      </trkpt>
      <trkpt lat="44.77193" lon="0.79485">
        <ele>97</ele>
        <time>2008-12-03T11:50:34Z</time>
      </trkpt>
      <trkpt lat="44.77203" lon="0.79463">
        <ele>98</ele>
        <time>2008-12-03T11:50:38Z</time>
      </trkpt>
      <trkpt lat="44.77205" lon="0.79435">
        <ele>100</ele>
        <time>2008-12-03T11:50:43Z</time>
      </trkpt>
      <trkpt lat="44.77213" lon="0.79408">
        <ele>99</ele>
        <time>2008-12-03T11:50:47Z</time>
      </trkpt>
      <trkpt lat="44.77223" lon="0.79383">
        <ele>96</ele>
        <time>2008-12-03T11:50:52Z</time>
      </trkpt>
      <trkpt lat="44.7724" lon="0.79368">
        <ele>93</ele>
        <time>2008-12-03T11:51:05Z</time>
      </trkpt>
      <trkpt lat="44.7725" lon="0.7934">
        <ele>103</ele>
        <time>2008-12-03T11:51:10Z</time>
      </trkpt>
      <trkpt lat="44.77255" lon="0.79313">
        <ele>107</ele>
        <time>2008-12-03T11:51:12Z</time>
      </trkpt>
      <trkpt lat="44.77258" lon="0.79285">
        <ele>111</ele>
        <time>2008-12-03T11:51:16Z</time>
      </trkpt>
      <trkpt lat="44.77263" lon="0.79253">
        <ele>115</ele>
        <time>2008-12-03T11:51:20Z</time>
      </trkpt>
      <trkpt lat="44.77268" lon="0.79225">
        <ele>119</ele>
        <time>2008-12-03T11:51:23Z</time>
      </trkpt>
      <trkpt lat="44.7727" lon="0.79198">
        <ele>119</ele>
        <time>2008-12-03T11:51:26Z</time>
      </trkpt>
      <trkpt lat="44.7727" lon="0.7917">
        <ele>120</ele>
        <time>2008-12-03T11:51:29Z</time>
      </trkpt>
      <trkpt lat="44.77275" lon="0.79145">
        <ele>119</ele>
        <time>2008-12-03T11:51:32Z</time>
      </trkpt>
      <trkpt lat="44.77278" lon="0.79118">
        <ele>121</ele>
        <time>2008-12-03T11:51:35Z</time>
      </trkpt>
      <trkpt lat="44.77285" lon="0.79088">
        <ele>126</ele>
        <time>2008-12-03T11:51:39Z</time>
      </trkpt>
      <trkpt lat="44.77293" lon="0.79058">
        <ele>129</ele>
        <time>2008-12-03T11:51:43Z</time>
      </trkpt>
      <trkpt lat="44.77298" lon="0.79033">
        <ele>130</ele>
        <time>2008-12-03T11:51:46Z</time>
      </trkpt>
      <trkpt lat="44.77295" lon="0.79003">
        <ele>130</ele>
        <time>2008-12-03T11:51:51Z</time>
      </trkpt>
      <trkpt lat="44.77288" lon="0.78978">
        <ele>128</ele>
        <time>2008-12-03T11:51:56Z</time>
      </trkpt>
      <trkpt lat="44.7728" lon="0.7895">
        <ele>128</ele>
        <time>2008-12-03T11:52:01Z</time>
      </trkpt>
      <trkpt lat="44.77278" lon="0.7892">
        <ele>129</ele>
        <time>2008-12-03T11:52:06Z</time>
      </trkpt>
      <trkpt lat="44.77278" lon="0.7889">
        <ele>130</ele>
        <time>2008-12-03T11:52:11Z</time>
      </trkpt>
      <trkpt lat="44.77283" lon="0.78865">
        <ele>132</ele>
        <time>2008-12-03T11:52:15Z</time>
      </trkpt>
      <trkpt lat="44.77288" lon="0.78838">
        <ele>133</ele>
        <time>2008-12-03T11:52:19Z</time>
      </trkpt>
      <trkpt lat="44.77293" lon="0.78813">
        <ele>134</ele>
        <time>2008-12-03T11:52:23Z</time>
      </trkpt>
      <trkpt lat="44.773" lon="0.78785">
        <ele>136</ele>
        <time>2008-12-03T11:52:27Z</time>
      </trkpt>
      <trkpt lat="44.77308" lon="0.7876">
        <ele>138</ele>
        <time>2008-12-03T11:52:31Z</time>
      </trkpt>
      <trkpt lat="44.77315" lon="0.78735">
        <ele>140</ele>
        <time>2008-12-03T11:52:35Z</time>
      </trkpt>
      <trkpt lat="44.77323" lon="0.7871">
        <ele>142</ele>
        <time>2008-12-03T11:52:39Z</time>
      </trkpt>
      <trkpt lat="44.7733" lon="0.78685">
        <ele>143</ele>
        <time>2008-12-03T11:52:46Z</time>
      </trkpt>
      <trkpt lat="44.77337" lon="0.78668">
        <ele>142</ele>
        <time>2008-12-03T11:52:52Z</time>
      </trkpt>
    </trkseg>
  </trk>
  <trk>
    <name><![CDATA[BBmt36]]></name>
    <trkseg>
      <trkpt lat="44.77045" lon="0.8264">
        <ele>126</ele>
        <time>2009-01-13T14:42:13Z</time>
      </trkpt>
      <trkpt lat="44.7706" lon="0.82655">
        <ele>113</ele>
        <time>2009-01-13T14:42:43Z</time>
      </trkpt>
      <trkpt lat="44.77073" lon="0.82678">
        <ele>114</ele>
        <time>2009-01-13T14:42:51Z</time>
      </trkpt>
      <trkpt lat="44.77085" lon="0.827">
        <ele>111</ele>
        <time>2009-01-13T14:42:58Z</time>
      </trkpt>
      <trkpt lat="44.77095" lon="0.82725">
        <ele>114</ele>
        <time>2009-01-13T14:43:04Z</time>
      </trkpt>
      <trkpt lat="44.77108" lon="0.82745">
        <ele>118</ele>
        <time>2009-01-13T14:43:09Z</time>
      </trkpt>
      <trkpt lat="44.7712" lon="0.82765">
        <ele>116</ele>
        <time>2009-01-13T14:43:18Z</time>
      </trkpt>
      <trkpt lat="44.7713" lon="0.82788">
        <ele>112</ele>
        <time>2009-01-13T14:43:25Z</time>
      </trkpt>
      <trkpt lat="44.77143" lon="0.82808">
        <ele>117</ele>
        <time>2009-01-13T14:43:31Z</time>
      </trkpt>
      <trkpt lat="44.77155" lon="0.82828">
        <ele>119</ele>
        <time>2009-01-13T14:43:36Z</time>
      </trkpt>
      <trkpt lat="44.77173" lon="0.82843">
        <ele>113</ele>
        <time>2009-01-13T14:43:41Z</time>
      </trkpt>
      <trkpt lat="44.7719" lon="0.82855">
        <ele>109</ele>
        <time>2009-01-13T14:43:46Z</time>
      </trkpt>
      <trkpt lat="44.77208" lon="0.82868">
        <ele>108</ele>
        <time>2009-01-13T14:43:51Z</time>
      </trkpt>
      <trkpt lat="44.77225" lon="0.82875">
        <ele>109</ele>
        <time>2009-01-13T14:43:57Z</time>
      </trkpt>
      <trkpt lat="44.7724" lon="0.82895">
        <ele>109</ele>
        <time>2009-01-13T14:44:19Z</time>
      </trkpt>
      <trkpt lat="44.77248" lon="0.8292">
        <ele>108</ele>
        <time>2009-01-13T14:44:24Z</time>
      </trkpt>
      <trkpt lat="44.77258" lon="0.82945">
        <ele>109</ele>
        <time>2009-01-13T14:44:29Z</time>
      </trkpt>
      <trkpt lat="44.77273" lon="0.82965">
        <ele>108</ele>
        <time>2009-01-13T14:44:34Z</time>
      </trkpt>
      <trkpt lat="44.77288" lon="0.82983">
        <ele>108</ele>
        <time>2009-01-13T14:44:39Z</time>
      </trkpt>
      <trkpt lat="44.77303" lon="0.82998">
        <ele>107</ele>
        <time>2009-01-13T14:44:43Z</time>
      </trkpt>
      <trkpt lat="44.77318" lon="0.83013">
        <ele>110</ele>
        <time>2009-01-13T14:44:47Z</time>
      </trkpt>
      <trkpt lat="44.77338" lon="0.83023">
        <ele>110</ele>
        <time>2009-01-13T14:44:52Z</time>
      </trkpt>
      <trkpt lat="44.77358" lon="0.83033">
        <ele>110</ele>
        <time>2009-01-13T14:44:56Z</time>
      </trkpt>
      <trkpt lat="44.77375" lon="0.8304">
        <ele>109</ele>
        <time>2009-01-13T14:45:06Z</time>
      </trkpt>
      <trkpt lat="44.7739" lon="0.83055">
        <ele>111</ele>
        <time>2009-01-13T14:45:10Z</time>
      </trkpt>
      <trkpt lat="44.774" lon="0.83078">
        <ele>110</ele>
        <time>2009-01-13T14:45:26Z</time>
      </trkpt>
      <trkpt lat="44.77405" lon="0.83108">
        <ele>111</ele>
        <time>2009-01-13T14:45:30Z</time>
      </trkpt>
      <trkpt lat="44.77408" lon="0.8314">
        <ele>109</ele>
        <time>2009-01-13T14:45:34Z</time>
      </trkpt>
      <trkpt lat="44.77413" lon="0.83168">
        <ele>107</ele>
        <time>2009-01-13T14:45:39Z</time>
      </trkpt>
      <trkpt lat="44.77428" lon="0.8319">
        <ele>108</ele>
        <time>2009-01-13T14:45:56Z</time>
      </trkpt>
      <trkpt lat="44.7744" lon="0.8321">
        <ele>109</ele>
        <time>2009-01-13T14:46:04Z</time>
      </trkpt>
      <trkpt lat="44.77455" lon="0.83225">
        <ele>118</ele>
        <time>2009-01-13T14:46:52Z</time>
      </trkpt>
      <trkpt lat="44.77468" lon="0.83245">
        <ele>112</ele>
        <time>2009-01-13T14:47:16Z</time>
      </trkpt>
      <trkpt lat="44.77478" lon="0.83268">
        <ele>109</ele>
        <time>2009-01-13T14:47:41Z</time>
      </trkpt>
      <trkpt lat="44.77485" lon="0.83293">
        <ele>112</ele>
        <time>2009-01-13T14:48:00Z</time>
      </trkpt>
      <trkpt lat="44.77715" lon="0.83908">
        <ele>148</ele>
        <time>2009-01-13T14:59:01Z</time>
      </trkpt>
      <trkpt lat="44.77738" lon="0.8391">
        <ele>139</ele>
        <time>2009-01-13T14:59:43Z</time>
      </trkpt>
      <trkpt lat="44.77758" lon="0.83915">
        <ele>140</ele>
        <time>2009-01-13T14:59:50Z</time>
      </trkpt>
      <trkpt lat="44.77775" lon="0.83923">
        <ele>142</ele>
        <time>2009-01-13T14:59:57Z</time>
      </trkpt>
      <trkpt lat="44.77793" lon="0.8393">
        <ele>143</ele>
        <time>2009-01-13T15:00:05Z</time>
      </trkpt>
      <trkpt lat="44.77788" lon="0.83905">
        <ele>145</ele>
        <time>2009-01-13T15:00:25Z</time>
      </trkpt>
      <trkpt lat="44.77778" lon="0.83883">
        <ele>144</ele>
        <time>2009-01-13T15:00:29Z</time>
      </trkpt>
      <trkpt lat="44.77765" lon="0.83863">
        <ele>142</ele>
        <time>2009-01-13T15:00:33Z</time>
      </trkpt>
      <trkpt lat="44.7775" lon="0.83843">
        <ele>136</ele>
        <time>2009-01-13T15:00:38Z</time>
      </trkpt>
      <trkpt lat="44.77738" lon="0.83823">
        <ele>138</ele>
        <time>2009-01-13T15:00:46Z</time>
      </trkpt>
      <trkpt lat="44.77758" lon="0.83818">
        <ele>130</ele>
        <time>2009-01-13T15:00:59Z</time>
      </trkpt>
      <trkpt lat="44.77778" lon="0.83818">
        <ele>131</ele>
        <time>2009-01-13T15:01:06Z</time>
      </trkpt>
      <trkpt lat="44.77798" lon="0.83818">
        <ele>129</ele>
        <time>2009-01-13T15:01:11Z</time>
      </trkpt>
      <trkpt lat="44.77818" lon="0.83818">
        <ele>124</ele>
        <time>2009-01-13T15:01:16Z</time>
      </trkpt>
      <trkpt lat="44.77838" lon="0.83813">
        <ele>121</ele>
        <time>2009-01-13T15:01:23Z</time>
      </trkpt>
      <trkpt lat="44.77845" lon="0.83788">
        <ele>117</ele>
        <time>2009-01-13T15:01:28Z</time>
      </trkpt>
      <trkpt lat="44.77858" lon="0.83763">
        <ele>115</ele>
        <time>2009-01-13T15:01:33Z</time>
      </trkpt>
      <trkpt lat="44.77878" lon="0.83763">
        <ele>125</ele>
        <time>2009-01-13T15:01:44Z</time>
      </trkpt>
      <trkpt lat="44.77898" lon="0.8377">
        <ele>124</ele>
        <time>2009-01-13T15:01:48Z</time>
      </trkpt>
      <trkpt lat="44.7792" lon="0.83785">
        <ele>125</ele>
        <time>2009-01-13T15:01:52Z</time>
      </trkpt>
      <trkpt lat="44.7794" lon="0.83803">
        <ele>125</ele>
        <time>2009-01-13T15:01:56Z</time>
      </trkpt>
      <trkpt lat="44.77955" lon="0.83818">
        <ele>124</ele>
        <time>2009-01-13T15:01:59Z</time>
      </trkpt>
      <trkpt lat="44.77968" lon="0.83838">
        <ele>122</ele>
        <time>2009-01-13T15:02:02Z</time>
      </trkpt>
      <trkpt lat="44.77985" lon="0.8386">
        <ele>119</ele>
        <time>2009-01-13T15:02:05Z</time>
      </trkpt>
      <trkpt lat="44.77998" lon="0.83885">
        <ele>120</ele>
        <time>2009-01-13T15:02:08Z</time>
      </trkpt>
      <trkpt lat="44.7801" lon="0.83915">
        <ele>120</ele>
        <time>2009-01-13T15:02:12Z</time>
      </trkpt>
      <trkpt lat="44.78023" lon="0.8394">
        <ele>120</ele>
        <time>2009-01-13T15:02:15Z</time>
      </trkpt>
      <trkpt lat="44.7804" lon="0.83965">
        <ele>120</ele>
        <time>2009-01-13T15:02:18Z</time>
      </trkpt>
      <trkpt lat="44.7805" lon="0.8399">
        <ele>123</ele>
        <time>2009-01-13T15:02:21Z</time>
      </trkpt>
      <trkpt lat="44.78063" lon="0.84018">
        <ele>124</ele>
        <time>2009-01-13T15:02:24Z</time>
      </trkpt>
      <trkpt lat="44.78075" lon="0.84053">
        <ele>126</ele>
        <time>2009-01-13T15:02:27Z</time>
      </trkpt>
      <trkpt lat="44.78085" lon="0.84083">
        <ele>128</ele>
        <time>2009-01-13T15:02:30Z</time>
      </trkpt>
      <trkpt lat="44.78095" lon="0.84113">
        <ele>127</ele>
        <time>2009-01-13T15:02:33Z</time>
      </trkpt>
      <trkpt lat="44.78105" lon="0.84143">
        <ele>128</ele>
        <time>2009-01-13T15:02:36Z</time>
      </trkpt>
      <trkpt lat="44.78115" lon="0.8417">
        <ele>130</ele>
        <time>2009-01-13T15:02:39Z</time>
      </trkpt>
      <trkpt lat="44.7813" lon="0.84198">
        <ele>133</ele>
        <time>2009-01-13T15:02:42Z</time>
      </trkpt>
      <trkpt lat="44.78145" lon="0.84215">
        <ele>135</ele>
        <time>2009-01-13T15:02:45Z</time>
      </trkpt>
      <trkpt lat="44.78163" lon="0.8423">
        <ele>136</ele>
        <time>2009-01-13T15:02:48Z</time>
      </trkpt>
      <trkpt lat="44.78178" lon="0.84245">
        <ele>137</ele>
        <time>2009-01-13T15:02:51Z</time>
      </trkpt>
      <trkpt lat="44.7819" lon="0.8427">
        <ele>135</ele>
        <time>2009-01-13T15:02:55Z</time>
      </trkpt>
      <trkpt lat="44.78198" lon="0.84295">
        <ele>133</ele>
        <time>2009-01-13T15:03:10Z</time>
      </trkpt>
      <trkpt lat="44.78205" lon="0.8432">
        <ele>130</ele>
        <time>2009-01-13T15:03:17Z</time>
      </trkpt>
      <trkpt lat="44.78223" lon="0.84308">
        <ele>131</ele>
        <time>2009-01-13T15:03:24Z</time>
      </trkpt>
      <trkpt lat="44.7824" lon="0.84293">
        <ele>132</ele>
        <time>2009-01-13T15:03:29Z</time>
      </trkpt>
      <trkpt lat="44.78255" lon="0.84275">
        <ele>133</ele>
        <time>2009-01-13T15:03:33Z</time>
      </trkpt>
      <trkpt lat="44.78273" lon="0.84253">
        <ele>134</ele>
        <time>2009-01-13T15:03:37Z</time>
      </trkpt>
      <trkpt lat="44.7829" lon="0.84235">
        <ele>136</ele>
        <time>2009-01-13T15:03:40Z</time>
      </trkpt>
      <trkpt lat="44.78308" lon="0.84215">
        <ele>137</ele>
        <time>2009-01-13T15:03:43Z</time>
      </trkpt>
      <trkpt lat="44.78325" lon="0.84195">
        <ele>138</ele>
        <time>2009-01-13T15:03:46Z</time>
      </trkpt>
      <trkpt lat="44.78343" lon="0.84173">
        <ele>141</ele>
        <time>2009-01-13T15:03:49Z</time>
      </trkpt>
      <trkpt lat="44.78363" lon="0.84158">
        <ele>144</ele>
        <time>2009-01-13T15:03:52Z</time>
      </trkpt>
      <trkpt lat="44.78385" lon="0.8415">
        <ele>147</ele>
        <time>2009-01-13T15:03:55Z</time>
      </trkpt>
      <trkpt lat="44.78408" lon="0.84148">
        <ele>148</ele>
        <time>2009-01-13T15:03:58Z</time>
      </trkpt>
      <trkpt lat="44.78435" lon="0.84153">
        <ele>149</ele>
        <time>2009-01-13T15:04:01Z</time>
      </trkpt>
      <trkpt lat="44.78455" lon="0.84158">
        <ele>150</ele>
        <time>2009-01-13T15:04:03Z</time>
      </trkpt>
      <trkpt lat="44.78483" lon="0.84165">
        <ele>154</ele>
        <time>2009-01-13T15:04:06Z</time>
      </trkpt>
      <trkpt lat="44.7851" lon="0.84175">
        <ele>155</ele>
        <time>2009-01-13T15:04:09Z</time>
      </trkpt>
      <trkpt lat="44.78538" lon="0.8418">
        <ele>158</ele>
        <time>2009-01-13T15:04:12Z</time>
      </trkpt>
      <trkpt lat="44.78558" lon="0.84185">
        <ele>160</ele>
        <time>2009-01-13T15:04:15Z</time>
      </trkpt>
      <trkpt lat="44.78575" lon="0.84175">
        <ele>164</ele>
        <time>2009-01-13T15:04:25Z</time>
      </trkpt>
      <trkpt lat="44.78595" lon="0.84168">
        <ele>168</ele>
        <time>2009-01-13T15:04:29Z</time>
      </trkpt>
      <trkpt lat="44.78615" lon="0.8416">
        <ele>177</ele>
        <time>2009-01-13T15:04:32Z</time>
      </trkpt>
      <trkpt lat="44.78635" lon="0.84153">
        <ele>190</ele>
        <time>2009-01-13T15:04:36Z</time>
      </trkpt>
      <trkpt lat="44.78658" lon="0.8415">
        <ele>194</ele>
        <time>2009-01-13T15:04:39Z</time>
      </trkpt>
      <trkpt lat="44.78675" lon="0.84158">
        <ele>201</ele>
        <time>2009-01-13T15:04:41Z</time>
      </trkpt>
      <trkpt lat="44.787" lon="0.84165">
        <ele>205</ele>
        <time>2009-01-13T15:04:44Z</time>
      </trkpt>
      <trkpt lat="44.78723" lon="0.84175">
        <ele>211</ele>
        <time>2009-01-13T15:04:47Z</time>
      </trkpt>
      <trkpt lat="44.78748" lon="0.84183">
        <ele>215</ele>
        <time>2009-01-13T15:04:50Z</time>
      </trkpt>
      <trkpt lat="44.78765" lon="0.8419">
        <ele>213</ele>
        <time>2009-01-13T15:04:52Z</time>
      </trkpt>
      <trkpt lat="44.78788" lon="0.84203">
        <ele>212</ele>
        <time>2009-01-13T15:04:55Z</time>
      </trkpt>
      <trkpt lat="44.78805" lon="0.84213">
        <ele>195</ele>
        <time>2009-01-13T15:05:05Z</time>
      </trkpt>
      <trkpt lat="44.788" lon="0.84243">
        <ele>189</ele>
        <time>2009-01-13T15:05:10Z</time>
      </trkpt>
      <trkpt lat="44.7879" lon="0.84268">
        <ele>187</ele>
        <time>2009-01-13T15:05:13Z</time>
      </trkpt>
      <trkpt lat="44.7878" lon="0.8429">
        <ele>187</ele>
        <time>2009-01-13T15:05:16Z</time>
      </trkpt>
      <trkpt lat="44.7877" lon="0.84313">
        <ele>186</ele>
        <time>2009-01-13T15:05:19Z</time>
      </trkpt>
      <trkpt lat="44.78758" lon="0.84338">
        <ele>183</ele>
        <time>2009-01-13T15:05:22Z</time>
      </trkpt>
      <trkpt lat="44.78755" lon="0.8437">
        <ele>179</ele>
        <time>2009-01-13T15:05:25Z</time>
      </trkpt>
      <trkpt lat="44.78755" lon="0.844">
        <ele>178</ele>
        <time>2009-01-13T15:05:28Z</time>
      </trkpt>
      <trkpt lat="44.78758" lon="0.8443">
        <ele>179</ele>
        <time>2009-01-13T15:05:31Z</time>
      </trkpt>
      <trkpt lat="44.7876" lon="0.84458">
        <ele>181</ele>
        <time>2009-01-13T15:05:35Z</time>
      </trkpt>
      <trkpt lat="44.78763" lon="0.84488">
        <ele>176</ele>
        <time>2009-01-13T15:05:45Z</time>
      </trkpt>
      <trkpt lat="44.78765" lon="0.84518">
        <ele>180</ele>
        <time>2009-01-13T15:05:48Z</time>
      </trkpt>
      <trkpt lat="44.78768" lon="0.8455">
        <ele>182</ele>
        <time>2009-01-13T15:05:51Z</time>
      </trkpt>
      <trkpt lat="44.78773" lon="0.8458">
        <ele>181</ele>
        <time>2009-01-13T15:05:54Z</time>
      </trkpt>
      <trkpt lat="44.78778" lon="0.8461">
        <ele>183</ele>
        <time>2009-01-13T15:05:57Z</time>
      </trkpt>
      <trkpt lat="44.7878" lon="0.84638">
        <ele>184</ele>
        <time>2009-01-13T15:06:00Z</time>
      </trkpt>
      <trkpt lat="44.78785" lon="0.84665">
        <ele>186</ele>
        <time>2009-01-13T15:06:04Z</time>
      </trkpt>
      <trkpt lat="44.78795" lon="0.8469">
        <ele>188</ele>
        <time>2009-01-13T15:06:11Z</time>
      </trkpt>
      <trkpt lat="44.78805" lon="0.84715">
        <ele>188</ele>
        <time>2009-01-13T15:06:14Z</time>
      </trkpt>
      <trkpt lat="44.7882" lon="0.84753">
        <ele>190</ele>
        <time>2009-01-13T15:06:17Z</time>
      </trkpt>
      <trkpt lat="44.7883" lon="0.8478">
        <ele>188</ele>
        <time>2009-01-13T15:06:19Z</time>
      </trkpt>
      <trkpt lat="44.7884" lon="0.84818">
        <ele>188</ele>
        <time>2009-01-13T15:06:22Z</time>
      </trkpt>
      <trkpt lat="44.78848" lon="0.84843">
        <ele>187</ele>
        <time>2009-01-13T15:06:24Z</time>
      </trkpt>
      <trkpt lat="44.78858" lon="0.84878">
        <ele>187</ele>
        <time>2009-01-13T15:06:27Z</time>
      </trkpt>
      <trkpt lat="44.78868" lon="0.84913">
        <ele>187</ele>
        <time>2009-01-13T15:06:30Z</time>
      </trkpt>
      <trkpt lat="44.78878" lon="0.84948">
        <ele>187</ele>
        <time>2009-01-13T15:06:33Z</time>
      </trkpt>
      <trkpt lat="44.78885" lon="0.84973">
        <ele>187</ele>
        <time>2009-01-13T15:06:35Z</time>
      </trkpt>
      <trkpt lat="44.78893" lon="0.85">
        <ele>187</ele>
        <time>2009-01-13T15:06:37Z</time>
      </trkpt>
      <trkpt lat="44.78905" lon="0.8504">
        <ele>187</ele>
        <time>2009-01-13T15:06:40Z</time>
      </trkpt>
      <trkpt lat="44.78913" lon="0.85068">
        <ele>188</ele>
        <time>2009-01-13T15:06:42Z</time>
      </trkpt>
      <trkpt lat="44.78923" lon="0.85098">
        <ele>188</ele>
        <time>2009-01-13T15:06:45Z</time>
      </trkpt>
      <trkpt lat="44.78925" lon="0.85125">
        <ele>186</ele>
        <time>2009-01-13T15:06:58Z</time>
      </trkpt>
      <trkpt lat="44.78933" lon="0.85155">
        <ele>186</ele>
        <time>2009-01-13T15:07:02Z</time>
      </trkpt>
      <trkpt lat="44.78943" lon="0.85185">
        <ele>186</ele>
        <time>2009-01-13T15:07:06Z</time>
      </trkpt>
      <trkpt lat="44.78953" lon="0.85213">
        <ele>186</ele>
        <time>2009-01-13T15:07:09Z</time>
      </trkpt>
      <trkpt lat="44.7896" lon="0.85238">
        <ele>186</ele>
        <time>2009-01-13T15:07:12Z</time>
      </trkpt>
      <trkpt lat="44.7897" lon="0.85263">
        <ele>186</ele>
        <time>2009-01-13T15:07:15Z</time>
      </trkpt>
      <trkpt lat="44.7898" lon="0.85285">
        <ele>186</ele>
        <time>2009-01-13T15:07:18Z</time>
      </trkpt>
      <trkpt lat="44.78983" lon="0.85315">
        <ele>185</ele>
        <time>2009-01-13T15:07:23Z</time>
      </trkpt>
      <trkpt lat="44.78993" lon="0.8534">
        <ele>187</ele>
        <time>2009-01-13T15:07:31Z</time>
      </trkpt>
      <trkpt lat="44.79008" lon="0.85363">
        <ele>191</ele>
        <time>2009-01-13T15:07:35Z</time>
      </trkpt>
      <trkpt lat="44.79025" lon="0.8538">
        <ele>192</ele>
        <time>2009-01-13T15:07:39Z</time>
      </trkpt>
      <trkpt lat="44.79043" lon="0.85395">
        <ele>189</ele>
        <time>2009-01-13T15:07:51Z</time>
      </trkpt>
      <trkpt lat="44.79058" lon="0.85415">
        <ele>192</ele>
        <time>2009-01-13T15:07:55Z</time>
      </trkpt>
      <trkpt lat="44.7907" lon="0.85438">
        <ele>194</ele>
        <time>2009-01-13T15:07:58Z</time>
      </trkpt>
      <trkpt lat="44.79083" lon="0.8546">
        <ele>197</ele>
        <time>2009-01-13T15:08:03Z</time>
      </trkpt>
      <trkpt lat="44.79093" lon="0.85483">
        <ele>197</ele>
        <time>2009-01-13T15:08:11Z</time>
      </trkpt>
      <trkpt lat="44.79105" lon="0.85503">
        <ele>197</ele>
        <time>2009-01-13T15:08:14Z</time>
      </trkpt>
      <trkpt lat="44.79115" lon="0.85525">
        <ele>195</ele>
        <time>2009-01-13T15:08:17Z</time>
      </trkpt>
      <trkpt lat="44.79123" lon="0.85553">
        <ele>194</ele>
        <time>2009-01-13T15:08:21Z</time>
      </trkpt>
      <trkpt lat="44.79128" lon="0.85578">
        <ele>193</ele>
        <time>2009-01-13T15:08:25Z</time>
      </trkpt>
      <trkpt lat="44.7913" lon="0.8561">
        <ele>192</ele>
        <time>2009-01-13T15:08:37Z</time>
      </trkpt>
      <trkpt lat="44.79135" lon="0.8564">
        <ele>191</ele>
        <time>2009-01-13T15:08:41Z</time>
      </trkpt>
      <trkpt lat="44.7914" lon="0.85668">
        <ele>191</ele>
        <time>2009-01-13T15:08:45Z</time>
      </trkpt>
      <trkpt lat="44.7914" lon="0.85695">
        <ele>186</ele>
        <time>2009-01-13T15:08:49Z</time>
      </trkpt>
      <trkpt lat="44.79138" lon="0.8573">
        <ele>184</ele>
        <time>2009-01-13T15:08:54Z</time>
      </trkpt>
      <trkpt lat="44.79138" lon="0.8576">
        <ele>180</ele>
        <time>2009-01-13T15:08:58Z</time>
      </trkpt>
      <trkpt lat="44.79135" lon="0.85788">
        <ele>178</ele>
        <time>2009-01-13T15:09:02Z</time>
      </trkpt>
      <trkpt lat="44.79135" lon="0.85815">
        <ele>176</ele>
        <time>2009-01-13T15:09:06Z</time>
      </trkpt>
      <trkpt lat="44.79135" lon="0.85848">
        <ele>173</ele>
        <time>2009-01-13T15:09:11Z</time>
      </trkpt>
      <trkpt lat="44.79138" lon="0.85875">
        <ele>172</ele>
        <time>2009-01-13T15:09:16Z</time>
      </trkpt>
      <trkpt lat="44.79138" lon="0.85903">
        <ele>172</ele>
        <time>2009-01-13T15:09:21Z</time>
      </trkpt>
      <trkpt lat="44.79135" lon="0.85933">
        <ele>174</ele>
        <time>2009-01-13T15:09:28Z</time>
      </trkpt>
      <trkpt lat="44.79138" lon="0.8596">
        <ele>177</ele>
        <time>2009-01-13T15:09:32Z</time>
      </trkpt>
      <trkpt lat="44.79145" lon="0.85988">
        <ele>180</ele>
        <time>2009-01-13T15:09:36Z</time>
      </trkpt>
      <trkpt lat="44.79153" lon="0.86013">
        <ele>184</ele>
        <time>2009-01-13T15:09:41Z</time>
      </trkpt>
      <trkpt lat="44.79155" lon="0.8604">
        <ele>182</ele>
        <time>2009-01-13T15:09:53Z</time>
      </trkpt>
      <trkpt lat="44.79173" lon="0.86048">
        <ele>186</ele>
        <time>2009-01-13T15:09:58Z</time>
      </trkpt>
      <trkpt lat="44.79195" lon="0.86058">
        <ele>186</ele>
        <time>2009-01-13T15:10:01Z</time>
      </trkpt>
      <trkpt lat="44.79218" lon="0.86065">
        <ele>186</ele>
        <time>2009-01-13T15:10:04Z</time>
      </trkpt>
      <trkpt lat="44.79238" lon="0.86073">
        <ele>186</ele>
        <time>2009-01-13T15:10:07Z</time>
      </trkpt>
      <trkpt lat="44.79263" lon="0.8608">
        <ele>188</ele>
        <time>2009-01-13T15:10:10Z</time>
      </trkpt>
      <trkpt lat="44.79288" lon="0.8608">
        <ele>188</ele>
        <time>2009-01-13T15:10:13Z</time>
      </trkpt>
      <trkpt lat="44.7931" lon="0.8607">
        <ele>189</ele>
        <time>2009-01-13T15:10:16Z</time>
      </trkpt>
      <trkpt lat="44.79333" lon="0.86063">
        <ele>187</ele>
        <time>2009-01-13T15:10:19Z</time>
      </trkpt>
      <trkpt lat="44.79353" lon="0.86068">
        <ele>189</ele>
        <time>2009-01-13T15:10:22Z</time>
      </trkpt>
      <trkpt lat="44.79373" lon="0.8608">
        <ele>192</ele>
        <time>2009-01-13T15:10:25Z</time>
      </trkpt>
      <trkpt lat="44.79395" lon="0.86085">
        <ele>195</ele>
        <time>2009-01-13T15:10:28Z</time>
      </trkpt>
      <trkpt lat="44.79415" lon="0.86083">
        <ele>196</ele>
        <time>2009-01-13T15:10:30Z</time>
      </trkpt>
      <trkpt lat="44.7944" lon="0.8608">
        <ele>197</ele>
        <time>2009-01-13T15:10:33Z</time>
      </trkpt>
      <trkpt lat="44.79465" lon="0.8608">
        <ele>198</ele>
        <time>2009-01-13T15:10:36Z</time>
      </trkpt>
      <trkpt lat="44.79488" lon="0.8608">
        <ele>201</ele>
        <time>2009-01-13T15:10:40Z</time>
      </trkpt>
      <trkpt lat="44.79505" lon="0.8609">
        <ele>202</ele>
        <time>2009-01-13T15:10:46Z</time>
      </trkpt>
    </trkseg>
  </trk>
  <trk>
    <name><![CDATA[BBmt37]]></name>
    <trkseg>
      <trkpt lat="44.77365" lon="0.81745">
        <ele>147</ele>
        <time>2009-01-13T14:21:58Z</time>
      </trkpt>
      <trkpt lat="44.77345" lon="0.8175">
        <ele>143</ele>
        <time>2009-01-13T14:22:10Z</time>
      </trkpt>
      <trkpt lat="44.77325" lon="0.8174">
        <ele>142</ele>
        <time>2009-01-13T14:22:15Z</time>
      </trkpt>
      <trkpt lat="44.77305" lon="0.8175">
        <ele>142</ele>
        <time>2009-01-13T14:22:23Z</time>
      </trkpt>
      <trkpt lat="44.773" lon="0.81778">
        <ele>139</ele>
        <time>2009-01-13T14:22:29Z</time>
      </trkpt>
      <trkpt lat="44.773" lon="0.8181">
        <ele>144</ele>
        <time>2009-01-13T14:22:44Z</time>
      </trkpt>
      <trkpt lat="44.773" lon="0.8184">
        <ele>148</ele>
        <time>2009-01-13T14:22:49Z</time>
      </trkpt>
      <trkpt lat="44.77303" lon="0.8187">
        <ele>151</ele>
        <time>2009-01-13T14:22:54Z</time>
      </trkpt>
      <trkpt lat="44.77305" lon="0.819">
        <ele>155</ele>
        <time>2009-01-13T14:22:59Z</time>
      </trkpt>
      <trkpt lat="44.773" lon="0.81928">
        <ele>160</ele>
        <time>2009-01-13T14:23:03Z</time>
      </trkpt>
      <trkpt lat="44.77298" lon="0.81958">
        <ele>164</ele>
        <time>2009-01-13T14:23:07Z</time>
      </trkpt>
      <trkpt lat="44.77278" lon="0.81973">
        <ele>167</ele>
        <time>2009-01-13T14:23:11Z</time>
      </trkpt>
      <trkpt lat="44.77258" lon="0.8198">
        <ele>167</ele>
        <time>2009-01-13T14:23:14Z</time>
      </trkpt>
      <trkpt lat="44.7724" lon="0.82">
        <ele>167</ele>
        <time>2009-01-13T14:23:17Z</time>
      </trkpt>
      <trkpt lat="44.77228" lon="0.8202">
        <ele>166</ele>
        <time>2009-01-13T14:23:20Z</time>
      </trkpt>
      <trkpt lat="44.77225" lon="0.82048">
        <ele>163</ele>
        <time>2009-01-13T14:23:27Z</time>
      </trkpt>
      <trkpt lat="44.77223" lon="0.82078">
        <ele>162</ele>
        <time>2009-01-13T14:23:33Z</time>
      </trkpt>
      <trkpt lat="44.7722" lon="0.82108">
        <ele>160</ele>
        <time>2009-01-13T14:23:38Z</time>
      </trkpt>
      <trkpt lat="44.77218" lon="0.82138">
        <ele>160</ele>
        <time>2009-01-13T14:23:43Z</time>
      </trkpt>
      <trkpt lat="44.77213" lon="0.8217">
        <ele>158</ele>
        <time>2009-01-13T14:23:48Z</time>
      </trkpt>
      <trkpt lat="44.7721" lon="0.822">
        <ele>159</ele>
        <time>2009-01-13T14:23:52Z</time>
      </trkpt>
      <trkpt lat="44.77205" lon="0.82225">
        <ele>159</ele>
        <time>2009-01-13T14:23:55Z</time>
      </trkpt>
      <trkpt lat="44.77198" lon="0.82253">
        <ele>162</ele>
        <time>2009-01-13T14:23:59Z</time>
      </trkpt>
      <trkpt lat="44.77193" lon="0.8228">
        <ele>165</ele>
        <time>2009-01-13T14:24:04Z</time>
      </trkpt>
      <trkpt lat="44.7719" lon="0.82308">
        <ele>165</ele>
        <time>2009-01-13T14:24:09Z</time>
      </trkpt>
      <trkpt lat="44.77175" lon="0.82325">
        <ele>165</ele>
        <time>2009-01-13T14:24:14Z</time>
      </trkpt>
      <trkpt lat="44.7716" lon="0.8234">
        <ele>166</ele>
        <time>2009-01-13T14:24:19Z</time>
      </trkpt>
      <trkpt lat="44.77148" lon="0.82363">
        <ele>165</ele>
        <time>2009-01-13T14:24:25Z</time>
      </trkpt>
      <trkpt lat="44.7714" lon="0.82388">
        <ele>162</ele>
        <time>2009-01-13T14:24:42Z</time>
      </trkpt>
      <trkpt lat="44.77145" lon="0.82413">
        <ele>159</ele>
        <time>2009-01-13T14:24:47Z</time>
      </trkpt>
      <trkpt lat="44.77148" lon="0.8244">
        <ele>157</ele>
        <time>2009-01-13T14:24:54Z</time>
      </trkpt>
      <trkpt lat="44.77138" lon="0.82468">
        <ele>151</ele>
        <time>2009-01-13T14:25:03Z</time>
      </trkpt>
      <trkpt lat="44.77128" lon="0.8249">
        <ele>147</ele>
        <time>2009-01-13T14:25:11Z</time>
      </trkpt>
      <trkpt lat="44.77118" lon="0.82507">
        <ele>145</ele>
        <time>2009-06-18T16:43:36Z</time>
      </trkpt>
      <trkpt lat="44.7705" lon="0.8262">
        <ele>106</ele>
        <time>2009-01-13T14:25:48Z</time>
      </trkpt>
    </trkseg>
  </trk>
  <trk>
    <name><![CDATA[BBmt38]]></name>
    <trkseg>
      <trkpt lat="44.79505" lon="0.86098">
        <ele>195</ele>
        <time>2009-01-15T09:52:15Z</time>
      </trkpt>
      <trkpt lat="44.79525" lon="0.861">
        <ele>194</ele>
        <time>2009-01-15T09:52:44Z</time>
      </trkpt>
      <trkpt lat="44.7954" lon="0.86083">
        <ele>194</ele>
        <time>2009-01-15T09:53:09Z</time>
      </trkpt>
      <trkpt lat="44.79555" lon="0.8606">
        <ele>197</ele>
        <time>2009-01-15T09:53:14Z</time>
      </trkpt>
      <trkpt lat="44.79568" lon="0.86038">
        <ele>200</ele>
        <time>2009-01-15T09:53:18Z</time>
      </trkpt>
      <trkpt lat="44.79583" lon="0.86018">
        <ele>202</ele>
        <time>2009-01-15T09:53:22Z</time>
      </trkpt>
      <trkpt lat="44.79598" lon="0.85993">
        <ele>203</ele>
        <time>2009-01-15T09:53:26Z</time>
      </trkpt>
      <trkpt lat="44.79613" lon="0.85968">
        <ele>203</ele>
        <time>2009-01-15T09:53:30Z</time>
      </trkpt>
      <trkpt lat="44.79628" lon="0.85948">
        <ele>200</ele>
        <time>2009-01-15T09:53:32Z</time>
      </trkpt>
      <trkpt lat="44.7964" lon="0.85928">
        <ele>198</ele>
        <time>2009-01-15T09:53:36Z</time>
      </trkpt>
      <trkpt lat="44.79655" lon="0.8591">
        <ele>198</ele>
        <time>2009-01-15T09:53:39Z</time>
      </trkpt>
      <trkpt lat="44.79673" lon="0.8589">
        <ele>196</ele>
        <time>2009-01-15T09:53:44Z</time>
      </trkpt>
      <trkpt lat="44.79688" lon="0.85875">
        <ele>196</ele>
        <time>2009-01-15T09:53:48Z</time>
      </trkpt>
      <trkpt lat="44.79708" lon="0.85863">
        <ele>197</ele>
        <time>2009-01-15T09:53:52Z</time>
      </trkpt>
      <trkpt lat="44.79728" lon="0.8585">
        <ele>196</ele>
        <time>2009-01-15T09:53:56Z</time>
      </trkpt>
      <trkpt lat="44.7974" lon="0.85825">
        <ele>195</ele>
        <time>2009-01-15T09:54:00Z</time>
      </trkpt>
      <trkpt lat="44.79755" lon="0.85808">
        <ele>195</ele>
        <time>2009-01-15T09:54:03Z</time>
      </trkpt>
      <trkpt lat="44.7977" lon="0.85788">
        <ele>196</ele>
        <time>2009-01-15T09:54:06Z</time>
      </trkpt>
      <trkpt lat="44.79785" lon="0.8577">
        <ele>197</ele>
        <time>2009-01-15T09:54:09Z</time>
      </trkpt>
      <trkpt lat="44.798" lon="0.85755">
        <ele>197</ele>
        <time>2009-01-15T09:54:12Z</time>
      </trkpt>
      <trkpt lat="44.79815" lon="0.85738">
        <ele>198</ele>
        <time>2009-01-15T09:54:15Z</time>
      </trkpt>
      <trkpt lat="44.79833" lon="0.85723">
        <ele>198</ele>
        <time>2009-01-15T09:54:18Z</time>
      </trkpt>
      <trkpt lat="44.7985" lon="0.85708">
        <ele>200</ele>
        <time>2009-01-15T09:54:21Z</time>
      </trkpt>
      <trkpt lat="44.7987" lon="0.85693">
        <ele>202</ele>
        <time>2009-01-15T09:54:25Z</time>
      </trkpt>
      <trkpt lat="44.79888" lon="0.8568">
        <ele>204</ele>
        <time>2009-01-15T09:54:38Z</time>
      </trkpt>
      <trkpt lat="44.79908" lon="0.85668">
        <ele>204</ele>
        <time>2009-01-15T09:54:42Z</time>
      </trkpt>
      <trkpt lat="44.79928" lon="0.8565">
        <ele>203</ele>
        <time>2009-01-15T09:54:46Z</time>
      </trkpt>
      <trkpt lat="44.79948" lon="0.85638">
        <ele>201</ele>
        <time>2009-01-15T09:54:50Z</time>
      </trkpt>
      <trkpt lat="44.79965" lon="0.85625">
        <ele>202</ele>
        <time>2009-01-15T09:54:54Z</time>
      </trkpt>
      <trkpt lat="44.79983" lon="0.8561">
        <ele>200</ele>
        <time>2009-01-15T09:54:58Z</time>
      </trkpt>
      <trkpt lat="44.8" lon="0.85598">
        <ele>200</ele>
        <time>2009-01-15T09:55:02Z</time>
      </trkpt>
      <trkpt lat="44.8002" lon="0.85588">
        <ele>200</ele>
        <time>2009-01-15T09:55:05Z</time>
      </trkpt>
      <trkpt lat="44.80043" lon="0.85583">
        <ele>198</ele>
        <time>2009-01-15T09:55:09Z</time>
      </trkpt>
      <trkpt lat="44.80063" lon="0.85573">
        <ele>197</ele>
        <time>2009-01-15T09:55:13Z</time>
      </trkpt>
      <trkpt lat="44.8008" lon="0.85565">
        <ele>196</ele>
        <time>2009-01-15T09:55:27Z</time>
      </trkpt>
      <trkpt lat="44.80103" lon="0.85573">
        <ele>197</ele>
        <time>2009-01-15T09:55:32Z</time>
      </trkpt>
      <trkpt lat="44.8012" lon="0.85583">
        <ele>198</ele>
        <time>2009-01-15T09:55:36Z</time>
      </trkpt>
      <trkpt lat="44.8014" lon="0.85595">
        <ele>200</ele>
        <time>2009-01-15T09:55:47Z</time>
      </trkpt>
      <trkpt lat="44.80158" lon="0.85608">
        <ele>205</ele>
        <time>2009-01-15T09:55:51Z</time>
      </trkpt>
      <trkpt lat="44.80178" lon="0.8562">
        <ele>208</ele>
        <time>2009-01-15T09:55:53Z</time>
      </trkpt>
      <trkpt lat="44.80195" lon="0.85633">
        <ele>211</ele>
        <time>2009-01-15T09:55:56Z</time>
      </trkpt>
      <trkpt lat="44.80215" lon="0.85643">
        <ele>213</ele>
        <time>2009-01-15T09:55:59Z</time>
      </trkpt>
      <trkpt lat="44.80233" lon="0.85655">
        <ele>216</ele>
        <time>2009-01-15T09:56:02Z</time>
      </trkpt>
      <trkpt lat="44.80255" lon="0.8567">
        <ele>215</ele>
        <time>2009-01-15T09:56:05Z</time>
      </trkpt>
      <trkpt lat="44.80275" lon="0.85683">
        <ele>216</ele>
        <time>2009-01-15T09:56:08Z</time>
      </trkpt>
      <trkpt lat="44.80295" lon="0.85695">
        <ele>217</ele>
        <time>2009-01-15T09:56:11Z</time>
      </trkpt>
      <trkpt lat="44.80318" lon="0.8571">
        <ele>216</ele>
        <time>2009-01-15T09:56:14Z</time>
      </trkpt>
      <trkpt lat="44.80338" lon="0.85723">
        <ele>216</ele>
        <time>2009-01-15T09:56:17Z</time>
      </trkpt>
      <trkpt lat="44.80355" lon="0.8573">
        <ele>212</ele>
        <time>2009-01-15T09:56:32Z</time>
      </trkpt>
      <trkpt lat="44.80373" lon="0.8574">
        <ele>210</ele>
        <time>2009-01-15T09:56:35Z</time>
      </trkpt>
      <trkpt lat="44.80393" lon="0.85755">
        <ele>208</ele>
        <time>2009-01-15T09:56:38Z</time>
      </trkpt>
      <trkpt lat="44.80418" lon="0.8577">
        <ele>205</ele>
        <time>2009-01-15T09:56:41Z</time>
      </trkpt>
      <trkpt lat="44.80438" lon="0.85783">
        <ele>204</ele>
        <time>2009-01-15T09:56:44Z</time>
      </trkpt>
      <trkpt lat="44.8046" lon="0.8579">
        <ele>202</ele>
        <time>2009-01-15T09:56:47Z</time>
      </trkpt>
      <trkpt lat="44.80483" lon="0.85798">
        <ele>200</ele>
        <time>2009-01-15T09:56:50Z</time>
      </trkpt>
      <trkpt lat="44.80505" lon="0.85805">
        <ele>198</ele>
        <time>2009-01-15T09:56:54Z</time>
      </trkpt>
      <trkpt lat="44.80525" lon="0.85815">
        <ele>197</ele>
        <time>2009-01-15T09:57:11Z</time>
      </trkpt>
      <trkpt lat="44.80548" lon="0.85823">
        <ele>194</ele>
        <time>2009-01-15T09:57:16Z</time>
      </trkpt>
      <trkpt lat="44.80565" lon="0.8583">
        <ele>193</ele>
        <time>2009-01-15T09:57:20Z</time>
      </trkpt>
      <trkpt lat="44.80583" lon="0.85838">
        <ele>192</ele>
        <time>2009-01-15T09:57:24Z</time>
      </trkpt>
      <trkpt lat="44.80605" lon="0.85843">
        <ele>190</ele>
        <time>2009-01-15T09:57:29Z</time>
      </trkpt>
      <trkpt lat="44.80628" lon="0.85845">
        <ele>189</ele>
        <time>2009-01-15T09:57:34Z</time>
      </trkpt>
      <trkpt lat="44.80648" lon="0.85848">
        <ele>188</ele>
        <time>2009-01-15T09:57:38Z</time>
      </trkpt>
      <trkpt lat="44.80668" lon="0.8585">
        <ele>186</ele>
        <time>2009-01-15T09:57:42Z</time>
      </trkpt>
    </trkseg>
  </trk>
  <trk>
    <name><![CDATA[BBmt39]]></name>
    <trkseg>
      <trkpt lat="44.77293" lon="0.81408">
        <ele>119</ele>
        <time>2009-01-15T11:06:29Z</time>
      </trkpt>
      <trkpt lat="44.77313" lon="0.81403">
        <ele>121</ele>
        <time>2009-01-15T11:06:40Z</time>
      </trkpt>
      <trkpt lat="44.77333" lon="0.81398">
        <ele>122</ele>
        <time>2009-01-15T11:06:46Z</time>
      </trkpt>
      <trkpt lat="44.77353" lon="0.81393">
        <ele>123</ele>
        <time>2009-01-15T11:06:50Z</time>
      </trkpt>
      <trkpt lat="44.77375" lon="0.81393">
        <ele>125</ele>
        <time>2009-01-15T11:06:54Z</time>
      </trkpt>
      <trkpt lat="44.77395" lon="0.81395">
        <ele>124</ele>
        <time>2009-01-15T11:06:59Z</time>
      </trkpt>
      <trkpt lat="44.77415" lon="0.81403">
        <ele>127</ele>
        <time>2009-01-15T11:07:13Z</time>
      </trkpt>
      <trkpt lat="44.77435" lon="0.81408">
        <ele>132</ele>
        <time>2009-01-15T11:07:20Z</time>
      </trkpt>
      <trkpt lat="44.77458" lon="0.8141">
        <ele>135</ele>
        <time>2009-01-15T11:07:26Z</time>
      </trkpt>
      <trkpt lat="44.77478" lon="0.81415">
        <ele>135</ele>
        <time>2009-01-15T11:07:31Z</time>
      </trkpt>
      <trkpt lat="44.77495" lon="0.81428">
        <ele>140</ele>
        <time>2009-01-15T11:07:38Z</time>
      </trkpt>
      <trkpt lat="44.77515" lon="0.8144">
        <ele>141</ele>
        <time>2009-01-15T11:07:51Z</time>
      </trkpt>
      <trkpt lat="44.77535" lon="0.81453">
        <ele>142</ele>
        <time>2009-01-15T11:07:55Z</time>
      </trkpt>
      <trkpt lat="44.77555" lon="0.81468">
        <ele>142</ele>
        <time>2009-01-15T11:08:00Z</time>
      </trkpt>
      <trkpt lat="44.77573" lon="0.81483">
        <ele>143</ele>
        <time>2009-01-15T11:08:04Z</time>
      </trkpt>
      <trkpt lat="44.7759" lon="0.815">
        <ele>143</ele>
        <time>2009-01-15T11:08:08Z</time>
      </trkpt>
      <trkpt lat="44.77605" lon="0.81518">
        <ele>145</ele>
        <time>2009-01-15T11:08:12Z</time>
      </trkpt>
      <trkpt lat="44.77625" lon="0.81533">
        <ele>146</ele>
        <time>2009-01-15T11:08:26Z</time>
      </trkpt>
      <trkpt lat="44.77643" lon="0.81543">
        <ele>151</ele>
        <time>2009-01-15T11:08:36Z</time>
      </trkpt>
      <trkpt lat="44.7766" lon="0.81535">
        <ele>154</ele>
        <time>2009-01-15T11:08:44Z</time>
      </trkpt>
      <trkpt lat="44.77675" lon="0.81513">
        <ele>154</ele>
        <time>2009-01-15T11:08:49Z</time>
      </trkpt>
      <trkpt lat="44.77695" lon="0.81508">
        <ele>153</ele>
        <time>2009-01-15T11:09:03Z</time>
      </trkpt>
      <trkpt lat="44.77713" lon="0.81528">
        <ele>153</ele>
        <time>2009-01-15T11:09:15Z</time>
      </trkpt>
      <trkpt lat="44.77733" lon="0.8154">
        <ele>154</ele>
        <time>2009-01-15T11:09:21Z</time>
      </trkpt>
      <trkpt lat="44.7775" lon="0.81553">
        <ele>157</ele>
        <time>2009-01-15T11:09:27Z</time>
      </trkpt>
      <trkpt lat="44.77768" lon="0.81565">
        <ele>157</ele>
        <time>2009-01-15T11:09:31Z</time>
      </trkpt>
      <trkpt lat="44.77783" lon="0.8158">
        <ele>156</ele>
        <time>2009-01-15T11:09:35Z</time>
      </trkpt>
    </trkseg>
  </trk>
  <trk>
    <name><![CDATA[BBmt40]]></name>
    <trkseg>
      <trkpt lat="44.76918" lon="0.7687">
        <ele>144</ele>
        <time>2009-01-15T11:27:25Z</time>
      </trkpt>
      <trkpt lat="44.76913" lon="0.76898">
        <ele>135</ele>
        <time>2009-01-15T11:27:35Z</time>
      </trkpt>
      <trkpt lat="44.76908" lon="0.76923">
        <ele>126</ele>
        <time>2009-01-15T11:27:44Z</time>
      </trkpt>
      <trkpt lat="44.76908" lon="0.7695">
        <ele>121</ele>
        <time>2009-01-15T11:27:55Z</time>
      </trkpt>
      <trkpt lat="44.76905" lon="0.76983">
        <ele>120</ele>
        <time>2009-01-15T11:28:01Z</time>
      </trkpt>
      <trkpt lat="44.76903" lon="0.77013">
        <ele>120</ele>
        <time>2009-01-15T11:28:06Z</time>
      </trkpt>
      <trkpt lat="44.769" lon="0.7704">
        <ele>121</ele>
        <time>2009-01-15T11:28:11Z</time>
      </trkpt>
      <trkpt lat="44.7689" lon="0.77063">
        <ele>121</ele>
        <time>2009-01-15T11:28:16Z</time>
      </trkpt>
      <trkpt lat="44.76878" lon="0.77083">
        <ele>117</ele>
        <time>2009-01-15T11:28:31Z</time>
      </trkpt>
      <trkpt lat="44.76865" lon="0.7711">
        <ele>116</ele>
        <time>2009-01-15T11:28:35Z</time>
      </trkpt>
      <trkpt lat="44.76855" lon="0.77138">
        <ele>117</ele>
        <time>2009-01-15T11:28:38Z</time>
      </trkpt>
      <trkpt lat="44.76845" lon="0.77165">
        <ele>119</ele>
        <time>2009-01-15T11:28:41Z</time>
      </trkpt>
      <trkpt lat="44.76838" lon="0.77193">
        <ele>121</ele>
        <time>2009-01-15T11:28:46Z</time>
      </trkpt>
    </trkseg>
  </trk>
  <trk>
    <name><![CDATA[BBmt41]]></name>
    <trkseg>
      <trkpt lat="44.76835" lon="0.77193">
        <ele>126</ele>
        <time>2009-01-15T11:38:57Z</time>
      </trkpt>
      <trkpt lat="44.76818" lon="0.7718">
        <ele>125</ele>
        <time>2009-01-15T11:39:13Z</time>
      </trkpt>
      <trkpt lat="44.76798" lon="0.77168">
        <ele>126</ele>
        <time>2009-01-15T11:39:18Z</time>
      </trkpt>
      <trkpt lat="44.7678" lon="0.77158">
        <ele>127</ele>
        <time>2009-01-15T11:39:22Z</time>
      </trkpt>
      <trkpt lat="44.76763" lon="0.7715">
        <ele>127</ele>
        <time>2009-01-15T11:39:27Z</time>
      </trkpt>
      <trkpt lat="44.76743" lon="0.77138">
        <ele>127</ele>
        <time>2009-01-15T11:39:32Z</time>
      </trkpt>
      <trkpt lat="44.76728" lon="0.77123">
        <ele>127</ele>
        <time>2009-01-15T11:39:36Z</time>
      </trkpt>
      <trkpt lat="44.76713" lon="0.77105">
        <ele>127</ele>
        <time>2009-01-15T11:39:39Z</time>
      </trkpt>
      <trkpt lat="44.76698" lon="0.7708">
        <ele>127</ele>
        <time>2009-01-15T11:39:43Z</time>
      </trkpt>
      <trkpt lat="44.76688" lon="0.7705">
        <ele>129</ele>
        <time>2009-01-15T11:39:47Z</time>
      </trkpt>
      <trkpt lat="44.76678" lon="0.77023">
        <ele>130</ele>
        <time>2009-01-15T11:39:51Z</time>
      </trkpt>
      <trkpt lat="44.7667" lon="0.76998">
        <ele>132</ele>
        <time>2009-01-15T11:39:55Z</time>
      </trkpt>
      <trkpt lat="44.7665" lon="0.77005">
        <ele>132</ele>
        <time>2009-01-15T11:40:06Z</time>
      </trkpt>
      <trkpt lat="44.76633" lon="0.77023">
        <ele>131</ele>
        <time>2009-01-15T11:40:09Z</time>
      </trkpt>
      <trkpt lat="44.76613" lon="0.77043">
        <ele>132</ele>
        <time>2009-01-15T11:40:12Z</time>
      </trkpt>
      <trkpt lat="44.76598" lon="0.7706">
        <ele>131</ele>
        <time>2009-01-15T11:40:14Z</time>
      </trkpt>
      <trkpt lat="44.76575" lon="0.77065">
        <ele>131</ele>
        <time>2009-01-15T11:40:20Z</time>
      </trkpt>
      <trkpt lat="44.7655" lon="0.77068">
        <ele>130</ele>
        <time>2009-01-15T11:40:24Z</time>
      </trkpt>
      <trkpt lat="44.7653" lon="0.77068">
        <ele>130</ele>
        <time>2009-01-15T11:40:32Z</time>
      </trkpt>
      <trkpt lat="44.7651" lon="0.7707">
        <ele>129</ele>
        <time>2009-01-15T11:40:39Z</time>
      </trkpt>
      <trkpt lat="44.76488" lon="0.77075">
        <ele>128</ele>
        <time>2009-01-15T11:40:45Z</time>
      </trkpt>
      <trkpt lat="44.7647" lon="0.77093">
        <ele>129</ele>
        <time>2009-01-15T11:40:49Z</time>
      </trkpt>
      <trkpt lat="44.76453" lon="0.77115">
        <ele>129</ele>
        <time>2009-01-15T11:40:53Z</time>
      </trkpt>
      <trkpt lat="44.76435" lon="0.7713">
        <ele>132</ele>
        <time>2009-01-15T11:40:57Z</time>
      </trkpt>
      <trkpt lat="44.76413" lon="0.77138">
        <ele>134</ele>
        <time>2009-01-15T11:41:02Z</time>
      </trkpt>
      <trkpt lat="44.76405" lon="0.77165">
        <ele>135</ele>
        <time>2009-01-15T11:41:07Z</time>
      </trkpt>
      <trkpt lat="44.76408" lon="0.77193">
        <ele>137</ele>
        <time>2009-01-15T11:41:12Z</time>
      </trkpt>
      <trkpt lat="44.7639" lon="0.77205">
        <ele>133</ele>
        <time>2009-01-15T11:41:27Z</time>
      </trkpt>
      <trkpt lat="44.76373" lon="0.77213">
        <ele>127</ele>
        <time>2009-01-15T11:41:34Z</time>
      </trkpt>
      <trkpt lat="44.76353" lon="0.77215">
        <ele>125</ele>
        <time>2009-01-15T11:41:41Z</time>
      </trkpt>
      <trkpt lat="44.76333" lon="0.77218">
        <ele>125</ele>
        <time>2009-01-15T11:41:48Z</time>
      </trkpt>
      <trkpt lat="44.76313" lon="0.7722">
        <ele>123</ele>
        <time>2009-01-15T11:41:53Z</time>
      </trkpt>
      <trkpt lat="44.7629" lon="0.77223">
        <ele>124</ele>
        <time>2009-01-15T11:42:00Z</time>
      </trkpt>
      <trkpt lat="44.7627" lon="0.77225">
        <ele>125</ele>
        <time>2009-01-15T11:42:05Z</time>
      </trkpt>
      <trkpt lat="44.76273" lon="0.77255">
        <ele>129</ele>
        <time>2009-01-15T11:42:18Z</time>
      </trkpt>
      <trkpt lat="44.76278" lon="0.7728">
        <ele>128</ele>
        <time>2009-01-15T11:42:22Z</time>
      </trkpt>
      <trkpt lat="44.76283" lon="0.77305">
        <ele>127</ele>
        <time>2009-01-15T11:42:26Z</time>
      </trkpt>
      <trkpt lat="44.76288" lon="0.7733">
        <ele>126</ele>
        <time>2009-01-15T11:42:30Z</time>
      </trkpt>
      <trkpt lat="44.76293" lon="0.77358">
        <ele>124</ele>
        <time>2009-01-15T11:42:35Z</time>
      </trkpt>
      <trkpt lat="44.76298" lon="0.77383">
        <ele>122</ele>
        <time>2009-01-15T11:42:41Z</time>
      </trkpt>
      <trkpt lat="44.76303" lon="0.77408">
        <ele>119</ele>
        <time>2009-01-15T11:42:48Z</time>
      </trkpt>
      <trkpt lat="44.76305" lon="0.77435">
        <ele>117</ele>
        <time>2009-01-15T11:42:57Z</time>
      </trkpt>
      <trkpt lat="44.76303" lon="0.77463">
        <ele>111</ele>
        <time>2009-01-15T11:43:07Z</time>
      </trkpt>
      <trkpt lat="44.76285" lon="0.77485">
        <ele>113</ele>
        <time>2009-01-15T11:43:13Z</time>
      </trkpt>
      <trkpt lat="44.7627" lon="0.77505">
        <ele>115</ele>
        <time>2009-01-15T11:43:18Z</time>
      </trkpt>
      <trkpt lat="44.76255" lon="0.77523">
        <ele>116</ele>
        <time>2009-01-15T11:43:22Z</time>
      </trkpt>
      <trkpt lat="44.7624" lon="0.7754">
        <ele>118</ele>
        <time>2009-01-15T11:43:26Z</time>
      </trkpt>
      <trkpt lat="44.76225" lon="0.77555">
        <ele>120</ele>
        <time>2009-01-15T11:43:30Z</time>
      </trkpt>
      <trkpt lat="44.7621" lon="0.77575">
        <ele>122</ele>
        <time>2009-01-15T11:43:34Z</time>
      </trkpt>
      <trkpt lat="44.76195" lon="0.77595">
        <ele>123</ele>
        <time>2009-01-15T11:43:38Z</time>
      </trkpt>
      <trkpt lat="44.7618" lon="0.7761">
        <ele>123</ele>
        <time>2009-01-15T11:43:41Z</time>
      </trkpt>
      <trkpt lat="44.76163" lon="0.77625">
        <ele>125</ele>
        <time>2009-01-15T11:43:45Z</time>
      </trkpt>
      <trkpt lat="44.76145" lon="0.77638">
        <ele>126</ele>
        <time>2009-01-15T11:43:49Z</time>
      </trkpt>
      <trkpt lat="44.76128" lon="0.77648">
        <ele>129</ele>
        <time>2009-01-15T11:43:54Z</time>
      </trkpt>
      <trkpt lat="44.7611" lon="0.77658">
        <ele>133</ele>
        <time>2009-01-15T11:44:00Z</time>
      </trkpt>
      <trkpt lat="44.76095" lon="0.77673">
        <ele>132</ele>
        <time>2009-01-15T11:44:09Z</time>
      </trkpt>
      <trkpt lat="44.76078" lon="0.77688">
        <ele>134</ele>
        <time>2009-01-15T11:44:15Z</time>
      </trkpt>
      <trkpt lat="44.7606" lon="0.77703">
        <ele>136</ele>
        <time>2009-01-15T11:44:21Z</time>
      </trkpt>
      <trkpt lat="44.76045" lon="0.77718">
        <ele>134</ele>
        <time>2009-01-15T11:44:29Z</time>
      </trkpt>
      <trkpt lat="44.7603" lon="0.77733">
        <ele>136</ele>
        <time>2009-01-15T11:44:33Z</time>
      </trkpt>
      <trkpt lat="44.7602" lon="0.77758">
        <ele>136</ele>
        <time>2009-01-15T11:44:41Z</time>
      </trkpt>
      <trkpt lat="44.76023" lon="0.77788">
        <ele>141</ele>
        <time>2009-01-15T11:44:47Z</time>
      </trkpt>
      <trkpt lat="44.7601" lon="0.77808">
        <ele>142</ele>
        <time>2009-01-15T11:44:51Z</time>
      </trkpt>
      <trkpt lat="44.75995" lon="0.77828">
        <ele>144</ele>
        <time>2009-01-15T11:44:55Z</time>
      </trkpt>
      <trkpt lat="44.75983" lon="0.77855">
        <ele>147</ele>
        <time>2009-01-15T11:45:00Z</time>
      </trkpt>
      <trkpt lat="44.7597" lon="0.77875">
        <ele>148</ele>
        <time>2009-01-15T11:45:04Z</time>
      </trkpt>
      <trkpt lat="44.75958" lon="0.77895">
        <ele>148</ele>
        <time>2009-01-15T11:45:08Z</time>
      </trkpt>
      <trkpt lat="44.75945" lon="0.77915">
        <ele>149</ele>
        <time>2009-01-15T11:45:12Z</time>
      </trkpt>
      <trkpt lat="44.75943" lon="0.77945">
        <ele>151</ele>
        <time>2009-01-15T11:45:17Z</time>
      </trkpt>
      <trkpt lat="44.75945" lon="0.77973">
        <ele>152</ele>
        <time>2009-01-15T11:45:21Z</time>
      </trkpt>
      <trkpt lat="44.75948" lon="0.78">
        <ele>152</ele>
        <time>2009-01-15T11:45:24Z</time>
      </trkpt>
      <trkpt lat="44.7595" lon="0.7803">
        <ele>150</ele>
        <time>2009-01-15T11:45:27Z</time>
      </trkpt>
      <trkpt lat="44.75955" lon="0.78058">
        <ele>150</ele>
        <time>2009-01-15T11:45:30Z</time>
      </trkpt>
      <trkpt lat="44.75955" lon="0.78085">
        <ele>152</ele>
        <time>2009-01-15T11:45:33Z</time>
      </trkpt>
      <trkpt lat="44.75955" lon="0.78118">
        <ele>153</ele>
        <time>2009-01-15T11:45:37Z</time>
      </trkpt>
      <trkpt lat="44.75953" lon="0.78148">
        <ele>157</ele>
        <time>2009-01-15T11:46:32Z</time>
      </trkpt>
      <trkpt lat="44.75948" lon="0.78161">
        <ele>154</ele>
        <time>2009-01-15T11:46:38Z</time>
      </trkpt>
    </trkseg>
  </trk>
  <trk>
    <name><![CDATA[BBmt42]]></name>
    <trkseg>
      <trkpt lat="44.7595" lon="0.78178">
        <ele>163</ele>
        <time>2009-01-15T12:46:59Z</time>
      </trkpt>
      <trkpt lat="44.75958" lon="0.78205">
        <ele>160</ele>
        <time>2009-01-15T12:47:07Z</time>
      </trkpt>
      <trkpt lat="44.75963" lon="0.7823">
        <ele>159</ele>
        <time>2009-01-15T12:47:10Z</time>
      </trkpt>
      <trkpt lat="44.75968" lon="0.78258">
        <ele>158</ele>
        <time>2009-01-15T12:47:13Z</time>
      </trkpt>
      <trkpt lat="44.75973" lon="0.78285">
        <ele>157</ele>
        <time>2009-01-15T12:47:16Z</time>
      </trkpt>
      <trkpt lat="44.75978" lon="0.7831">
        <ele>156</ele>
        <time>2009-01-15T12:47:19Z</time>
      </trkpt>
      <trkpt lat="44.75985" lon="0.78338">
        <ele>158</ele>
        <time>2009-01-15T12:47:23Z</time>
      </trkpt>
      <trkpt lat="44.75993" lon="0.78363">
        <ele>157</ele>
        <time>2009-01-15T12:47:34Z</time>
      </trkpt>
      <trkpt lat="44.76003" lon="0.78388">
        <ele>154</ele>
        <time>2009-01-15T12:47:37Z</time>
      </trkpt>
      <trkpt lat="44.76013" lon="0.78415">
        <ele>151</ele>
        <time>2009-01-15T12:47:40Z</time>
      </trkpt>
      <trkpt lat="44.7602" lon="0.78445">
        <ele>149</ele>
        <time>2009-01-15T12:47:43Z</time>
      </trkpt>
      <trkpt lat="44.76028" lon="0.78473">
        <ele>147</ele>
        <time>2009-01-15T12:47:46Z</time>
      </trkpt>
      <trkpt lat="44.7604" lon="0.78498">
        <ele>147</ele>
        <time>2009-01-15T12:47:49Z</time>
      </trkpt>
      <trkpt lat="44.7605" lon="0.78523">
        <ele>146</ele>
        <time>2009-01-15T12:47:52Z</time>
      </trkpt>
      <trkpt lat="44.76055" lon="0.78553">
        <ele>145</ele>
        <time>2009-01-15T12:47:55Z</time>
      </trkpt>
      <trkpt lat="44.76058" lon="0.78583">
        <ele>144</ele>
        <time>2009-01-15T12:47:58Z</time>
      </trkpt>
      <trkpt lat="44.76058" lon="0.7861">
        <ele>143</ele>
        <time>2009-01-15T12:48:01Z</time>
      </trkpt>
      <trkpt lat="44.76063" lon="0.78638">
        <ele>143</ele>
        <time>2009-01-15T12:48:04Z</time>
      </trkpt>
      <trkpt lat="44.76073" lon="0.78663">
        <ele>143</ele>
        <time>2009-01-15T12:48:07Z</time>
      </trkpt>
      <trkpt lat="44.76088" lon="0.7869">
        <ele>143</ele>
        <time>2009-01-15T12:48:10Z</time>
      </trkpt>
      <trkpt lat="44.76098" lon="0.78713">
        <ele>144</ele>
        <time>2009-01-15T12:48:13Z</time>
      </trkpt>
      <trkpt lat="44.76103" lon="0.78738">
        <ele>138</ele>
        <time>2009-01-15T12:49:04Z</time>
      </trkpt>
      <trkpt lat="44.76108" lon="0.78763">
        <ele>135</ele>
        <time>2009-01-15T12:49:09Z</time>
      </trkpt>
      <trkpt lat="44.76113" lon="0.78793">
        <ele>135</ele>
        <time>2009-01-15T12:49:14Z</time>
      </trkpt>
      <trkpt lat="44.76118" lon="0.78818">
        <ele>138</ele>
        <time>2009-01-15T12:49:29Z</time>
      </trkpt>
      <trkpt lat="44.76128" lon="0.78843">
        <ele>138</ele>
        <time>2009-01-15T12:49:36Z</time>
      </trkpt>
      <trkpt lat="44.7614" lon="0.78865">
        <ele>138</ele>
        <time>2009-01-15T12:49:42Z</time>
      </trkpt>
      <trkpt lat="44.76155" lon="0.78885">
        <ele>138</ele>
        <time>2009-01-15T12:49:47Z</time>
      </trkpt>
      <trkpt lat="44.7617" lon="0.78908">
        <ele>137</ele>
        <time>2009-01-15T12:49:53Z</time>
      </trkpt>
      <trkpt lat="44.76183" lon="0.7893">
        <ele>137</ele>
        <time>2009-01-15T12:50:01Z</time>
      </trkpt>
      <trkpt lat="44.76193" lon="0.78953">
        <ele>136</ele>
        <time>2009-01-15T12:50:07Z</time>
      </trkpt>
      <trkpt lat="44.76205" lon="0.78973">
        <ele>132</ele>
        <time>2009-01-15T12:50:12Z</time>
      </trkpt>
      <trkpt lat="44.7622" lon="0.7899">
        <ele>128</ele>
        <time>2009-01-15T12:50:18Z</time>
      </trkpt>
      <trkpt lat="44.76235" lon="0.7901">
        <ele>128</ele>
        <time>2009-01-15T12:50:25Z</time>
      </trkpt>
      <trkpt lat="44.7625" lon="0.79025">
        <ele>127</ele>
        <time>2009-01-15T12:50:30Z</time>
      </trkpt>
      <trkpt lat="44.76263" lon="0.79045">
        <ele>125</ele>
        <time>2009-01-15T12:50:35Z</time>
      </trkpt>
      <trkpt lat="44.76273" lon="0.79068">
        <ele>125</ele>
        <time>2009-01-15T12:50:41Z</time>
      </trkpt>
      <trkpt lat="44.7628" lon="0.79093">
        <ele>126</ele>
        <time>2009-01-15T12:50:49Z</time>
      </trkpt>
      <trkpt lat="44.76293" lon="0.79113">
        <ele>125</ele>
        <time>2009-01-15T12:51:05Z</time>
      </trkpt>
      <trkpt lat="44.76303" lon="0.79138">
        <ele>127</ele>
        <time>2009-01-15T12:51:15Z</time>
      </trkpt>
      <trkpt lat="44.76313" lon="0.79163">
        <ele>125</ele>
        <time>2009-01-15T12:51:23Z</time>
      </trkpt>
      <trkpt lat="44.76323" lon="0.79185">
        <ele>122</ele>
        <time>2009-01-15T12:51:30Z</time>
      </trkpt>
      <trkpt lat="44.7633" lon="0.7921">
        <ele>117</ele>
        <time>2009-01-15T12:51:37Z</time>
      </trkpt>
      <trkpt lat="44.76343" lon="0.79233">
        <ele>106</ele>
        <time>2009-01-15T12:51:42Z</time>
      </trkpt>
      <trkpt lat="44.76355" lon="0.79253">
        <ele>99</ele>
        <time>2009-01-15T12:51:50Z</time>
      </trkpt>
      <trkpt lat="44.7637" lon="0.79273">
        <ele>108</ele>
        <time>2009-01-15T12:51:59Z</time>
      </trkpt>
      <trkpt lat="44.76388" lon="0.7928">
        <ele>112</ele>
        <time>2009-01-15T12:52:04Z</time>
      </trkpt>
      <trkpt lat="44.76405" lon="0.79293">
        <ele>122</ele>
        <time>2009-01-15T12:52:11Z</time>
      </trkpt>
      <trkpt lat="44.76423" lon="0.793">
        <ele>124</ele>
        <time>2009-01-15T12:52:19Z</time>
      </trkpt>
      <trkpt lat="44.76443" lon="0.79308">
        <ele>119</ele>
        <time>2009-01-15T12:52:27Z</time>
      </trkpt>
      <trkpt lat="44.76463" lon="0.79313">
        <ele>121</ele>
        <time>2009-01-15T12:52:34Z</time>
      </trkpt>
      <trkpt lat="44.76483" lon="0.7931">
        <ele>129</ele>
        <time>2009-01-15T12:52:41Z</time>
      </trkpt>
      <trkpt lat="44.76503" lon="0.7931">
        <ele>129</ele>
        <time>2009-01-15T12:52:47Z</time>
      </trkpt>
      <trkpt lat="44.76523" lon="0.79305">
        <ele>125</ele>
        <time>2009-01-15T12:52:54Z</time>
      </trkpt>
      <trkpt lat="44.76543" lon="0.7931">
        <ele>122</ele>
        <time>2009-01-15T12:52:59Z</time>
      </trkpt>
      <trkpt lat="44.76563" lon="0.79308">
        <ele>122</ele>
        <time>2009-01-15T12:53:07Z</time>
      </trkpt>
      <trkpt lat="44.76585" lon="0.79308">
        <ele>116</ele>
        <time>2009-01-15T12:53:13Z</time>
      </trkpt>
      <trkpt lat="44.76605" lon="0.7931">
        <ele>111</ele>
        <time>2009-01-15T12:53:19Z</time>
      </trkpt>
      <trkpt lat="44.76623" lon="0.79318">
        <ele>101</ele>
        <time>2009-01-15T12:53:23Z</time>
      </trkpt>
      <trkpt lat="44.7664" lon="0.79325">
        <ele>100</ele>
        <time>2009-01-15T12:53:27Z</time>
      </trkpt>
      <trkpt lat="44.7666" lon="0.79335">
        <ele>98</ele>
        <time>2009-01-15T12:53:33Z</time>
      </trkpt>
      <trkpt lat="44.76678" lon="0.79348">
        <ele>91</ele>
        <time>2009-01-15T12:53:38Z</time>
      </trkpt>
      <trkpt lat="44.76695" lon="0.79355">
        <ele>82</ele>
        <time>2009-01-15T12:53:46Z</time>
      </trkpt>
    </trkseg>
  </trk>
  <trk>
    <name><![CDATA[BBmt43]]></name>
    <trkseg>
      <trkpt lat="44.76705" lon="0.79348">
        <ele>99</ele>
        <time>2009-01-15T12:56:10Z</time>
      </trkpt>
      <trkpt lat="44.76718" lon="0.79368">
        <ele>94</ele>
        <time>2009-01-15T12:56:26Z</time>
      </trkpt>
      <trkpt lat="44.76733" lon="0.79385">
        <ele>91</ele>
        <time>2009-01-15T12:56:45Z</time>
      </trkpt>
      <trkpt lat="44.76748" lon="0.79403">
        <ele>88</ele>
        <time>2009-01-15T12:57:02Z</time>
      </trkpt>
      <trkpt lat="44.76763" lon="0.79418">
        <ele>83</ele>
        <time>2009-01-15T12:57:17Z</time>
      </trkpt>
      <trkpt lat="44.76778" lon="0.79433">
        <ele>83</ele>
        <time>2009-01-15T12:57:32Z</time>
      </trkpt>
      <trkpt lat="44.76795" lon="0.79445">
        <ele>81</ele>
        <time>2009-01-15T12:57:47Z</time>
      </trkpt>
      <trkpt lat="44.7681" lon="0.7946">
        <ele>77</ele>
        <time>2009-01-15T12:58:03Z</time>
      </trkpt>
      <trkpt lat="44.76825" lon="0.79475">
        <ele>76</ele>
        <time>2009-01-15T12:58:19Z</time>
      </trkpt>
      <trkpt lat="44.7684" lon="0.7949">
        <ele>82</ele>
        <time>2009-01-15T12:58:43Z</time>
      </trkpt>
      <trkpt lat="44.76853" lon="0.7951">
        <ele>84</ele>
        <time>2009-01-15T12:58:58Z</time>
      </trkpt>
      <trkpt lat="44.76863" lon="0.79533">
        <ele>89</ele>
        <time>2009-01-15T12:59:10Z</time>
      </trkpt>
      <trkpt lat="44.76875" lon="0.79553">
        <ele>91</ele>
        <time>2009-01-15T12:59:23Z</time>
      </trkpt>
      <trkpt lat="44.76888" lon="0.79573">
        <ele>88</ele>
        <time>2009-01-15T12:59:38Z</time>
      </trkpt>
      <trkpt lat="44.769" lon="0.79593">
        <ele>87</ele>
        <time>2009-01-15T12:59:52Z</time>
      </trkpt>
      <trkpt lat="44.76913" lon="0.79615">
        <ele>85</ele>
        <time>2009-01-15T13:00:07Z</time>
      </trkpt>
      <trkpt lat="44.76925" lon="0.79635">
        <ele>81</ele>
        <time>2009-01-15T13:00:22Z</time>
      </trkpt>
      <trkpt lat="44.76935" lon="0.79658">
        <ele>84</ele>
        <time>2009-01-15T13:00:35Z</time>
      </trkpt>
      <trkpt lat="44.76945" lon="0.7968">
        <ele>79</ele>
        <time>2009-01-15T13:00:51Z</time>
      </trkpt>
    </trkseg>
  </trk>
  <trk>
    <name><![CDATA[BBmt44]]></name>
    <trkseg>
      <trkpt lat="44.76705" lon="0.79353">
        <ele>88</ele>
        <time>2009-01-15T13:10:15Z</time>
      </trkpt>
      <trkpt lat="44.76703" lon="0.79323">
        <ele>85</ele>
        <time>2009-01-15T13:10:36Z</time>
      </trkpt>
      <trkpt lat="44.76723" lon="0.7931">
        <ele>87</ele>
        <time>2009-01-15T13:10:44Z</time>
      </trkpt>
      <trkpt lat="44.76743" lon="0.79315">
        <ele>87</ele>
        <time>2009-01-15T13:10:49Z</time>
      </trkpt>
      <trkpt lat="44.76763" lon="0.79313">
        <ele>87</ele>
        <time>2009-01-15T13:10:58Z</time>
      </trkpt>
      <trkpt lat="44.7678" lon="0.79305">
        <ele>98</ele>
        <time>2009-01-15T13:11:20Z</time>
      </trkpt>
      <trkpt lat="44.76785" lon="0.7928">
        <ele>97</ele>
        <time>2009-01-15T13:11:25Z</time>
      </trkpt>
      <trkpt lat="44.76785" lon="0.79253">
        <ele>97</ele>
        <time>2009-01-15T13:11:30Z</time>
      </trkpt>
      <trkpt lat="44.76783" lon="0.7922">
        <ele>96</ele>
        <time>2009-01-15T13:11:35Z</time>
      </trkpt>
      <trkpt lat="44.76775" lon="0.7919">
        <ele>98</ele>
        <time>2009-01-15T13:11:40Z</time>
      </trkpt>
      <trkpt lat="44.76775" lon="0.7916">
        <ele>102</ele>
        <time>2009-01-15T13:11:45Z</time>
      </trkpt>
      <trkpt lat="44.76775" lon="0.7913">
        <ele>105</ele>
        <time>2009-01-15T13:11:50Z</time>
      </trkpt>
      <trkpt lat="44.7678" lon="0.79105">
        <ele>110</ele>
        <time>2009-01-15T13:11:56Z</time>
      </trkpt>
      <trkpt lat="44.7679" lon="0.7908">
        <ele>114</ele>
        <time>2009-01-15T13:12:01Z</time>
      </trkpt>
      <trkpt lat="44.76803" lon="0.7906">
        <ele>122</ele>
        <time>2009-01-15T13:12:06Z</time>
      </trkpt>
      <trkpt lat="44.76815" lon="0.79035">
        <ele>127</ele>
        <time>2009-01-15T13:12:11Z</time>
      </trkpt>
      <trkpt lat="44.76833" lon="0.7902">
        <ele>131</ele>
        <time>2009-01-15T13:12:25Z</time>
      </trkpt>
      <trkpt lat="44.76835" lon="0.78993">
        <ele>127</ele>
        <time>2009-01-15T13:12:39Z</time>
      </trkpt>
      <trkpt lat="44.76835" lon="0.78965">
        <ele>126</ele>
        <time>2009-01-15T13:12:43Z</time>
      </trkpt>
      <trkpt lat="44.76833" lon="0.78935">
        <ele>125</ele>
        <time>2009-01-15T13:12:47Z</time>
      </trkpt>
      <trkpt lat="44.7683" lon="0.78905">
        <ele>127</ele>
        <time>2009-01-15T13:12:52Z</time>
      </trkpt>
      <trkpt lat="44.7684" lon="0.7888">
        <ele>129</ele>
        <time>2009-01-15T13:12:57Z</time>
      </trkpt>
      <trkpt lat="44.76848" lon="0.78855">
        <ele>130</ele>
        <time>2009-01-15T13:13:01Z</time>
      </trkpt>
      <trkpt lat="44.76848" lon="0.78825">
        <ele>131</ele>
        <time>2009-01-15T13:13:05Z</time>
      </trkpt>
      <trkpt lat="44.7685" lon="0.78798">
        <ele>131</ele>
        <time>2009-01-15T13:13:09Z</time>
      </trkpt>
      <trkpt lat="44.76853" lon="0.78768">
        <ele>133</ele>
        <time>2009-01-15T13:13:13Z</time>
      </trkpt>
      <trkpt lat="44.76853" lon="0.7874">
        <ele>132</ele>
        <time>2009-01-15T13:13:19Z</time>
      </trkpt>
      <trkpt lat="44.76855" lon="0.78708">
        <ele>132</ele>
        <time>2009-01-15T13:13:25Z</time>
      </trkpt>
      <trkpt lat="44.76853" lon="0.78678">
        <ele>132</ele>
        <time>2009-01-15T13:13:30Z</time>
      </trkpt>
      <trkpt lat="44.76843" lon="0.78655">
        <ele>132</ele>
        <time>2009-01-15T13:13:35Z</time>
      </trkpt>
      <trkpt lat="44.76825" lon="0.78643">
        <ele>130</ele>
        <time>2009-01-15T13:13:39Z</time>
      </trkpt>
      <trkpt lat="44.76818" lon="0.78613">
        <ele>128</ele>
        <time>2009-01-15T13:13:45Z</time>
      </trkpt>
      <trkpt lat="44.7681" lon="0.78583">
        <ele>126</ele>
        <time>2009-01-15T13:13:49Z</time>
      </trkpt>
      <trkpt lat="44.76805" lon="0.7855">
        <ele>126</ele>
        <time>2009-01-15T13:13:53Z</time>
      </trkpt>
      <trkpt lat="44.76805" lon="0.78523">
        <ele>127</ele>
        <time>2009-01-15T13:13:57Z</time>
      </trkpt>
      <trkpt lat="44.76805" lon="0.7849">
        <ele>130</ele>
        <time>2009-01-15T13:14:13Z</time>
      </trkpt>
      <trkpt lat="44.76808" lon="0.78458">
        <ele>132</ele>
        <time>2009-01-15T13:14:18Z</time>
      </trkpt>
      <trkpt lat="44.76813" lon="0.7843">
        <ele>132</ele>
        <time>2009-01-15T13:14:21Z</time>
      </trkpt>
      <trkpt lat="44.76818" lon="0.78403">
        <ele>133</ele>
        <time>2009-01-15T13:14:24Z</time>
      </trkpt>
      <trkpt lat="44.76825" lon="0.78375">
        <ele>134</ele>
        <time>2009-01-15T13:14:27Z</time>
      </trkpt>
      <trkpt lat="44.76833" lon="0.78345">
        <ele>135</ele>
        <time>2009-01-15T13:14:30Z</time>
      </trkpt>
      <trkpt lat="44.7684" lon="0.78318">
        <ele>137</ele>
        <time>2009-01-15T13:14:33Z</time>
      </trkpt>
      <trkpt lat="44.76845" lon="0.78293">
        <ele>139</ele>
        <time>2009-01-15T13:14:36Z</time>
      </trkpt>
      <trkpt lat="44.76853" lon="0.78265">
        <ele>142</ele>
        <time>2009-01-15T13:14:40Z</time>
      </trkpt>
      <trkpt lat="44.7686" lon="0.7824">
        <ele>142</ele>
        <time>2009-01-15T13:14:52Z</time>
      </trkpt>
      <trkpt lat="44.76865" lon="0.7821">
        <ele>138</ele>
        <time>2009-01-15T13:14:58Z</time>
      </trkpt>
      <trkpt lat="44.7687" lon="0.78178">
        <ele>136</ele>
        <time>2009-01-15T13:15:01Z</time>
      </trkpt>
      <trkpt lat="44.7687" lon="0.7814">
        <ele>134</ele>
        <time>2009-01-15T13:15:04Z</time>
      </trkpt>
      <trkpt lat="44.76865" lon="0.78103">
        <ele>133</ele>
        <time>2009-01-15T13:15:07Z</time>
      </trkpt>
      <trkpt lat="44.76863" lon="0.78065">
        <ele>132</ele>
        <time>2009-01-15T13:15:10Z</time>
      </trkpt>
      <trkpt lat="44.7686" lon="0.7803">
        <ele>132</ele>
        <time>2009-01-15T13:15:13Z</time>
      </trkpt>
      <trkpt lat="44.7686" lon="0.77995">
        <ele>131</ele>
        <time>2009-01-15T13:15:16Z</time>
      </trkpt>
      <trkpt lat="44.76863" lon="0.77958">
        <ele>130</ele>
        <time>2009-01-15T13:15:19Z</time>
      </trkpt>
      <trkpt lat="44.76863" lon="0.77923">
        <ele>129</ele>
        <time>2009-01-15T13:15:22Z</time>
      </trkpt>
      <trkpt lat="44.76865" lon="0.7789">
        <ele>129</ele>
        <time>2009-01-15T13:15:25Z</time>
      </trkpt>
      <trkpt lat="44.7686" lon="0.77855">
        <ele>127</ele>
        <time>2009-01-15T13:15:28Z</time>
      </trkpt>
      <trkpt lat="44.76855" lon="0.77823">
        <ele>126</ele>
        <time>2009-01-15T13:15:31Z</time>
      </trkpt>
      <trkpt lat="44.76853" lon="0.77793">
        <ele>125</ele>
        <time>2009-01-15T13:15:34Z</time>
      </trkpt>
      <trkpt lat="44.76848" lon="0.77763">
        <ele>125</ele>
        <time>2009-01-15T13:15:37Z</time>
      </trkpt>
      <trkpt lat="44.76843" lon="0.77733">
        <ele>123</ele>
        <time>2009-01-15T13:15:40Z</time>
      </trkpt>
      <trkpt lat="44.7684" lon="0.77703">
        <ele>121</ele>
        <time>2009-01-15T13:15:43Z</time>
      </trkpt>
      <trkpt lat="44.7684" lon="0.77673">
        <ele>120</ele>
        <time>2009-01-15T13:15:46Z</time>
      </trkpt>
      <trkpt lat="44.7684" lon="0.7764">
        <ele>117</ele>
        <time>2009-01-15T13:15:49Z</time>
      </trkpt>
      <trkpt lat="44.76835" lon="0.7761">
        <ele>112</ele>
        <time>2009-01-15T13:15:52Z</time>
      </trkpt>
      <trkpt lat="44.7682" lon="0.77588">
        <ele>108</ele>
        <time>2009-01-15T13:15:56Z</time>
      </trkpt>
      <trkpt lat="44.7681" lon="0.77565">
        <ele>106</ele>
        <time>2009-01-15T13:15:59Z</time>
      </trkpt>
      <trkpt lat="44.76805" lon="0.77533">
        <ele>103</ele>
        <time>2009-01-15T13:16:02Z</time>
      </trkpt>
      <trkpt lat="44.76798" lon="0.775">
        <ele>101</ele>
        <time>2009-01-15T13:16:05Z</time>
      </trkpt>
      <trkpt lat="44.76793" lon="0.77468">
        <ele>102</ele>
        <time>2009-01-15T13:16:08Z</time>
      </trkpt>
      <trkpt lat="44.76788" lon="0.7743">
        <ele>105</ele>
        <time>2009-01-15T13:16:11Z</time>
      </trkpt>
      <trkpt lat="44.7679" lon="0.77398">
        <ele>108</ele>
        <time>2009-01-15T13:16:14Z</time>
      </trkpt>
      <trkpt lat="44.76798" lon="0.77368">
        <ele>111</ele>
        <time>2009-01-15T13:16:17Z</time>
      </trkpt>
      <trkpt lat="44.76805" lon="0.7734">
        <ele>115</ele>
        <time>2009-01-15T13:16:20Z</time>
      </trkpt>
      <trkpt lat="44.76808" lon="0.7731">
        <ele>118</ele>
        <time>2009-01-15T13:16:23Z</time>
      </trkpt>
      <trkpt lat="44.76813" lon="0.77285">
        <ele>123</ele>
        <time>2009-01-15T13:16:27Z</time>
      </trkpt>
      <trkpt lat="44.76821" lon="0.77258">
        <ele>130</ele>
        <time>2009-01-15T13:16:33Z</time>
      </trkpt>
      <trkpt lat="44.76835" lon="0.77211">
        <ele>131</ele>
        <time>2009-01-15T13:16:36Z</time>
      </trkpt>
    </trkseg>
  </trk>
  <trk>
    <name><![CDATA[BBmt45]]></name>
    <trkseg>
      <trkpt lat="44.771" lon="0.76878">
        <ele>123</ele>
        <time>2009-01-15T13:22:41Z</time>
      </trkpt>
      <trkpt lat="44.77115" lon="0.7686">
        <ele>121</ele>
        <time>2009-01-15T13:22:47Z</time>
      </trkpt>
      <trkpt lat="44.77133" lon="0.76843">
        <ele>123</ele>
        <time>2009-01-15T13:22:50Z</time>
      </trkpt>
      <trkpt lat="44.77148" lon="0.76828">
        <ele>126</ele>
        <time>2009-01-15T13:22:52Z</time>
      </trkpt>
      <trkpt lat="44.7717" lon="0.76813">
        <ele>126</ele>
        <time>2009-01-15T13:22:55Z</time>
      </trkpt>
      <trkpt lat="44.7719" lon="0.76795">
        <ele>127</ele>
        <time>2009-01-15T13:22:58Z</time>
      </trkpt>
      <trkpt lat="44.77208" lon="0.7678">
        <ele>127</ele>
        <time>2009-01-15T13:23:01Z</time>
      </trkpt>
      <trkpt lat="44.77225" lon="0.76765">
        <ele>128</ele>
        <time>2009-01-15T13:23:05Z</time>
      </trkpt>
      <trkpt lat="44.77243" lon="0.7675">
        <ele>129</ele>
        <time>2009-01-15T13:23:17Z</time>
      </trkpt>
      <trkpt lat="44.7726" lon="0.76735">
        <ele>129</ele>
        <time>2009-01-15T13:23:20Z</time>
      </trkpt>
      <trkpt lat="44.77283" lon="0.76718">
        <ele>129</ele>
        <time>2009-01-15T13:23:23Z</time>
      </trkpt>
      <trkpt lat="44.77303" lon="0.767">
        <ele>129</ele>
        <time>2009-01-15T13:23:26Z</time>
      </trkpt>
      <trkpt lat="44.7732" lon="0.76688">
        <ele>128</ele>
        <time>2009-01-15T13:23:33Z</time>
      </trkpt>
    </trkseg>
  </trk>
  <trk>
    <name><![CDATA[BBmt46]]></name>
    <trkseg>
      <trkpt lat="44.77323" lon="0.76685">
        <ele>126</ele>
        <time>2009-01-15T13:23:55Z</time>
      </trkpt>
      <trkpt lat="44.7734" lon="0.76673">
        <ele>118</ele>
        <time>2009-01-15T13:25:41Z</time>
      </trkpt>
      <trkpt lat="44.77358" lon="0.7666">
        <ele>118</ele>
        <time>2009-01-15T13:25:45Z</time>
      </trkpt>
      <trkpt lat="44.77375" lon="0.7665">
        <ele>118</ele>
        <time>2009-01-15T13:25:48Z</time>
      </trkpt>
      <trkpt lat="44.77393" lon="0.76635">
        <ele>118</ele>
        <time>2009-01-15T13:25:52Z</time>
      </trkpt>
      <trkpt lat="44.7741" lon="0.76625">
        <ele>117</ele>
        <time>2009-01-15T13:25:55Z</time>
      </trkpt>
      <trkpt lat="44.7743" lon="0.76613">
        <ele>116</ele>
        <time>2009-01-15T13:25:58Z</time>
      </trkpt>
      <trkpt lat="44.77453" lon="0.76605">
        <ele>115</ele>
        <time>2009-01-15T13:26:02Z</time>
      </trkpt>
      <trkpt lat="44.77473" lon="0.7659">
        <ele>115</ele>
        <time>2009-01-15T13:26:06Z</time>
      </trkpt>
      <trkpt lat="44.77488" lon="0.76573">
        <ele>116</ele>
        <time>2009-01-15T13:26:10Z</time>
      </trkpt>
      <trkpt lat="44.77498" lon="0.76545">
        <ele>117</ele>
        <time>2009-01-15T13:26:20Z</time>
      </trkpt>
      <trkpt lat="44.77493" lon="0.76515">
        <ele>118</ele>
        <time>2009-01-15T13:26:24Z</time>
      </trkpt>
      <trkpt lat="44.7749" lon="0.76488">
        <ele>121</ele>
        <time>2009-01-15T13:26:27Z</time>
      </trkpt>
      <trkpt lat="44.7751" lon="0.76468">
        <ele>121</ele>
        <time>2009-01-15T13:26:41Z</time>
      </trkpt>
      <trkpt lat="44.7753" lon="0.7646">
        <ele>120</ele>
        <time>2009-01-15T13:26:44Z</time>
      </trkpt>
      <trkpt lat="44.77545" lon="0.76445">
        <ele>121</ele>
        <time>2009-01-15T13:26:49Z</time>
      </trkpt>
      <trkpt lat="44.77545" lon="0.76418">
        <ele>124</ele>
        <time>2009-01-15T13:27:03Z</time>
      </trkpt>
      <trkpt lat="44.77545" lon="0.76385">
        <ele>126</ele>
        <time>2009-01-15T13:27:07Z</time>
      </trkpt>
      <trkpt lat="44.7755" lon="0.7636">
        <ele>126</ele>
        <time>2009-01-15T13:27:19Z</time>
      </trkpt>
      <trkpt lat="44.7757" lon="0.76343">
        <ele>128</ele>
        <time>2009-01-15T13:27:23Z</time>
      </trkpt>
      <trkpt lat="44.7759" lon="0.76328">
        <ele>129</ele>
        <time>2009-01-15T13:27:26Z</time>
      </trkpt>
      <trkpt lat="44.7761" lon="0.76313">
        <ele>130</ele>
        <time>2009-01-15T13:27:29Z</time>
      </trkpt>
      <trkpt lat="44.77628" lon="0.763">
        <ele>131</ele>
        <time>2009-01-15T13:27:32Z</time>
      </trkpt>
      <trkpt lat="44.77648" lon="0.7629">
        <ele>132</ele>
        <time>2009-01-15T13:27:35Z</time>
      </trkpt>
      <trkpt lat="44.77668" lon="0.76283">
        <ele>131</ele>
        <time>2009-01-15T13:27:38Z</time>
      </trkpt>
      <trkpt lat="44.77688" lon="0.76278">
        <ele>130</ele>
        <time>2009-01-15T13:27:41Z</time>
      </trkpt>
      <trkpt lat="44.77708" lon="0.76273">
        <ele>129</ele>
        <time>2009-01-15T13:27:44Z</time>
      </trkpt>
      <trkpt lat="44.77733" lon="0.76268">
        <ele>133</ele>
        <time>2009-01-15T13:27:48Z</time>
      </trkpt>
      <trkpt lat="44.77755" lon="0.76263">
        <ele>133</ele>
        <time>2009-01-15T13:27:52Z</time>
      </trkpt>
      <trkpt lat="44.77775" lon="0.76253">
        <ele>134</ele>
        <time>2009-01-15T13:27:56Z</time>
      </trkpt>
      <trkpt lat="44.77793" lon="0.76238">
        <ele>130</ele>
        <time>2009-01-15T13:28:02Z</time>
      </trkpt>
      <trkpt lat="44.7781" lon="0.7623">
        <ele>128</ele>
        <time>2009-01-15T13:28:09Z</time>
      </trkpt>
      <trkpt lat="44.77813" lon="0.76203">
        <ele>127</ele>
        <time>2009-01-15T13:28:17Z</time>
      </trkpt>
      <trkpt lat="44.7781" lon="0.76173">
        <ele>125</ele>
        <time>2009-01-15T13:28:23Z</time>
      </trkpt>
      <trkpt lat="44.77805" lon="0.76148">
        <ele>123</ele>
        <time>2009-01-15T13:28:28Z</time>
      </trkpt>
      <trkpt lat="44.77795" lon="0.76123">
        <ele>121</ele>
        <time>2009-01-15T13:28:33Z</time>
      </trkpt>
      <trkpt lat="44.77785" lon="0.76098">
        <ele>117</ele>
        <time>2009-01-15T13:28:45Z</time>
      </trkpt>
      <trkpt lat="44.7778" lon="0.7607">
        <ele>115</ele>
        <time>2009-01-15T13:28:51Z</time>
      </trkpt>
      <trkpt lat="44.77778" lon="0.76043">
        <ele>113</ele>
        <time>2009-01-15T13:28:57Z</time>
      </trkpt>
      <trkpt lat="44.77773" lon="0.76013">
        <ele>111</ele>
        <time>2009-01-15T13:29:02Z</time>
      </trkpt>
      <trkpt lat="44.7777" lon="0.75983">
        <ele>108</ele>
        <time>2009-01-15T13:29:08Z</time>
      </trkpt>
      <trkpt lat="44.77768" lon="0.75955">
        <ele>106</ele>
        <time>2009-01-15T13:29:13Z</time>
      </trkpt>
      <trkpt lat="44.77765" lon="0.75923">
        <ele>104</ele>
        <time>2009-01-15T13:29:18Z</time>
      </trkpt>
      <trkpt lat="44.77763" lon="0.75893">
        <ele>101</ele>
        <time>2009-01-15T13:29:24Z</time>
      </trkpt>
      <trkpt lat="44.7776" lon="0.75865">
        <ele>99</ele>
        <time>2009-01-15T13:29:29Z</time>
      </trkpt>
      <trkpt lat="44.77758" lon="0.75835">
        <ele>95</ele>
        <time>2009-01-15T13:29:34Z</time>
      </trkpt>
      <trkpt lat="44.77755" lon="0.75808">
        <ele>91</ele>
        <time>2009-01-15T13:29:40Z</time>
      </trkpt>
      <trkpt lat="44.77748" lon="0.75783">
        <ele>87</ele>
        <time>2009-01-15T13:29:45Z</time>
      </trkpt>
      <trkpt lat="44.7774" lon="0.75758">
        <ele>85</ele>
        <time>2009-01-15T13:29:50Z</time>
      </trkpt>
      <trkpt lat="44.77733" lon="0.7573">
        <ele>83</ele>
        <time>2009-01-15T13:29:57Z</time>
      </trkpt>
      <trkpt lat="44.77728" lon="0.75703">
        <ele>81</ele>
        <time>2009-01-15T13:30:03Z</time>
      </trkpt>
      <trkpt lat="44.77725" lon="0.75673">
        <ele>77</ele>
        <time>2009-01-15T13:30:08Z</time>
      </trkpt>
      <trkpt lat="44.77723" lon="0.75645">
        <ele>73</ele>
        <time>2009-01-15T13:30:13Z</time>
      </trkpt>
      <trkpt lat="44.7772" lon="0.75615">
        <ele>69</ele>
        <time>2009-01-15T13:30:19Z</time>
      </trkpt>
      <trkpt lat="44.77715" lon="0.7559">
        <ele>64</ele>
        <time>2009-01-15T13:30:28Z</time>
      </trkpt>
    </trkseg>
  </trk>
  <trk>
    <name><![CDATA[BBmt47]]></name>
    <trkseg>
      <trkpt lat="44.77705" lon="0.75575">
        <ele>65</ele>
        <time>2009-01-15T13:30:49Z</time>
      </trkpt>
      <trkpt lat="44.7769" lon="0.7559">
        <ele>65</ele>
        <time>2009-01-15T13:33:48Z</time>
      </trkpt>
      <trkpt lat="44.77673" lon="0.75603">
        <ele>67</ele>
        <time>2009-01-15T13:33:51Z</time>
      </trkpt>
      <trkpt lat="44.7765" lon="0.7562">
        <ele>68</ele>
        <time>2009-01-15T13:33:54Z</time>
      </trkpt>
      <trkpt lat="44.7763" lon="0.75638">
        <ele>71</ele>
        <time>2009-01-15T13:33:57Z</time>
      </trkpt>
      <trkpt lat="44.77613" lon="0.75653">
        <ele>73</ele>
        <time>2009-01-15T13:34:00Z</time>
      </trkpt>
      <trkpt lat="44.77595" lon="0.75665">
        <ele>75</ele>
        <time>2009-01-15T13:34:06Z</time>
      </trkpt>
      <trkpt lat="44.77575" lon="0.75673">
        <ele>74</ele>
        <time>2009-01-15T13:34:10Z</time>
      </trkpt>
      <trkpt lat="44.77555" lon="0.75678">
        <ele>74</ele>
        <time>2009-01-15T13:34:14Z</time>
      </trkpt>
      <trkpt lat="44.7753" lon="0.75685">
        <ele>75</ele>
        <time>2009-01-15T13:34:18Z</time>
      </trkpt>
      <trkpt lat="44.77505" lon="0.75695">
        <ele>75</ele>
        <time>2009-01-15T13:34:21Z</time>
      </trkpt>
      <trkpt lat="44.77488" lon="0.75705">
        <ele>75</ele>
        <time>2009-01-15T13:34:23Z</time>
      </trkpt>
      <trkpt lat="44.7746" lon="0.75718">
        <ele>75</ele>
        <time>2009-01-15T13:34:26Z</time>
      </trkpt>
      <trkpt lat="44.7743" lon="0.7573">
        <ele>75</ele>
        <time>2009-01-15T13:34:29Z</time>
      </trkpt>
      <trkpt lat="44.77403" lon="0.75745">
        <ele>75</ele>
        <time>2009-01-15T13:34:32Z</time>
      </trkpt>
      <trkpt lat="44.77385" lon="0.75755">
        <ele>75</ele>
        <time>2009-01-15T13:34:34Z</time>
      </trkpt>
      <trkpt lat="44.77363" lon="0.75778">
        <ele>75</ele>
        <time>2009-01-15T13:34:37Z</time>
      </trkpt>
      <trkpt lat="44.77343" lon="0.758">
        <ele>75</ele>
        <time>2009-01-15T13:34:40Z</time>
      </trkpt>
      <trkpt lat="44.77328" lon="0.75818">
        <ele>75</ele>
        <time>2009-01-15T13:34:43Z</time>
      </trkpt>
    </trkseg>
  </trk>
  <trk>
    <name><![CDATA[BBmt48]]></name>
    <trkseg>
      <trkpt lat="44.77325" lon="0.7583">
        <ele>80</ele>
        <time>2009-01-15T13:35:28Z</time>
      </trkpt>
      <trkpt lat="44.773" lon="0.75828">
        <ele>85</ele>
        <time>2009-01-15T13:38:11Z</time>
      </trkpt>
      <trkpt lat="44.77278" lon="0.75835">
        <ele>85</ele>
        <time>2009-01-15T13:38:14Z</time>
      </trkpt>
      <trkpt lat="44.77253" lon="0.75843">
        <ele>84</ele>
        <time>2009-01-15T13:38:17Z</time>
      </trkpt>
      <trkpt lat="44.77228" lon="0.7585">
        <ele>85</ele>
        <time>2009-01-15T13:38:20Z</time>
      </trkpt>
      <trkpt lat="44.77208" lon="0.75858">
        <ele>84</ele>
        <time>2009-01-15T13:38:23Z</time>
      </trkpt>
      <trkpt lat="44.7719" lon="0.75845">
        <ele>81</ele>
        <time>2009-01-15T13:38:34Z</time>
      </trkpt>
      <trkpt lat="44.7718" lon="0.75813">
        <ele>82</ele>
        <time>2009-01-15T13:38:38Z</time>
      </trkpt>
      <trkpt lat="44.7717" lon="0.7579">
        <ele>82</ele>
        <time>2009-01-15T13:38:40Z</time>
      </trkpt>
      <trkpt lat="44.77165" lon="0.75765">
        <ele>83</ele>
        <time>2009-01-15T13:38:42Z</time>
      </trkpt>
      <trkpt lat="44.77155" lon="0.75728">
        <ele>85</ele>
        <time>2009-01-15T13:38:45Z</time>
      </trkpt>
      <trkpt lat="44.77145" lon="0.757">
        <ele>89</ele>
        <time>2009-01-15T13:38:48Z</time>
      </trkpt>
      <trkpt lat="44.77138" lon="0.75675">
        <ele>89</ele>
        <time>2009-01-15T13:38:52Z</time>
      </trkpt>
      <trkpt lat="44.7712" lon="0.75685">
        <ele>85</ele>
        <time>2009-01-15T13:39:06Z</time>
      </trkpt>
      <trkpt lat="44.7711" lon="0.75708">
        <ele>87</ele>
        <time>2009-01-15T13:39:10Z</time>
      </trkpt>
      <trkpt lat="44.77098" lon="0.75733">
        <ele>86</ele>
        <time>2009-01-15T13:39:15Z</time>
      </trkpt>
      <trkpt lat="44.77088" lon="0.75758">
        <ele>88</ele>
        <time>2009-01-15T13:39:20Z</time>
      </trkpt>
      <trkpt lat="44.77073" lon="0.7578">
        <ele>93</ele>
        <time>2009-01-15T13:39:25Z</time>
      </trkpt>
      <trkpt lat="44.77053" lon="0.75798">
        <ele>95</ele>
        <time>2009-01-15T13:39:30Z</time>
      </trkpt>
      <trkpt lat="44.77038" lon="0.75813">
        <ele>95</ele>
        <time>2009-01-15T13:39:34Z</time>
      </trkpt>
      <trkpt lat="44.7702" lon="0.75823">
        <ele>95</ele>
        <time>2009-01-15T13:39:38Z</time>
      </trkpt>
      <trkpt lat="44.77003" lon="0.7583">
        <ele>93</ele>
        <time>2009-01-15T13:39:41Z</time>
      </trkpt>
      <trkpt lat="44.76985" lon="0.7584">
        <ele>90</ele>
        <time>2009-01-15T13:39:44Z</time>
      </trkpt>
      <trkpt lat="44.76968" lon="0.75855">
        <ele>91</ele>
        <time>2009-01-15T13:39:48Z</time>
      </trkpt>
      <trkpt lat="44.7695" lon="0.75865">
        <ele>91</ele>
        <time>2009-01-15T13:39:56Z</time>
      </trkpt>
      <trkpt lat="44.76933" lon="0.75875">
        <ele>89</ele>
        <time>2009-01-15T13:40:01Z</time>
      </trkpt>
    </trkseg>
  </trk>
  <trk>
    <name><![CDATA[BBmt49]]></name>
    <trkseg>
      <trkpt lat="44.76923" lon="0.75878">
        <ele>76</ele>
        <time>2009-01-15T13:42:03Z</time>
      </trkpt>
      <trkpt lat="44.76923" lon="0.7591">
        <ele>72</ele>
        <time>2009-01-15T13:42:41Z</time>
      </trkpt>
      <trkpt lat="44.76928" lon="0.7594">
        <ele>70</ele>
        <time>2009-01-15T13:42:45Z</time>
      </trkpt>
      <trkpt lat="44.7693" lon="0.75973">
        <ele>68</ele>
        <time>2009-01-15T13:42:49Z</time>
      </trkpt>
      <trkpt lat="44.7693" lon="0.76005">
        <ele>69</ele>
        <time>2009-01-15T13:42:54Z</time>
      </trkpt>
      <trkpt lat="44.76928" lon="0.76033">
        <ele>71</ele>
        <time>2009-01-15T13:42:57Z</time>
      </trkpt>
      <trkpt lat="44.76928" lon="0.7606">
        <ele>73</ele>
        <time>2009-01-15T13:43:00Z</time>
      </trkpt>
      <trkpt lat="44.7693" lon="0.7609">
        <ele>75</ele>
        <time>2009-01-15T13:43:03Z</time>
      </trkpt>
      <trkpt lat="44.7693" lon="0.7612">
        <ele>77</ele>
        <time>2009-01-15T13:43:06Z</time>
      </trkpt>
      <trkpt lat="44.7693" lon="0.76148">
        <ele>79</ele>
        <time>2009-01-15T13:43:09Z</time>
      </trkpt>
      <trkpt lat="44.76913" lon="0.76163">
        <ele>83</ele>
        <time>2009-01-15T13:43:22Z</time>
      </trkpt>
      <trkpt lat="44.7689" lon="0.7617">
        <ele>86</ele>
        <time>2009-01-15T13:43:26Z</time>
      </trkpt>
      <trkpt lat="44.76873" lon="0.76193">
        <ele>90</ele>
        <time>2009-01-15T13:43:30Z</time>
      </trkpt>
      <trkpt lat="44.76858" lon="0.76213">
        <ele>92</ele>
        <time>2009-01-15T13:43:33Z</time>
      </trkpt>
      <trkpt lat="44.76843" lon="0.76235">
        <ele>95</ele>
        <time>2009-01-15T13:43:36Z</time>
      </trkpt>
      <trkpt lat="44.7683" lon="0.76258">
        <ele>97</ele>
        <time>2009-01-15T13:43:39Z</time>
      </trkpt>
      <trkpt lat="44.7682" lon="0.7628">
        <ele>103</ele>
        <time>2009-01-15T13:43:42Z</time>
      </trkpt>
      <trkpt lat="44.7681" lon="0.7631">
        <ele>108</ele>
        <time>2009-01-15T13:43:46Z</time>
      </trkpt>
      <trkpt lat="44.768" lon="0.76335">
        <ele>109</ele>
        <time>2009-01-15T13:43:50Z</time>
      </trkpt>
      <trkpt lat="44.76788" lon="0.76355">
        <ele>112</ele>
        <time>2009-01-15T13:43:53Z</time>
      </trkpt>
      <trkpt lat="44.76773" lon="0.7637">
        <ele>116</ele>
        <time>2009-01-15T13:43:57Z</time>
      </trkpt>
      <trkpt lat="44.76758" lon="0.76385">
        <ele>119</ele>
        <time>2009-01-15T13:44:02Z</time>
      </trkpt>
      <trkpt lat="44.7674" lon="0.76405">
        <ele>121</ele>
        <time>2009-01-15T13:44:07Z</time>
      </trkpt>
      <trkpt lat="44.76725" lon="0.76425">
        <ele>121</ele>
        <time>2009-01-15T13:44:12Z</time>
      </trkpt>
      <trkpt lat="44.76723" lon="0.76458">
        <ele>121</ele>
        <time>2009-01-15T13:44:17Z</time>
      </trkpt>
      <trkpt lat="44.76723" lon="0.76488">
        <ele>123</ele>
        <time>2009-01-15T13:44:20Z</time>
      </trkpt>
      <trkpt lat="44.76723" lon="0.7652">
        <ele>125</ele>
        <time>2009-01-15T13:44:23Z</time>
      </trkpt>
      <trkpt lat="44.76725" lon="0.76548">
        <ele>127</ele>
        <time>2009-01-15T13:44:26Z</time>
      </trkpt>
      <trkpt lat="44.7673" lon="0.76573">
        <ele>134</ele>
        <time>2009-01-15T13:44:46Z</time>
      </trkpt>
      <trkpt lat="44.76748" lon="0.76583">
        <ele>133</ele>
        <time>2009-01-15T13:44:51Z</time>
      </trkpt>
      <trkpt lat="44.76763" lon="0.766">
        <ele>136</ele>
        <time>2009-01-15T13:44:59Z</time>
      </trkpt>
      <trkpt lat="44.7678" lon="0.7662">
        <ele>136</ele>
        <time>2009-01-15T13:45:03Z</time>
      </trkpt>
      <trkpt lat="44.76795" lon="0.76638">
        <ele>137</ele>
        <time>2009-01-15T13:45:06Z</time>
      </trkpt>
      <trkpt lat="44.76815" lon="0.76658">
        <ele>136</ele>
        <time>2009-01-15T13:45:10Z</time>
      </trkpt>
      <trkpt lat="44.76835" lon="0.76658">
        <ele>133</ele>
        <time>2009-01-15T13:45:14Z</time>
      </trkpt>
      <trkpt lat="44.76858" lon="0.76655">
        <ele>129</ele>
        <time>2009-01-15T13:45:18Z</time>
      </trkpt>
      <trkpt lat="44.76888" lon="0.76645">
        <ele>130</ele>
        <time>2009-01-15T13:45:23Z</time>
      </trkpt>
    </trkseg>
  </trk>
  <trk>
    <name><![CDATA[BBmt50]]></name>
    <trkseg>
      <trkpt lat="44.76891" lon="0.76641">
        <ele>129</ele>
        <time>2009-01-15T13:48:53Z</time>
      </trkpt>
      <trkpt lat="44.76896" lon="0.76654">
        <ele>130</ele>
        <time>2009-01-15T13:49:12Z</time>
      </trkpt>
      <trkpt lat="44.76898" lon="0.76682">
        <ele>132</ele>
        <time>2009-06-18T16:43:36Z</time>
      </trkpt>
      <trkpt lat="44.769" lon="0.76685">
        <ele>133</ele>
        <time>2009-06-18T16:43:36Z</time>
      </trkpt>
      <trkpt lat="44.76903" lon="0.76712">
        <ele>134</ele>
        <time>2009-06-18T16:43:36Z</time>
      </trkpt>
      <trkpt lat="44.76899" lon="0.76718">
        <ele>134</ele>
        <time>2009-06-18T16:43:36Z</time>
      </trkpt>
      <trkpt lat="44.76904" lon="0.76758">
        <ele>134</ele>
        <time>2009-06-18T16:43:36Z</time>
      </trkpt>
      <trkpt lat="44.76912" lon="0.76768">
        <ele>134</ele>
        <time>2009-06-18T16:43:36Z</time>
      </trkpt>
      <trkpt lat="44.76913" lon="0.76843">
        <ele>131</ele>
        <time>2009-06-18T16:43:36Z</time>
      </trkpt>
      <trkpt lat="44.76917" lon="0.76865">
        <ele>130</ele>
        <time>2009-01-15T13:49:30Z</time>
      </trkpt>
    </trkseg>
  </trk>
  <trk>
    <name><![CDATA[BBmt51]]></name>
    <trkseg>
      <trkpt lat="44.76915" lon="0.7587">
        <ele>93</ele>
        <time>2009-01-15T13:55:33Z</time>
      </trkpt>
      <trkpt lat="44.7691" lon="0.75838">
        <ele>102</ele>
        <time>2009-01-15T13:55:44Z</time>
      </trkpt>
      <trkpt lat="44.76905" lon="0.75813">
        <ele>103</ele>
        <time>2009-01-15T13:55:47Z</time>
      </trkpt>
      <trkpt lat="44.76895" lon="0.75775">
        <ele>105</ele>
        <time>2009-01-15T13:55:49Z</time>
      </trkpt>
      <trkpt lat="44.76888" lon="0.75745">
        <ele>107</ele>
        <time>2009-01-15T13:55:52Z</time>
      </trkpt>
      <trkpt lat="44.76885" lon="0.75718">
        <ele>108</ele>
        <time>2009-01-15T13:55:54Z</time>
      </trkpt>
      <trkpt lat="44.76888" lon="0.75685">
        <ele>112</ele>
        <time>2009-01-15T13:55:57Z</time>
      </trkpt>
      <trkpt lat="44.7689" lon="0.75653">
        <ele>117</ele>
        <time>2009-01-15T13:56:01Z</time>
      </trkpt>
    </trkseg>
  </trk>
  <trk>
    <name><![CDATA[BBmt52]]></name>
    <trkseg>
      <trkpt lat="44.76848" lon="0.75648">
        <ele>101</ele>
        <time>2009-01-15T13:59:05Z</time>
      </trkpt>
      <trkpt lat="44.76825" lon="0.7565">
        <ele>101</ele>
        <time>2009-01-15T13:59:11Z</time>
      </trkpt>
      <trkpt lat="44.76805" lon="0.75653">
        <ele>102</ele>
        <time>2009-01-15T13:59:16Z</time>
      </trkpt>
      <trkpt lat="44.76785" lon="0.75653">
        <ele>114</ele>
        <time>2009-01-15T14:00:35Z</time>
      </trkpt>
      <trkpt lat="44.7676" lon="0.75658">
        <ele>115</ele>
        <time>2009-01-15T14:00:40Z</time>
      </trkpt>
      <trkpt lat="44.7674" lon="0.75658">
        <ele>115</ele>
        <time>2009-01-15T14:00:43Z</time>
      </trkpt>
      <trkpt lat="44.76715" lon="0.75658">
        <ele>116</ele>
        <time>2009-01-15T14:00:46Z</time>
      </trkpt>
      <trkpt lat="44.76688" lon="0.75658">
        <ele>117</ele>
        <time>2009-01-15T14:00:49Z</time>
      </trkpt>
      <trkpt lat="44.76663" lon="0.75658">
        <ele>117</ele>
        <time>2009-01-15T14:00:52Z</time>
      </trkpt>
      <trkpt lat="44.76638" lon="0.75655">
        <ele>117</ele>
        <time>2009-01-15T14:00:55Z</time>
      </trkpt>
      <trkpt lat="44.7661" lon="0.75655">
        <ele>117</ele>
        <time>2009-01-15T14:00:58Z</time>
      </trkpt>
      <trkpt lat="44.76585" lon="0.75655">
        <ele>118</ele>
        <time>2009-01-15T14:01:01Z</time>
      </trkpt>
      <trkpt lat="44.76558" lon="0.75655">
        <ele>120</ele>
        <time>2009-01-15T14:01:04Z</time>
      </trkpt>
      <trkpt lat="44.76533" lon="0.75655">
        <ele>119</ele>
        <time>2009-01-15T14:01:07Z</time>
      </trkpt>
      <trkpt lat="44.76505" lon="0.75653">
        <ele>115</ele>
        <time>2009-01-15T14:01:10Z</time>
      </trkpt>
      <trkpt lat="44.76485" lon="0.7565">
        <ele>113</ele>
        <time>2009-01-15T14:01:12Z</time>
      </trkpt>
      <trkpt lat="44.76463" lon="0.7565">
        <ele>112</ele>
        <time>2009-01-15T14:01:14Z</time>
      </trkpt>
      <trkpt lat="44.7644" lon="0.75648">
        <ele>111</ele>
        <time>2009-01-15T14:01:16Z</time>
      </trkpt>
      <trkpt lat="44.7641" lon="0.75645">
        <ele>110</ele>
        <time>2009-01-15T14:01:19Z</time>
      </trkpt>
      <trkpt lat="44.76388" lon="0.75645">
        <ele>109</ele>
        <time>2009-01-15T14:01:21Z</time>
      </trkpt>
      <trkpt lat="44.76368" lon="0.75643">
        <ele>109</ele>
        <time>2009-01-15T14:01:23Z</time>
      </trkpt>
      <trkpt lat="44.7634" lon="0.75643">
        <ele>108</ele>
        <time>2009-01-15T14:01:26Z</time>
      </trkpt>
      <trkpt lat="44.7632" lon="0.75643">
        <ele>109</ele>
        <time>2009-01-15T14:01:29Z</time>
      </trkpt>
      <trkpt lat="44.763" lon="0.7564">
        <ele>111</ele>
        <time>2009-01-15T14:01:33Z</time>
      </trkpt>
      <trkpt lat="44.76278" lon="0.7564">
        <ele>112</ele>
        <time>2009-01-15T14:01:38Z</time>
      </trkpt>
      <trkpt lat="44.76258" lon="0.75638">
        <ele>114</ele>
        <time>2009-01-15T14:01:46Z</time>
      </trkpt>
      <trkpt lat="44.76238" lon="0.75633">
        <ele>115</ele>
        <time>2009-01-15T14:01:59Z</time>
      </trkpt>
      <trkpt lat="44.7622" lon="0.75623">
        <ele>121</ele>
        <time>2009-01-15T14:02:04Z</time>
      </trkpt>
      <trkpt lat="44.76203" lon="0.75615">
        <ele>123</ele>
        <time>2009-01-15T14:02:09Z</time>
      </trkpt>
      <trkpt lat="44.76183" lon="0.75623">
        <ele>128</ele>
        <time>2009-01-15T14:02:14Z</time>
      </trkpt>
      <trkpt lat="44.76173" lon="0.75648">
        <ele>133</ele>
        <time>2009-01-15T14:02:20Z</time>
      </trkpt>
      <trkpt lat="44.76158" lon="0.75665">
        <ele>133</ele>
        <time>2009-01-15T14:02:25Z</time>
      </trkpt>
      <trkpt lat="44.76138" lon="0.75665">
        <ele>133</ele>
        <time>2009-01-15T14:02:30Z</time>
      </trkpt>
      <trkpt lat="44.76118" lon="0.75655">
        <ele>134</ele>
        <time>2009-01-15T14:02:34Z</time>
      </trkpt>
      <trkpt lat="44.76095" lon="0.75645">
        <ele>134</ele>
        <time>2009-01-15T14:02:38Z</time>
      </trkpt>
      <trkpt lat="44.7607" lon="0.75638">
        <ele>136</ele>
        <time>2009-01-15T14:02:42Z</time>
      </trkpt>
      <trkpt lat="44.7605" lon="0.75638">
        <ele>138</ele>
        <time>2009-01-15T14:02:45Z</time>
      </trkpt>
      <trkpt lat="44.7603" lon="0.75638">
        <ele>139</ele>
        <time>2009-01-15T14:02:48Z</time>
      </trkpt>
      <trkpt lat="44.7601" lon="0.75635">
        <ele>138</ele>
        <time>2009-01-15T14:02:52Z</time>
      </trkpt>
      <trkpt lat="44.75883" lon="0.7567">
        <ele>148</ele>
        <time>2009-01-15T14:17:59Z</time>
      </trkpt>
      <trkpt lat="44.75878" lon="0.75645">
        <ele>148</ele>
        <time>2009-01-15T14:18:10Z</time>
      </trkpt>
      <trkpt lat="44.75873" lon="0.75618">
        <ele>152</ele>
        <time>2009-01-15T14:18:14Z</time>
      </trkpt>
      <trkpt lat="44.7586" lon="0.75588">
        <ele>152</ele>
        <time>2009-01-15T14:18:18Z</time>
      </trkpt>
      <trkpt lat="44.75848" lon="0.75565">
        <ele>153</ele>
        <time>2009-01-15T14:18:21Z</time>
      </trkpt>
      <trkpt lat="44.75835" lon="0.75545">
        <ele>152</ele>
        <time>2009-01-15T14:18:24Z</time>
      </trkpt>
      <trkpt lat="44.7582" lon="0.75525">
        <ele>153</ele>
        <time>2009-01-15T14:18:27Z</time>
      </trkpt>
      <trkpt lat="44.75803" lon="0.75508">
        <ele>154</ele>
        <time>2009-01-15T14:18:30Z</time>
      </trkpt>
      <trkpt lat="44.75785" lon="0.75495">
        <ele>155</ele>
        <time>2009-01-15T14:18:33Z</time>
      </trkpt>
      <trkpt lat="44.75768" lon="0.75485">
        <ele>153</ele>
        <time>2009-01-15T14:18:36Z</time>
      </trkpt>
      <trkpt lat="44.7575" lon="0.75475">
        <ele>154</ele>
        <time>2009-01-15T14:18:39Z</time>
      </trkpt>
      <trkpt lat="44.7573" lon="0.75465">
        <ele>154</ele>
        <time>2009-01-15T14:18:42Z</time>
      </trkpt>
      <trkpt lat="44.7571" lon="0.75455">
        <ele>156</ele>
        <time>2009-01-15T14:18:45Z</time>
      </trkpt>
      <trkpt lat="44.7569" lon="0.75448">
        <ele>157</ele>
        <time>2009-01-15T14:18:48Z</time>
      </trkpt>
      <trkpt lat="44.75668" lon="0.75443">
        <ele>158</ele>
        <time>2009-01-15T14:18:51Z</time>
      </trkpt>
      <trkpt lat="44.75645" lon="0.75438">
        <ele>158</ele>
        <time>2009-01-15T14:18:54Z</time>
      </trkpt>
      <trkpt lat="44.75623" lon="0.75433">
        <ele>158</ele>
        <time>2009-01-15T14:18:57Z</time>
      </trkpt>
      <trkpt lat="44.75603" lon="0.75425">
        <ele>158</ele>
        <time>2009-01-15T14:18:59Z</time>
      </trkpt>
      <trkpt lat="44.75583" lon="0.75413">
        <ele>158</ele>
        <time>2009-01-15T14:19:03Z</time>
      </trkpt>
      <trkpt lat="44.75563" lon="0.75398">
        <ele>157</ele>
        <time>2009-01-15T14:19:06Z</time>
      </trkpt>
      <trkpt lat="44.75543" lon="0.75375">
        <ele>157</ele>
        <time>2009-01-15T14:19:09Z</time>
      </trkpt>
      <trkpt lat="44.75523" lon="0.7535">
        <ele>158</ele>
        <time>2009-01-15T14:19:12Z</time>
      </trkpt>
      <trkpt lat="44.75508" lon="0.7532">
        <ele>157</ele>
        <time>2009-01-15T14:19:15Z</time>
      </trkpt>
      <trkpt lat="44.75495" lon="0.75288">
        <ele>157</ele>
        <time>2009-01-15T14:19:18Z</time>
      </trkpt>
      <trkpt lat="44.75483" lon="0.75255">
        <ele>157</ele>
        <time>2009-01-15T14:19:21Z</time>
      </trkpt>
      <trkpt lat="44.75473" lon="0.7522">
        <ele>156</ele>
        <time>2009-01-15T14:19:24Z</time>
      </trkpt>
      <trkpt lat="44.75463" lon="0.7519">
        <ele>156</ele>
        <time>2009-01-15T14:19:27Z</time>
      </trkpt>
      <trkpt lat="44.75448" lon="0.75173">
        <ele>155</ele>
        <time>2009-01-15T14:19:37Z</time>
      </trkpt>
      <trkpt lat="44.75425" lon="0.75168">
        <ele>156</ele>
        <time>2009-01-15T14:19:40Z</time>
      </trkpt>
      <trkpt lat="44.754" lon="0.75163">
        <ele>156</ele>
        <time>2009-01-15T14:19:44Z</time>
      </trkpt>
      <trkpt lat="44.7537" lon="0.75155">
        <ele>157</ele>
        <time>2009-01-15T14:19:47Z</time>
      </trkpt>
      <trkpt lat="44.75353" lon="0.75148">
        <ele>158</ele>
        <time>2009-01-15T14:19:49Z</time>
      </trkpt>
      <trkpt lat="44.75333" lon="0.7514">
        <ele>158</ele>
        <time>2009-01-15T14:19:51Z</time>
      </trkpt>
      <trkpt lat="44.75305" lon="0.7513">
        <ele>158</ele>
        <time>2009-01-15T14:19:54Z</time>
      </trkpt>
      <trkpt lat="44.75288" lon="0.75123">
        <ele>158</ele>
        <time>2009-01-15T14:19:56Z</time>
      </trkpt>
      <trkpt lat="44.75265" lon="0.75108">
        <ele>158</ele>
        <time>2009-01-15T14:19:59Z</time>
      </trkpt>
      <trkpt lat="44.75243" lon="0.7509">
        <ele>158</ele>
        <time>2009-01-15T14:20:02Z</time>
      </trkpt>
      <trkpt lat="44.7522" lon="0.75075">
        <ele>160</ele>
        <time>2009-01-15T14:20:05Z</time>
      </trkpt>
      <trkpt lat="44.752" lon="0.75063">
        <ele>161</ele>
        <time>2009-01-15T14:20:08Z</time>
      </trkpt>
      <trkpt lat="44.7518" lon="0.7505">
        <ele>162</ele>
        <time>2009-01-15T14:20:12Z</time>
      </trkpt>
      <trkpt lat="44.75163" lon="0.75035">
        <ele>162</ele>
        <time>2009-01-15T14:20:19Z</time>
      </trkpt>
      <trkpt lat="44.75145" lon="0.75015">
        <ele>162</ele>
        <time>2009-01-15T14:20:23Z</time>
      </trkpt>
      <trkpt lat="44.75133" lon="0.74995">
        <ele>162</ele>
        <time>2009-01-15T14:20:26Z</time>
      </trkpt>
      <trkpt lat="44.75118" lon="0.74978">
        <ele>163</ele>
        <time>2009-01-15T14:20:29Z</time>
      </trkpt>
      <trkpt lat="44.75103" lon="0.7496">
        <ele>162</ele>
        <time>2009-01-15T14:20:32Z</time>
      </trkpt>
      <trkpt lat="44.75085" lon="0.74943">
        <ele>162</ele>
        <time>2009-01-15T14:20:36Z</time>
      </trkpt>
      <trkpt lat="44.75068" lon="0.74925">
        <ele>163</ele>
        <time>2009-01-15T14:20:39Z</time>
      </trkpt>
      <trkpt lat="44.7505" lon="0.74913">
        <ele>163</ele>
        <time>2009-01-15T14:20:42Z</time>
      </trkpt>
      <trkpt lat="44.7503" lon="0.74905">
        <ele>163</ele>
        <time>2009-01-15T14:20:45Z</time>
      </trkpt>
      <trkpt lat="44.7501" lon="0.74898">
        <ele>163</ele>
        <time>2009-01-15T14:20:47Z</time>
      </trkpt>
      <trkpt lat="44.7499" lon="0.74888">
        <ele>162</ele>
        <time>2009-01-15T14:20:51Z</time>
      </trkpt>
      <trkpt lat="44.74975" lon="0.74873">
        <ele>162</ele>
        <time>2009-01-15T14:20:55Z</time>
      </trkpt>
      <trkpt lat="44.7496" lon="0.74858">
        <ele>160</ele>
        <time>2009-01-15T14:20:59Z</time>
      </trkpt>
      <trkpt lat="44.74943" lon="0.74843">
        <ele>160</ele>
        <time>2009-01-15T14:21:03Z</time>
      </trkpt>
      <trkpt lat="44.74923" lon="0.74828">
        <ele>160</ele>
        <time>2009-01-15T14:21:08Z</time>
      </trkpt>
      <trkpt lat="44.74908" lon="0.74813">
        <ele>159</ele>
        <time>2009-01-15T14:21:11Z</time>
      </trkpt>
      <trkpt lat="44.74888" lon="0.74798">
        <ele>157</ele>
        <time>2009-01-15T14:21:14Z</time>
      </trkpt>
      <trkpt lat="44.74865" lon="0.7478">
        <ele>157</ele>
        <time>2009-01-15T14:21:17Z</time>
      </trkpt>
      <trkpt lat="44.74845" lon="0.74763">
        <ele>157</ele>
        <time>2009-01-15T14:21:20Z</time>
      </trkpt>
      <trkpt lat="44.74825" lon="0.74745">
        <ele>158</ele>
        <time>2009-01-15T14:21:24Z</time>
      </trkpt>
      <trkpt lat="44.74808" lon="0.7473">
        <ele>159</ele>
        <time>2009-01-15T14:21:27Z</time>
      </trkpt>
      <trkpt lat="44.7479" lon="0.74715">
        <ele>160</ele>
        <time>2009-01-15T14:21:30Z</time>
      </trkpt>
      <trkpt lat="44.74773" lon="0.747">
        <ele>160</ele>
        <time>2009-01-15T14:21:33Z</time>
      </trkpt>
      <trkpt lat="44.74753" lon="0.74685">
        <ele>160</ele>
        <time>2009-01-15T14:21:36Z</time>
      </trkpt>
      <trkpt lat="44.74733" lon="0.7467">
        <ele>161</ele>
        <time>2009-01-15T14:21:39Z</time>
      </trkpt>
      <trkpt lat="44.74715" lon="0.74655">
        <ele>162</ele>
        <time>2009-01-15T14:21:42Z</time>
      </trkpt>
      <trkpt lat="44.74695" lon="0.7464">
        <ele>162</ele>
        <time>2009-01-15T14:21:46Z</time>
      </trkpt>
      <trkpt lat="44.74678" lon="0.74628">
        <ele>163</ele>
        <time>2009-01-15T14:22:16Z</time>
      </trkpt>
      <trkpt lat="44.7466" lon="0.74613">
        <ele>164</ele>
        <time>2009-01-15T14:22:21Z</time>
      </trkpt>
      <trkpt lat="44.7464" lon="0.74598">
        <ele>166</ele>
        <time>2009-01-15T14:22:25Z</time>
      </trkpt>
      <trkpt lat="44.74623" lon="0.7458">
        <ele>166</ele>
        <time>2009-01-15T14:22:29Z</time>
      </trkpt>
      <trkpt lat="44.74608" lon="0.74558">
        <ele>166</ele>
        <time>2009-01-15T14:22:33Z</time>
      </trkpt>
      <trkpt lat="44.7459" lon="0.74533">
        <ele>167</ele>
        <time>2009-01-15T14:22:37Z</time>
      </trkpt>
      <trkpt lat="44.74575" lon="0.7451">
        <ele>166</ele>
        <time>2009-01-15T14:22:41Z</time>
      </trkpt>
      <trkpt lat="44.74558" lon="0.74485">
        <ele>165</ele>
        <time>2009-01-15T14:22:45Z</time>
      </trkpt>
      <trkpt lat="44.74543" lon="0.74463">
        <ele>164</ele>
        <time>2009-01-15T14:22:48Z</time>
      </trkpt>
      <trkpt lat="44.7453" lon="0.74443">
        <ele>164</ele>
        <time>2009-01-15T14:22:51Z</time>
      </trkpt>
      <trkpt lat="44.74518" lon="0.74423">
        <ele>163</ele>
        <time>2009-01-15T14:22:54Z</time>
      </trkpt>
      <trkpt lat="44.74503" lon="0.74403">
        <ele>163</ele>
        <time>2009-01-15T14:22:57Z</time>
      </trkpt>
      <trkpt lat="44.74488" lon="0.74385">
        <ele>163</ele>
        <time>2009-01-15T14:23:09Z</time>
      </trkpt>
      <trkpt lat="44.7447" lon="0.74373">
        <ele>162</ele>
        <time>2009-01-15T14:23:14Z</time>
      </trkpt>
      <trkpt lat="44.74455" lon="0.74358">
        <ele>162</ele>
        <time>2009-01-15T14:23:19Z</time>
      </trkpt>
      <trkpt lat="44.74438" lon="0.74343">
        <ele>162</ele>
        <time>2009-01-15T14:23:24Z</time>
      </trkpt>
      <trkpt lat="44.74423" lon="0.74328">
        <ele>162</ele>
        <time>2009-01-15T14:23:29Z</time>
      </trkpt>
      <trkpt lat="44.74405" lon="0.74313">
        <ele>162</ele>
        <time>2009-01-15T14:23:34Z</time>
      </trkpt>
      <trkpt lat="44.74388" lon="0.74298">
        <ele>163</ele>
        <time>2009-01-15T14:23:39Z</time>
      </trkpt>
      <trkpt lat="44.7437" lon="0.74283">
        <ele>162</ele>
        <time>2009-01-15T14:23:46Z</time>
      </trkpt>
      <trkpt lat="44.74355" lon="0.74268">
        <ele>161</ele>
        <time>2009-01-15T14:23:51Z</time>
      </trkpt>
    </trkseg>
  </trk>
  <trk>
    <name><![CDATA[BBmt53]]></name>
    <trkseg>
      <trkpt lat="44.74348" lon="0.74258">
        <ele>158</ele>
        <time>2009-01-15T14:26:22Z</time>
      </trkpt>
      <trkpt lat="44.74338" lon="0.7428">
        <ele>157</ele>
        <time>2009-01-15T14:26:28Z</time>
      </trkpt>
      <trkpt lat="44.74325" lon="0.74308">
        <ele>158</ele>
        <time>2009-01-15T14:26:31Z</time>
      </trkpt>
      <trkpt lat="44.74313" lon="0.74338">
        <ele>158</ele>
        <time>2009-01-15T14:26:34Z</time>
      </trkpt>
      <trkpt lat="44.74303" lon="0.74363">
        <ele>158</ele>
        <time>2009-01-15T14:26:36Z</time>
      </trkpt>
      <trkpt lat="44.7429" lon="0.74385">
        <ele>158</ele>
        <time>2009-01-15T14:26:42Z</time>
      </trkpt>
      <trkpt lat="44.74278" lon="0.7441">
        <ele>157</ele>
        <time>2009-01-15T14:26:46Z</time>
      </trkpt>
      <trkpt lat="44.74263" lon="0.74438">
        <ele>157</ele>
        <time>2009-01-15T14:26:49Z</time>
      </trkpt>
      <trkpt lat="44.74248" lon="0.74468">
        <ele>156</ele>
        <time>2009-01-15T14:26:52Z</time>
      </trkpt>
      <trkpt lat="44.74233" lon="0.74498">
        <ele>157</ele>
        <time>2009-01-15T14:26:55Z</time>
      </trkpt>
      <trkpt lat="44.7422" lon="0.7453">
        <ele>157</ele>
        <time>2009-01-15T14:26:58Z</time>
      </trkpt>
      <trkpt lat="44.7421" lon="0.7456">
        <ele>158</ele>
        <time>2009-01-15T14:27:01Z</time>
      </trkpt>
      <trkpt lat="44.742" lon="0.74595">
        <ele>158</ele>
        <time>2009-01-15T14:27:04Z</time>
      </trkpt>
      <trkpt lat="44.7419" lon="0.74625">
        <ele>157</ele>
        <time>2009-01-15T14:27:07Z</time>
      </trkpt>
      <trkpt lat="44.74178" lon="0.7466">
        <ele>157</ele>
        <time>2009-01-15T14:27:10Z</time>
      </trkpt>
      <trkpt lat="44.74168" lon="0.74693">
        <ele>156</ele>
        <time>2009-01-15T14:27:13Z</time>
      </trkpt>
      <trkpt lat="44.74158" lon="0.74723">
        <ele>155</ele>
        <time>2009-01-15T14:27:16Z</time>
      </trkpt>
      <trkpt lat="44.74148" lon="0.7475">
        <ele>155</ele>
        <time>2009-01-15T14:27:19Z</time>
      </trkpt>
      <trkpt lat="44.74133" lon="0.74773">
        <ele>155</ele>
        <time>2009-01-15T14:27:22Z</time>
      </trkpt>
      <trkpt lat="44.74118" lon="0.74793">
        <ele>156</ele>
        <time>2009-01-15T14:27:25Z</time>
      </trkpt>
      <trkpt lat="44.74098" lon="0.74815">
        <ele>157</ele>
        <time>2009-01-15T14:27:28Z</time>
      </trkpt>
      <trkpt lat="44.74083" lon="0.7483">
        <ele>159</ele>
        <time>2009-01-15T14:27:30Z</time>
      </trkpt>
      <trkpt lat="44.74063" lon="0.74853">
        <ele>159</ele>
        <time>2009-01-15T14:27:33Z</time>
      </trkpt>
      <trkpt lat="44.74045" lon="0.74883">
        <ele>157</ele>
        <time>2009-01-15T14:27:36Z</time>
      </trkpt>
      <trkpt lat="44.74033" lon="0.74915">
        <ele>156</ele>
        <time>2009-01-15T14:27:39Z</time>
      </trkpt>
      <trkpt lat="44.74023" lon="0.74943">
        <ele>154</ele>
        <time>2009-01-15T14:27:42Z</time>
      </trkpt>
      <trkpt lat="44.74013" lon="0.74965">
        <ele>152</ele>
        <time>2009-01-15T14:27:47Z</time>
      </trkpt>
      <trkpt lat="44.73998" lon="0.74988">
        <ele>149</ele>
        <time>2009-01-15T14:27:54Z</time>
      </trkpt>
      <trkpt lat="44.73983" lon="0.75015">
        <ele>148</ele>
        <time>2009-01-15T14:28:00Z</time>
      </trkpt>
      <trkpt lat="44.73975" lon="0.7504">
        <ele>147</ele>
        <time>2009-01-15T14:28:03Z</time>
      </trkpt>
      <trkpt lat="44.7397" lon="0.75073">
        <ele>146</ele>
        <time>2009-01-15T14:28:06Z</time>
      </trkpt>
      <trkpt lat="44.73968" lon="0.75108">
        <ele>144</ele>
        <time>2009-01-15T14:28:09Z</time>
      </trkpt>
      <trkpt lat="44.73965" lon="0.75138">
        <ele>144</ele>
        <time>2009-01-15T14:28:12Z</time>
      </trkpt>
      <trkpt lat="44.7396" lon="0.75165">
        <ele>145</ele>
        <time>2009-01-15T14:28:16Z</time>
      </trkpt>
      <trkpt lat="44.7396" lon="0.75195">
        <ele>146</ele>
        <time>2009-01-15T14:28:24Z</time>
      </trkpt>
      <trkpt lat="44.73955" lon="0.7522">
        <ele>147</ele>
        <time>2009-01-15T14:28:32Z</time>
      </trkpt>
      <trkpt lat="44.7395" lon="0.75245">
        <ele>147</ele>
        <time>2009-01-15T14:28:36Z</time>
      </trkpt>
      <trkpt lat="44.73945" lon="0.75273">
        <ele>148</ele>
        <time>2009-01-15T14:28:41Z</time>
      </trkpt>
      <trkpt lat="44.7394" lon="0.75298">
        <ele>149</ele>
        <time>2009-01-15T14:28:46Z</time>
      </trkpt>
      <trkpt lat="44.7393" lon="0.7532">
        <ele>149</ele>
        <time>2009-01-15T14:28:59Z</time>
      </trkpt>
      <trkpt lat="44.7392" lon="0.75345">
        <ele>146</ele>
        <time>2009-01-15T14:34:54Z</time>
      </trkpt>
      <trkpt lat="44.73903" lon="0.7536">
        <ele>144</ele>
        <time>2009-01-15T14:35:01Z</time>
      </trkpt>
      <trkpt lat="44.73893" lon="0.75383">
        <ele>143</ele>
        <time>2009-01-15T14:35:10Z</time>
      </trkpt>
      <trkpt lat="44.73883" lon="0.75408">
        <ele>144</ele>
        <time>2009-01-15T14:35:16Z</time>
      </trkpt>
      <trkpt lat="44.73875" lon="0.75435">
        <ele>145</ele>
        <time>2009-01-15T14:35:23Z</time>
      </trkpt>
      <trkpt lat="44.7387" lon="0.75463">
        <ele>141</ele>
        <time>2009-01-15T14:35:37Z</time>
      </trkpt>
      <trkpt lat="44.7386" lon="0.75485">
        <ele>142</ele>
        <time>2009-01-15T14:35:45Z</time>
      </trkpt>
      <trkpt lat="44.73613" lon="0.7576">
        <ele>160</ele>
        <time>2009-01-15T14:58:28Z</time>
      </trkpt>
      <trkpt lat="44.73595" lon="0.75775">
        <ele>160</ele>
        <time>2009-01-15T14:58:39Z</time>
      </trkpt>
      <trkpt lat="44.7358" lon="0.7579">
        <ele>160</ele>
        <time>2009-01-15T14:58:44Z</time>
      </trkpt>
      <trkpt lat="44.73563" lon="0.75803">
        <ele>159</ele>
        <time>2009-01-15T14:58:49Z</time>
      </trkpt>
      <trkpt lat="44.73545" lon="0.7582">
        <ele>159</ele>
        <time>2009-01-15T14:58:53Z</time>
      </trkpt>
      <trkpt lat="44.73525" lon="0.7583">
        <ele>158</ele>
        <time>2009-01-15T14:58:57Z</time>
      </trkpt>
      <trkpt lat="44.73508" lon="0.75838">
        <ele>156</ele>
        <time>2009-01-15T14:59:01Z</time>
      </trkpt>
      <trkpt lat="44.7349" lon="0.75853">
        <ele>157</ele>
        <time>2009-01-15T14:59:05Z</time>
      </trkpt>
      <trkpt lat="44.73473" lon="0.7587">
        <ele>159</ele>
        <time>2009-01-15T14:59:09Z</time>
      </trkpt>
      <trkpt lat="44.73458" lon="0.75888">
        <ele>159</ele>
        <time>2009-01-15T14:59:13Z</time>
      </trkpt>
      <trkpt lat="44.73445" lon="0.75908">
        <ele>161</ele>
        <time>2009-01-15T14:59:17Z</time>
      </trkpt>
      <trkpt lat="44.73433" lon="0.7593">
        <ele>162</ele>
        <time>2009-01-15T14:59:21Z</time>
      </trkpt>
      <trkpt lat="44.73415" lon="0.75953">
        <ele>162</ele>
        <time>2009-01-15T14:59:25Z</time>
      </trkpt>
      <trkpt lat="44.734" lon="0.75975">
        <ele>163</ele>
        <time>2009-01-15T14:59:29Z</time>
      </trkpt>
      <trkpt lat="44.73388" lon="0.75995">
        <ele>162</ele>
        <time>2009-01-15T14:59:33Z</time>
      </trkpt>
      <trkpt lat="44.73388" lon="0.76025">
        <ele>160</ele>
        <time>2009-01-15T14:59:48Z</time>
      </trkpt>
      <trkpt lat="44.73403" lon="0.7605">
        <ele>163</ele>
        <time>2009-01-15T14:59:52Z</time>
      </trkpt>
      <trkpt lat="44.73413" lon="0.76073">
        <ele>165</ele>
        <time>2009-01-15T14:59:55Z</time>
      </trkpt>
      <trkpt lat="44.73423" lon="0.76095">
        <ele>164</ele>
        <time>2009-01-15T14:59:58Z</time>
      </trkpt>
      <trkpt lat="44.73435" lon="0.76118">
        <ele>164</ele>
        <time>2009-01-15T15:00:02Z</time>
      </trkpt>
      <trkpt lat="44.73448" lon="0.7614">
        <ele>162</ele>
        <time>2009-01-15T15:00:19Z</time>
      </trkpt>
      <trkpt lat="44.7346" lon="0.76165">
        <ele>161</ele>
        <time>2009-01-15T15:00:22Z</time>
      </trkpt>
      <trkpt lat="44.7347" lon="0.76188">
        <ele>161</ele>
        <time>2009-01-15T15:00:25Z</time>
      </trkpt>
      <trkpt lat="44.73483" lon="0.76213">
        <ele>162</ele>
        <time>2009-01-15T15:00:28Z</time>
      </trkpt>
      <trkpt lat="44.73495" lon="0.76233">
        <ele>164</ele>
        <time>2009-01-15T15:00:30Z</time>
      </trkpt>
      <trkpt lat="44.7351" lon="0.76263">
        <ele>167</ele>
        <time>2009-01-15T15:00:33Z</time>
      </trkpt>
      <trkpt lat="44.73523" lon="0.76285">
        <ele>169</ele>
        <time>2009-01-15T15:00:35Z</time>
      </trkpt>
      <trkpt lat="44.73538" lon="0.76313">
        <ele>172</ele>
        <time>2009-01-15T15:00:38Z</time>
      </trkpt>
      <trkpt lat="44.73553" lon="0.7634">
        <ele>174</ele>
        <time>2009-01-15T15:00:42Z</time>
      </trkpt>
      <trkpt lat="44.73565" lon="0.76365">
        <ele>175</ele>
        <time>2009-01-15T15:00:46Z</time>
      </trkpt>
      <trkpt lat="44.73575" lon="0.76388">
        <ele>175</ele>
        <time>2009-01-15T15:00:50Z</time>
      </trkpt>
      <trkpt lat="44.73588" lon="0.76413">
        <ele>173</ele>
        <time>2009-01-15T15:00:54Z</time>
      </trkpt>
      <trkpt lat="44.736" lon="0.76435">
        <ele>171</ele>
        <time>2009-01-15T15:00:58Z</time>
      </trkpt>
      <trkpt lat="44.73613" lon="0.7646">
        <ele>168</ele>
        <time>2009-01-15T15:01:02Z</time>
      </trkpt>
      <trkpt lat="44.73623" lon="0.76483">
        <ele>167</ele>
        <time>2009-01-15T15:01:05Z</time>
      </trkpt>
      <trkpt lat="44.73638" lon="0.76508">
        <ele>164</ele>
        <time>2009-01-15T15:01:08Z</time>
      </trkpt>
      <trkpt lat="44.73653" lon="0.76538">
        <ele>161</ele>
        <time>2009-01-15T15:01:11Z</time>
      </trkpt>
      <trkpt lat="44.73665" lon="0.76563">
        <ele>159</ele>
        <time>2009-01-15T15:01:14Z</time>
      </trkpt>
      <trkpt lat="44.73658" lon="0.76588">
        <ele>156</ele>
        <time>2009-01-15T15:01:33Z</time>
      </trkpt>
      <trkpt lat="44.73638" lon="0.76593">
        <ele>155</ele>
        <time>2009-01-15T15:01:38Z</time>
      </trkpt>
      <trkpt lat="44.73615" lon="0.766">
        <ele>156</ele>
        <time>2009-01-15T15:01:43Z</time>
      </trkpt>
      <trkpt lat="44.73595" lon="0.76603">
        <ele>155</ele>
        <time>2009-01-15T15:01:47Z</time>
      </trkpt>
      <trkpt lat="44.73575" lon="0.7661">
        <ele>155</ele>
        <time>2009-01-15T15:01:51Z</time>
      </trkpt>
      <trkpt lat="44.73553" lon="0.76615">
        <ele>155</ele>
        <time>2009-01-15T15:01:55Z</time>
      </trkpt>
      <trkpt lat="44.7353" lon="0.76623">
        <ele>155</ele>
        <time>2009-01-15T15:01:59Z</time>
      </trkpt>
      <trkpt lat="44.7351" lon="0.76628">
        <ele>155</ele>
        <time>2009-01-15T15:02:03Z</time>
      </trkpt>
      <trkpt lat="44.7349" lon="0.76635">
        <ele>156</ele>
        <time>2009-01-15T15:02:09Z</time>
      </trkpt>
      <trkpt lat="44.7347" lon="0.76648">
        <ele>156</ele>
        <time>2009-01-15T15:02:13Z</time>
      </trkpt>
      <trkpt lat="44.73453" lon="0.76655">
        <ele>157</ele>
        <time>2009-01-15T15:02:16Z</time>
      </trkpt>
      <trkpt lat="44.73435" lon="0.76665">
        <ele>157</ele>
        <time>2009-01-15T15:02:19Z</time>
      </trkpt>
      <trkpt lat="44.73415" lon="0.7667">
        <ele>158</ele>
        <time>2009-01-15T15:02:22Z</time>
      </trkpt>
      <trkpt lat="44.73398" lon="0.76678">
        <ele>158</ele>
        <time>2009-01-15T15:02:25Z</time>
      </trkpt>
      <trkpt lat="44.7338" lon="0.76685">
        <ele>158</ele>
        <time>2009-01-15T15:02:29Z</time>
      </trkpt>
      <trkpt lat="44.73363" lon="0.76693">
        <ele>160</ele>
        <time>2009-01-15T15:02:33Z</time>
      </trkpt>
      <trkpt lat="44.73345" lon="0.76685">
        <ele>163</ele>
        <time>2009-01-15T15:02:41Z</time>
      </trkpt>
      <trkpt lat="44.7333" lon="0.76665">
        <ele>164</ele>
        <time>2009-01-15T15:02:47Z</time>
      </trkpt>
      <trkpt lat="44.73318" lon="0.76645">
        <ele>165</ele>
        <time>2009-01-15T15:03:03Z</time>
      </trkpt>
      <trkpt lat="44.72933" lon="0.7669">
        <ele>164</ele>
        <time>2009-01-15T15:14:32Z</time>
      </trkpt>
      <trkpt lat="44.72913" lon="0.76688">
        <ele>160</ele>
        <time>2009-01-15T15:14:49Z</time>
      </trkpt>
      <trkpt lat="44.72893" lon="0.76688">
        <ele>162</ele>
        <time>2009-01-15T15:14:54Z</time>
      </trkpt>
      <trkpt lat="44.72873" lon="0.76688">
        <ele>162</ele>
        <time>2009-01-15T15:14:58Z</time>
      </trkpt>
      <trkpt lat="44.72853" lon="0.76688">
        <ele>161</ele>
        <time>2009-01-15T15:15:02Z</time>
      </trkpt>
      <trkpt lat="44.7283" lon="0.76688">
        <ele>160</ele>
        <time>2009-01-15T15:15:07Z</time>
      </trkpt>
      <trkpt lat="44.7281" lon="0.76688">
        <ele>160</ele>
        <time>2009-01-15T15:15:11Z</time>
      </trkpt>
      <trkpt lat="44.72788" lon="0.7669">
        <ele>161</ele>
        <time>2009-01-15T15:15:16Z</time>
      </trkpt>
      <trkpt lat="44.72765" lon="0.7669">
        <ele>159</ele>
        <time>2009-01-15T15:15:21Z</time>
      </trkpt>
      <trkpt lat="44.72745" lon="0.7669">
        <ele>159</ele>
        <time>2009-01-15T15:15:25Z</time>
      </trkpt>
      <trkpt lat="44.72723" lon="0.76688">
        <ele>160</ele>
        <time>2009-01-15T15:15:30Z</time>
      </trkpt>
      <trkpt lat="44.72703" lon="0.76688">
        <ele>162</ele>
        <time>2009-01-15T15:15:58Z</time>
      </trkpt>
      <trkpt lat="44.72688" lon="0.76663">
        <ele>157</ele>
        <time>2009-01-15T15:16:06Z</time>
      </trkpt>
      <trkpt lat="44.72675" lon="0.76638">
        <ele>154</ele>
        <time>2009-01-15T15:16:10Z</time>
      </trkpt>
      <trkpt lat="44.72663" lon="0.76618">
        <ele>153</ele>
        <time>2009-01-15T15:16:13Z</time>
      </trkpt>
      <trkpt lat="44.7265" lon="0.76593">
        <ele>153</ele>
        <time>2009-01-15T15:16:18Z</time>
      </trkpt>
      <trkpt lat="44.72638" lon="0.7657">
        <ele>152</ele>
        <time>2009-01-15T15:16:24Z</time>
      </trkpt>
    </trkseg>
  </trk>
  <trk>
    <name><![CDATA[BBmt54]]></name>
    <trkseg>
      <trkpt lat="44.80978" lon="0.825">
        <ele>139</ele>
        <time>2009-01-15T10:21:09Z</time>
      </trkpt>
      <trkpt lat="44.8096" lon="0.82488">
        <ele>145</ele>
        <time>2009-01-15T10:21:19Z</time>
      </trkpt>
      <trkpt lat="44.80943" lon="0.82473">
        <ele>146</ele>
        <time>2009-01-15T10:21:24Z</time>
      </trkpt>
      <trkpt lat="44.80925" lon="0.8246">
        <ele>147</ele>
        <time>2009-01-15T10:21:28Z</time>
      </trkpt>
      <trkpt lat="44.80905" lon="0.82445">
        <ele>151</ele>
        <time>2009-01-15T10:21:35Z</time>
      </trkpt>
      <trkpt lat="44.80888" lon="0.82433">
        <ele>153</ele>
        <time>2009-01-15T10:21:49Z</time>
      </trkpt>
      <trkpt lat="44.8087" lon="0.82418">
        <ele>154</ele>
        <time>2009-01-15T10:21:53Z</time>
      </trkpt>
      <trkpt lat="44.80855" lon="0.82403">
        <ele>157</ele>
        <time>2009-01-15T10:21:57Z</time>
      </trkpt>
      <trkpt lat="44.80838" lon="0.82395">
        <ele>157</ele>
        <time>2009-01-15T10:22:09Z</time>
      </trkpt>
      <trkpt lat="44.80823" lon="0.82418">
        <ele>157</ele>
        <time>2009-01-15T10:22:17Z</time>
      </trkpt>
      <trkpt lat="44.80813" lon="0.8244">
        <ele>155</ele>
        <time>2009-01-15T10:22:31Z</time>
      </trkpt>
      <trkpt lat="44.808" lon="0.82463">
        <ele>156</ele>
        <time>2009-01-15T10:22:36Z</time>
      </trkpt>
      <trkpt lat="44.8079" lon="0.82485">
        <ele>158</ele>
        <time>2009-01-15T10:22:40Z</time>
      </trkpt>
      <trkpt lat="44.8078" lon="0.82508">
        <ele>158</ele>
        <time>2009-01-15T10:22:44Z</time>
      </trkpt>
      <trkpt lat="44.80763" lon="0.82518">
        <ele>151</ele>
        <time>2009-01-15T10:23:37Z</time>
      </trkpt>
      <trkpt lat="44.80745" lon="0.82505">
        <ele>154</ele>
        <time>2009-01-15T10:24:31Z</time>
      </trkpt>
      <trkpt lat="44.8073" lon="0.8249">
        <ele>153</ele>
        <time>2009-01-15T10:24:47Z</time>
      </trkpt>
      <trkpt lat="44.80713" lon="0.82475">
        <ele>150</ele>
        <time>2009-01-15T10:25:06Z</time>
      </trkpt>
      <trkpt lat="44.80698" lon="0.8246">
        <ele>150</ele>
        <time>2009-01-15T10:25:25Z</time>
      </trkpt>
      <trkpt lat="44.80685" lon="0.8244">
        <ele>151</ele>
        <time>2009-01-15T10:25:41Z</time>
      </trkpt>
      <trkpt lat="44.80665" lon="0.82438">
        <ele>152</ele>
        <time>2009-01-15T10:25:56Z</time>
      </trkpt>
      <trkpt lat="44.8065" lon="0.82453">
        <ele>154</ele>
        <time>2009-01-15T10:26:10Z</time>
      </trkpt>
      <trkpt lat="44.80633" lon="0.82478">
        <ele>160</ele>
        <time>2009-01-15T10:30:53Z</time>
      </trkpt>
      <trkpt lat="44.80613" lon="0.82483">
        <ele>162</ele>
        <time>2009-01-15T10:31:41Z</time>
      </trkpt>
      <trkpt lat="44.80595" lon="0.82495">
        <ele>162</ele>
        <time>2009-01-15T10:31:48Z</time>
      </trkpt>
      <trkpt lat="44.80575" lon="0.82505">
        <ele>165</ele>
        <time>2009-01-15T10:31:53Z</time>
      </trkpt>
      <trkpt lat="44.80555" lon="0.82513">
        <ele>165</ele>
        <time>2009-01-15T10:31:57Z</time>
      </trkpt>
      <trkpt lat="44.80538" lon="0.8252">
        <ele>166</ele>
        <time>2009-01-15T10:32:01Z</time>
      </trkpt>
      <trkpt lat="44.80518" lon="0.82523">
        <ele>167</ele>
        <time>2009-01-15T10:32:05Z</time>
      </trkpt>
      <trkpt lat="44.80498" lon="0.82535">
        <ele>170</ele>
        <time>2009-01-15T10:32:10Z</time>
      </trkpt>
      <trkpt lat="44.80483" lon="0.8255">
        <ele>172</ele>
        <time>2009-01-15T10:32:14Z</time>
      </trkpt>
      <trkpt lat="44.80465" lon="0.82558">
        <ele>174</ele>
        <time>2009-01-15T10:32:18Z</time>
      </trkpt>
      <trkpt lat="44.80443" lon="0.8255">
        <ele>177</ele>
        <time>2009-01-15T10:32:22Z</time>
      </trkpt>
      <trkpt lat="44.80423" lon="0.82553">
        <ele>179</ele>
        <time>2009-01-15T10:32:25Z</time>
      </trkpt>
      <trkpt lat="44.80405" lon="0.8256">
        <ele>182</ele>
        <time>2009-01-15T10:32:28Z</time>
      </trkpt>
      <trkpt lat="44.80385" lon="0.82565">
        <ele>184</ele>
        <time>2009-01-15T10:32:31Z</time>
      </trkpt>
      <trkpt lat="44.80363" lon="0.82565">
        <ele>189</ele>
        <time>2009-01-15T10:32:35Z</time>
      </trkpt>
      <trkpt lat="44.8034" lon="0.82568">
        <ele>192</ele>
        <time>2009-01-15T10:32:40Z</time>
      </trkpt>
      <trkpt lat="44.8032" lon="0.8258">
        <ele>194</ele>
        <time>2009-01-15T10:32:57Z</time>
      </trkpt>
      <trkpt lat="44.80308" lon="0.8261">
        <ele>194</ele>
        <time>2009-01-15T10:33:00Z</time>
      </trkpt>
      <trkpt lat="44.80298" lon="0.82635">
        <ele>193</ele>
        <time>2009-01-15T10:33:02Z</time>
      </trkpt>
      <trkpt lat="44.8029" lon="0.82665">
        <ele>194</ele>
        <time>2009-01-15T10:33:04Z</time>
      </trkpt>
      <trkpt lat="44.80283" lon="0.82695">
        <ele>196</ele>
        <time>2009-01-15T10:33:06Z</time>
      </trkpt>
      <trkpt lat="44.80278" lon="0.82725">
        <ele>196</ele>
        <time>2009-01-15T10:33:08Z</time>
      </trkpt>
      <trkpt lat="44.80273" lon="0.82765">
        <ele>198</ele>
        <time>2009-01-15T10:33:11Z</time>
      </trkpt>
      <trkpt lat="44.80273" lon="0.82793">
        <ele>202</ele>
        <time>2009-01-15T10:33:35Z</time>
      </trkpt>
      <trkpt lat="44.80268" lon="0.82825">
        <ele>202</ele>
        <time>2009-01-15T10:33:40Z</time>
      </trkpt>
      <trkpt lat="44.80265" lon="0.82855">
        <ele>203</ele>
        <time>2009-01-15T10:33:43Z</time>
      </trkpt>
      <trkpt lat="44.80268" lon="0.8289">
        <ele>203</ele>
        <time>2009-01-15T10:33:46Z</time>
      </trkpt>
      <trkpt lat="44.8027" lon="0.82918">
        <ele>203</ele>
        <time>2009-01-15T10:33:48Z</time>
      </trkpt>
      <trkpt lat="44.80278" lon="0.82953">
        <ele>204</ele>
        <time>2009-01-15T10:33:51Z</time>
      </trkpt>
      <trkpt lat="44.80285" lon="0.82983">
        <ele>204</ele>
        <time>2009-01-15T10:33:54Z</time>
      </trkpt>
      <trkpt lat="44.80275" lon="0.83005">
        <ele>205</ele>
        <time>2009-01-15T10:34:07Z</time>
      </trkpt>
      <trkpt lat="44.8025" lon="0.83005">
        <ele>203</ele>
        <time>2009-01-15T10:34:11Z</time>
      </trkpt>
      <trkpt lat="44.80225" lon="0.83013">
        <ele>199</ele>
        <time>2009-01-15T10:34:14Z</time>
      </trkpt>
      <trkpt lat="44.80203" lon="0.8303">
        <ele>196</ele>
        <time>2009-01-15T10:34:17Z</time>
      </trkpt>
      <trkpt lat="44.8018" lon="0.8305">
        <ele>192</ele>
        <time>2009-01-15T10:34:20Z</time>
      </trkpt>
      <trkpt lat="44.80163" lon="0.83063">
        <ele>190</ele>
        <time>2009-01-15T10:34:22Z</time>
      </trkpt>
      <trkpt lat="44.80143" lon="0.83073">
        <ele>186</ele>
        <time>2009-01-15T10:34:24Z</time>
      </trkpt>
      <trkpt lat="44.80118" lon="0.83078">
        <ele>183</ele>
        <time>2009-01-15T10:34:26Z</time>
      </trkpt>
      <trkpt lat="44.80095" lon="0.83083">
        <ele>181</ele>
        <time>2009-01-15T10:34:43Z</time>
      </trkpt>
      <trkpt lat="44.80078" lon="0.8309">
        <ele>179</ele>
        <time>2009-01-15T10:34:46Z</time>
      </trkpt>
      <trkpt lat="44.80055" lon="0.831">
        <ele>178</ele>
        <time>2009-01-15T10:34:49Z</time>
      </trkpt>
      <trkpt lat="44.80038" lon="0.83108">
        <ele>177</ele>
        <time>2009-01-15T10:34:51Z</time>
      </trkpt>
      <trkpt lat="44.80015" lon="0.83113">
        <ele>175</ele>
        <time>2009-01-15T10:34:53Z</time>
      </trkpt>
      <trkpt lat="44.7999" lon="0.83115">
        <ele>176</ele>
        <time>2009-01-15T10:35:04Z</time>
      </trkpt>
      <trkpt lat="44.7997" lon="0.83123">
        <ele>175</ele>
        <time>2009-01-15T10:35:07Z</time>
      </trkpt>
      <trkpt lat="44.79948" lon="0.83133">
        <ele>172</ele>
        <time>2009-01-15T10:35:10Z</time>
      </trkpt>
      <trkpt lat="44.79928" lon="0.83153">
        <ele>172</ele>
        <time>2009-01-15T10:35:13Z</time>
      </trkpt>
      <trkpt lat="44.7991" lon="0.8318">
        <ele>170</ele>
        <time>2009-01-15T10:35:16Z</time>
      </trkpt>
      <trkpt lat="44.79895" lon="0.83205">
        <ele>169</ele>
        <time>2009-01-15T10:35:19Z</time>
      </trkpt>
      <trkpt lat="44.79873" lon="0.8322">
        <ele>167</ele>
        <time>2009-01-15T10:35:22Z</time>
      </trkpt>
      <trkpt lat="44.7985" lon="0.83235">
        <ele>165</ele>
        <time>2009-01-15T10:35:25Z</time>
      </trkpt>
      <trkpt lat="44.79828" lon="0.83248">
        <ele>164</ele>
        <time>2009-01-15T10:35:27Z</time>
      </trkpt>
      <trkpt lat="44.79805" lon="0.8326">
        <ele>163</ele>
        <time>2009-01-15T10:35:31Z</time>
      </trkpt>
      <trkpt lat="44.7978" lon="0.83268">
        <ele>156</ele>
        <time>2009-01-15T10:35:34Z</time>
      </trkpt>
      <trkpt lat="44.7976" lon="0.83273">
        <ele>153</ele>
        <time>2009-01-15T10:35:36Z</time>
      </trkpt>
      <trkpt lat="44.79735" lon="0.83275">
        <ele>151</ele>
        <time>2009-01-15T10:35:39Z</time>
      </trkpt>
      <trkpt lat="44.79718" lon="0.83285">
        <ele>154</ele>
        <time>2009-01-15T10:35:48Z</time>
      </trkpt>
      <trkpt lat="44.79698" lon="0.83285">
        <ele>153</ele>
        <time>2009-01-15T10:35:59Z</time>
      </trkpt>
      <trkpt lat="44.79675" lon="0.83288">
        <ele>150</ele>
        <time>2009-01-15T10:36:07Z</time>
      </trkpt>
      <trkpt lat="44.79658" lon="0.83278">
        <ele>147</ele>
        <time>2009-01-15T10:36:13Z</time>
      </trkpt>
      <trkpt lat="44.7964" lon="0.83265">
        <ele>148</ele>
        <time>2009-01-15T10:36:20Z</time>
      </trkpt>
      <trkpt lat="44.79623" lon="0.83255">
        <ele>153</ele>
        <time>2009-01-15T10:36:28Z</time>
      </trkpt>
      <trkpt lat="44.79605" lon="0.83245">
        <ele>153</ele>
        <time>2009-01-15T10:36:34Z</time>
      </trkpt>
      <trkpt lat="44.79588" lon="0.83238">
        <ele>153</ele>
        <time>2009-01-15T10:36:40Z</time>
      </trkpt>
      <trkpt lat="44.7957" lon="0.8323">
        <ele>152</ele>
        <time>2009-01-15T10:36:46Z</time>
      </trkpt>
      <trkpt lat="44.7955" lon="0.83228">
        <ele>150</ele>
        <time>2009-01-15T10:36:51Z</time>
      </trkpt>
      <trkpt lat="44.79528" lon="0.8323">
        <ele>146</ele>
        <time>2009-01-15T10:36:59Z</time>
      </trkpt>
      <trkpt lat="44.79508" lon="0.83233">
        <ele>144</ele>
        <time>2009-01-15T10:37:06Z</time>
      </trkpt>
      <trkpt lat="44.79485" lon="0.83235">
        <ele>140</ele>
        <time>2009-01-15T10:37:11Z</time>
      </trkpt>
      <trkpt lat="44.79465" lon="0.8324">
        <ele>134</ele>
        <time>2009-01-15T10:37:16Z</time>
      </trkpt>
      <trkpt lat="44.79445" lon="0.83243">
        <ele>137</ele>
        <time>2009-01-15T10:37:24Z</time>
      </trkpt>
      <trkpt lat="44.79425" lon="0.83243">
        <ele>136</ele>
        <time>2009-01-15T10:37:30Z</time>
      </trkpt>
      <trkpt lat="44.79405" lon="0.83248">
        <ele>135</ele>
        <time>2009-01-15T10:37:37Z</time>
      </trkpt>
      <trkpt lat="44.79383" lon="0.83253">
        <ele>132</ele>
        <time>2009-01-15T10:37:44Z</time>
      </trkpt>
      <trkpt lat="44.79365" lon="0.83268">
        <ele>127</ele>
        <time>2009-01-15T10:37:50Z</time>
      </trkpt>
      <trkpt lat="44.7935" lon="0.83285">
        <ele>132</ele>
        <time>2009-01-15T10:37:57Z</time>
      </trkpt>
      <trkpt lat="44.7933" lon="0.83293">
        <ele>133</ele>
        <time>2009-01-15T10:38:02Z</time>
      </trkpt>
      <trkpt lat="44.7931" lon="0.833">
        <ele>131</ele>
        <time>2009-01-15T10:38:09Z</time>
      </trkpt>
      <trkpt lat="44.79295" lon="0.83315">
        <ele>129</ele>
        <time>2009-01-15T10:38:14Z</time>
      </trkpt>
      <trkpt lat="44.79273" lon="0.83318">
        <ele>133</ele>
        <time>2009-01-15T10:38:20Z</time>
      </trkpt>
      <trkpt lat="44.79253" lon="0.83318">
        <ele>134</ele>
        <time>2009-01-15T10:38:25Z</time>
      </trkpt>
      <trkpt lat="44.79233" lon="0.83323">
        <ele>136</ele>
        <time>2009-01-15T10:38:29Z</time>
      </trkpt>
      <trkpt lat="44.79213" lon="0.8333">
        <ele>136</ele>
        <time>2009-01-15T10:38:34Z</time>
      </trkpt>
      <trkpt lat="44.79195" lon="0.8334">
        <ele>132</ele>
        <time>2009-01-15T10:38:38Z</time>
      </trkpt>
      <trkpt lat="44.7921" lon="0.8335">
        <ele>134</ele>
        <time>2009-01-15T10:39:29Z</time>
      </trkpt>
      <trkpt lat="44.7919" lon="0.83348">
        <ele>147</ele>
        <time>2009-01-15T10:42:15Z</time>
      </trkpt>
      <trkpt lat="44.79173" lon="0.83358">
        <ele>141</ele>
        <time>2009-01-15T10:42:20Z</time>
      </trkpt>
      <trkpt lat="44.79158" lon="0.83375">
        <ele>133</ele>
        <time>2009-01-15T10:42:25Z</time>
      </trkpt>
      <trkpt lat="44.79138" lon="0.83373">
        <ele>136</ele>
        <time>2009-01-15T10:42:32Z</time>
      </trkpt>
      <trkpt lat="44.79123" lon="0.83355">
        <ele>135</ele>
        <time>2009-01-15T10:42:37Z</time>
      </trkpt>
      <trkpt lat="44.791" lon="0.83353">
        <ele>141</ele>
        <time>2009-01-15T10:42:42Z</time>
      </trkpt>
      <trkpt lat="44.7908" lon="0.83353">
        <ele>146</ele>
        <time>2009-01-15T10:42:47Z</time>
      </trkpt>
      <trkpt lat="44.79063" lon="0.8336">
        <ele>147</ele>
        <time>2009-01-15T10:42:51Z</time>
      </trkpt>
      <trkpt lat="44.7904" lon="0.83355">
        <ele>150</ele>
        <time>2009-01-15T10:42:56Z</time>
      </trkpt>
      <trkpt lat="44.79018" lon="0.8335">
        <ele>155</ele>
        <time>2009-01-15T10:43:01Z</time>
      </trkpt>
      <trkpt lat="44.79" lon="0.83343">
        <ele>157</ele>
        <time>2009-01-15T10:43:06Z</time>
      </trkpt>
      <trkpt lat="44.78995" lon="0.83313">
        <ele>165</ele>
        <time>2009-01-15T10:43:53Z</time>
      </trkpt>
      <trkpt lat="44.78998" lon="0.83283">
        <ele>160</ele>
        <time>2009-01-15T10:43:58Z</time>
      </trkpt>
      <trkpt lat="44.79008" lon="0.8326">
        <ele>160</ele>
        <time>2009-01-15T10:44:03Z</time>
      </trkpt>
      <trkpt lat="44.7902" lon="0.83235">
        <ele>163</ele>
        <time>2009-01-15T10:44:10Z</time>
      </trkpt>
      <trkpt lat="44.79023" lon="0.83208">
        <ele>161</ele>
        <time>2009-01-15T10:44:16Z</time>
      </trkpt>
      <trkpt lat="44.79018" lon="0.83183">
        <ele>162</ele>
        <time>2009-01-15T10:44:21Z</time>
      </trkpt>
      <trkpt lat="44.79013" lon="0.83155">
        <ele>143</ele>
        <time>2009-01-15T10:44:50Z</time>
      </trkpt>
      <trkpt lat="44.79005" lon="0.8313">
        <ele>142</ele>
        <time>2009-01-15T10:44:53Z</time>
      </trkpt>
      <trkpt lat="44.79" lon="0.83105">
        <ele>139</ele>
        <time>2009-01-15T10:44:57Z</time>
      </trkpt>
      <trkpt lat="44.78998" lon="0.83078">
        <ele>142</ele>
        <time>2009-01-15T10:45:02Z</time>
      </trkpt>
      <trkpt lat="44.79013" lon="0.8306">
        <ele>150</ele>
        <time>2009-01-15T10:45:54Z</time>
      </trkpt>
      <trkpt lat="44.79028" lon="0.8304">
        <ele>153</ele>
        <time>2009-01-15T10:46:09Z</time>
      </trkpt>
      <trkpt lat="44.79033" lon="0.83015">
        <ele>151</ele>
        <time>2009-01-15T10:46:15Z</time>
      </trkpt>
      <trkpt lat="44.79035" lon="0.82988">
        <ele>150</ele>
        <time>2009-01-15T10:46:19Z</time>
      </trkpt>
      <trkpt lat="44.79038" lon="0.82955">
        <ele>150</ele>
        <time>2009-01-15T10:46:23Z</time>
      </trkpt>
      <trkpt lat="44.7904" lon="0.82925">
        <ele>151</ele>
        <time>2009-01-15T10:46:28Z</time>
      </trkpt>
      <trkpt lat="44.7904" lon="0.82915">
        <ele>145</ele>
        <time>2008-12-18T14:55:27Z</time>
      </trkpt>
      <trkpt lat="44.79045" lon="0.82888">
        <ele>152</ele>
        <time>2008-12-18T14:58:35Z</time>
      </trkpt>
      <trkpt lat="44.79045" lon="0.8286">
        <ele>149</ele>
        <time>2008-12-18T14:58:40Z</time>
      </trkpt>
      <trkpt lat="44.79038" lon="0.82835">
        <ele>150</ele>
        <time>2008-12-18T14:58:45Z</time>
      </trkpt>
      <trkpt lat="44.79025" lon="0.82813">
        <ele>153</ele>
        <time>2008-12-18T14:58:49Z</time>
      </trkpt>
      <trkpt lat="44.7901" lon="0.8279">
        <ele>152</ele>
        <time>2008-12-18T14:58:54Z</time>
      </trkpt>
      <trkpt lat="44.78993" lon="0.8277">
        <ele>152</ele>
        <time>2008-12-18T14:58:59Z</time>
      </trkpt>
      <trkpt lat="44.78975" lon="0.8276">
        <ele>150</ele>
        <time>2008-12-18T14:59:03Z</time>
      </trkpt>
      <trkpt lat="44.78955" lon="0.8275">
        <ele>150</ele>
        <time>2008-12-18T14:59:09Z</time>
      </trkpt>
      <trkpt lat="44.78938" lon="0.8274">
        <ele>150</ele>
        <time>2008-12-18T14:59:14Z</time>
      </trkpt>
      <trkpt lat="44.7892" lon="0.82728">
        <ele>152</ele>
        <time>2008-12-18T14:59:18Z</time>
      </trkpt>
      <trkpt lat="44.78903" lon="0.82713">
        <ele>155</ele>
        <time>2008-12-18T14:59:23Z</time>
      </trkpt>
      <trkpt lat="44.78885" lon="0.82705">
        <ele>156</ele>
        <time>2008-12-18T14:59:27Z</time>
      </trkpt>
      <trkpt lat="44.7887" lon="0.8269">
        <ele>155</ele>
        <time>2008-12-18T14:59:31Z</time>
      </trkpt>
      <trkpt lat="44.7886" lon="0.82668">
        <ele>162</ele>
        <time>2008-12-18T14:59:56Z</time>
      </trkpt>
      <trkpt lat="44.78845" lon="0.82653">
        <ele>156</ele>
        <time>2008-12-18T15:00:02Z</time>
      </trkpt>
      <trkpt lat="44.78828" lon="0.82643">
        <ele>153</ele>
        <time>2008-12-18T15:00:06Z</time>
      </trkpt>
      <trkpt lat="44.7881" lon="0.82635">
        <ele>150</ele>
        <time>2008-12-18T15:00:11Z</time>
      </trkpt>
      <trkpt lat="44.7879" lon="0.8263">
        <ele>147</ele>
        <time>2008-12-18T15:00:17Z</time>
      </trkpt>
      <trkpt lat="44.7877" lon="0.82623">
        <ele>146</ele>
        <time>2008-12-18T15:00:22Z</time>
      </trkpt>
      <trkpt lat="44.78753" lon="0.82605">
        <ele>151</ele>
        <time>2008-12-18T15:00:29Z</time>
      </trkpt>
      <trkpt lat="44.78748" lon="0.8258">
        <ele>155</ele>
        <time>2008-12-18T15:00:49Z</time>
      </trkpt>
      <trkpt lat="44.78743" lon="0.82555">
        <ele>153</ele>
        <time>2008-12-18T15:01:31Z</time>
      </trkpt>
      <trkpt lat="44.78738" lon="0.82508">
        <ele>158</ele>
        <time>2008-12-18T15:02:30Z</time>
      </trkpt>
      <trkpt lat="44.78723" lon="0.8249">
        <ele>151</ele>
        <time>2008-12-18T15:02:48Z</time>
      </trkpt>
      <trkpt lat="44.78708" lon="0.82475">
        <ele>158</ele>
        <time>2008-12-18T15:03:28Z</time>
      </trkpt>
      <trkpt lat="44.78695" lon="0.82455">
        <ele>158</ele>
        <time>2008-12-18T15:03:40Z</time>
      </trkpt>
      <trkpt lat="44.78683" lon="0.82435">
        <ele>156</ele>
        <time>2008-12-18T15:03:44Z</time>
      </trkpt>
      <trkpt lat="44.78665" lon="0.82415">
        <ele>152</ele>
        <time>2008-12-18T15:03:50Z</time>
      </trkpt>
      <trkpt lat="44.7865" lon="0.82398">
        <ele>152</ele>
        <time>2008-12-18T15:03:57Z</time>
      </trkpt>
      <trkpt lat="44.78633" lon="0.82385">
        <ele>162</ele>
        <time>2008-12-18T15:04:09Z</time>
      </trkpt>
      <trkpt lat="44.78618" lon="0.82368">
        <ele>154</ele>
        <time>2008-12-18T15:04:29Z</time>
      </trkpt>
      <trkpt lat="44.786" lon="0.8235">
        <ele>152</ele>
        <time>2008-12-18T15:04:33Z</time>
      </trkpt>
      <trkpt lat="44.78593" lon="0.82323">
        <ele>153</ele>
        <time>2008-12-18T15:04:37Z</time>
      </trkpt>
      <trkpt lat="44.78593" lon="0.82295">
        <ele>154</ele>
        <time>2008-12-18T15:04:41Z</time>
      </trkpt>
      <trkpt lat="44.78595" lon="0.82265">
        <ele>155</ele>
        <time>2008-12-18T15:04:47Z</time>
      </trkpt>
      <trkpt lat="44.78578" lon="0.82258">
        <ele>158</ele>
        <time>2008-12-18T15:05:07Z</time>
      </trkpt>
      <trkpt lat="44.7856" lon="0.82273">
        <ele>159</ele>
        <time>2008-12-18T15:05:13Z</time>
      </trkpt>
      <trkpt lat="44.78543" lon="0.82288">
        <ele>159</ele>
        <time>2008-12-18T15:05:18Z</time>
      </trkpt>
      <trkpt lat="44.78525" lon="0.823">
        <ele>159</ele>
        <time>2008-12-18T15:05:24Z</time>
      </trkpt>
      <trkpt lat="44.78508" lon="0.8231">
        <ele>158</ele>
        <time>2008-12-18T15:05:29Z</time>
      </trkpt>
      <trkpt lat="44.7849" lon="0.8232">
        <ele>158</ele>
        <time>2008-12-18T15:05:34Z</time>
      </trkpt>
      <trkpt lat="44.7847" lon="0.8233">
        <ele>158</ele>
        <time>2008-12-18T15:05:40Z</time>
      </trkpt>
      <trkpt lat="44.7845" lon="0.82333">
        <ele>158</ele>
        <time>2008-12-18T15:05:46Z</time>
      </trkpt>
      <trkpt lat="44.7843" lon="0.8233">
        <ele>158</ele>
        <time>2008-12-18T15:05:53Z</time>
      </trkpt>
      <trkpt lat="44.7841" lon="0.82325">
        <ele>159</ele>
        <time>2008-12-18T15:06:03Z</time>
      </trkpt>
      <trkpt lat="44.78393" lon="0.82315">
        <ele>159</ele>
        <time>2008-12-18T15:06:11Z</time>
      </trkpt>
      <trkpt lat="44.78373" lon="0.8231">
        <ele>158</ele>
        <time>2008-12-18T15:06:20Z</time>
      </trkpt>
      <trkpt lat="44.78355" lon="0.823">
        <ele>160</ele>
        <time>2008-12-18T15:06:26Z</time>
      </trkpt>
      <trkpt lat="44.78338" lon="0.82285">
        <ele>160</ele>
        <time>2008-12-18T15:06:36Z</time>
      </trkpt>
      <trkpt lat="44.7832" lon="0.8227">
        <ele>160</ele>
        <time>2008-12-18T15:06:48Z</time>
      </trkpt>
      <trkpt lat="44.78305" lon="0.82255">
        <ele>160</ele>
        <time>2008-12-18T15:06:52Z</time>
      </trkpt>
      <trkpt lat="44.78288" lon="0.82245">
        <ele>159</ele>
        <time>2008-12-18T15:06:59Z</time>
      </trkpt>
      <trkpt lat="44.7827" lon="0.82233">
        <ele>158</ele>
        <time>2008-12-18T15:07:04Z</time>
      </trkpt>
      <trkpt lat="44.78253" lon="0.8222">
        <ele>159</ele>
        <time>2008-12-18T15:07:09Z</time>
      </trkpt>
      <trkpt lat="44.78235" lon="0.8221">
        <ele>159</ele>
        <time>2008-12-18T15:07:57Z</time>
      </trkpt>
      <trkpt lat="44.7823" lon="0.8218">
        <ele>160</ele>
        <time>2008-12-18T15:08:08Z</time>
      </trkpt>
      <trkpt lat="44.7823" lon="0.8215">
        <ele>160</ele>
        <time>2008-12-18T15:08:11Z</time>
      </trkpt>
      <trkpt lat="44.78233" lon="0.82115">
        <ele>160</ele>
        <time>2008-12-18T15:08:14Z</time>
      </trkpt>
      <trkpt lat="44.7824" lon="0.8208">
        <ele>161</ele>
        <time>2008-12-18T15:08:17Z</time>
      </trkpt>
      <trkpt lat="44.78245" lon="0.82055">
        <ele>162</ele>
        <time>2008-12-18T15:08:19Z</time>
      </trkpt>
      <trkpt lat="44.78253" lon="0.8202">
        <ele>164</ele>
        <time>2008-12-18T15:08:22Z</time>
      </trkpt>
      <trkpt lat="44.78253" lon="0.81985">
        <ele>164</ele>
        <time>2008-12-18T15:08:25Z</time>
      </trkpt>
      <trkpt lat="44.7825" lon="0.81948">
        <ele>163</ele>
        <time>2008-12-18T15:08:28Z</time>
      </trkpt>
      <trkpt lat="44.78245" lon="0.8192">
        <ele>162</ele>
        <time>2008-12-18T15:08:30Z</time>
      </trkpt>
      <trkpt lat="44.7824" lon="0.81893">
        <ele>162</ele>
        <time>2008-12-18T15:08:32Z</time>
      </trkpt>
      <trkpt lat="44.78235" lon="0.81865">
        <ele>161</ele>
        <time>2008-12-18T15:08:34Z</time>
      </trkpt>
      <trkpt lat="44.7823" lon="0.81828">
        <ele>162</ele>
        <time>2008-12-18T15:08:37Z</time>
      </trkpt>
      <trkpt lat="44.7823" lon="0.818">
        <ele>163</ele>
        <time>2008-12-18T15:08:39Z</time>
      </trkpt>
      <trkpt lat="44.7823" lon="0.8177">
        <ele>164</ele>
        <time>2008-12-18T15:08:41Z</time>
      </trkpt>
      <trkpt lat="44.78228" lon="0.81735">
        <ele>165</ele>
        <time>2008-12-18T15:08:44Z</time>
      </trkpt>
      <trkpt lat="44.78213" lon="0.81715">
        <ele>168</ele>
        <time>2008-12-18T15:08:57Z</time>
      </trkpt>
      <trkpt lat="44.78195" lon="0.81723">
        <ele>169</ele>
        <time>2008-12-18T15:09:13Z</time>
      </trkpt>
      <trkpt lat="44.78173" lon="0.81725">
        <ele>167</ele>
        <time>2008-12-18T15:14:49Z</time>
      </trkpt>
      <trkpt lat="44.7815" lon="0.8173">
        <ele>167</ele>
        <time>2008-12-18T15:14:53Z</time>
      </trkpt>
      <trkpt lat="44.7813" lon="0.81735">
        <ele>167</ele>
        <time>2008-12-18T15:14:56Z</time>
      </trkpt>
      <trkpt lat="44.7811" lon="0.8174">
        <ele>167</ele>
        <time>2008-12-18T15:14:59Z</time>
      </trkpt>
      <trkpt lat="44.78088" lon="0.81748">
        <ele>167</ele>
        <time>2008-12-18T15:15:02Z</time>
      </trkpt>
      <trkpt lat="44.78065" lon="0.8175">
        <ele>167</ele>
        <time>2008-12-18T15:15:05Z</time>
      </trkpt>
      <trkpt lat="44.78043" lon="0.8175">
        <ele>166</ele>
        <time>2008-12-18T15:15:08Z</time>
      </trkpt>
      <trkpt lat="44.7802" lon="0.81748">
        <ele>166</ele>
        <time>2008-12-18T15:15:11Z</time>
      </trkpt>
      <trkpt lat="44.77995" lon="0.81743">
        <ele>165</ele>
        <time>2008-12-18T15:15:14Z</time>
      </trkpt>
      <trkpt lat="44.77973" lon="0.8174">
        <ele>165</ele>
        <time>2008-12-18T15:15:17Z</time>
      </trkpt>
      <trkpt lat="44.7795" lon="0.81738">
        <ele>164</ele>
        <time>2008-12-18T15:15:20Z</time>
      </trkpt>
      <trkpt lat="44.7793" lon="0.81733">
        <ele>164</ele>
        <time>2008-12-18T15:15:23Z</time>
      </trkpt>
      <trkpt lat="44.7791" lon="0.81725">
        <ele>164</ele>
        <time>2008-12-18T15:15:26Z</time>
      </trkpt>
      <trkpt lat="44.7789" lon="0.81713">
        <ele>163</ele>
        <time>2008-12-18T15:15:29Z</time>
      </trkpt>
      <trkpt lat="44.7787" lon="0.817">
        <ele>161</ele>
        <time>2008-12-18T15:15:32Z</time>
      </trkpt>
      <trkpt lat="44.77853" lon="0.8168">
        <ele>159</ele>
        <time>2008-12-18T15:15:35Z</time>
      </trkpt>
      <trkpt lat="44.77835" lon="0.81658">
        <ele>158</ele>
        <time>2008-12-18T15:15:38Z</time>
      </trkpt>
      <trkpt lat="44.77818" lon="0.81635">
        <ele>155</ele>
        <time>2008-12-18T15:15:41Z</time>
      </trkpt>
      <trkpt lat="44.77803" lon="0.81615">
        <ele>153</ele>
        <time>2008-12-18T15:15:44Z</time>
      </trkpt>
    </trkseg>
  </trk>
  <trk>
    <name><![CDATA[BBmt55]]></name>
    <trkseg>
      <trkpt lat="44.77031" lon="0.82635">
        <ele>100</ele>
        <time>2009-01-19T10:56:43Z</time>
      </trkpt>
      <trkpt lat="44.7666" lon="0.82833">
        <ele>159</ele>
        <time>2009-01-19T10:56:58Z</time>
      </trkpt>
      <trkpt lat="44.76648" lon="0.82813">
        <ele>165</ele>
        <time>2009-01-19T10:57:04Z</time>
      </trkpt>
      <trkpt lat="44.7663" lon="0.82823">
        <ele>166</ele>
        <time>2009-01-19T10:58:00Z</time>
      </trkpt>
      <trkpt lat="44.76615" lon="0.8284">
        <ele>167</ele>
        <time>2009-01-19T10:58:03Z</time>
      </trkpt>
      <trkpt lat="44.76598" lon="0.82858">
        <ele>167</ele>
        <time>2009-01-19T10:58:06Z</time>
      </trkpt>
      <trkpt lat="44.76578" lon="0.82878">
        <ele>169</ele>
        <time>2009-01-19T10:58:08Z</time>
      </trkpt>
      <trkpt lat="44.76555" lon="0.82893">
        <ele>170</ele>
        <time>2009-01-19T10:58:11Z</time>
      </trkpt>
      <trkpt lat="44.76535" lon="0.82908">
        <ele>172</ele>
        <time>2009-01-19T10:58:14Z</time>
      </trkpt>
      <trkpt lat="44.76518" lon="0.8292">
        <ele>174</ele>
        <time>2009-01-19T10:58:20Z</time>
      </trkpt>
      <trkpt lat="44.76503" lon="0.82938">
        <ele>178</ele>
        <time>2009-01-19T10:59:09Z</time>
      </trkpt>
      <trkpt lat="44.76495" lon="0.82965">
        <ele>179</ele>
        <time>2009-01-19T10:59:15Z</time>
      </trkpt>
      <trkpt lat="44.7649" lon="0.82993">
        <ele>175</ele>
        <time>2009-01-19T10:59:38Z</time>
      </trkpt>
      <trkpt lat="44.76488" lon="0.83023">
        <ele>175</ele>
        <time>2009-01-19T10:59:42Z</time>
      </trkpt>
      <trkpt lat="44.76483" lon="0.83055">
        <ele>177</ele>
        <time>2009-01-19T10:59:45Z</time>
      </trkpt>
      <trkpt lat="44.76483" lon="0.83083">
        <ele>178</ele>
        <time>2009-01-19T10:59:48Z</time>
      </trkpt>
      <trkpt lat="44.76485" lon="0.83123">
        <ele>179</ele>
        <time>2009-01-19T10:59:50Z</time>
      </trkpt>
      <trkpt lat="44.7648" lon="0.8315">
        <ele>174</ele>
        <time>2009-01-19T11:00:08Z</time>
      </trkpt>
      <trkpt lat="44.7648" lon="0.83185">
        <ele>179</ele>
        <time>2009-01-19T11:00:12Z</time>
      </trkpt>
      <trkpt lat="44.76475" lon="0.8321">
        <ele>179</ele>
        <time>2009-01-19T11:00:16Z</time>
      </trkpt>
      <trkpt lat="44.76455" lon="0.83205">
        <ele>182</ele>
        <time>2009-01-19T11:00:28Z</time>
      </trkpt>
      <trkpt lat="44.76445" lon="0.83178">
        <ele>185</ele>
        <time>2009-01-19T11:00:31Z</time>
      </trkpt>
      <trkpt lat="44.76438" lon="0.83148">
        <ele>191</ele>
        <time>2009-01-19T11:00:35Z</time>
      </trkpt>
      <trkpt lat="44.7643" lon="0.83118">
        <ele>197</ele>
        <time>2009-01-19T11:00:38Z</time>
      </trkpt>
      <trkpt lat="44.7642" lon="0.83095">
        <ele>193</ele>
        <time>2009-01-19T11:00:40Z</time>
      </trkpt>
      <trkpt lat="44.76403" lon="0.8308">
        <ele>191</ele>
        <time>2009-01-19T11:00:45Z</time>
      </trkpt>
      <trkpt lat="44.7638" lon="0.83078">
        <ele>190</ele>
        <time>2009-01-19T11:00:49Z</time>
      </trkpt>
      <trkpt lat="44.76355" lon="0.83078">
        <ele>188</ele>
        <time>2009-01-19T11:00:53Z</time>
      </trkpt>
      <trkpt lat="44.76335" lon="0.8307">
        <ele>186</ele>
        <time>2009-01-19T11:00:56Z</time>
      </trkpt>
      <trkpt lat="44.76323" lon="0.8305">
        <ele>184</ele>
        <time>2009-01-19T11:00:59Z</time>
      </trkpt>
      <trkpt lat="44.76305" lon="0.8304">
        <ele>183</ele>
        <time>2009-01-19T11:01:39Z</time>
      </trkpt>
      <trkpt lat="44.76283" lon="0.83043">
        <ele>180</ele>
        <time>2009-01-19T11:01:43Z</time>
      </trkpt>
      <trkpt lat="44.7626" lon="0.83045">
        <ele>177</ele>
        <time>2009-01-19T11:01:47Z</time>
      </trkpt>
      <trkpt lat="44.7624" lon="0.83048">
        <ele>175</ele>
        <time>2009-01-19T11:01:50Z</time>
      </trkpt>
      <trkpt lat="44.7622" lon="0.83053">
        <ele>173</ele>
        <time>2009-01-19T11:01:53Z</time>
      </trkpt>
      <trkpt lat="44.762" lon="0.8306">
        <ele>171</ele>
        <time>2009-01-19T11:01:56Z</time>
      </trkpt>
      <trkpt lat="44.76178" lon="0.83065">
        <ele>168</ele>
        <time>2009-01-19T11:01:59Z</time>
      </trkpt>
      <trkpt lat="44.76158" lon="0.83073">
        <ele>167</ele>
        <time>2009-01-19T11:02:02Z</time>
      </trkpt>
      <trkpt lat="44.76138" lon="0.83078">
        <ele>166</ele>
        <time>2009-01-19T11:02:05Z</time>
      </trkpt>
      <trkpt lat="44.76115" lon="0.83085">
        <ele>165</ele>
        <time>2009-01-19T11:02:09Z</time>
      </trkpt>
      <trkpt lat="44.7609" lon="0.83093">
        <ele>164</ele>
        <time>2009-01-19T11:02:13Z</time>
      </trkpt>
      <trkpt lat="44.7607" lon="0.831">
        <ele>164</ele>
        <time>2009-01-19T11:02:17Z</time>
      </trkpt>
      <trkpt lat="44.76053" lon="0.83108">
        <ele>164</ele>
        <time>2009-01-19T11:02:21Z</time>
      </trkpt>
      <trkpt lat="44.76033" lon="0.83115">
        <ele>164</ele>
        <time>2009-01-19T11:02:25Z</time>
      </trkpt>
      <trkpt lat="44.76013" lon="0.83115">
        <ele>164</ele>
        <time>2009-01-19T11:02:29Z</time>
      </trkpt>
      <trkpt lat="44.7599" lon="0.8311">
        <ele>162</ele>
        <time>2009-01-19T11:02:33Z</time>
      </trkpt>
      <trkpt lat="44.75973" lon="0.83118">
        <ele>161</ele>
        <time>2009-01-19T11:02:36Z</time>
      </trkpt>
      <trkpt lat="44.75953" lon="0.83115">
        <ele>157</ele>
        <time>2009-01-19T11:02:41Z</time>
      </trkpt>
      <trkpt lat="44.7594" lon="0.83095">
        <ele>153</ele>
        <time>2009-01-19T11:02:44Z</time>
      </trkpt>
      <trkpt lat="44.75928" lon="0.83073">
        <ele>152</ele>
        <time>2009-01-19T11:02:47Z</time>
      </trkpt>
      <trkpt lat="44.75915" lon="0.83053">
        <ele>159</ele>
        <time>2009-01-19T11:03:42Z</time>
      </trkpt>
      <trkpt lat="44.75898" lon="0.83038">
        <ele>164</ele>
        <time>2009-01-19T11:04:14Z</time>
      </trkpt>
      <trkpt lat="44.75878" lon="0.83018">
        <ele>161</ele>
        <time>2009-01-19T11:04:19Z</time>
      </trkpt>
      <trkpt lat="44.75858" lon="0.83003">
        <ele>159</ele>
        <time>2009-01-19T11:04:21Z</time>
      </trkpt>
      <trkpt lat="44.7584" lon="0.82988">
        <ele>159</ele>
        <time>2009-01-19T11:04:25Z</time>
      </trkpt>
      <trkpt lat="44.75823" lon="0.82975">
        <ele>159</ele>
        <time>2009-01-19T11:04:28Z</time>
      </trkpt>
      <trkpt lat="44.75805" lon="0.82968">
        <ele>159</ele>
        <time>2009-01-19T11:04:30Z</time>
      </trkpt>
      <trkpt lat="44.75783" lon="0.82968">
        <ele>160</ele>
        <time>2009-01-19T11:04:42Z</time>
      </trkpt>
      <trkpt lat="44.75768" lon="0.82983">
        <ele>162</ele>
        <time>2009-01-19T11:04:47Z</time>
      </trkpt>
      <trkpt lat="44.75753" lon="0.83005">
        <ele>165</ele>
        <time>2009-01-19T11:04:53Z</time>
      </trkpt>
      <trkpt lat="44.75738" lon="0.83028">
        <ele>167</ele>
        <time>2009-01-19T11:04:58Z</time>
      </trkpt>
      <trkpt lat="44.7572" lon="0.83043">
        <ele>167</ele>
        <time>2009-01-19T11:05:02Z</time>
      </trkpt>
      <trkpt lat="44.75703" lon="0.83055">
        <ele>166</ele>
        <time>2009-01-19T11:05:06Z</time>
      </trkpt>
      <trkpt lat="44.7568" lon="0.83055">
        <ele>165</ele>
        <time>2009-01-19T11:05:11Z</time>
      </trkpt>
      <trkpt lat="44.75658" lon="0.83053">
        <ele>164</ele>
        <time>2009-01-19T11:05:15Z</time>
      </trkpt>
      <trkpt lat="44.7564" lon="0.83045">
        <ele>163</ele>
        <time>2009-01-19T11:05:18Z</time>
      </trkpt>
      <trkpt lat="44.7562" lon="0.8303">
        <ele>159</ele>
        <time>2009-01-19T11:05:24Z</time>
      </trkpt>
      <trkpt lat="44.75605" lon="0.8301">
        <ele>159</ele>
        <time>2009-01-19T11:05:29Z</time>
      </trkpt>
      <trkpt lat="44.7559" lon="0.82993">
        <ele>158</ele>
        <time>2009-01-19T11:05:34Z</time>
      </trkpt>
      <trkpt lat="44.75575" lon="0.82973">
        <ele>157</ele>
        <time>2009-01-19T11:05:39Z</time>
      </trkpt>
      <trkpt lat="44.7556" lon="0.8295">
        <ele>153</ele>
        <time>2009-01-19T11:05:47Z</time>
      </trkpt>
      <trkpt lat="44.75545" lon="0.8293">
        <ele>151</ele>
        <time>2009-01-19T11:05:50Z</time>
      </trkpt>
      <trkpt lat="44.7553" lon="0.8291">
        <ele>149</ele>
        <time>2009-01-19T11:05:54Z</time>
      </trkpt>
      <trkpt lat="44.75518" lon="0.8289">
        <ele>147</ele>
        <time>2009-01-19T11:05:58Z</time>
      </trkpt>
      <trkpt lat="44.75505" lon="0.82868">
        <ele>147</ele>
        <time>2009-01-19T11:06:02Z</time>
      </trkpt>
      <trkpt lat="44.75495" lon="0.82845">
        <ele>147</ele>
        <time>2009-01-19T11:06:07Z</time>
      </trkpt>
      <trkpt lat="44.75485" lon="0.8282">
        <ele>147</ele>
        <time>2009-01-19T11:06:13Z</time>
      </trkpt>
      <trkpt lat="44.75473" lon="0.82798">
        <ele>144</ele>
        <time>2009-01-19T11:06:19Z</time>
      </trkpt>
      <trkpt lat="44.7546" lon="0.82773">
        <ele>141</ele>
        <time>2009-01-19T11:06:23Z</time>
      </trkpt>
      <trkpt lat="44.75448" lon="0.82753">
        <ele>140</ele>
        <time>2009-01-19T11:06:28Z</time>
      </trkpt>
      <trkpt lat="44.75435" lon="0.82728">
        <ele>139</ele>
        <time>2009-01-19T11:06:32Z</time>
      </trkpt>
      <trkpt lat="44.75368" lon="0.82555">
        <ele>125</ele>
        <time>2009-01-19T11:12:46Z</time>
      </trkpt>
      <trkpt lat="44.7535" lon="0.82575">
        <ele>118</ele>
        <time>2009-01-19T11:13:13Z</time>
      </trkpt>
      <trkpt lat="44.7533" lon="0.82588">
        <ele>118</ele>
        <time>2009-01-19T11:13:15Z</time>
      </trkpt>
      <trkpt lat="44.75313" lon="0.82608">
        <ele>115</ele>
        <time>2009-01-19T11:13:20Z</time>
      </trkpt>
      <trkpt lat="44.75298" lon="0.82628">
        <ele>113</ele>
        <time>2009-01-19T11:13:22Z</time>
      </trkpt>
      <trkpt lat="44.75285" lon="0.82655">
        <ele>109</ele>
        <time>2009-01-19T11:13:25Z</time>
      </trkpt>
      <trkpt lat="44.75278" lon="0.82683">
        <ele>107</ele>
        <time>2009-01-19T11:13:28Z</time>
      </trkpt>
      <trkpt lat="44.7527" lon="0.82713">
        <ele>105</ele>
        <time>2009-01-19T11:13:32Z</time>
      </trkpt>
      <trkpt lat="44.75265" lon="0.82748">
        <ele>106</ele>
        <time>2009-01-19T11:13:35Z</time>
      </trkpt>
      <trkpt lat="44.7526" lon="0.82778">
        <ele>104</ele>
        <time>2009-01-19T11:13:38Z</time>
      </trkpt>
      <trkpt lat="44.75258" lon="0.8281">
        <ele>107</ele>
        <time>2009-01-19T11:13:41Z</time>
      </trkpt>
      <trkpt lat="44.75258" lon="0.8284">
        <ele>112</ele>
        <time>2009-01-19T11:13:44Z</time>
      </trkpt>
      <trkpt lat="44.7526" lon="0.82875">
        <ele>117</ele>
        <time>2009-01-19T11:13:47Z</time>
      </trkpt>
      <trkpt lat="44.75265" lon="0.82913">
        <ele>110</ele>
        <time>2009-01-19T11:13:51Z</time>
      </trkpt>
      <trkpt lat="44.7527" lon="0.82953">
        <ele>106</ele>
        <time>2009-01-19T11:13:53Z</time>
      </trkpt>
      <trkpt lat="44.75275" lon="0.82988">
        <ele>107</ele>
        <time>2009-01-19T11:13:56Z</time>
      </trkpt>
      <trkpt lat="44.75283" lon="0.83015">
        <ele>115</ele>
        <time>2009-01-19T11:14:43Z</time>
      </trkpt>
      <trkpt lat="44.75288" lon="0.8304">
        <ele>105</ele>
        <time>2009-01-19T11:14:45Z</time>
      </trkpt>
      <trkpt lat="44.75293" lon="0.83078">
        <ele>102</ele>
        <time>2009-01-19T11:14:47Z</time>
      </trkpt>
      <trkpt lat="44.75298" lon="0.83135">
        <ele>99</ele>
        <time>2009-01-19T11:14:49Z</time>
      </trkpt>
      <trkpt lat="44.75303" lon="0.83168">
        <ele>97</ele>
        <time>2009-01-19T11:14:52Z</time>
      </trkpt>
      <trkpt lat="44.7531" lon="0.832">
        <ele>96</ele>
        <time>2009-01-19T11:14:54Z</time>
      </trkpt>
      <trkpt lat="44.7532" lon="0.83243">
        <ele>94</ele>
        <time>2009-01-19T11:14:56Z</time>
      </trkpt>
      <trkpt lat="44.75328" lon="0.83273">
        <ele>94</ele>
        <time>2009-01-19T11:14:58Z</time>
      </trkpt>
      <trkpt lat="44.75335" lon="0.83298">
        <ele>93</ele>
        <time>2009-01-19T11:15:01Z</time>
      </trkpt>
      <trkpt lat="44.75343" lon="0.83325">
        <ele>92</ele>
        <time>2009-01-19T11:15:04Z</time>
      </trkpt>
      <trkpt lat="44.75325" lon="0.83318">
        <ele>95</ele>
        <time>2009-01-19T11:15:18Z</time>
      </trkpt>
      <trkpt lat="44.7532" lon="0.83293">
        <ele>94</ele>
        <time>2009-01-19T11:15:22Z</time>
      </trkpt>
      <trkpt lat="44.75313" lon="0.83265">
        <ele>95</ele>
        <time>2009-01-19T11:15:25Z</time>
      </trkpt>
      <trkpt lat="44.75303" lon="0.83233">
        <ele>96</ele>
        <time>2009-01-19T11:15:28Z</time>
      </trkpt>
      <trkpt lat="44.75293" lon="0.83198">
        <ele>95</ele>
        <time>2009-01-19T11:15:31Z</time>
      </trkpt>
      <trkpt lat="44.75283" lon="0.83163">
        <ele>95</ele>
        <time>2009-01-19T11:15:33Z</time>
      </trkpt>
      <trkpt lat="44.75278" lon="0.83135">
        <ele>95</ele>
        <time>2009-01-19T11:15:35Z</time>
      </trkpt>
      <trkpt lat="44.7527" lon="0.83108">
        <ele>94</ele>
        <time>2009-01-19T11:15:38Z</time>
      </trkpt>
      <trkpt lat="44.75263" lon="0.8308">
        <ele>93</ele>
        <time>2009-01-19T11:15:40Z</time>
      </trkpt>
      <trkpt lat="44.75255" lon="0.8304">
        <ele>92</ele>
        <time>2009-01-19T11:15:42Z</time>
      </trkpt>
      <trkpt lat="44.75248" lon="0.83013">
        <ele>89</ele>
        <time>2009-01-19T11:15:44Z</time>
      </trkpt>
      <trkpt lat="44.75243" lon="0.82988">
        <ele>90</ele>
        <time>2009-01-19T11:15:47Z</time>
      </trkpt>
      <trkpt lat="44.75238" lon="0.82963">
        <ele>89</ele>
        <time>2009-01-19T11:15:49Z</time>
      </trkpt>
      <trkpt lat="44.75235" lon="0.82933">
        <ele>90</ele>
        <time>2009-01-19T11:15:51Z</time>
      </trkpt>
      <trkpt lat="44.75233" lon="0.82935">
        <ele>77</ele>
        <time>2009-01-19T11:16:43Z</time>
      </trkpt>
      <trkpt lat="44.75235" lon="0.82908">
        <ele>82</ele>
        <time>2009-01-19T11:19:18Z</time>
      </trkpt>
      <trkpt lat="44.75228" lon="0.82878">
        <ele>86</ele>
        <time>2009-01-19T11:19:21Z</time>
      </trkpt>
      <trkpt lat="44.75223" lon="0.8285">
        <ele>88</ele>
        <time>2009-01-19T11:19:24Z</time>
      </trkpt>
      <trkpt lat="44.7522" lon="0.82818">
        <ele>90</ele>
        <time>2009-01-19T11:19:28Z</time>
      </trkpt>
      <trkpt lat="44.75218" lon="0.82783">
        <ele>91</ele>
        <time>2009-01-19T11:19:30Z</time>
      </trkpt>
      <trkpt lat="44.75218" lon="0.82748">
        <ele>90</ele>
        <time>2009-01-19T11:19:33Z</time>
      </trkpt>
      <trkpt lat="44.7522" lon="0.82713">
        <ele>89</ele>
        <time>2009-01-19T11:19:36Z</time>
      </trkpt>
      <trkpt lat="44.75225" lon="0.82678">
        <ele>89</ele>
        <time>2009-01-19T11:19:39Z</time>
      </trkpt>
      <trkpt lat="44.7523" lon="0.82643">
        <ele>89</ele>
        <time>2009-01-19T11:19:43Z</time>
      </trkpt>
      <trkpt lat="44.75235" lon="0.82608">
        <ele>92</ele>
        <time>2009-01-19T11:19:46Z</time>
      </trkpt>
      <trkpt lat="44.75243" lon="0.8257">
        <ele>91</ele>
        <time>2009-01-19T11:19:48Z</time>
      </trkpt>
      <trkpt lat="44.75248" lon="0.82538">
        <ele>93</ele>
        <time>2009-01-19T11:19:51Z</time>
      </trkpt>
      <trkpt lat="44.75253" lon="0.82508">
        <ele>94</ele>
        <time>2009-01-19T11:19:54Z</time>
      </trkpt>
      <trkpt lat="44.75235" lon="0.8249">
        <ele>85</ele>
        <time>2009-01-19T11:20:07Z</time>
      </trkpt>
      <trkpt lat="44.75213" lon="0.82478">
        <ele>84</ele>
        <time>2009-01-19T11:20:11Z</time>
      </trkpt>
      <trkpt lat="44.75193" lon="0.82468">
        <ele>83</ele>
        <time>2009-01-19T11:20:14Z</time>
      </trkpt>
      <trkpt lat="44.75173" lon="0.82458">
        <ele>81</ele>
        <time>2009-01-19T11:20:17Z</time>
      </trkpt>
      <trkpt lat="44.75153" lon="0.82445">
        <ele>81</ele>
        <time>2009-01-19T11:20:21Z</time>
      </trkpt>
      <trkpt lat="44.75135" lon="0.8243">
        <ele>83</ele>
        <time>2009-01-19T11:20:27Z</time>
      </trkpt>
      <trkpt lat="44.75125" lon="0.82405">
        <ele>81</ele>
        <time>2009-01-19T11:20:34Z</time>
      </trkpt>
      <trkpt lat="44.75113" lon="0.82383">
        <ele>81</ele>
        <time>2009-01-19T11:20:39Z</time>
      </trkpt>
      <trkpt lat="44.751" lon="0.8236">
        <ele>84</ele>
        <time>2009-01-19T11:20:45Z</time>
      </trkpt>
      <trkpt lat="44.75093" lon="0.82335">
        <ele>88</ele>
        <time>2009-01-19T11:20:52Z</time>
      </trkpt>
    </trkseg>
  </trk>
  <trk>
    <name><![CDATA[BBmt56]]></name>
    <trkseg>
      <trkpt lat="44.75095" lon="0.82335">
        <ele>84</ele>
        <time>2009-01-19T11:21:16Z</time>
      </trkpt>
      <trkpt lat="44.75108" lon="0.82315">
        <ele>96</ele>
        <time>2009-01-19T11:24:07Z</time>
      </trkpt>
      <trkpt lat="44.75108" lon="0.82285">
        <ele>87</ele>
        <time>2009-01-19T11:24:32Z</time>
      </trkpt>
      <trkpt lat="44.75105" lon="0.82258">
        <ele>82</ele>
        <time>2009-01-19T11:24:41Z</time>
      </trkpt>
      <trkpt lat="44.75105" lon="0.8223">
        <ele>86</ele>
        <time>2009-01-19T11:25:01Z</time>
      </trkpt>
      <trkpt lat="44.7511" lon="0.82203">
        <ele>86</ele>
        <time>2009-01-19T11:25:03Z</time>
      </trkpt>
      <trkpt lat="44.75115" lon="0.82175">
        <ele>86</ele>
        <time>2009-01-19T11:25:06Z</time>
      </trkpt>
      <trkpt lat="44.75123" lon="0.8214">
        <ele>85</ele>
        <time>2009-01-19T11:25:09Z</time>
      </trkpt>
      <trkpt lat="44.7513" lon="0.82105">
        <ele>84</ele>
        <time>2009-01-19T11:25:12Z</time>
      </trkpt>
      <trkpt lat="44.75135" lon="0.8208">
        <ele>84</ele>
        <time>2009-01-19T11:25:14Z</time>
      </trkpt>
      <trkpt lat="44.7514" lon="0.82055">
        <ele>85</ele>
        <time>2009-01-19T11:25:17Z</time>
      </trkpt>
      <trkpt lat="44.75143" lon="0.8202">
        <ele>84</ele>
        <time>2009-01-19T11:25:19Z</time>
      </trkpt>
      <trkpt lat="44.75143" lon="0.81985">
        <ele>84</ele>
        <time>2009-01-19T11:25:22Z</time>
      </trkpt>
      <trkpt lat="44.75143" lon="0.81953">
        <ele>83</ele>
        <time>2009-01-19T11:25:25Z</time>
      </trkpt>
      <trkpt lat="44.7514" lon="0.81918">
        <ele>82</ele>
        <time>2009-01-19T11:25:29Z</time>
      </trkpt>
      <trkpt lat="44.7514" lon="0.81883">
        <ele>80</ele>
        <time>2009-01-19T11:25:31Z</time>
      </trkpt>
      <trkpt lat="44.75138" lon="0.81845">
        <ele>80</ele>
        <time>2009-01-19T11:25:35Z</time>
      </trkpt>
      <trkpt lat="44.75138" lon="0.81805">
        <ele>80</ele>
        <time>2009-01-19T11:25:37Z</time>
      </trkpt>
      <trkpt lat="44.75138" lon="0.81768">
        <ele>80</ele>
        <time>2009-01-19T11:25:40Z</time>
      </trkpt>
      <trkpt lat="44.75138" lon="0.8173">
        <ele>80</ele>
        <time>2009-01-19T11:25:43Z</time>
      </trkpt>
      <trkpt lat="44.75138" lon="0.81698">
        <ele>82</ele>
        <time>2009-01-19T11:25:46Z</time>
      </trkpt>
      <trkpt lat="44.75138" lon="0.81668">
        <ele>83</ele>
        <time>2009-01-19T11:25:49Z</time>
      </trkpt>
      <trkpt lat="44.75138" lon="0.8164">
        <ele>81</ele>
        <time>2009-01-19T11:26:02Z</time>
      </trkpt>
      <trkpt lat="44.75153" lon="0.81625">
        <ele>80</ele>
        <time>2009-01-19T11:26:06Z</time>
      </trkpt>
      <trkpt lat="44.75173" lon="0.81615">
        <ele>82</ele>
        <time>2009-01-19T11:26:11Z</time>
      </trkpt>
      <trkpt lat="44.7519" lon="0.816">
        <ele>82</ele>
        <time>2009-01-19T11:26:14Z</time>
      </trkpt>
      <trkpt lat="44.75205" lon="0.81585">
        <ele>84</ele>
        <time>2009-01-19T11:26:24Z</time>
      </trkpt>
      <trkpt lat="44.75223" lon="0.81573">
        <ele>92</ele>
        <time>2009-01-19T11:26:31Z</time>
      </trkpt>
      <trkpt lat="44.7524" lon="0.81558">
        <ele>99</ele>
        <time>2009-01-19T11:26:37Z</time>
      </trkpt>
      <trkpt lat="44.75253" lon="0.81535">
        <ele>102</ele>
        <time>2009-01-19T11:26:41Z</time>
      </trkpt>
      <trkpt lat="44.75258" lon="0.8151">
        <ele>106</ele>
        <time>2009-01-19T11:26:46Z</time>
      </trkpt>
      <trkpt lat="44.75265" lon="0.81485">
        <ele>110</ele>
        <time>2009-01-19T11:26:53Z</time>
      </trkpt>
      <trkpt lat="44.75278" lon="0.81463">
        <ele>122</ele>
        <time>2009-01-19T11:26:59Z</time>
      </trkpt>
      <trkpt lat="44.75295" lon="0.8144">
        <ele>125</ele>
        <time>2009-01-19T11:27:02Z</time>
      </trkpt>
      <trkpt lat="44.75318" lon="0.81423">
        <ele>132</ele>
        <time>2009-01-19T11:27:06Z</time>
      </trkpt>
      <trkpt lat="44.75335" lon="0.8141">
        <ele>137</ele>
        <time>2009-01-19T11:27:10Z</time>
      </trkpt>
      <trkpt lat="44.7535" lon="0.81395">
        <ele>141</ele>
        <time>2009-01-19T11:27:13Z</time>
      </trkpt>
      <trkpt lat="44.75358" lon="0.8137">
        <ele>141</ele>
        <time>2009-01-19T11:27:16Z</time>
      </trkpt>
      <trkpt lat="44.75368" lon="0.81348">
        <ele>143</ele>
        <time>2009-01-19T11:27:20Z</time>
      </trkpt>
      <trkpt lat="44.75373" lon="0.8131">
        <ele>139</ele>
        <time>2009-01-19T11:27:24Z</time>
      </trkpt>
      <trkpt lat="44.75375" lon="0.8128">
        <ele>133</ele>
        <time>2009-01-19T11:27:27Z</time>
      </trkpt>
      <trkpt lat="44.7539" lon="0.81263">
        <ele>129</ele>
        <time>2009-01-19T11:27:31Z</time>
      </trkpt>
      <trkpt lat="44.7541" lon="0.81243">
        <ele>127</ele>
        <time>2009-01-19T11:27:37Z</time>
      </trkpt>
      <trkpt lat="44.75415" lon="0.81215">
        <ele>122</ele>
        <time>2009-01-19T11:27:40Z</time>
      </trkpt>
      <trkpt lat="44.7541" lon="0.8119">
        <ele>89</ele>
        <time>2009-01-19T11:27:54Z</time>
      </trkpt>
      <trkpt lat="44.7542" lon="0.81168">
        <ele>87</ele>
        <time>2009-01-19T11:28:12Z</time>
      </trkpt>
      <trkpt lat="44.75415" lon="0.81143">
        <ele>90</ele>
        <time>2009-01-19T11:28:23Z</time>
      </trkpt>
      <trkpt lat="44.75832" lon="0.8079">
        <ele>79</ele>
        <time>2009-06-18T16:43:36Z</time>
      </trkpt>
      <trkpt lat="44.75862" lon="0.80815">
        <ele>80</ele>
        <time>2009-06-18T16:43:36Z</time>
      </trkpt>
      <trkpt lat="44.75948" lon="0.80715">
        <ele>102</ele>
        <time>2009-01-19T11:43:37Z</time>
      </trkpt>
      <trkpt lat="44.75938" lon="0.80688">
        <ele>103</ele>
        <time>2009-01-19T11:43:55Z</time>
      </trkpt>
      <trkpt lat="44.7593" lon="0.80663">
        <ele>102</ele>
        <time>2009-01-19T11:44:16Z</time>
      </trkpt>
      <trkpt lat="44.7594" lon="0.80635">
        <ele>104</ele>
        <time>2009-01-19T11:44:21Z</time>
      </trkpt>
      <trkpt lat="44.7595" lon="0.8061">
        <ele>105</ele>
        <time>2009-01-19T11:44:24Z</time>
      </trkpt>
      <trkpt lat="44.75955" lon="0.80583">
        <ele>107</ele>
        <time>2009-01-19T11:44:27Z</time>
      </trkpt>
      <trkpt lat="44.7596" lon="0.80558">
        <ele>108</ele>
        <time>2009-01-19T11:44:30Z</time>
      </trkpt>
      <trkpt lat="44.75975" lon="0.8054">
        <ele>111</ele>
        <time>2009-01-19T11:44:34Z</time>
      </trkpt>
      <trkpt lat="44.75993" lon="0.80528">
        <ele>113</ele>
        <time>2009-01-19T11:44:37Z</time>
      </trkpt>
      <trkpt lat="44.7601" lon="0.80518">
        <ele>114</ele>
        <time>2009-01-19T11:44:43Z</time>
      </trkpt>
      <trkpt lat="44.7603" lon="0.8051">
        <ele>108</ele>
        <time>2009-01-19T11:44:50Z</time>
      </trkpt>
      <trkpt lat="44.76053" lon="0.80508">
        <ele>105</ele>
        <time>2009-01-19T11:44:53Z</time>
      </trkpt>
      <trkpt lat="44.76075" lon="0.805">
        <ele>103</ele>
        <time>2009-01-19T11:44:56Z</time>
      </trkpt>
      <trkpt lat="44.76098" lon="0.8049">
        <ele>101</ele>
        <time>2009-01-19T11:44:59Z</time>
      </trkpt>
      <trkpt lat="44.76118" lon="0.80478">
        <ele>104</ele>
        <time>2009-01-19T11:45:02Z</time>
      </trkpt>
      <trkpt lat="44.7614" lon="0.8047">
        <ele>104</ele>
        <time>2009-01-19T11:45:05Z</time>
      </trkpt>
      <trkpt lat="44.76165" lon="0.80478">
        <ele>102</ele>
        <time>2009-01-19T11:45:10Z</time>
      </trkpt>
      <trkpt lat="44.76188" lon="0.80485">
        <ele>100</ele>
        <time>2009-01-19T11:45:12Z</time>
      </trkpt>
      <trkpt lat="44.76208" lon="0.80478">
        <ele>96</ele>
        <time>2009-01-19T11:45:21Z</time>
      </trkpt>
      <trkpt lat="44.76225" lon="0.80465">
        <ele>94</ele>
        <time>2009-01-19T11:45:25Z</time>
      </trkpt>
      <trkpt lat="44.76243" lon="0.80453">
        <ele>93</ele>
        <time>2009-01-19T11:45:30Z</time>
      </trkpt>
      <trkpt lat="44.7626" lon="0.8044">
        <ele>92</ele>
        <time>2009-01-19T11:45:33Z</time>
      </trkpt>
      <trkpt lat="44.76278" lon="0.80423">
        <ele>86</ele>
        <time>2009-01-19T11:45:39Z</time>
      </trkpt>
      <trkpt lat="44.76283" lon="0.8039">
        <ele>84</ele>
        <time>2009-01-19T11:45:45Z</time>
      </trkpt>
      <trkpt lat="44.76288" lon="0.80365">
        <ele>81</ele>
        <time>2009-01-19T11:45:53Z</time>
      </trkpt>
      <trkpt lat="44.76303" lon="0.80355">
        <ele>81</ele>
        <time>2009-06-18T16:43:36Z</time>
      </trkpt>
      <trkpt lat="44.76911" lon="0.79865">
        <ele>70</ele>
        <time>2009-01-19T11:46:01Z</time>
      </trkpt>
    </trkseg>
  </trk>
  <trk>
    <name><![CDATA[BBmt57]]></name>
    <trkseg>
      <trkpt lat="44.7689" lon="0.76645">
        <ele>119</ele>
        <time>2009-01-19T13:30:21Z</time>
      </trkpt>
      <trkpt lat="44.76913" lon="0.76638">
        <ele>121</ele>
        <time>2009-01-19T13:30:29Z</time>
      </trkpt>
      <trkpt lat="44.76933" lon="0.76628">
        <ele>123</ele>
        <time>2009-01-19T13:30:32Z</time>
      </trkpt>
      <trkpt lat="44.76955" lon="0.76618">
        <ele>123</ele>
        <time>2009-01-19T13:30:35Z</time>
      </trkpt>
      <trkpt lat="44.76973" lon="0.7661">
        <ele>124</ele>
        <time>2009-01-19T13:30:38Z</time>
      </trkpt>
      <trkpt lat="44.7699" lon="0.76603">
        <ele>128</ele>
        <time>2009-01-19T13:31:03Z</time>
      </trkpt>
      <trkpt lat="44.77008" lon="0.7659">
        <ele>127</ele>
        <time>2009-01-19T13:31:07Z</time>
      </trkpt>
      <trkpt lat="44.77025" lon="0.7658">
        <ele>127</ele>
        <time>2009-01-19T13:31:09Z</time>
      </trkpt>
      <trkpt lat="44.77055" lon="0.76563">
        <ele>126</ele>
        <time>2009-01-19T13:31:12Z</time>
      </trkpt>
      <trkpt lat="44.77085" lon="0.76545">
        <ele>125</ele>
        <time>2009-01-19T13:31:14Z</time>
      </trkpt>
      <trkpt lat="44.77105" lon="0.76535">
        <ele>124</ele>
        <time>2009-01-19T13:31:16Z</time>
      </trkpt>
      <trkpt lat="44.77123" lon="0.76523">
        <ele>124</ele>
        <time>2009-01-19T13:31:19Z</time>
      </trkpt>
      <trkpt lat="44.77145" lon="0.76503">
        <ele>124</ele>
        <time>2009-01-19T13:31:21Z</time>
      </trkpt>
      <trkpt lat="44.7716" lon="0.76483">
        <ele>124</ele>
        <time>2009-01-19T13:31:24Z</time>
      </trkpt>
      <trkpt lat="44.7717" lon="0.7646">
        <ele>123</ele>
        <time>2009-01-19T13:31:34Z</time>
      </trkpt>
      <trkpt lat="44.77183" lon="0.76428">
        <ele>122</ele>
        <time>2009-01-19T13:31:38Z</time>
      </trkpt>
      <trkpt lat="44.77195" lon="0.76405">
        <ele>121</ele>
        <time>2009-01-19T13:31:41Z</time>
      </trkpt>
      <trkpt lat="44.77213" lon="0.76393">
        <ele>119</ele>
        <time>2009-01-19T13:31:44Z</time>
      </trkpt>
      <trkpt lat="44.77228" lon="0.76378">
        <ele>115</ele>
        <time>2009-01-19T13:31:56Z</time>
      </trkpt>
      <trkpt lat="44.7723" lon="0.7635">
        <ele>108</ele>
        <time>2009-01-19T13:32:02Z</time>
      </trkpt>
      <trkpt lat="44.77233" lon="0.76323">
        <ele>106</ele>
        <time>2009-01-19T13:32:06Z</time>
      </trkpt>
      <trkpt lat="44.77238" lon="0.76295">
        <ele>105</ele>
        <time>2009-01-19T13:32:11Z</time>
      </trkpt>
      <trkpt lat="44.77238" lon="0.76268">
        <ele>105</ele>
        <time>2009-01-19T13:32:16Z</time>
      </trkpt>
      <trkpt lat="44.7724" lon="0.76235">
        <ele>110</ele>
        <time>2009-01-19T13:32:21Z</time>
      </trkpt>
      <trkpt lat="44.7724" lon="0.76205">
        <ele>110</ele>
        <time>2009-01-19T13:32:26Z</time>
      </trkpt>
      <trkpt lat="44.77243" lon="0.76175">
        <ele>107</ele>
        <time>2009-01-19T13:32:31Z</time>
      </trkpt>
      <trkpt lat="44.77245" lon="0.76148">
        <ele>104</ele>
        <time>2009-01-19T13:32:37Z</time>
      </trkpt>
      <trkpt lat="44.77243" lon="0.76118">
        <ele>102</ele>
        <time>2009-01-19T13:32:42Z</time>
      </trkpt>
      <trkpt lat="44.77238" lon="0.76093">
        <ele>109</ele>
        <time>2009-01-19T13:33:39Z</time>
      </trkpt>
      <trkpt lat="44.7726" lon="0.76018">
        <ele>87</ele>
        <time>2009-01-19T13:37:25Z</time>
      </trkpt>
      <trkpt lat="44.77265" lon="0.75993">
        <ele>85</ele>
        <time>2009-01-19T13:37:41Z</time>
      </trkpt>
      <trkpt lat="44.77275" lon="0.7597">
        <ele>82</ele>
        <time>2009-01-19T13:37:46Z</time>
      </trkpt>
      <trkpt lat="44.77283" lon="0.75945">
        <ele>75</ele>
        <time>2009-01-19T13:37:53Z</time>
      </trkpt>
      <trkpt lat="44.7729" lon="0.7592">
        <ele>72</ele>
        <time>2009-01-19T13:38:00Z</time>
      </trkpt>
      <trkpt lat="44.77298" lon="0.75893">
        <ele>72</ele>
        <time>2009-01-19T13:38:07Z</time>
      </trkpt>
      <trkpt lat="44.77303" lon="0.75868">
        <ele>72</ele>
        <time>2009-01-19T13:38:12Z</time>
      </trkpt>
      <trkpt lat="44.77313" lon="0.75843">
        <ele>72</ele>
        <time>2009-01-19T13:38:17Z</time>
      </trkpt>
    </trkseg>
  </trk>
  <trk>
    <name><![CDATA[BBmt58]]></name>
    <trkseg>
      <trkpt lat="44.76888" lon="0.75648">
        <ele>118</ele>
        <time>2009-01-19T14:01:45Z</time>
      </trkpt>
      <trkpt lat="44.76895" lon="0.75623">
        <ele>113</ele>
        <time>2009-01-19T14:02:40Z</time>
      </trkpt>
      <trkpt lat="44.76898" lon="0.75595">
        <ele>108</ele>
        <time>2009-01-19T14:02:46Z</time>
      </trkpt>
      <trkpt lat="44.769" lon="0.75563">
        <ele>103</ele>
        <time>2009-01-19T14:02:51Z</time>
      </trkpt>
      <trkpt lat="44.76895" lon="0.75535">
        <ele>104</ele>
        <time>2009-01-19T14:02:54Z</time>
      </trkpt>
      <trkpt lat="44.76885" lon="0.75508">
        <ele>103</ele>
        <time>2009-01-19T14:02:58Z</time>
      </trkpt>
      <trkpt lat="44.76875" lon="0.75485">
        <ele>99</ele>
        <time>2009-01-19T14:03:01Z</time>
      </trkpt>
      <trkpt lat="44.76868" lon="0.75458">
        <ele>95</ele>
        <time>2009-01-19T14:03:06Z</time>
      </trkpt>
      <trkpt lat="44.7686" lon="0.7543">
        <ele>94</ele>
        <time>2009-01-19T14:03:10Z</time>
      </trkpt>
      <trkpt lat="44.76855" lon="0.75398">
        <ele>95</ele>
        <time>2009-01-19T14:03:12Z</time>
      </trkpt>
      <trkpt lat="44.76853" lon="0.7536">
        <ele>98</ele>
        <time>2009-01-19T14:03:15Z</time>
      </trkpt>
      <trkpt lat="44.76845" lon="0.7533">
        <ele>97</ele>
        <time>2009-01-19T14:03:18Z</time>
      </trkpt>
      <trkpt lat="44.76828" lon="0.75313">
        <ele>97</ele>
        <time>2009-01-19T14:03:21Z</time>
      </trkpt>
      <trkpt lat="44.76813" lon="0.75298">
        <ele>101</ele>
        <time>2009-01-19T14:03:32Z</time>
      </trkpt>
      <trkpt lat="44.76798" lon="0.75273">
        <ele>101</ele>
        <time>2009-01-19T14:03:35Z</time>
      </trkpt>
      <trkpt lat="44.7678" lon="0.75243">
        <ele>102</ele>
        <time>2009-01-19T14:03:39Z</time>
      </trkpt>
      <trkpt lat="44.76763" lon="0.75213">
        <ele>103</ele>
        <time>2009-01-19T14:03:41Z</time>
      </trkpt>
      <trkpt lat="44.76755" lon="0.75188">
        <ele>104</ele>
        <time>2009-01-19T14:03:43Z</time>
      </trkpt>
      <trkpt lat="44.76758" lon="0.75155">
        <ele>107</ele>
        <time>2009-01-19T14:03:46Z</time>
      </trkpt>
      <trkpt lat="44.7676" lon="0.75125">
        <ele>110</ele>
        <time>2009-01-19T14:03:48Z</time>
      </trkpt>
      <trkpt lat="44.7676" lon="0.75095">
        <ele>112</ele>
        <time>2009-01-19T14:03:50Z</time>
      </trkpt>
      <trkpt lat="44.76758" lon="0.75065">
        <ele>111</ele>
        <time>2009-01-19T14:03:52Z</time>
      </trkpt>
      <trkpt lat="44.7675" lon="0.75035">
        <ele>119</ele>
        <time>2009-01-19T14:04:01Z</time>
      </trkpt>
      <trkpt lat="44.76743" lon="0.75005">
        <ele>120</ele>
        <time>2009-01-19T14:04:05Z</time>
      </trkpt>
      <trkpt lat="44.76738" lon="0.74975">
        <ele>119</ele>
        <time>2009-01-19T14:04:09Z</time>
      </trkpt>
      <trkpt lat="44.76725" lon="0.74953">
        <ele>118</ele>
        <time>2009-01-19T14:04:22Z</time>
      </trkpt>
      <trkpt lat="44.76708" lon="0.7493">
        <ele>117</ele>
        <time>2009-01-19T14:04:27Z</time>
      </trkpt>
      <trkpt lat="44.76695" lon="0.7491">
        <ele>117</ele>
        <time>2009-01-19T14:04:31Z</time>
      </trkpt>
      <trkpt lat="44.7668" lon="0.74888">
        <ele>117</ele>
        <time>2009-01-19T14:04:35Z</time>
      </trkpt>
      <trkpt lat="44.76658" lon="0.74873">
        <ele>117</ele>
        <time>2009-01-19T14:04:39Z</time>
      </trkpt>
      <trkpt lat="44.76638" lon="0.74863">
        <ele>118</ele>
        <time>2009-01-19T14:04:42Z</time>
      </trkpt>
      <trkpt lat="44.76618" lon="0.74848">
        <ele>118</ele>
        <time>2009-01-19T14:04:45Z</time>
      </trkpt>
      <trkpt lat="44.766" lon="0.7483">
        <ele>120</ele>
        <time>2009-01-19T14:04:48Z</time>
      </trkpt>
      <trkpt lat="44.7658" lon="0.74813">
        <ele>121</ele>
        <time>2009-01-19T14:04:51Z</time>
      </trkpt>
      <trkpt lat="44.76563" lon="0.7479">
        <ele>122</ele>
        <time>2009-01-19T14:04:54Z</time>
      </trkpt>
      <trkpt lat="44.76545" lon="0.7477">
        <ele>123</ele>
        <time>2009-01-19T14:04:57Z</time>
      </trkpt>
      <trkpt lat="44.7646" lon="0.74113">
        <ele>107</ele>
        <time>2009-01-19T14:16:53Z</time>
      </trkpt>
      <trkpt lat="44.76443" lon="0.74095">
        <ele>106</ele>
        <time>2009-01-19T14:17:10Z</time>
      </trkpt>
      <trkpt lat="44.76433" lon="0.74073">
        <ele>105</ele>
        <time>2009-01-19T14:17:14Z</time>
      </trkpt>
      <trkpt lat="44.76418" lon="0.7405">
        <ele>105</ele>
        <time>2009-01-19T14:17:18Z</time>
      </trkpt>
      <trkpt lat="44.76398" lon="0.74035">
        <ele>104</ele>
        <time>2009-01-19T14:17:21Z</time>
      </trkpt>
      <trkpt lat="44.76383" lon="0.7402">
        <ele>104</ele>
        <time>2009-01-19T14:17:25Z</time>
      </trkpt>
      <trkpt lat="44.76368" lon="0.74">
        <ele>103</ele>
        <time>2009-01-19T14:17:38Z</time>
      </trkpt>
      <trkpt lat="44.76353" lon="0.73985">
        <ele>102</ele>
        <time>2009-01-19T14:17:46Z</time>
      </trkpt>
      <trkpt lat="44.7634" lon="0.73965">
        <ele>102</ele>
        <time>2009-01-19T14:17:53Z</time>
      </trkpt>
      <trkpt lat="44.7633" lon="0.73943">
        <ele>100</ele>
        <time>2009-01-19T14:18:02Z</time>
      </trkpt>
      <trkpt lat="44.7632" lon="0.73918">
        <ele>100</ele>
        <time>2009-01-19T14:18:09Z</time>
      </trkpt>
      <trkpt lat="44.76308" lon="0.73893">
        <ele>100</ele>
        <time>2009-01-19T14:18:15Z</time>
      </trkpt>
      <trkpt lat="44.76295" lon="0.7387">
        <ele>99</ele>
        <time>2009-01-19T14:18:20Z</time>
      </trkpt>
      <trkpt lat="44.76283" lon="0.73848">
        <ele>102</ele>
        <time>2009-01-19T14:18:27Z</time>
      </trkpt>
      <trkpt lat="44.76273" lon="0.73825">
        <ele>100</ele>
        <time>2009-01-19T14:18:32Z</time>
      </trkpt>
      <trkpt lat="44.7626" lon="0.73805">
        <ele>101</ele>
        <time>2009-01-19T14:18:38Z</time>
      </trkpt>
      <trkpt lat="44.7625" lon="0.73783">
        <ele>101</ele>
        <time>2009-01-19T14:18:44Z</time>
      </trkpt>
      <trkpt lat="44.76235" lon="0.73765">
        <ele>91</ele>
        <time>2009-01-19T14:18:58Z</time>
      </trkpt>
      <trkpt lat="44.76228" lon="0.7374">
        <ele>94</ele>
        <time>2009-01-19T14:19:06Z</time>
      </trkpt>
      <trkpt lat="44.7622" lon="0.73715">
        <ele>96</ele>
        <time>2009-01-19T14:19:13Z</time>
      </trkpt>
      <trkpt lat="44.76213" lon="0.7369">
        <ele>97</ele>
        <time>2009-01-19T14:19:20Z</time>
      </trkpt>
      <trkpt lat="44.76208" lon="0.73663">
        <ele>98</ele>
        <time>2009-01-19T14:19:28Z</time>
      </trkpt>
      <trkpt lat="44.76208" lon="0.73635">
        <ele>99</ele>
        <time>2009-01-19T14:19:33Z</time>
      </trkpt>
      <trkpt lat="44.7621" lon="0.73608">
        <ele>98</ele>
        <time>2009-01-19T14:19:40Z</time>
      </trkpt>
      <trkpt lat="44.76218" lon="0.73583">
        <ele>98</ele>
        <time>2009-01-19T14:19:49Z</time>
      </trkpt>
      <trkpt lat="44.76215" lon="0.73493">
        <ele>105</ele>
        <time>2009-01-19T14:30:39Z</time>
      </trkpt>
      <trkpt lat="44.762" lon="0.73473">
        <ele>104</ele>
        <time>2009-01-19T14:30:50Z</time>
      </trkpt>
      <trkpt lat="44.76185" lon="0.73453">
        <ele>103</ele>
        <time>2009-01-19T14:30:59Z</time>
      </trkpt>
      <trkpt lat="44.7617" lon="0.73435">
        <ele>100</ele>
        <time>2009-01-19T14:31:07Z</time>
      </trkpt>
      <trkpt lat="44.76155" lon="0.7342">
        <ele>100</ele>
        <time>2009-01-19T14:31:26Z</time>
      </trkpt>
      <trkpt lat="44.7614" lon="0.734">
        <ele>99</ele>
        <time>2009-01-19T14:31:32Z</time>
      </trkpt>
      <trkpt lat="44.76125" lon="0.73383">
        <ele>105</ele>
        <time>2009-01-19T14:32:08Z</time>
      </trkpt>
      <trkpt lat="44.7611" lon="0.73363">
        <ele>106</ele>
        <time>2009-01-19T14:32:14Z</time>
      </trkpt>
      <trkpt lat="44.761" lon="0.7334">
        <ele>106</ele>
        <time>2009-01-19T14:32:19Z</time>
      </trkpt>
      <trkpt lat="44.76088" lon="0.7332">
        <ele>106</ele>
        <time>2009-01-19T14:32:24Z</time>
      </trkpt>
      <trkpt lat="44.76075" lon="0.733">
        <ele>108</ele>
        <time>2009-01-19T14:32:34Z</time>
      </trkpt>
      <trkpt lat="44.76055" lon="0.73285">
        <ele>110</ele>
        <time>2009-01-19T14:32:43Z</time>
      </trkpt>
      <trkpt lat="44.76035" lon="0.7327">
        <ele>113</ele>
        <time>2009-01-19T14:33:31Z</time>
      </trkpt>
      <trkpt lat="44.76018" lon="0.73255">
        <ele>113</ele>
        <time>2009-01-19T14:33:36Z</time>
      </trkpt>
      <trkpt lat="44.76" lon="0.73243">
        <ele>114</ele>
        <time>2009-01-19T14:33:43Z</time>
      </trkpt>
      <trkpt lat="44.75983" lon="0.73228">
        <ele>113</ele>
        <time>2009-01-19T14:33:48Z</time>
      </trkpt>
      <trkpt lat="44.75965" lon="0.73213">
        <ele>113</ele>
        <time>2009-01-19T14:33:51Z</time>
      </trkpt>
      <trkpt lat="44.75948" lon="0.73203">
        <ele>113</ele>
        <time>2009-01-19T14:34:06Z</time>
      </trkpt>
      <trkpt lat="44.75934" lon="0.73203">
        <ele>113</ele>
        <time>2009-01-19T14:34:10Z</time>
      </trkpt>
      <trkpt lat="44.7591" lon="0.73188">
        <ele>113</ele>
        <time>2009-06-18T16:43:36Z</time>
      </trkpt>
      <trkpt lat="44.7589" lon="0.73189">
        <ele>113</ele>
        <time>2009-06-18T16:43:36Z</time>
      </trkpt>
      <trkpt lat="44.75869" lon="0.73186">
        <ele>113</ele>
        <time>2009-06-18T16:43:36Z</time>
      </trkpt>
      <trkpt lat="44.75733" lon="0.73064">
        <ele>117</ele>
        <time>2009-06-18T16:43:36Z</time>
      </trkpt>
      <trkpt lat="44.75729" lon="0.73023">
        <ele>121</ele>
        <time>2009-06-18T16:43:36Z</time>
      </trkpt>
      <trkpt lat="44.75744" lon="0.72972">
        <ele>125</ele>
        <time>2009-06-18T16:43:36Z</time>
      </trkpt>
      <trkpt lat="44.75777" lon="0.72924">
        <ele>131</ele>
        <time>2009-06-18T16:43:36Z</time>
      </trkpt>
      <trkpt lat="44.75828" lon="0.7272">
        <ele>141</ele>
        <time>2009-01-19T14:35:51Z</time>
      </trkpt>
      <trkpt lat="44.75833" lon="0.72695">
        <ele>140</ele>
        <time>2009-01-19T14:36:05Z</time>
      </trkpt>
      <trkpt lat="44.75828" lon="0.72668">
        <ele>141</ele>
        <time>2009-01-19T14:36:18Z</time>
      </trkpt>
      <trkpt lat="44.75815" lon="0.72643">
        <ele>142</ele>
        <time>2009-01-19T14:36:23Z</time>
      </trkpt>
      <trkpt lat="44.75805" lon="0.72618">
        <ele>144</ele>
        <time>2009-01-19T14:36:29Z</time>
      </trkpt>
      <trkpt lat="44.75795" lon="0.72595">
        <ele>144</ele>
        <time>2009-01-19T14:36:32Z</time>
      </trkpt>
      <trkpt lat="44.75783" lon="0.7257">
        <ele>145</ele>
        <time>2009-01-19T14:36:38Z</time>
      </trkpt>
      <trkpt lat="44.7577" lon="0.72545">
        <ele>146</ele>
        <time>2009-01-19T14:36:42Z</time>
      </trkpt>
      <trkpt lat="44.7576" lon="0.72523">
        <ele>149</ele>
        <time>2009-01-19T14:36:48Z</time>
      </trkpt>
      <trkpt lat="44.75753" lon="0.72498">
        <ele>150</ele>
        <time>2009-01-19T14:36:52Z</time>
      </trkpt>
      <trkpt lat="44.75743" lon="0.72473">
        <ele>152</ele>
        <time>2009-01-19T14:36:58Z</time>
      </trkpt>
      <trkpt lat="44.75743" lon="0.72443">
        <ele>147</ele>
        <time>2009-01-19T14:37:24Z</time>
      </trkpt>
    </trkseg>
  </trk>
  <trk>
    <name><![CDATA[BBmt59]]></name>
    <trkseg>
      <trkpt lat="44.72635" lon="0.76568">
        <ele>153</ele>
        <time>2009-01-20T09:54:07Z</time>
      </trkpt>
      <trkpt lat="44.72615" lon="0.76565">
        <ele>149</ele>
        <time>2009-01-20T09:54:28Z</time>
      </trkpt>
      <trkpt lat="44.72595" lon="0.76563">
        <ele>149</ele>
        <time>2009-01-20T09:54:46Z</time>
      </trkpt>
      <trkpt lat="44.72575" lon="0.76558">
        <ele>150</ele>
        <time>2009-01-20T09:55:03Z</time>
      </trkpt>
      <trkpt lat="44.72555" lon="0.76555">
        <ele>150</ele>
        <time>2009-01-20T09:55:20Z</time>
      </trkpt>
      <trkpt lat="44.72288" lon="0.76418">
        <ele>158</ele>
        <time>2009-01-20T10:01:18Z</time>
      </trkpt>
      <trkpt lat="44.72268" lon="0.76405">
        <ele>158</ele>
        <time>2009-01-20T10:01:29Z</time>
      </trkpt>
      <trkpt lat="44.7225" lon="0.76398">
        <ele>158</ele>
        <time>2009-01-20T10:01:34Z</time>
      </trkpt>
      <trkpt lat="44.72233" lon="0.7639">
        <ele>156</ele>
        <time>2009-01-20T10:01:41Z</time>
      </trkpt>
      <trkpt lat="44.72225" lon="0.76418">
        <ele>156</ele>
        <time>2009-01-20T10:01:53Z</time>
      </trkpt>
      <trkpt lat="44.72218" lon="0.7645">
        <ele>153</ele>
        <time>2009-01-20T10:01:57Z</time>
      </trkpt>
      <trkpt lat="44.72215" lon="0.7648">
        <ele>153</ele>
        <time>2009-01-20T10:02:00Z</time>
      </trkpt>
      <trkpt lat="44.7221" lon="0.76513">
        <ele>154</ele>
        <time>2009-01-20T10:02:05Z</time>
      </trkpt>
      <trkpt lat="44.72205" lon="0.76538">
        <ele>156</ele>
        <time>2009-01-20T10:02:08Z</time>
      </trkpt>
      <trkpt lat="44.722" lon="0.76563">
        <ele>157</ele>
        <time>2009-01-20T10:02:11Z</time>
      </trkpt>
      <trkpt lat="44.72193" lon="0.7659">
        <ele>157</ele>
        <time>2009-01-20T10:02:14Z</time>
      </trkpt>
      <trkpt lat="44.72188" lon="0.76618">
        <ele>158</ele>
        <time>2009-01-20T10:02:17Z</time>
      </trkpt>
      <trkpt lat="44.7218" lon="0.76648">
        <ele>159</ele>
        <time>2009-01-20T10:02:21Z</time>
      </trkpt>
      <trkpt lat="44.72175" lon="0.76673">
        <ele>160</ele>
        <time>2009-01-20T10:02:30Z</time>
      </trkpt>
      <trkpt lat="44.72175" lon="0.76705">
        <ele>152</ele>
        <time>2009-01-20T10:03:20Z</time>
      </trkpt>
      <trkpt lat="44.7217" lon="0.7673">
        <ele>153</ele>
        <time>2009-01-20T10:03:23Z</time>
      </trkpt>
      <trkpt lat="44.72165" lon="0.7676">
        <ele>153</ele>
        <time>2009-01-20T10:03:26Z</time>
      </trkpt>
      <trkpt lat="44.72158" lon="0.76793">
        <ele>153</ele>
        <time>2009-01-20T10:03:29Z</time>
      </trkpt>
      <trkpt lat="44.72153" lon="0.76828">
        <ele>152</ele>
        <time>2009-01-20T10:03:31Z</time>
      </trkpt>
      <trkpt lat="44.7215" lon="0.76858">
        <ele>152</ele>
        <time>2009-01-20T10:03:35Z</time>
      </trkpt>
      <trkpt lat="44.72145" lon="0.76885">
        <ele>156</ele>
        <time>2009-01-20T10:03:39Z</time>
      </trkpt>
      <trkpt lat="44.72125" lon="0.76885">
        <ele>164</ele>
        <time>2009-01-20T10:04:29Z</time>
      </trkpt>
      <trkpt lat="44.72105" lon="0.76885">
        <ele>155</ele>
        <time>2009-01-20T10:04:50Z</time>
      </trkpt>
      <trkpt lat="44.72085" lon="0.76888">
        <ele>151</ele>
        <time>2009-01-20T10:05:09Z</time>
      </trkpt>
      <trkpt lat="44.72065" lon="0.76893">
        <ele>152</ele>
        <time>2009-01-20T10:05:26Z</time>
      </trkpt>
      <trkpt lat="44.71563" lon="0.7714">
        <ele>195</ele>
        <time>2009-01-20T10:10:12Z</time>
      </trkpt>
      <trkpt lat="44.71543" lon="0.77145">
        <ele>196</ele>
        <time>2009-01-20T10:10:23Z</time>
      </trkpt>
      <trkpt lat="44.71533" lon="0.77173">
        <ele>196</ele>
        <time>2009-01-20T10:10:41Z</time>
      </trkpt>
      <trkpt lat="44.7153" lon="0.772">
        <ele>197</ele>
        <time>2009-01-20T10:10:45Z</time>
      </trkpt>
      <trkpt lat="44.71528" lon="0.77233">
        <ele>196</ele>
        <time>2009-01-20T10:10:49Z</time>
      </trkpt>
      <trkpt lat="44.7153" lon="0.77265">
        <ele>197</ele>
        <time>2009-01-20T10:10:53Z</time>
      </trkpt>
      <trkpt lat="44.71535" lon="0.77298">
        <ele>195</ele>
        <time>2009-01-20T10:10:57Z</time>
      </trkpt>
      <trkpt lat="44.7154" lon="0.77323">
        <ele>192</ele>
        <time>2009-01-20T10:11:00Z</time>
      </trkpt>
      <trkpt lat="44.71545" lon="0.7735">
        <ele>191</ele>
        <time>2009-01-20T10:11:03Z</time>
      </trkpt>
      <trkpt lat="44.7155" lon="0.7738">
        <ele>190</ele>
        <time>2009-01-20T10:11:06Z</time>
      </trkpt>
      <trkpt lat="44.71553" lon="0.77408">
        <ele>189</ele>
        <time>2009-01-20T10:11:09Z</time>
      </trkpt>
      <trkpt lat="44.71553" lon="0.77443">
        <ele>189</ele>
        <time>2009-01-20T10:11:13Z</time>
      </trkpt>
      <trkpt lat="44.71553" lon="0.77473">
        <ele>190</ele>
        <time>2009-01-20T10:11:16Z</time>
      </trkpt>
      <trkpt lat="44.71553" lon="0.77505">
        <ele>193</ele>
        <time>2009-01-20T10:11:19Z</time>
      </trkpt>
      <trkpt lat="44.7155" lon="0.7754">
        <ele>194</ele>
        <time>2009-01-20T10:11:22Z</time>
      </trkpt>
      <trkpt lat="44.71548" lon="0.77578">
        <ele>195</ele>
        <time>2009-01-20T10:11:25Z</time>
      </trkpt>
      <trkpt lat="44.71548" lon="0.77605">
        <ele>197</ele>
        <time>2009-01-20T10:11:27Z</time>
      </trkpt>
      <trkpt lat="44.71548" lon="0.77633">
        <ele>198</ele>
        <time>2009-01-20T10:11:29Z</time>
      </trkpt>
      <trkpt lat="44.71545" lon="0.7767">
        <ele>199</ele>
        <time>2009-01-20T10:11:32Z</time>
      </trkpt>
      <trkpt lat="44.71548" lon="0.77703">
        <ele>201</ele>
        <time>2009-01-20T10:11:35Z</time>
      </trkpt>
      <trkpt lat="44.71548" lon="0.7773">
        <ele>202</ele>
        <time>2009-01-20T10:11:46Z</time>
      </trkpt>
      <trkpt lat="44.71528" lon="0.7772">
        <ele>203</ele>
        <time>2009-01-20T10:11:51Z</time>
      </trkpt>
      <trkpt lat="44.7151" lon="0.77705">
        <ele>203</ele>
        <time>2009-01-20T10:11:54Z</time>
      </trkpt>
      <trkpt lat="44.71493" lon="0.77693">
        <ele>203</ele>
        <time>2009-01-20T10:11:56Z</time>
      </trkpt>
      <trkpt lat="44.71475" lon="0.7768">
        <ele>203</ele>
        <time>2009-01-20T10:11:58Z</time>
      </trkpt>
      <trkpt lat="44.71455" lon="0.77665">
        <ele>204</ele>
        <time>2009-01-20T10:12:00Z</time>
      </trkpt>
      <trkpt lat="44.71438" lon="0.7765">
        <ele>205</ele>
        <time>2009-01-20T10:12:02Z</time>
      </trkpt>
      <trkpt lat="44.71413" lon="0.77623">
        <ele>205</ele>
        <time>2009-01-20T10:12:05Z</time>
      </trkpt>
      <trkpt lat="44.71398" lon="0.77603">
        <ele>205</ele>
        <time>2009-01-20T10:12:07Z</time>
      </trkpt>
      <trkpt lat="44.71375" lon="0.77575">
        <ele>206</ele>
        <time>2009-01-20T10:12:10Z</time>
      </trkpt>
      <trkpt lat="44.7136" lon="0.77555">
        <ele>207</ele>
        <time>2009-01-20T10:12:12Z</time>
      </trkpt>
      <trkpt lat="44.71345" lon="0.77535">
        <ele>208</ele>
        <time>2009-01-20T10:12:14Z</time>
      </trkpt>
      <trkpt lat="44.7132" lon="0.7751">
        <ele>209</ele>
        <time>2009-01-20T10:12:17Z</time>
      </trkpt>
      <trkpt lat="44.71303" lon="0.775">
        <ele>210</ele>
        <time>2009-01-20T10:12:19Z</time>
      </trkpt>
      <trkpt lat="44.7128" lon="0.77493">
        <ele>211</ele>
        <time>2009-01-20T10:12:21Z</time>
      </trkpt>
      <trkpt lat="44.7125" lon="0.77483">
        <ele>211</ele>
        <time>2009-01-20T10:12:24Z</time>
      </trkpt>
      <trkpt lat="44.71225" lon="0.77473">
        <ele>211</ele>
        <time>2009-01-20T10:12:27Z</time>
      </trkpt>
      <trkpt lat="44.712" lon="0.77458">
        <ele>211</ele>
        <time>2009-01-20T10:12:30Z</time>
      </trkpt>
      <trkpt lat="44.7118" lon="0.77443">
        <ele>211</ele>
        <time>2009-01-20T10:12:33Z</time>
      </trkpt>
      <trkpt lat="44.71163" lon="0.77433">
        <ele>210</ele>
        <time>2009-01-20T10:12:39Z</time>
      </trkpt>
      <trkpt lat="44.7114" lon="0.7744">
        <ele>209</ele>
        <time>2009-01-20T10:12:45Z</time>
      </trkpt>
      <trkpt lat="44.71125" lon="0.77455">
        <ele>209</ele>
        <time>2009-01-20T10:12:48Z</time>
      </trkpt>
      <trkpt lat="44.71108" lon="0.77475">
        <ele>208</ele>
        <time>2009-01-20T10:12:51Z</time>
      </trkpt>
      <trkpt lat="44.71088" lon="0.77495">
        <ele>207</ele>
        <time>2009-01-20T10:12:54Z</time>
      </trkpt>
      <trkpt lat="44.71073" lon="0.77515">
        <ele>206</ele>
        <time>2009-01-20T10:12:57Z</time>
      </trkpt>
      <trkpt lat="44.71058" lon="0.77535">
        <ele>206</ele>
        <time>2009-01-20T10:13:00Z</time>
      </trkpt>
      <trkpt lat="44.71045" lon="0.77555">
        <ele>205</ele>
        <time>2009-01-20T10:13:03Z</time>
      </trkpt>
      <trkpt lat="44.7103" lon="0.77573">
        <ele>205</ele>
        <time>2009-01-20T10:13:06Z</time>
      </trkpt>
      <trkpt lat="44.71013" lon="0.7759">
        <ele>205</ele>
        <time>2009-01-20T10:13:09Z</time>
      </trkpt>
      <trkpt lat="44.70995" lon="0.77603">
        <ele>205</ele>
        <time>2009-01-20T10:13:12Z</time>
      </trkpt>
      <trkpt lat="44.70978" lon="0.77615">
        <ele>204</ele>
        <time>2009-01-20T10:13:15Z</time>
      </trkpt>
      <trkpt lat="44.70963" lon="0.77633">
        <ele>204</ele>
        <time>2009-01-20T10:13:18Z</time>
      </trkpt>
      <trkpt lat="44.70948" lon="0.77653">
        <ele>204</ele>
        <time>2009-01-20T10:13:23Z</time>
      </trkpt>
      <trkpt lat="44.71313" lon="0.7886">
        <ele>210</ele>
        <time>2009-01-20T10:25:07Z</time>
      </trkpt>
      <trkpt lat="44.71328" lon="0.78875">
        <ele>211</ele>
        <time>2009-01-20T10:25:21Z</time>
      </trkpt>
      <trkpt lat="44.71343" lon="0.7889">
        <ele>206</ele>
        <time>2009-01-20T10:25:55Z</time>
      </trkpt>
      <trkpt lat="44.71358" lon="0.78905">
        <ele>205</ele>
        <time>2009-01-20T10:26:00Z</time>
      </trkpt>
      <trkpt lat="44.71373" lon="0.78923">
        <ele>205</ele>
        <time>2009-01-20T10:26:04Z</time>
      </trkpt>
      <trkpt lat="44.71388" lon="0.78945">
        <ele>204</ele>
        <time>2009-01-20T10:26:08Z</time>
      </trkpt>
      <trkpt lat="44.714" lon="0.78968">
        <ele>205</ele>
        <time>2009-01-20T10:26:11Z</time>
      </trkpt>
      <trkpt lat="44.71415" lon="0.78998">
        <ele>205</ele>
        <time>2009-01-20T10:26:14Z</time>
      </trkpt>
      <trkpt lat="44.71428" lon="0.79028">
        <ele>206</ele>
        <time>2009-01-20T10:26:17Z</time>
      </trkpt>
      <trkpt lat="44.71433" lon="0.79053">
        <ele>205</ele>
        <time>2009-01-20T10:26:19Z</time>
      </trkpt>
      <trkpt lat="44.71438" lon="0.79078">
        <ele>204</ele>
        <time>2009-01-20T10:26:21Z</time>
      </trkpt>
      <trkpt lat="44.71445" lon="0.79115">
        <ele>205</ele>
        <time>2009-01-20T10:26:24Z</time>
      </trkpt>
      <trkpt lat="44.71448" lon="0.7915">
        <ele>204</ele>
        <time>2009-01-20T10:26:27Z</time>
      </trkpt>
      <trkpt lat="44.7145" lon="0.79178">
        <ele>205</ele>
        <time>2009-01-20T10:26:30Z</time>
      </trkpt>
      <trkpt lat="44.7145" lon="0.79205">
        <ele>206</ele>
        <time>2009-01-20T10:26:36Z</time>
      </trkpt>
      <trkpt lat="44.71453" lon="0.79238">
        <ele>206</ele>
        <time>2009-01-20T10:26:41Z</time>
      </trkpt>
      <trkpt lat="44.71455" lon="0.7927">
        <ele>206</ele>
        <time>2009-01-20T10:26:44Z</time>
      </trkpt>
      <trkpt lat="44.71455" lon="0.79303">
        <ele>205</ele>
        <time>2009-01-20T10:26:49Z</time>
      </trkpt>
      <trkpt lat="44.71455" lon="0.7933">
        <ele>205</ele>
        <time>2009-01-20T10:26:54Z</time>
      </trkpt>
      <trkpt lat="44.71455" lon="0.79363">
        <ele>210</ele>
        <time>2009-01-20T10:28:30Z</time>
      </trkpt>
      <trkpt lat="44.71455" lon="0.7939">
        <ele>211</ele>
        <time>2009-01-20T10:28:33Z</time>
      </trkpt>
      <trkpt lat="44.71458" lon="0.79423">
        <ele>212</ele>
        <time>2009-01-20T10:28:36Z</time>
      </trkpt>
      <trkpt lat="44.7146" lon="0.7945">
        <ele>214</ele>
        <time>2009-01-20T10:28:39Z</time>
      </trkpt>
      <trkpt lat="44.7146" lon="0.79478">
        <ele>216</ele>
        <time>2009-01-20T10:28:44Z</time>
      </trkpt>
      <trkpt lat="44.7146" lon="0.79513">
        <ele>218</ele>
        <time>2009-01-20T10:28:49Z</time>
      </trkpt>
      <trkpt lat="44.71453" lon="0.79538">
        <ele>220</ele>
        <time>2009-01-20T10:28:53Z</time>
      </trkpt>
      <trkpt lat="44.7144" lon="0.79558">
        <ele>220</ele>
        <time>2009-01-20T10:29:05Z</time>
      </trkpt>
      <trkpt lat="44.71435" lon="0.79585">
        <ele>219</ele>
        <time>2009-01-20T10:29:10Z</time>
      </trkpt>
      <trkpt lat="44.71445" lon="0.79613">
        <ele>216</ele>
        <time>2009-01-20T10:29:16Z</time>
      </trkpt>
      <trkpt lat="44.7146" lon="0.7963">
        <ele>218</ele>
        <time>2009-01-20T10:29:22Z</time>
      </trkpt>
      <trkpt lat="44.71473" lon="0.7965">
        <ele>216</ele>
        <time>2009-01-20T10:29:28Z</time>
      </trkpt>
      <trkpt lat="44.71488" lon="0.7967">
        <ele>216</ele>
        <time>2009-01-20T10:29:33Z</time>
      </trkpt>
      <trkpt lat="44.71503" lon="0.79685">
        <ele>215</ele>
        <time>2009-01-20T10:29:37Z</time>
      </trkpt>
      <trkpt lat="44.71515" lon="0.79705">
        <ele>214</ele>
        <time>2009-01-20T10:29:43Z</time>
      </trkpt>
    </trkseg>
  </trk>
  <trk>
    <name><![CDATA[BBmt60]]></name>
    <trkseg>
      <trkpt lat="44.71515" lon="0.79705">
        <ele>214</ele>
        <time>2009-01-20T10:29:43Z</time>
      </trkpt>
      <trkpt lat="44.71528" lon="0.79725">
        <ele>209</ele>
        <time>2009-01-20T10:33:16Z</time>
      </trkpt>
      <trkpt lat="44.71543" lon="0.7974">
        <ele>209</ele>
        <time>2009-01-20T10:33:20Z</time>
      </trkpt>
      <trkpt lat="44.71553" lon="0.79763">
        <ele>208</ele>
        <time>2009-01-20T10:33:27Z</time>
      </trkpt>
      <trkpt lat="44.7154" lon="0.7979">
        <ele>205</ele>
        <time>2009-01-20T10:33:34Z</time>
      </trkpt>
      <trkpt lat="44.71523" lon="0.79813">
        <ele>204</ele>
        <time>2009-01-20T10:33:38Z</time>
      </trkpt>
      <trkpt lat="44.71505" lon="0.79838">
        <ele>203</ele>
        <time>2009-01-20T10:33:41Z</time>
      </trkpt>
      <trkpt lat="44.71485" lon="0.79863">
        <ele>201</ele>
        <time>2009-01-20T10:33:44Z</time>
      </trkpt>
      <trkpt lat="44.71465" lon="0.7989">
        <ele>200</ele>
        <time>2009-01-20T10:33:47Z</time>
      </trkpt>
      <trkpt lat="44.71448" lon="0.79918">
        <ele>200</ele>
        <time>2009-01-20T10:33:50Z</time>
      </trkpt>
      <trkpt lat="44.7143" lon="0.79938">
        <ele>200</ele>
        <time>2009-01-20T10:33:53Z</time>
      </trkpt>
      <trkpt lat="44.71418" lon="0.79958">
        <ele>199</ele>
        <time>2009-01-20T10:33:57Z</time>
      </trkpt>
      <trkpt lat="44.7142" lon="0.79988">
        <ele>201</ele>
        <time>2009-01-20T10:34:08Z</time>
      </trkpt>
      <trkpt lat="44.71435" lon="0.80008">
        <ele>204</ele>
        <time>2009-01-20T10:34:12Z</time>
      </trkpt>
      <trkpt lat="44.71453" lon="0.80023">
        <ele>205</ele>
        <time>2009-01-20T10:34:16Z</time>
      </trkpt>
      <trkpt lat="44.71468" lon="0.8004">
        <ele>204</ele>
        <time>2009-01-20T10:34:20Z</time>
      </trkpt>
      <trkpt lat="44.71483" lon="0.80055">
        <ele>204</ele>
        <time>2009-01-20T10:34:24Z</time>
      </trkpt>
      <trkpt lat="44.71505" lon="0.80073">
        <ele>203</ele>
        <time>2009-01-20T10:34:28Z</time>
      </trkpt>
      <trkpt lat="44.71523" lon="0.80083">
        <ele>202</ele>
        <time>2009-01-20T10:34:31Z</time>
      </trkpt>
      <trkpt lat="44.71545" lon="0.80095">
        <ele>202</ele>
        <time>2009-01-20T10:34:33Z</time>
      </trkpt>
      <trkpt lat="44.71565" lon="0.80108">
        <ele>201</ele>
        <time>2009-01-20T10:34:37Z</time>
      </trkpt>
      <trkpt lat="44.71585" lon="0.8012">
        <ele>200</ele>
        <time>2009-01-20T10:34:40Z</time>
      </trkpt>
      <trkpt lat="44.71603" lon="0.8013">
        <ele>200</ele>
        <time>2009-01-20T10:34:43Z</time>
      </trkpt>
      <trkpt lat="44.7162" lon="0.8014">
        <ele>198</ele>
        <time>2009-01-20T10:34:47Z</time>
      </trkpt>
      <trkpt lat="44.71633" lon="0.8016">
        <ele>197</ele>
        <time>2009-01-20T10:34:59Z</time>
      </trkpt>
      <trkpt lat="44.71643" lon="0.80183">
        <ele>197</ele>
        <time>2009-01-20T10:35:02Z</time>
      </trkpt>
      <trkpt lat="44.71655" lon="0.80213">
        <ele>197</ele>
        <time>2009-01-20T10:35:05Z</time>
      </trkpt>
      <trkpt lat="44.71665" lon="0.80243">
        <ele>196</ele>
        <time>2009-01-20T10:35:08Z</time>
      </trkpt>
      <trkpt lat="44.71678" lon="0.80275">
        <ele>196</ele>
        <time>2009-01-20T10:35:11Z</time>
      </trkpt>
      <trkpt lat="44.71688" lon="0.80308">
        <ele>195</ele>
        <time>2009-01-20T10:35:14Z</time>
      </trkpt>
      <trkpt lat="44.71695" lon="0.8034">
        <ele>195</ele>
        <time>2009-01-20T10:35:17Z</time>
      </trkpt>
      <trkpt lat="44.71703" lon="0.80373">
        <ele>195</ele>
        <time>2009-01-20T10:35:20Z</time>
      </trkpt>
      <trkpt lat="44.7171" lon="0.80405">
        <ele>196</ele>
        <time>2009-01-20T10:35:23Z</time>
      </trkpt>
      <trkpt lat="44.71715" lon="0.80438">
        <ele>197</ele>
        <time>2009-01-20T10:35:26Z</time>
      </trkpt>
      <trkpt lat="44.71723" lon="0.8047">
        <ele>197</ele>
        <time>2009-01-20T10:35:29Z</time>
      </trkpt>
      <trkpt lat="44.7173" lon="0.805">
        <ele>197</ele>
        <time>2009-01-20T10:35:32Z</time>
      </trkpt>
      <trkpt lat="44.71735" lon="0.8053">
        <ele>197</ele>
        <time>2009-01-20T10:35:35Z</time>
      </trkpt>
      <trkpt lat="44.71743" lon="0.80555">
        <ele>198</ele>
        <time>2009-01-20T10:35:38Z</time>
      </trkpt>
      <trkpt lat="44.7175" lon="0.8058">
        <ele>198</ele>
        <time>2009-01-20T10:35:42Z</time>
      </trkpt>
      <trkpt lat="44.71758" lon="0.80605">
        <ele>197</ele>
        <time>2009-01-20T10:36:01Z</time>
      </trkpt>
      <trkpt lat="44.7177" lon="0.8063">
        <ele>197</ele>
        <time>2009-01-20T10:36:06Z</time>
      </trkpt>
      <trkpt lat="44.7178" lon="0.80658">
        <ele>197</ele>
        <time>2009-01-20T10:36:11Z</time>
      </trkpt>
      <trkpt lat="44.7179" lon="0.80683">
        <ele>195</ele>
        <time>2009-01-20T10:36:15Z</time>
      </trkpt>
      <trkpt lat="44.71803" lon="0.80705">
        <ele>195</ele>
        <time>2009-01-20T10:36:21Z</time>
      </trkpt>
      <trkpt lat="44.71823" lon="0.80713">
        <ele>193</ele>
        <time>2009-01-20T10:36:29Z</time>
      </trkpt>
      <trkpt lat="44.7184" lon="0.80723">
        <ele>191</ele>
        <time>2009-01-20T10:36:32Z</time>
      </trkpt>
      <trkpt lat="44.7186" lon="0.80735">
        <ele>189</ele>
        <time>2009-01-20T10:36:36Z</time>
      </trkpt>
      <trkpt lat="44.71878" lon="0.80748">
        <ele>186</ele>
        <time>2009-01-20T10:36:39Z</time>
      </trkpt>
      <trkpt lat="44.719" lon="0.80765">
        <ele>184</ele>
        <time>2009-01-20T10:36:42Z</time>
      </trkpt>
      <trkpt lat="44.71923" lon="0.80785">
        <ele>181</ele>
        <time>2009-01-20T10:36:45Z</time>
      </trkpt>
      <trkpt lat="44.71938" lon="0.808">
        <ele>179</ele>
        <time>2009-01-20T10:36:47Z</time>
      </trkpt>
      <trkpt lat="44.71953" lon="0.80815">
        <ele>175</ele>
        <time>2009-01-20T10:36:49Z</time>
      </trkpt>
      <trkpt lat="44.71955" lon="0.80833">
        <ele>170</ele>
        <time>2009-01-20T10:39:56Z</time>
      </trkpt>
      <trkpt lat="44.71973" lon="0.8085">
        <ele>167</ele>
        <time>2009-01-20T10:40:06Z</time>
      </trkpt>
      <trkpt lat="44.71985" lon="0.80873">
        <ele>167</ele>
        <time>2009-01-20T10:40:10Z</time>
      </trkpt>
      <trkpt lat="44.71998" lon="0.80898">
        <ele>167</ele>
        <time>2009-01-20T10:40:15Z</time>
      </trkpt>
      <trkpt lat="44.72013" lon="0.80923">
        <ele>167</ele>
        <time>2009-01-20T10:40:20Z</time>
      </trkpt>
      <trkpt lat="44.7203" lon="0.80945">
        <ele>167</ele>
        <time>2009-01-20T10:40:25Z</time>
      </trkpt>
      <trkpt lat="44.72045" lon="0.80965">
        <ele>165</ele>
        <time>2009-01-20T10:40:29Z</time>
      </trkpt>
      <trkpt lat="44.72063" lon="0.80985">
        <ele>164</ele>
        <time>2009-01-20T10:40:33Z</time>
      </trkpt>
      <trkpt lat="44.72078" lon="0.81003">
        <ele>164</ele>
        <time>2009-01-20T10:40:38Z</time>
      </trkpt>
      <trkpt lat="44.72093" lon="0.81018">
        <ele>167</ele>
        <time>2009-01-20T10:41:23Z</time>
      </trkpt>
      <trkpt lat="44.72103" lon="0.8104">
        <ele>163</ele>
        <time>2009-01-20T10:41:46Z</time>
      </trkpt>
      <trkpt lat="44.7211" lon="0.81065">
        <ele>151</ele>
        <time>2009-01-20T10:42:04Z</time>
      </trkpt>
      <trkpt lat="44.72118" lon="0.8109">
        <ele>149</ele>
        <time>2009-01-20T10:42:19Z</time>
      </trkpt>
      <trkpt lat="44.72123" lon="0.81115">
        <ele>144</ele>
        <time>2009-01-20T10:42:37Z</time>
      </trkpt>
      <trkpt lat="44.73064" lon="0.81502">
        <ele>123</ele>
        <time>2009-06-18T16:43:36Z</time>
      </trkpt>
      <trkpt lat="44.734" lon="0.82241">
        <ele>113</ele>
        <time>2009-06-18T16:43:36Z</time>
      </trkpt>
      <trkpt lat="44.73395" lon="0.82184">
        <ele>107</ele>
        <time>2009-06-18T16:43:36Z</time>
      </trkpt>
      <trkpt lat="44.73399" lon="0.82127">
        <ele>105</ele>
        <time>2009-06-18T16:43:36Z</time>
      </trkpt>
      <trkpt lat="44.73403" lon="0.82089">
        <ele>106</ele>
        <time>2009-06-18T16:43:36Z</time>
      </trkpt>
      <trkpt lat="44.73524" lon="0.8208">
        <ele>119</ele>
        <time>2009-06-18T16:43:36Z</time>
      </trkpt>
      <trkpt lat="44.73587" lon="0.82059">
        <ele>121</ele>
        <time>2009-06-18T16:43:36Z</time>
      </trkpt>
      <trkpt lat="44.73618" lon="0.82039">
        <ele>123</ele>
        <time>2009-01-20T10:42:52Z</time>
      </trkpt>
    </trkseg>
  </trk>
  <trk>
    <name><![CDATA[BBmt61]]></name>
    <trkseg>
      <trkpt lat="44.74215" lon="0.8297">
        <ele>158</ele>
        <time>2009-01-20T11:34:49Z</time>
      </trkpt>
      <trkpt lat="44.74235" lon="0.8297">
        <ele>159</ele>
        <time>2009-01-20T11:35:20Z</time>
      </trkpt>
      <trkpt lat="44.74255" lon="0.82963">
        <ele>161</ele>
        <time>2009-01-20T11:36:36Z</time>
      </trkpt>
      <trkpt lat="44.74275" lon="0.82958">
        <ele>160</ele>
        <time>2009-01-20T11:36:40Z</time>
      </trkpt>
      <trkpt lat="44.7429" lon="0.82938">
        <ele>159</ele>
        <time>2009-01-20T11:36:44Z</time>
      </trkpt>
      <trkpt lat="44.74288" lon="0.8291">
        <ele>156</ele>
        <time>2009-01-20T11:36:48Z</time>
      </trkpt>
      <trkpt lat="44.74285" lon="0.82878">
        <ele>154</ele>
        <time>2009-01-20T11:36:52Z</time>
      </trkpt>
      <trkpt lat="44.74285" lon="0.82843">
        <ele>153</ele>
        <time>2009-01-20T11:36:56Z</time>
      </trkpt>
      <trkpt lat="44.7429" lon="0.82818">
        <ele>155</ele>
        <time>2009-01-20T11:36:59Z</time>
      </trkpt>
      <trkpt lat="44.74305" lon="0.82793">
        <ele>159</ele>
        <time>2009-01-20T11:37:02Z</time>
      </trkpt>
      <trkpt lat="44.74315" lon="0.82763">
        <ele>159</ele>
        <time>2009-01-20T11:37:05Z</time>
      </trkpt>
      <trkpt lat="44.74323" lon="0.8273">
        <ele>160</ele>
        <time>2009-01-20T11:37:08Z</time>
      </trkpt>
      <trkpt lat="44.74325" lon="0.827">
        <ele>161</ele>
        <time>2009-01-20T11:37:11Z</time>
      </trkpt>
      <trkpt lat="44.74338" lon="0.82675">
        <ele>160</ele>
        <time>2009-01-20T11:37:14Z</time>
      </trkpt>
      <trkpt lat="44.7435" lon="0.8265">
        <ele>158</ele>
        <time>2009-01-20T11:37:17Z</time>
      </trkpt>
      <trkpt lat="44.74365" lon="0.82623">
        <ele>152</ele>
        <time>2009-01-20T11:37:20Z</time>
      </trkpt>
      <trkpt lat="44.74373" lon="0.82595">
        <ele>148</ele>
        <time>2009-01-20T11:37:23Z</time>
      </trkpt>
      <trkpt lat="44.7437" lon="0.82565">
        <ele>146</ele>
        <time>2009-01-20T11:37:26Z</time>
      </trkpt>
      <trkpt lat="44.74365" lon="0.82533">
        <ele>144</ele>
        <time>2009-01-20T11:37:29Z</time>
      </trkpt>
      <trkpt lat="44.74365" lon="0.82503">
        <ele>138</ele>
        <time>2009-01-20T11:37:32Z</time>
      </trkpt>
      <trkpt lat="44.74368" lon="0.8247">
        <ele>136</ele>
        <time>2009-01-20T11:37:35Z</time>
      </trkpt>
      <trkpt lat="44.74378" lon="0.82443">
        <ele>135</ele>
        <time>2009-01-20T11:37:38Z</time>
      </trkpt>
      <trkpt lat="44.74395" lon="0.82415">
        <ele>134</ele>
        <time>2009-01-20T11:37:41Z</time>
      </trkpt>
      <trkpt lat="44.74415" lon="0.82395">
        <ele>134</ele>
        <time>2009-01-20T11:37:44Z</time>
      </trkpt>
      <trkpt lat="44.74438" lon="0.82373">
        <ele>134</ele>
        <time>2009-01-20T11:37:47Z</time>
      </trkpt>
      <trkpt lat="44.74455" lon="0.8235">
        <ele>134</ele>
        <time>2009-01-20T11:37:50Z</time>
      </trkpt>
      <trkpt lat="44.74473" lon="0.82335">
        <ele>134</ele>
        <time>2009-01-20T11:37:53Z</time>
      </trkpt>
      <trkpt lat="44.74455" lon="0.82328">
        <ele>131</ele>
        <time>2009-01-20T11:38:38Z</time>
      </trkpt>
      <trkpt lat="44.74438" lon="0.82335">
        <ele>127</ele>
        <time>2009-01-20T11:38:42Z</time>
      </trkpt>
      <trkpt lat="44.74418" lon="0.82343">
        <ele>125</ele>
        <time>2009-01-20T11:38:49Z</time>
      </trkpt>
      <trkpt lat="44.74398" lon="0.82348">
        <ele>123</ele>
        <time>2009-01-20T11:38:55Z</time>
      </trkpt>
      <trkpt lat="44.74378" lon="0.8235">
        <ele>121</ele>
        <time>2009-01-20T11:39:00Z</time>
      </trkpt>
      <trkpt lat="44.74358" lon="0.82355">
        <ele>118</ele>
        <time>2009-01-20T11:39:05Z</time>
      </trkpt>
      <trkpt lat="44.74338" lon="0.82365">
        <ele>117</ele>
        <time>2009-01-20T11:39:10Z</time>
      </trkpt>
      <trkpt lat="44.74323" lon="0.8238">
        <ele>115</ele>
        <time>2009-01-20T11:39:15Z</time>
      </trkpt>
      <trkpt lat="44.74308" lon="0.82403">
        <ele>113</ele>
        <time>2009-01-20T11:39:20Z</time>
      </trkpt>
      <trkpt lat="44.74293" lon="0.82423">
        <ele>111</ele>
        <time>2009-01-20T11:39:25Z</time>
      </trkpt>
      <trkpt lat="44.7427" lon="0.82413">
        <ele>123</ele>
        <time>2009-01-20T11:39:40Z</time>
      </trkpt>
      <trkpt lat="44.74263" lon="0.82383">
        <ele>126</ele>
        <time>2009-01-20T11:39:45Z</time>
      </trkpt>
      <trkpt lat="44.74255" lon="0.82358">
        <ele>129</ele>
        <time>2009-01-20T11:39:49Z</time>
      </trkpt>
      <trkpt lat="44.74248" lon="0.82333">
        <ele>130</ele>
        <time>2009-01-20T11:39:53Z</time>
      </trkpt>
      <trkpt lat="44.74233" lon="0.82318">
        <ele>130</ele>
        <time>2009-01-20T11:39:57Z</time>
      </trkpt>
      <trkpt lat="44.74215" lon="0.8231">
        <ele>129</ele>
        <time>2009-01-20T11:40:01Z</time>
      </trkpt>
      <trkpt lat="44.74195" lon="0.82308">
        <ele>127</ele>
        <time>2009-01-20T11:40:05Z</time>
      </trkpt>
      <trkpt lat="44.74173" lon="0.82303">
        <ele>124</ele>
        <time>2009-01-20T11:40:09Z</time>
      </trkpt>
      <trkpt lat="44.74153" lon="0.823">
        <ele>121</ele>
        <time>2009-01-20T11:40:13Z</time>
      </trkpt>
      <trkpt lat="44.74133" lon="0.82295">
        <ele>120</ele>
        <time>2009-01-20T11:40:17Z</time>
      </trkpt>
      <trkpt lat="44.74113" lon="0.82293">
        <ele>119</ele>
        <time>2009-01-20T11:40:21Z</time>
      </trkpt>
      <trkpt lat="44.7409" lon="0.82293">
        <ele>116</ele>
        <time>2009-01-20T11:40:26Z</time>
      </trkpt>
      <trkpt lat="44.7407" lon="0.82293">
        <ele>110</ele>
        <time>2009-01-20T11:40:30Z</time>
      </trkpt>
      <trkpt lat="44.7405" lon="0.82293">
        <ele>109</ele>
        <time>2009-01-20T11:40:34Z</time>
      </trkpt>
      <trkpt lat="44.7403" lon="0.82288">
        <ele>106</ele>
        <time>2009-01-20T11:40:38Z</time>
      </trkpt>
      <trkpt lat="44.74008" lon="0.82283">
        <ele>104</ele>
        <time>2009-01-20T11:40:43Z</time>
      </trkpt>
      <trkpt lat="44.73985" lon="0.82278">
        <ele>104</ele>
        <time>2009-01-20T11:40:47Z</time>
      </trkpt>
      <trkpt lat="44.73965" lon="0.82278">
        <ele>101</ele>
        <time>2009-01-20T11:40:51Z</time>
      </trkpt>
      <trkpt lat="44.7394" lon="0.82275">
        <ele>100</ele>
        <time>2009-01-20T11:40:55Z</time>
      </trkpt>
      <trkpt lat="44.7392" lon="0.82273">
        <ele>100</ele>
        <time>2009-01-20T11:40:59Z</time>
      </trkpt>
      <trkpt lat="44.739" lon="0.82273">
        <ele>97</ele>
        <time>2009-01-20T11:41:03Z</time>
      </trkpt>
      <trkpt lat="44.7388" lon="0.82273">
        <ele>96</ele>
        <time>2009-01-20T11:41:08Z</time>
      </trkpt>
      <trkpt lat="44.7386" lon="0.8227">
        <ele>103</ele>
        <time>2009-01-20T11:41:16Z</time>
      </trkpt>
      <trkpt lat="44.73843" lon="0.82258">
        <ele>104</ele>
        <time>2009-01-20T11:41:26Z</time>
      </trkpt>
      <trkpt lat="44.73825" lon="0.82248">
        <ele>101</ele>
        <time>2009-01-20T11:41:33Z</time>
      </trkpt>
      <trkpt lat="44.73808" lon="0.82238">
        <ele>98</ele>
        <time>2009-01-20T11:41:39Z</time>
      </trkpt>
      <trkpt lat="44.73785" lon="0.82233">
        <ele>94</ele>
        <time>2009-01-20T11:41:45Z</time>
      </trkpt>
      <trkpt lat="44.73765" lon="0.82233">
        <ele>96</ele>
        <time>2009-01-20T11:41:51Z</time>
      </trkpt>
      <trkpt lat="44.73745" lon="0.82235">
        <ele>97</ele>
        <time>2009-01-20T11:41:58Z</time>
      </trkpt>
      <trkpt lat="44.73723" lon="0.8224">
        <ele>99</ele>
        <time>2009-01-20T11:42:04Z</time>
      </trkpt>
      <trkpt lat="44.73703" lon="0.82245">
        <ele>97</ele>
        <time>2009-01-20T11:42:11Z</time>
      </trkpt>
      <trkpt lat="44.73685" lon="0.82238">
        <ele>105</ele>
        <time>2009-01-20T11:43:15Z</time>
      </trkpt>
      <trkpt lat="44.73673" lon="0.82218">
        <ele>103</ele>
        <time>2009-01-20T11:43:29Z</time>
      </trkpt>
      <trkpt lat="44.7366" lon="0.82195">
        <ele>105</ele>
        <time>2009-01-20T11:43:46Z</time>
      </trkpt>
      <trkpt lat="44.73653" lon="0.8217">
        <ele>107</ele>
        <time>2009-01-20T11:43:59Z</time>
      </trkpt>
      <trkpt lat="44.73658" lon="0.82121">
        <ele>108</ele>
        <time>2009-06-18T16:43:36Z</time>
      </trkpt>
      <trkpt lat="44.73661" lon="0.82085">
        <ele>113</ele>
        <time>2009-06-18T16:43:36Z</time>
      </trkpt>
      <trkpt lat="44.73659" lon="0.81941">
        <ele>130</ele>
        <time>2009-06-18T16:43:36Z</time>
      </trkpt>
      <trkpt lat="44.7363" lon="0.82009">
        <ele>126</ele>
        <time>2009-01-20T11:44:16Z</time>
      </trkpt>
    </trkseg>
  </trk>
  <trk>
    <name><![CDATA[BBmt62]]></name>
    <trkseg>
      <trkpt lat="44.7509" lon="0.82335">
        <ele>94</ele>
        <time>2009-01-20T13:14:23Z</time>
      </trkpt>
      <trkpt lat="44.75078" lon="0.8236">
        <ele>87</ele>
        <time>2009-01-20T13:14:58Z</time>
      </trkpt>
      <trkpt lat="44.7507" lon="0.82385">
        <ele>88</ele>
        <time>2009-01-20T13:15:03Z</time>
      </trkpt>
      <trkpt lat="44.75063" lon="0.82413">
        <ele>91</ele>
        <time>2009-01-20T13:15:11Z</time>
      </trkpt>
      <trkpt lat="44.75063" lon="0.8244">
        <ele>99</ele>
        <time>2009-01-20T13:15:18Z</time>
      </trkpt>
      <trkpt lat="44.75055" lon="0.82468">
        <ele>101</ele>
        <time>2009-01-20T13:15:24Z</time>
      </trkpt>
      <trkpt lat="44.75048" lon="0.82493">
        <ele>108</ele>
        <time>2009-01-20T13:15:28Z</time>
      </trkpt>
      <trkpt lat="44.75038" lon="0.8252">
        <ele>113</ele>
        <time>2009-01-20T13:15:34Z</time>
      </trkpt>
      <trkpt lat="44.75033" lon="0.8255">
        <ele>122</ele>
        <time>2009-01-20T13:15:39Z</time>
      </trkpt>
      <trkpt lat="44.75023" lon="0.82578">
        <ele>128</ele>
        <time>2009-01-20T13:15:44Z</time>
      </trkpt>
      <trkpt lat="44.75013" lon="0.82608">
        <ele>138</ele>
        <time>2009-01-20T13:15:50Z</time>
      </trkpt>
      <trkpt lat="44.75005" lon="0.82633">
        <ele>142</ele>
        <time>2009-01-20T13:15:55Z</time>
      </trkpt>
      <trkpt lat="44.75" lon="0.8266">
        <ele>143</ele>
        <time>2009-01-20T13:16:00Z</time>
      </trkpt>
      <trkpt lat="44.74993" lon="0.82685">
        <ele>146</ele>
        <time>2009-01-20T13:16:06Z</time>
      </trkpt>
      <trkpt lat="44.74983" lon="0.82713">
        <ele>146</ele>
        <time>2009-01-20T13:16:12Z</time>
      </trkpt>
      <trkpt lat="44.74973" lon="0.82735">
        <ele>148</ele>
        <time>2009-01-20T13:16:18Z</time>
      </trkpt>
      <trkpt lat="44.74958" lon="0.82753">
        <ele>145</ele>
        <time>2009-01-20T13:16:27Z</time>
      </trkpt>
      <trkpt lat="44.7494" lon="0.82773">
        <ele>142</ele>
        <time>2009-01-20T13:16:35Z</time>
      </trkpt>
      <trkpt lat="44.74923" lon="0.82785">
        <ele>134</ele>
        <time>2009-01-20T13:16:55Z</time>
      </trkpt>
      <trkpt lat="44.74908" lon="0.82805">
        <ele>124</ele>
        <time>2009-01-20T13:17:52Z</time>
      </trkpt>
      <trkpt lat="44.74898" lon="0.82828">
        <ele>130</ele>
        <time>2009-01-20T13:17:59Z</time>
      </trkpt>
      <trkpt lat="44.74885" lon="0.82848">
        <ele>143</ele>
        <time>2009-01-20T13:18:40Z</time>
      </trkpt>
      <trkpt lat="44.74863" lon="0.8285">
        <ele>148</ele>
        <time>2009-01-20T13:18:50Z</time>
      </trkpt>
      <trkpt lat="44.7484" lon="0.82855">
        <ele>151</ele>
        <time>2009-01-20T13:18:56Z</time>
      </trkpt>
      <trkpt lat="44.7482" lon="0.8286">
        <ele>154</ele>
        <time>2009-01-20T13:19:02Z</time>
      </trkpt>
      <trkpt lat="44.748" lon="0.82868">
        <ele>158</ele>
        <time>2009-01-20T13:19:09Z</time>
      </trkpt>
      <trkpt lat="44.74783" lon="0.82875">
        <ele>161</ele>
        <time>2009-01-20T13:19:17Z</time>
      </trkpt>
      <trkpt lat="44.74768" lon="0.8289">
        <ele>162</ele>
        <time>2009-01-20T13:19:23Z</time>
      </trkpt>
      <trkpt lat="44.7475" lon="0.82903">
        <ele>166</ele>
        <time>2009-01-20T13:19:29Z</time>
      </trkpt>
      <trkpt lat="44.74728" lon="0.82903">
        <ele>167</ele>
        <time>2009-01-20T13:19:34Z</time>
      </trkpt>
      <trkpt lat="44.74705" lon="0.82898">
        <ele>164</ele>
        <time>2009-01-20T13:19:39Z</time>
      </trkpt>
      <trkpt lat="44.74688" lon="0.8289">
        <ele>165</ele>
        <time>2009-01-20T13:19:43Z</time>
      </trkpt>
      <trkpt lat="44.74665" lon="0.82888">
        <ele>167</ele>
        <time>2009-01-20T13:19:49Z</time>
      </trkpt>
      <trkpt lat="44.74643" lon="0.82888">
        <ele>170</ele>
        <time>2009-01-20T13:19:53Z</time>
      </trkpt>
      <trkpt lat="44.7462" lon="0.82888">
        <ele>172</ele>
        <time>2009-01-20T13:19:57Z</time>
      </trkpt>
      <trkpt lat="44.74598" lon="0.8289">
        <ele>175</ele>
        <time>2009-01-20T13:20:02Z</time>
      </trkpt>
      <trkpt lat="44.74575" lon="0.8289">
        <ele>174</ele>
        <time>2009-01-20T13:20:06Z</time>
      </trkpt>
      <trkpt lat="44.74555" lon="0.8289">
        <ele>173</ele>
        <time>2009-01-20T13:20:09Z</time>
      </trkpt>
      <trkpt lat="44.74535" lon="0.82888">
        <ele>171</ele>
        <time>2009-01-20T13:20:12Z</time>
      </trkpt>
      <trkpt lat="44.74513" lon="0.8288">
        <ele>170</ele>
        <time>2009-01-20T13:20:16Z</time>
      </trkpt>
      <trkpt lat="44.74493" lon="0.82865">
        <ele>171</ele>
        <time>2009-01-20T13:20:20Z</time>
      </trkpt>
      <trkpt lat="44.74473" lon="0.8285">
        <ele>170</ele>
        <time>2009-01-20T13:20:24Z</time>
      </trkpt>
      <trkpt lat="44.74453" lon="0.8284">
        <ele>168</ele>
        <time>2009-01-20T13:20:28Z</time>
      </trkpt>
      <trkpt lat="44.74433" lon="0.82835">
        <ele>166</ele>
        <time>2009-01-20T13:20:32Z</time>
      </trkpt>
      <trkpt lat="44.7441" lon="0.82828">
        <ele>165</ele>
        <time>2009-01-20T13:20:37Z</time>
      </trkpt>
      <trkpt lat="44.74393" lon="0.82835">
        <ele>165</ele>
        <time>2009-01-20T13:20:41Z</time>
      </trkpt>
      <trkpt lat="44.74373" lon="0.8285">
        <ele>164</ele>
        <time>2009-01-20T13:20:45Z</time>
      </trkpt>
      <trkpt lat="44.74355" lon="0.82868">
        <ele>164</ele>
        <time>2009-01-20T13:20:49Z</time>
      </trkpt>
      <trkpt lat="44.74343" lon="0.82888">
        <ele>164</ele>
        <time>2009-01-20T13:20:52Z</time>
      </trkpt>
      <trkpt lat="44.74328" lon="0.82913">
        <ele>163</ele>
        <time>2009-01-20T13:20:56Z</time>
      </trkpt>
      <trkpt lat="44.74318" lon="0.82935">
        <ele>163</ele>
        <time>2009-01-20T13:20:59Z</time>
      </trkpt>
      <trkpt lat="44.74308" lon="0.82958">
        <ele>162</ele>
        <time>2009-01-20T13:21:02Z</time>
      </trkpt>
      <trkpt lat="44.74293" lon="0.82975">
        <ele>163</ele>
        <time>2009-01-20T13:21:05Z</time>
      </trkpt>
      <trkpt lat="44.74273" lon="0.82988">
        <ele>164</ele>
        <time>2009-01-20T13:21:09Z</time>
      </trkpt>
      <trkpt lat="44.74255" lon="0.82998">
        <ele>164</ele>
        <time>2009-01-20T13:21:12Z</time>
      </trkpt>
      <trkpt lat="44.74233" lon="0.82993">
        <ele>162</ele>
        <time>2009-01-20T13:21:16Z</time>
      </trkpt>
      <trkpt lat="44.74215" lon="0.82983">
        <ele>162</ele>
        <time>2009-01-20T13:21:21Z</time>
      </trkpt>
    </trkseg>
  </trk>
  <trk>
    <name><![CDATA[BBmt63]]></name>
    <trkseg>
      <trkpt lat="44.73622" lon="0.82016">
        <ele>127</ele>
        <time>2009-01-20T13:30:54Z</time>
      </trkpt>
      <trkpt lat="44.73603" lon="0.82024">
        <ele>127</ele>
        <time>2009-06-18T16:43:36Z</time>
      </trkpt>
      <trkpt lat="44.73583" lon="0.82031">
        <ele>127</ele>
        <time>2009-06-18T16:43:36Z</time>
      </trkpt>
      <trkpt lat="44.7356" lon="0.82033">
        <ele>128</ele>
        <time>2009-06-18T16:43:36Z</time>
      </trkpt>
      <trkpt lat="44.73539" lon="0.82034">
        <ele>128</ele>
        <time>2009-06-18T16:43:36Z</time>
      </trkpt>
      <trkpt lat="44.73524" lon="0.82034">
        <ele>128</ele>
        <time>2009-06-18T16:43:36Z</time>
      </trkpt>
      <trkpt lat="44.73509" lon="0.82031">
        <ele>127</ele>
        <time>2009-06-18T16:43:36Z</time>
      </trkpt>
      <trkpt lat="44.73497" lon="0.82027">
        <ele>127</ele>
        <time>2009-06-18T16:43:36Z</time>
      </trkpt>
      <trkpt lat="44.73488" lon="0.82028">
        <ele>126</ele>
        <time>2009-06-18T16:43:36Z</time>
      </trkpt>
      <trkpt lat="44.73477" lon="0.82022">
        <ele>126</ele>
        <time>2009-06-18T16:43:36Z</time>
      </trkpt>
      <trkpt lat="44.73472" lon="0.8202">
        <ele>126</ele>
        <time>2009-06-18T16:43:36Z</time>
      </trkpt>
      <trkpt lat="44.73466" lon="0.82016">
        <ele>126</ele>
        <time>2009-06-18T16:43:36Z</time>
      </trkpt>
      <trkpt lat="44.73456" lon="0.82013">
        <ele>126</ele>
        <time>2009-06-18T16:43:36Z</time>
      </trkpt>
      <trkpt lat="44.73446" lon="0.82009">
        <ele>125</ele>
        <time>2009-06-18T16:43:36Z</time>
      </trkpt>
      <trkpt lat="44.73429" lon="0.82001">
        <ele>125</ele>
        <time>2009-06-18T16:43:36Z</time>
      </trkpt>
      <trkpt lat="44.73418" lon="0.81996">
        <ele>124</ele>
        <time>2009-06-18T16:43:36Z</time>
      </trkpt>
      <trkpt lat="44.73401" lon="0.81984">
        <ele>123</ele>
        <time>2009-06-18T16:43:36Z</time>
      </trkpt>
      <trkpt lat="44.73378" lon="0.81972">
        <ele>120</ele>
        <time>2009-06-18T16:43:36Z</time>
      </trkpt>
      <trkpt lat="44.73485" lon="0.8172">
        <ele>155</ele>
        <time>2009-06-18T16:43:36Z</time>
      </trkpt>
      <trkpt lat="44.7351" lon="0.81698">
        <ele>154</ele>
        <time>2009-01-20T13:30:58Z</time>
      </trkpt>
      <trkpt lat="44.73528" lon="0.81678">
        <ele>156</ele>
        <time>2009-01-20T13:31:01Z</time>
      </trkpt>
      <trkpt lat="44.73543" lon="0.81658">
        <ele>158</ele>
        <time>2009-01-20T13:31:04Z</time>
      </trkpt>
      <trkpt lat="44.73558" lon="0.81638">
        <ele>160</ele>
        <time>2009-01-20T13:31:07Z</time>
      </trkpt>
      <trkpt lat="44.73575" lon="0.81628">
        <ele>160</ele>
        <time>2009-01-20T13:31:10Z</time>
      </trkpt>
      <trkpt lat="44.736" lon="0.81633">
        <ele>161</ele>
        <time>2009-01-20T13:31:14Z</time>
      </trkpt>
      <trkpt lat="44.7362" lon="0.81638">
        <ele>161</ele>
        <time>2009-01-20T13:31:17Z</time>
      </trkpt>
      <trkpt lat="44.7364" lon="0.8164">
        <ele>161</ele>
        <time>2009-01-20T13:31:26Z</time>
      </trkpt>
      <trkpt lat="44.7365" lon="0.8161">
        <ele>162</ele>
        <time>2009-01-20T13:31:33Z</time>
      </trkpt>
      <trkpt lat="44.73655" lon="0.81585">
        <ele>163</ele>
        <time>2009-01-20T13:31:36Z</time>
      </trkpt>
      <trkpt lat="44.7366" lon="0.81555">
        <ele>164</ele>
        <time>2009-01-20T13:31:39Z</time>
      </trkpt>
      <trkpt lat="44.73663" lon="0.81523">
        <ele>166</ele>
        <time>2009-01-20T13:31:42Z</time>
      </trkpt>
      <trkpt lat="44.73668" lon="0.81493">
        <ele>167</ele>
        <time>2009-01-20T13:31:45Z</time>
      </trkpt>
      <trkpt lat="44.7367" lon="0.81465">
        <ele>170</ele>
        <time>2009-01-20T13:31:48Z</time>
      </trkpt>
      <trkpt lat="44.73673" lon="0.81433">
        <ele>172</ele>
        <time>2009-01-20T13:31:51Z</time>
      </trkpt>
      <trkpt lat="44.73675" lon="0.81398">
        <ele>172</ele>
        <time>2009-01-20T13:31:54Z</time>
      </trkpt>
      <trkpt lat="44.73678" lon="0.81365">
        <ele>173</ele>
        <time>2009-01-20T13:31:57Z</time>
      </trkpt>
      <trkpt lat="44.7367" lon="0.81338">
        <ele>175</ele>
        <time>2009-01-20T13:32:04Z</time>
      </trkpt>
      <trkpt lat="44.73658" lon="0.81313">
        <ele>174</ele>
        <time>2009-01-20T13:32:09Z</time>
      </trkpt>
      <trkpt lat="44.73645" lon="0.81283">
        <ele>174</ele>
        <time>2009-01-20T13:32:12Z</time>
      </trkpt>
      <trkpt lat="44.73633" lon="0.81245">
        <ele>173</ele>
        <time>2009-01-20T13:32:15Z</time>
      </trkpt>
      <trkpt lat="44.73625" lon="0.81218">
        <ele>172</ele>
        <time>2009-01-20T13:32:17Z</time>
      </trkpt>
      <trkpt lat="44.73618" lon="0.8119">
        <ele>172</ele>
        <time>2009-01-20T13:32:19Z</time>
      </trkpt>
      <trkpt lat="44.7361" lon="0.81163">
        <ele>171</ele>
        <time>2009-01-20T13:32:21Z</time>
      </trkpt>
      <trkpt lat="44.73598" lon="0.81123">
        <ele>171</ele>
        <time>2009-01-20T13:32:24Z</time>
      </trkpt>
      <trkpt lat="44.73585" lon="0.8108">
        <ele>170</ele>
        <time>2009-01-20T13:32:27Z</time>
      </trkpt>
      <trkpt lat="44.73578" lon="0.81055">
        <ele>170</ele>
        <time>2009-01-20T13:32:29Z</time>
      </trkpt>
      <trkpt lat="44.7357" lon="0.81028">
        <ele>170</ele>
        <time>2009-01-20T13:32:31Z</time>
      </trkpt>
      <trkpt lat="44.7356" lon="0.81003">
        <ele>170</ele>
        <time>2009-01-20T13:32:33Z</time>
      </trkpt>
      <trkpt lat="44.7355" lon="0.80965">
        <ele>171</ele>
        <time>2009-01-20T13:32:36Z</time>
      </trkpt>
      <trkpt lat="44.73543" lon="0.8094">
        <ele>171</ele>
        <time>2009-01-20T13:32:39Z</time>
      </trkpt>
      <trkpt lat="44.7353" lon="0.809">
        <ele>171</ele>
        <time>2009-01-20T13:32:41Z</time>
      </trkpt>
      <trkpt lat="44.7352" lon="0.8086">
        <ele>171</ele>
        <time>2009-01-20T13:32:44Z</time>
      </trkpt>
      <trkpt lat="44.7351" lon="0.80835">
        <ele>171</ele>
        <time>2009-01-20T13:32:46Z</time>
      </trkpt>
      <trkpt lat="44.73503" lon="0.80808">
        <ele>171</ele>
        <time>2009-01-20T13:32:48Z</time>
      </trkpt>
      <trkpt lat="44.73495" lon="0.80783">
        <ele>172</ele>
        <time>2009-01-20T13:32:50Z</time>
      </trkpt>
      <trkpt lat="44.73488" lon="0.80758">
        <ele>173</ele>
        <time>2009-01-20T13:32:52Z</time>
      </trkpt>
      <trkpt lat="44.74161" lon="0.79908">
        <ele>173</ele>
        <time>2009-06-18T16:43:36Z</time>
      </trkpt>
      <trkpt lat="44.74219" lon="0.79813">
        <ele>173</ele>
        <time>2009-01-20T13:36:53Z</time>
      </trkpt>
    </trkseg>
  </trk>
  <trk>
    <name><![CDATA[BBmt64]]></name>
    <trkseg>
      <trkpt lat="44.74219" lon="0.79813">
        <ele>173</ele>
        <time>2009-01-20T13:36:53Z</time>
      </trkpt>
      <trkpt lat="44.74243" lon="0.7978">
        <ele>166</ele>
        <time>2009-01-20T13:40:57Z</time>
      </trkpt>
      <trkpt lat="44.74255" lon="0.7976">
        <ele>166</ele>
        <time>2009-01-20T13:41:17Z</time>
      </trkpt>
      <trkpt lat="44.74265" lon="0.79735">
        <ele>165</ele>
        <time>2009-01-20T13:41:22Z</time>
      </trkpt>
      <trkpt lat="44.7427" lon="0.79708">
        <ele>166</ele>
        <time>2009-01-20T13:41:27Z</time>
      </trkpt>
      <trkpt lat="44.74273" lon="0.7968">
        <ele>167</ele>
        <time>2009-01-20T13:41:32Z</time>
      </trkpt>
      <trkpt lat="44.74275" lon="0.7965">
        <ele>167</ele>
        <time>2009-01-20T13:41:37Z</time>
      </trkpt>
      <trkpt lat="44.7428" lon="0.7962">
        <ele>168</ele>
        <time>2009-01-20T13:41:42Z</time>
      </trkpt>
      <trkpt lat="44.7429" lon="0.79598">
        <ele>166</ele>
        <time>2009-01-20T13:41:46Z</time>
      </trkpt>
      <trkpt lat="44.74303" lon="0.79575">
        <ele>165</ele>
        <time>2009-01-20T13:41:50Z</time>
      </trkpt>
      <trkpt lat="44.74315" lon="0.79553">
        <ele>164</ele>
        <time>2009-01-20T13:41:54Z</time>
      </trkpt>
      <trkpt lat="44.74328" lon="0.7953">
        <ele>163</ele>
        <time>2009-01-20T13:41:57Z</time>
      </trkpt>
      <trkpt lat="44.7434" lon="0.7951">
        <ele>163</ele>
        <time>2009-01-20T13:42:00Z</time>
      </trkpt>
      <trkpt lat="44.74353" lon="0.7949">
        <ele>162</ele>
        <time>2009-01-20T13:42:03Z</time>
      </trkpt>
      <trkpt lat="44.7437" lon="0.79473">
        <ele>161</ele>
        <time>2009-01-20T13:42:07Z</time>
      </trkpt>
      <trkpt lat="44.74393" lon="0.79473">
        <ele>160</ele>
        <time>2009-01-20T13:42:11Z</time>
      </trkpt>
      <trkpt lat="44.74415" lon="0.79475">
        <ele>160</ele>
        <time>2009-01-20T13:42:15Z</time>
      </trkpt>
      <trkpt lat="44.74438" lon="0.79475">
        <ele>158</ele>
        <time>2009-01-20T13:42:19Z</time>
      </trkpt>
      <trkpt lat="44.74463" lon="0.79478">
        <ele>156</ele>
        <time>2009-01-20T13:42:23Z</time>
      </trkpt>
      <trkpt lat="44.7448" lon="0.7947">
        <ele>154</ele>
        <time>2009-01-20T13:42:39Z</time>
      </trkpt>
      <trkpt lat="44.7449" lon="0.79448">
        <ele>157</ele>
        <time>2009-01-20T13:42:44Z</time>
      </trkpt>
      <trkpt lat="44.745" lon="0.7942">
        <ele>157</ele>
        <time>2009-01-20T13:42:49Z</time>
      </trkpt>
      <trkpt lat="44.74515" lon="0.79403">
        <ele>155</ele>
        <time>2009-01-20T13:42:53Z</time>
      </trkpt>
      <trkpt lat="44.74533" lon="0.79383">
        <ele>153</ele>
        <time>2009-01-20T13:43:07Z</time>
      </trkpt>
      <trkpt lat="44.7453" lon="0.79353">
        <ele>150</ele>
        <time>2009-01-20T13:43:12Z</time>
      </trkpt>
      <trkpt lat="44.74513" lon="0.79333">
        <ele>146</ele>
        <time>2009-01-20T13:43:15Z</time>
      </trkpt>
      <trkpt lat="44.74495" lon="0.79313">
        <ele>142</ele>
        <time>2009-01-20T13:43:19Z</time>
      </trkpt>
      <trkpt lat="44.74483" lon="0.79293">
        <ele>142</ele>
        <time>2009-01-20T13:43:22Z</time>
      </trkpt>
      <trkpt lat="44.74465" lon="0.79273">
        <ele>138</ele>
        <time>2009-01-20T13:43:26Z</time>
      </trkpt>
      <trkpt lat="44.7445" lon="0.79255">
        <ele>137</ele>
        <time>2009-01-20T13:43:30Z</time>
      </trkpt>
      <trkpt lat="44.74468" lon="0.7924">
        <ele>128</ele>
        <time>2009-01-20T13:43:38Z</time>
      </trkpt>
      <trkpt lat="44.74488" lon="0.7924">
        <ele>124</ele>
        <time>2009-01-20T13:43:42Z</time>
      </trkpt>
      <trkpt lat="44.74505" lon="0.79225">
        <ele>120</ele>
        <time>2009-01-20T13:43:47Z</time>
      </trkpt>
      <trkpt lat="44.7451" lon="0.7919">
        <ele>122</ele>
        <time>2009-01-20T13:43:51Z</time>
      </trkpt>
      <trkpt lat="44.74513" lon="0.79155">
        <ele>124</ele>
        <time>2009-01-20T13:43:55Z</time>
      </trkpt>
      <trkpt lat="44.74518" lon="0.79128">
        <ele>125</ele>
        <time>2009-01-20T13:43:59Z</time>
      </trkpt>
      <trkpt lat="44.74523" lon="0.79095">
        <ele>130</ele>
        <time>2009-01-20T13:44:04Z</time>
      </trkpt>
      <trkpt lat="44.74523" lon="0.7906">
        <ele>137</ele>
        <time>2009-01-20T13:44:08Z</time>
      </trkpt>
      <trkpt lat="44.74528" lon="0.79033">
        <ele>144</ele>
        <time>2009-01-20T13:44:11Z</time>
      </trkpt>
      <trkpt lat="44.7454" lon="0.79">
        <ele>150</ele>
        <time>2009-01-20T13:44:14Z</time>
      </trkpt>
      <trkpt lat="44.74553" lon="0.78973">
        <ele>151</ele>
        <time>2009-01-20T13:44:17Z</time>
      </trkpt>
      <trkpt lat="44.74568" lon="0.7895">
        <ele>153</ele>
        <time>2009-01-20T13:44:20Z</time>
      </trkpt>
      <trkpt lat="44.7458" lon="0.78928">
        <ele>154</ele>
        <time>2009-01-20T13:44:23Z</time>
      </trkpt>
      <trkpt lat="44.74595" lon="0.78908">
        <ele>153</ele>
        <time>2009-01-20T13:44:26Z</time>
      </trkpt>
      <trkpt lat="44.7461" lon="0.78888">
        <ele>154</ele>
        <time>2009-01-20T13:44:29Z</time>
      </trkpt>
      <trkpt lat="44.74625" lon="0.78868">
        <ele>156</ele>
        <time>2009-01-20T13:44:32Z</time>
      </trkpt>
      <trkpt lat="44.74638" lon="0.78845">
        <ele>158</ele>
        <time>2009-01-20T13:44:35Z</time>
      </trkpt>
      <trkpt lat="44.7465" lon="0.7882">
        <ele>160</ele>
        <time>2009-01-20T13:44:38Z</time>
      </trkpt>
      <trkpt lat="44.74663" lon="0.78798">
        <ele>163</ele>
        <time>2009-01-20T13:44:41Z</time>
      </trkpt>
      <trkpt lat="44.74673" lon="0.78775">
        <ele>164</ele>
        <time>2009-01-20T13:44:44Z</time>
      </trkpt>
      <trkpt lat="44.74683" lon="0.78748">
        <ele>166</ele>
        <time>2009-01-20T13:44:47Z</time>
      </trkpt>
      <trkpt lat="44.74693" lon="0.78723">
        <ele>166</ele>
        <time>2009-01-20T13:44:50Z</time>
      </trkpt>
      <trkpt lat="44.747" lon="0.78698">
        <ele>166</ele>
        <time>2009-01-20T13:44:53Z</time>
      </trkpt>
      <trkpt lat="44.7471" lon="0.7867">
        <ele>167</ele>
        <time>2009-01-20T13:44:57Z</time>
      </trkpt>
      <trkpt lat="44.7472" lon="0.78645">
        <ele>169</ele>
        <time>2009-01-20T13:45:00Z</time>
      </trkpt>
      <trkpt lat="44.74733" lon="0.78618">
        <ele>170</ele>
        <time>2009-01-20T13:45:03Z</time>
      </trkpt>
      <trkpt lat="44.74745" lon="0.78593">
        <ele>170</ele>
        <time>2009-01-20T13:45:06Z</time>
      </trkpt>
      <trkpt lat="44.74755" lon="0.78565">
        <ele>173</ele>
        <time>2009-01-20T13:45:09Z</time>
      </trkpt>
      <trkpt lat="44.74765" lon="0.78543">
        <ele>172</ele>
        <time>2009-01-20T13:45:13Z</time>
      </trkpt>
      <trkpt lat="44.7478" lon="0.78558">
        <ele>170</ele>
        <time>2009-01-20T13:45:25Z</time>
      </trkpt>
      <trkpt lat="44.7479" lon="0.7858">
        <ele>169</ele>
        <time>2009-01-20T13:45:29Z</time>
      </trkpt>
      <trkpt lat="44.748" lon="0.78603">
        <ele>170</ele>
        <time>2009-01-20T13:45:40Z</time>
      </trkpt>
      <trkpt lat="44.7481" lon="0.78625">
        <ele>170</ele>
        <time>2009-01-20T13:45:44Z</time>
      </trkpt>
      <trkpt lat="44.74823" lon="0.78653">
        <ele>168</ele>
        <time>2009-01-20T13:45:48Z</time>
      </trkpt>
      <trkpt lat="44.74833" lon="0.78675">
        <ele>167</ele>
        <time>2009-01-20T13:45:51Z</time>
      </trkpt>
      <trkpt lat="44.74845" lon="0.78698">
        <ele>166</ele>
        <time>2009-01-20T13:45:54Z</time>
      </trkpt>
      <trkpt lat="44.74858" lon="0.7872">
        <ele>165</ele>
        <time>2009-01-20T13:45:57Z</time>
      </trkpt>
      <trkpt lat="44.7487" lon="0.78743">
        <ele>163</ele>
        <time>2009-01-20T13:46:00Z</time>
      </trkpt>
      <trkpt lat="44.74885" lon="0.78763">
        <ele>163</ele>
        <time>2009-01-20T13:46:03Z</time>
      </trkpt>
      <trkpt lat="44.749" lon="0.78785">
        <ele>162</ele>
        <time>2009-01-20T13:46:06Z</time>
      </trkpt>
      <trkpt lat="44.74913" lon="0.78808">
        <ele>162</ele>
        <time>2009-01-20T13:46:09Z</time>
      </trkpt>
      <trkpt lat="44.74925" lon="0.78833">
        <ele>162</ele>
        <time>2009-01-20T13:46:12Z</time>
      </trkpt>
      <trkpt lat="44.74938" lon="0.78863">
        <ele>161</ele>
        <time>2009-01-20T13:46:16Z</time>
      </trkpt>
      <trkpt lat="44.74948" lon="0.78885">
        <ele>161</ele>
        <time>2009-01-20T13:46:19Z</time>
      </trkpt>
      <trkpt lat="44.7496" lon="0.78908">
        <ele>160</ele>
        <time>2009-01-20T13:46:22Z</time>
      </trkpt>
      <trkpt lat="44.7497" lon="0.7894">
        <ele>161</ele>
        <time>2009-01-20T13:46:26Z</time>
      </trkpt>
      <trkpt lat="44.74978" lon="0.78965">
        <ele>161</ele>
        <time>2009-01-20T13:46:29Z</time>
      </trkpt>
      <trkpt lat="44.74988" lon="0.78988">
        <ele>161</ele>
        <time>2009-01-20T13:46:31Z</time>
      </trkpt>
      <trkpt lat="44.74995" lon="0.79013">
        <ele>161</ele>
        <time>2009-01-20T13:46:35Z</time>
      </trkpt>
      <trkpt lat="44.75008" lon="0.79033">
        <ele>162</ele>
        <time>2009-01-20T13:46:38Z</time>
      </trkpt>
      <trkpt lat="44.7502" lon="0.79055">
        <ele>160</ele>
        <time>2009-01-20T13:46:42Z</time>
      </trkpt>
      <trkpt lat="44.75038" lon="0.79073">
        <ele>154</ele>
        <time>2009-01-20T13:46:46Z</time>
      </trkpt>
      <trkpt lat="44.75055" lon="0.79095">
        <ele>151</ele>
        <time>2009-01-20T13:46:50Z</time>
      </trkpt>
      <trkpt lat="44.75073" lon="0.79115">
        <ele>146</ele>
        <time>2009-01-20T13:46:53Z</time>
      </trkpt>
      <trkpt lat="44.75088" lon="0.79135">
        <ele>141</ele>
        <time>2009-01-20T13:47:05Z</time>
      </trkpt>
      <trkpt lat="44.75105" lon="0.7916">
        <ele>141</ele>
        <time>2009-01-20T13:47:16Z</time>
      </trkpt>
      <trkpt lat="44.75118" lon="0.7918">
        <ele>141</ele>
        <time>2009-01-20T13:47:19Z</time>
      </trkpt>
      <trkpt lat="44.75133" lon="0.79205">
        <ele>140</ele>
        <time>2009-01-20T13:47:22Z</time>
      </trkpt>
      <trkpt lat="44.75155" lon="0.7923">
        <ele>139</ele>
        <time>2009-01-20T13:47:25Z</time>
      </trkpt>
      <trkpt lat="44.7517" lon="0.79245">
        <ele>139</ele>
        <time>2009-01-20T13:47:27Z</time>
      </trkpt>
      <trkpt lat="44.75188" lon="0.7926">
        <ele>139</ele>
        <time>2009-01-20T13:47:29Z</time>
      </trkpt>
      <trkpt lat="44.75213" lon="0.7928">
        <ele>140</ele>
        <time>2009-01-20T13:47:32Z</time>
      </trkpt>
      <trkpt lat="44.7523" lon="0.79293">
        <ele>143</ele>
        <time>2009-01-20T13:47:34Z</time>
      </trkpt>
      <trkpt lat="44.75253" lon="0.79313">
        <ele>144</ele>
        <time>2009-01-20T13:47:37Z</time>
      </trkpt>
      <trkpt lat="44.75273" lon="0.7933">
        <ele>146</ele>
        <time>2009-01-20T13:47:40Z</time>
      </trkpt>
      <trkpt lat="44.75293" lon="0.7935">
        <ele>148</ele>
        <time>2009-01-20T13:47:43Z</time>
      </trkpt>
      <trkpt lat="44.75313" lon="0.79368">
        <ele>147</ele>
        <time>2009-01-20T13:47:46Z</time>
      </trkpt>
      <trkpt lat="44.7533" lon="0.79385">
        <ele>145</ele>
        <time>2009-01-20T13:47:49Z</time>
      </trkpt>
      <trkpt lat="44.7535" lon="0.79405">
        <ele>141</ele>
        <time>2009-01-20T13:47:52Z</time>
      </trkpt>
      <trkpt lat="44.75365" lon="0.7942">
        <ele>138</ele>
        <time>2009-01-20T13:47:54Z</time>
      </trkpt>
      <trkpt lat="44.75383" lon="0.79438">
        <ele>138</ele>
        <time>2009-01-20T13:47:56Z</time>
      </trkpt>
      <trkpt lat="44.75398" lon="0.79455">
        <ele>136</ele>
        <time>2009-01-20T13:47:58Z</time>
      </trkpt>
      <trkpt lat="44.75418" lon="0.79488">
        <ele>134</ele>
        <time>2009-01-20T13:48:01Z</time>
      </trkpt>
      <trkpt lat="44.7543" lon="0.79508">
        <ele>131</ele>
        <time>2009-01-20T13:48:03Z</time>
      </trkpt>
      <trkpt lat="44.7544" lon="0.7953">
        <ele>127</ele>
        <time>2009-01-20T13:48:06Z</time>
      </trkpt>
      <trkpt lat="44.75946" lon="0.78185">
        <ele>154</ele>
        <time>2009-01-20T14:12:13Z</time>
      </trkpt>
    </trkseg>
  </trk>
  <trk>
    <name><![CDATA[BBmt65]]></name>
    <trkseg>
      <trkpt lat="44.74375" lon="0.74234">
        <ele>158</ele>
        <time>2009-06-18T16:43:36Z</time>
      </trkpt>
      <trkpt lat="44.74453" lon="0.74011">
        <ele>157</ele>
        <time>2009-06-18T16:43:36Z</time>
      </trkpt>
      <trkpt lat="44.74644" lon="0.7357">
        <ele>149</ele>
        <time>2009-06-18T16:43:36Z</time>
      </trkpt>
      <trkpt lat="44.74657" lon="0.73519">
        <ele>148</ele>
        <time>2009-06-18T16:43:36Z</time>
      </trkpt>
      <trkpt lat="44.74679" lon="0.73493">
        <ele>148</ele>
        <time>2009-06-18T16:43:36Z</time>
      </trkpt>
      <trkpt lat="44.74569" lon="0.72878">
        <ele>149</ele>
        <time>2009-06-18T16:43:36Z</time>
      </trkpt>
      <trkpt lat="44.74748" lon="0.7281">
        <ele>145</ele>
        <time>2009-06-18T16:43:36Z</time>
      </trkpt>
      <trkpt lat="44.74807" lon="0.72312">
        <ele>151</ele>
        <time>2009-06-18T16:43:36Z</time>
      </trkpt>
      <trkpt lat="44.74768" lon="0.72298">
        <ele>151</ele>
        <time>2009-06-18T16:43:36Z</time>
      </trkpt>
      <trkpt lat="44.74694" lon="0.72256">
        <ele>152</ele>
        <time>2009-06-18T16:43:36Z</time>
      </trkpt>
      <trkpt lat="44.74635" lon="0.72261">
        <ele>152</ele>
        <time>2009-06-18T16:43:36Z</time>
      </trkpt>
      <trkpt lat="44.74587" lon="0.72322">
        <ele>152</ele>
        <time>2009-06-18T16:43:36Z</time>
      </trkpt>
      <trkpt lat="44.74498" lon="0.7241">
        <ele>152</ele>
        <time>2009-06-18T16:43:36Z</time>
      </trkpt>
      <trkpt lat="44.74481" lon="0.72334">
        <ele>152</ele>
        <time>2009-06-18T16:43:36Z</time>
      </trkpt>
      <trkpt lat="44.74443" lon="0.72171">
        <ele>150</ele>
        <time>2009-06-18T16:43:36Z</time>
      </trkpt>
      <trkpt lat="44.74524" lon="0.71049">
        <ele>139</ele>
        <time>2009-06-18T16:43:36Z</time>
      </trkpt>
      <trkpt lat="44.75398" lon="0.71958">
        <ele>145</ele>
        <time>2009-06-18T16:43:36Z</time>
      </trkpt>
      <trkpt lat="44.75433" lon="0.71993">
        <ele>134</ele>
        <time>2009-06-18T16:43:36Z</time>
      </trkpt>
      <trkpt lat="44.7545" lon="0.72003">
        <ele>133</ele>
        <time>2009-06-18T16:43:36Z</time>
      </trkpt>
      <trkpt lat="44.75468" lon="0.7201">
        <ele>133</ele>
        <time>2009-06-18T16:43:36Z</time>
      </trkpt>
      <trkpt lat="44.75485" lon="0.72018">
        <ele>133</ele>
        <time>2009-06-18T16:43:36Z</time>
      </trkpt>
      <trkpt lat="44.75503" lon="0.72025">
        <ele>133</ele>
        <time>2009-06-18T16:43:36Z</time>
      </trkpt>
      <trkpt lat="44.7552" lon="0.72033">
        <ele>133</ele>
        <time>2009-06-18T16:43:36Z</time>
      </trkpt>
      <trkpt lat="44.75538" lon="0.72043">
        <ele>134</ele>
        <time>2009-06-18T16:43:36Z</time>
      </trkpt>
      <trkpt lat="44.75555" lon="0.7205">
        <ele>134</ele>
        <time>2009-06-18T16:43:36Z</time>
      </trkpt>
      <trkpt lat="44.75573" lon="0.7206">
        <ele>135</ele>
        <time>2009-06-18T16:43:36Z</time>
      </trkpt>
      <trkpt lat="44.75593" lon="0.72073">
        <ele>136</ele>
        <time>2009-06-18T16:43:36Z</time>
      </trkpt>
      <trkpt lat="44.75598" lon="0.72103">
        <ele>137</ele>
        <time>2009-06-18T16:43:36Z</time>
      </trkpt>
      <trkpt lat="44.7559" lon="0.72135">
        <ele>138</ele>
        <time>2009-06-18T16:43:36Z</time>
      </trkpt>
      <trkpt lat="44.75583" lon="0.72168">
        <ele>139</ele>
        <time>2009-06-18T16:43:36Z</time>
      </trkpt>
      <trkpt lat="44.75575" lon="0.72203">
        <ele>139</ele>
        <time>2009-06-18T16:43:36Z</time>
      </trkpt>
      <trkpt lat="44.7557" lon="0.7223">
        <ele>139</ele>
        <time>2009-06-18T16:43:36Z</time>
      </trkpt>
      <trkpt lat="44.75565" lon="0.7226">
        <ele>139</ele>
        <time>2009-06-18T16:43:36Z</time>
      </trkpt>
      <trkpt lat="44.75558" lon="0.72308">
        <ele>138</ele>
        <time>2009-06-18T16:43:36Z</time>
      </trkpt>
      <trkpt lat="44.75555" lon="0.72338">
        <ele>138</ele>
        <time>2009-06-18T16:43:36Z</time>
      </trkpt>
      <trkpt lat="44.75548" lon="0.7238">
        <ele>137</ele>
        <time>2009-06-18T16:43:36Z</time>
      </trkpt>
      <trkpt lat="44.75543" lon="0.72418">
        <ele>137</ele>
        <time>2009-06-18T16:43:36Z</time>
      </trkpt>
      <trkpt lat="44.75535" lon="0.72443">
        <ele>138</ele>
        <time>2009-06-18T16:43:36Z</time>
      </trkpt>
      <trkpt lat="44.75545" lon="0.7247">
        <ele>138</ele>
        <time>2009-06-18T16:43:36Z</time>
      </trkpt>
      <trkpt lat="44.75563" lon="0.7248">
        <ele>138</ele>
        <time>2009-06-18T16:43:36Z</time>
      </trkpt>
      <trkpt lat="44.75583" lon="0.7249">
        <ele>138</ele>
        <time>2009-06-18T16:43:36Z</time>
      </trkpt>
      <trkpt lat="44.75603" lon="0.72503">
        <ele>139</ele>
        <time>2009-06-18T16:43:36Z</time>
      </trkpt>
      <trkpt lat="44.75623" lon="0.72513">
        <ele>141</ele>
        <time>2009-06-18T16:43:36Z</time>
      </trkpt>
      <trkpt lat="44.7564" lon="0.72523">
        <ele>141</ele>
        <time>2009-06-18T16:43:36Z</time>
      </trkpt>
      <trkpt lat="44.75658" lon="0.72533">
        <ele>141</ele>
        <time>2009-06-18T16:43:36Z</time>
      </trkpt>
      <trkpt lat="44.75675" lon="0.72523">
        <ele>141</ele>
        <time>2009-06-18T16:43:36Z</time>
      </trkpt>
      <trkpt lat="44.7569" lon="0.72505">
        <ele>141</ele>
        <time>2009-06-18T16:43:36Z</time>
      </trkpt>
      <trkpt lat="44.75705" lon="0.72485">
        <ele>142</ele>
        <time>2009-06-18T16:43:36Z</time>
      </trkpt>
      <trkpt lat="44.7572" lon="0.72468">
        <ele>142</ele>
        <time>2009-06-18T16:43:36Z</time>
      </trkpt>
      <trkpt lat="44.75735" lon="0.72448">
        <ele>142</ele>
        <time>2009-06-18T16:43:36Z</time>
      </trkpt>
    </trkseg>
  </trk>
  <trk>
    <name><![CDATA[BBmt66]]></name>
    <trkseg>
      <trkpt lat="44.81055" lon="0.82432">
        <ele>159</ele>
        <time>2009-06-18T16:43:36Z</time>
      </trkpt>
      <trkpt lat="44.81041" lon="0.82483">
        <ele>153</ele>
        <time>2009-06-18T16:43:36Z</time>
      </trkpt>
    </trkseg>
  </trk>
  <trk>
    <name><![CDATA[BBmt67]]></name>
    <trkseg>
      <trkpt lat="44.8102" lon="0.83248">
        <ele>198</ele>
        <time>2009-01-26T10:42:11Z</time>
      </trkpt>
      <trkpt lat="44.81005" lon="0.83233">
        <ele>187</ele>
        <time>2009-01-26T10:42:39Z</time>
      </trkpt>
      <trkpt lat="44.8099" lon="0.83215">
        <ele>182</ele>
        <time>2009-01-26T10:43:03Z</time>
      </trkpt>
      <trkpt lat="44.80975" lon="0.83195">
        <ele>186</ele>
        <time>2009-01-26T10:43:16Z</time>
      </trkpt>
      <trkpt lat="44.8096" lon="0.83175">
        <ele>175</ele>
        <time>2009-01-26T10:43:39Z</time>
      </trkpt>
      <trkpt lat="44.80943" lon="0.83163">
        <ele>170</ele>
        <time>2009-01-26T10:43:56Z</time>
      </trkpt>
      <trkpt lat="44.80923" lon="0.8316">
        <ele>165</ele>
        <time>2009-01-26T10:44:19Z</time>
      </trkpt>
      <trkpt lat="44.80928" lon="0.83133">
        <ele>155</ele>
        <time>2009-01-26T10:44:43Z</time>
      </trkpt>
      <trkpt lat="44.80925" lon="0.83105">
        <ele>152</ele>
        <time>2009-01-26T10:45:07Z</time>
      </trkpt>
      <trkpt lat="44.8093" lon="0.8308">
        <ele>150</ele>
        <time>2009-01-26T10:45:23Z</time>
      </trkpt>
      <trkpt lat="44.80933" lon="0.83053">
        <ele>151</ele>
        <time>2009-01-26T10:45:38Z</time>
      </trkpt>
      <trkpt lat="44.80933" lon="0.83025">
        <ele>147</ele>
        <time>2009-01-26T10:45:56Z</time>
      </trkpt>
      <trkpt lat="44.80935" lon="0.82998">
        <ele>148</ele>
        <time>2009-01-26T10:46:11Z</time>
      </trkpt>
      <trkpt lat="44.80932" lon="0.82918">
        <ele>151</ele>
        <time>2009-06-18T16:43:36Z</time>
      </trkpt>
      <trkpt lat="44.80927" lon="0.82844">
        <ele>148</ele>
        <time>2009-06-18T16:43:36Z</time>
      </trkpt>
      <trkpt lat="44.80914" lon="0.82785">
        <ele>145</ele>
        <time>2009-06-18T16:43:36Z</time>
      </trkpt>
      <trkpt lat="44.80883" lon="0.82719">
        <ele>145</ele>
        <time>2009-06-18T16:43:36Z</time>
      </trkpt>
      <trkpt lat="44.80879" lon="0.82677">
        <ele>147</ele>
        <time>2009-06-18T16:43:36Z</time>
      </trkpt>
      <trkpt lat="44.80904" lon="0.82634">
        <ele>147</ele>
        <time>2009-06-18T16:43:36Z</time>
      </trkpt>
      <trkpt lat="44.80925" lon="0.82603">
        <ele>147</ele>
        <time>2009-06-18T16:43:36Z</time>
      </trkpt>
      <trkpt lat="44.80954" lon="0.82556">
        <ele>145</ele>
        <time>2009-06-18T16:43:36Z</time>
      </trkpt>
      <trkpt lat="44.80974" lon="0.82502">
        <ele>147</ele>
        <time>2009-01-26T10:46:29Z</time>
      </trkpt>
    </trkseg>
  </trk>
  <trk>
    <name><![CDATA[BBmt68]]></name>
    <trkseg>
      <trkpt lat="44.81048" lon="0.82497">
        <ele>151</ele>
        <time>2009-01-26T10:22:52Z</time>
      </trkpt>
      <trkpt lat="44.8108" lon="0.82516">
        <ele>152</ele>
        <time>2009-01-26T10:23:03Z</time>
      </trkpt>
      <trkpt lat="44.81092" lon="0.82524">
        <ele>152</ele>
        <time>2009-01-26T10:23:23Z</time>
      </trkpt>
      <trkpt lat="44.81104" lon="0.82535">
        <ele>152</ele>
        <time>2009-01-26T10:25:32Z</time>
      </trkpt>
      <trkpt lat="44.81115" lon="0.82553">
        <ele>154</ele>
        <time>2009-01-26T10:26:01Z</time>
      </trkpt>
      <trkpt lat="44.81133" lon="0.82568">
        <ele>151</ele>
        <time>2009-01-26T10:26:18Z</time>
      </trkpt>
      <trkpt lat="44.8115" lon="0.82575">
        <ele>145</ele>
        <time>2009-01-26T10:26:35Z</time>
      </trkpt>
      <trkpt lat="44.81168" lon="0.82568">
        <ele>147</ele>
        <time>2009-01-26T10:26:50Z</time>
      </trkpt>
      <trkpt lat="44.81185" lon="0.8256">
        <ele>150</ele>
        <time>2009-01-26T10:27:16Z</time>
      </trkpt>
      <trkpt lat="44.81205" lon="0.82565">
        <ele>148</ele>
        <time>2009-01-26T10:27:32Z</time>
      </trkpt>
      <trkpt lat="44.81225" lon="0.8257">
        <ele>146</ele>
        <time>2009-01-26T10:27:48Z</time>
      </trkpt>
      <trkpt lat="44.81245" lon="0.82573">
        <ele>143</ele>
        <time>2009-01-26T10:28:03Z</time>
      </trkpt>
      <trkpt lat="44.81265" lon="0.82578">
        <ele>140</ele>
        <time>2009-01-26T10:28:18Z</time>
      </trkpt>
      <trkpt lat="44.81285" lon="0.8258">
        <ele>137</ele>
        <time>2009-01-26T10:28:33Z</time>
      </trkpt>
      <trkpt lat="44.81278" lon="0.82605">
        <ele>131</ele>
        <time>2009-01-26T10:28:53Z</time>
      </trkpt>
      <trkpt lat="44.81263" lon="0.82623">
        <ele>120</ele>
        <time>2009-01-26T10:29:10Z</time>
      </trkpt>
      <trkpt lat="44.81248" lon="0.82638">
        <ele>110</ele>
        <time>2009-01-26T10:29:27Z</time>
      </trkpt>
      <trkpt lat="44.81233" lon="0.82653">
        <ele>112</ele>
        <time>2009-01-26T10:29:39Z</time>
      </trkpt>
      <trkpt lat="44.81215" lon="0.8266">
        <ele>128</ele>
        <time>2009-01-26T10:30:26Z</time>
      </trkpt>
      <trkpt lat="44.81195" lon="0.82658">
        <ele>122</ele>
        <time>2009-01-26T10:30:41Z</time>
      </trkpt>
      <trkpt lat="44.81175" lon="0.82655">
        <ele>114</ele>
        <time>2009-01-26T10:30:58Z</time>
      </trkpt>
      <trkpt lat="44.81173" lon="0.82683">
        <ele>107</ele>
        <time>2009-01-26T10:31:20Z</time>
      </trkpt>
      <trkpt lat="44.81173" lon="0.8271">
        <ele>126</ele>
        <time>2009-01-26T10:31:31Z</time>
      </trkpt>
      <trkpt lat="44.81173" lon="0.82738">
        <ele>130</ele>
        <time>2009-01-26T10:31:53Z</time>
      </trkpt>
      <trkpt lat="44.81168" lon="0.82763">
        <ele>130</ele>
        <time>2009-01-26T10:32:11Z</time>
      </trkpt>
      <trkpt lat="44.81165" lon="0.8279">
        <ele>115</ele>
        <time>2009-01-26T10:32:36Z</time>
      </trkpt>
      <trkpt lat="44.81165" lon="0.82818">
        <ele>115</ele>
        <time>2009-01-26T10:33:02Z</time>
      </trkpt>
      <trkpt lat="44.81163" lon="0.82845">
        <ele>117</ele>
        <time>2009-01-26T10:33:31Z</time>
      </trkpt>
      <trkpt lat="44.81165" lon="0.82873">
        <ele>129</ele>
        <time>2009-01-26T10:33:53Z</time>
      </trkpt>
      <trkpt lat="44.81168" lon="0.829">
        <ele>126</ele>
        <time>2009-01-26T10:34:18Z</time>
      </trkpt>
      <trkpt lat="44.8117" lon="0.82928">
        <ele>132</ele>
        <time>2009-01-26T10:34:33Z</time>
      </trkpt>
      <trkpt lat="44.8117" lon="0.82955">
        <ele>128</ele>
        <time>2009-01-26T10:34:58Z</time>
      </trkpt>
      <trkpt lat="44.8117" lon="0.82983">
        <ele>119</ele>
        <time>2009-01-26T10:35:22Z</time>
      </trkpt>
      <trkpt lat="44.8117" lon="0.8301">
        <ele>145</ele>
        <time>2009-01-26T10:35:47Z</time>
      </trkpt>
      <trkpt lat="44.8117" lon="0.83038">
        <ele>169</ele>
        <time>2009-01-26T10:37:30Z</time>
      </trkpt>
      <trkpt lat="44.8117" lon="0.83065">
        <ele>165</ele>
        <time>2009-01-26T10:37:50Z</time>
      </trkpt>
      <trkpt lat="44.81168" lon="0.83093">
        <ele>160</ele>
        <time>2009-01-26T10:38:12Z</time>
      </trkpt>
      <trkpt lat="44.81168" lon="0.8312">
        <ele>167</ele>
        <time>2009-01-26T10:38:37Z</time>
      </trkpt>
      <trkpt lat="44.81155" lon="0.8314">
        <ele>169</ele>
        <time>2009-01-26T10:38:54Z</time>
      </trkpt>
      <trkpt lat="44.81138" lon="0.83148">
        <ele>177</ele>
        <time>2009-01-26T10:39:12Z</time>
      </trkpt>
      <trkpt lat="44.81118" lon="0.8315">
        <ele>174</ele>
        <time>2009-01-26T10:39:28Z</time>
      </trkpt>
      <trkpt lat="44.811" lon="0.8316">
        <ele>171</ele>
        <time>2009-01-26T10:39:43Z</time>
      </trkpt>
      <trkpt lat="44.8108" lon="0.83163">
        <ele>158</ele>
        <time>2009-01-26T10:40:01Z</time>
      </trkpt>
      <trkpt lat="44.81063" lon="0.8317">
        <ele>145</ele>
        <time>2009-01-26T10:40:18Z</time>
      </trkpt>
      <trkpt lat="44.81045" lon="0.83183">
        <ele>138</ele>
        <time>2009-01-26T10:40:35Z</time>
      </trkpt>
      <trkpt lat="44.8103" lon="0.832">
        <ele>134</ele>
        <time>2009-01-26T10:40:50Z</time>
      </trkpt>
      <trkpt lat="44.81023" lon="0.83225">
        <ele>141</ele>
        <time>2009-01-26T10:41:10Z</time>
      </trkpt>
    </trkseg>
  </trk>
  <trk>
    <name><![CDATA[BBmt69]]></name>
    <trkseg>
      <trkpt lat="44.75093" lon="0.86658">
        <ele>121</ele>
        <time>2009-01-20T12:15:42Z</time>
      </trkpt>
      <trkpt lat="44.75095" lon="0.86628">
        <ele>125</ele>
        <time>2009-01-20T12:16:33Z</time>
      </trkpt>
      <trkpt lat="44.75095" lon="0.86598">
        <ele>126</ele>
        <time>2009-01-20T12:16:37Z</time>
      </trkpt>
      <trkpt lat="44.75095" lon="0.86565">
        <ele>124</ele>
        <time>2009-01-20T12:16:41Z</time>
      </trkpt>
      <trkpt lat="44.75098" lon="0.86533">
        <ele>123</ele>
        <time>2009-01-20T12:16:44Z</time>
      </trkpt>
      <trkpt lat="44.75095" lon="0.865">
        <ele>117</ele>
        <time>2009-01-20T12:16:47Z</time>
      </trkpt>
      <trkpt lat="44.7509" lon="0.86463">
        <ele>117</ele>
        <time>2009-01-20T12:16:49Z</time>
      </trkpt>
      <trkpt lat="44.75085" lon="0.86438">
        <ele>116</ele>
        <time>2009-01-20T12:16:52Z</time>
      </trkpt>
      <trkpt lat="44.75078" lon="0.86413">
        <ele>113</ele>
        <time>2009-01-20T12:16:54Z</time>
      </trkpt>
      <trkpt lat="44.75068" lon="0.8639">
        <ele>109</ele>
        <time>2009-01-20T12:16:56Z</time>
      </trkpt>
      <trkpt lat="44.75055" lon="0.8637">
        <ele>107</ele>
        <time>2009-01-20T12:16:58Z</time>
      </trkpt>
      <trkpt lat="44.7504" lon="0.86353">
        <ele>101</ele>
        <time>2009-01-20T12:17:00Z</time>
      </trkpt>
      <trkpt lat="44.7502" lon="0.86328">
        <ele>98</ele>
        <time>2009-01-20T12:17:03Z</time>
      </trkpt>
      <trkpt lat="44.75003" lon="0.8631">
        <ele>95</ele>
        <time>2009-01-20T12:17:06Z</time>
      </trkpt>
      <trkpt lat="44.7499" lon="0.8629">
        <ele>94</ele>
        <time>2009-01-20T12:17:09Z</time>
      </trkpt>
      <trkpt lat="44.7498" lon="0.86268">
        <ele>94</ele>
        <time>2009-01-20T12:17:12Z</time>
      </trkpt>
      <trkpt lat="44.74985" lon="0.86243">
        <ele>87</ele>
        <time>2009-01-20T12:17:31Z</time>
      </trkpt>
      <trkpt lat="44.74975" lon="0.86218">
        <ele>103</ele>
        <time>2009-01-20T12:18:00Z</time>
      </trkpt>
      <trkpt lat="44.74965" lon="0.86193">
        <ele>108</ele>
        <time>2009-01-20T12:19:11Z</time>
      </trkpt>
      <trkpt lat="44.74953" lon="0.86168">
        <ele>115</ele>
        <time>2009-01-20T12:19:16Z</time>
      </trkpt>
      <trkpt lat="44.74938" lon="0.86143">
        <ele>122</ele>
        <time>2009-01-20T12:19:21Z</time>
      </trkpt>
      <trkpt lat="44.74928" lon="0.86118">
        <ele>128</ele>
        <time>2009-01-20T12:19:27Z</time>
      </trkpt>
      <trkpt lat="44.74923" lon="0.86093">
        <ele>128</ele>
        <time>2009-01-20T12:19:34Z</time>
      </trkpt>
      <trkpt lat="44.74923" lon="0.86065">
        <ele>136</ele>
        <time>2009-01-20T12:19:57Z</time>
      </trkpt>
      <trkpt lat="44.7491" lon="0.86045">
        <ele>127</ele>
        <time>2009-01-20T12:20:13Z</time>
      </trkpt>
      <trkpt lat="44.74903" lon="0.8602">
        <ele>125</ele>
        <time>2009-01-20T12:20:18Z</time>
      </trkpt>
      <trkpt lat="44.7489" lon="0.85998">
        <ele>121</ele>
        <time>2009-01-20T12:20:23Z</time>
      </trkpt>
      <trkpt lat="44.74883" lon="0.85973">
        <ele>123</ele>
        <time>2009-01-20T12:20:28Z</time>
      </trkpt>
      <trkpt lat="44.74873" lon="0.8595">
        <ele>118</ele>
        <time>2009-01-20T12:20:33Z</time>
      </trkpt>
      <trkpt lat="44.74757" lon="0.85597">
        <ele>144</ele>
        <time>2009-06-18T16:43:36Z</time>
      </trkpt>
      <trkpt lat="44.74413" lon="0.85703">
        <ele>152</ele>
        <time>2009-01-26T13:05:37Z</time>
      </trkpt>
    </trkseg>
  </trk>
  <trk>
    <name><![CDATA[BBmt70]]></name>
    <trkseg>
      <trkpt lat="44.74413" lon="0.85703">
        <ele>152</ele>
        <time>2009-01-26T13:05:37Z</time>
      </trkpt>
      <trkpt lat="44.74433" lon="0.85708">
        <ele>158</ele>
        <time>2009-01-26T13:08:18Z</time>
      </trkpt>
      <trkpt lat="44.7445" lon="0.85725">
        <ele>160</ele>
        <time>2009-01-26T13:08:37Z</time>
      </trkpt>
      <trkpt lat="44.7447" lon="0.8574">
        <ele>159</ele>
        <time>2009-01-26T13:08:42Z</time>
      </trkpt>
      <trkpt lat="44.7449" lon="0.85755">
        <ele>161</ele>
        <time>2009-01-26T13:08:46Z</time>
      </trkpt>
      <trkpt lat="44.74508" lon="0.85765">
        <ele>163</ele>
        <time>2009-01-26T13:08:50Z</time>
      </trkpt>
      <trkpt lat="44.74528" lon="0.85775">
        <ele>166</ele>
        <time>2009-01-26T13:08:54Z</time>
      </trkpt>
      <trkpt lat="44.74545" lon="0.8579">
        <ele>165</ele>
        <time>2009-01-26T13:09:10Z</time>
      </trkpt>
      <trkpt lat="44.7456" lon="0.85818">
        <ele>169</ele>
        <time>2009-01-26T13:09:15Z</time>
      </trkpt>
      <trkpt lat="44.7457" lon="0.85843">
        <ele>171</ele>
        <time>2009-01-26T13:09:19Z</time>
      </trkpt>
      <trkpt lat="44.74578" lon="0.8587">
        <ele>173</ele>
        <time>2009-01-26T13:09:24Z</time>
      </trkpt>
      <trkpt lat="44.74595" lon="0.85885">
        <ele>174</ele>
        <time>2009-01-26T13:09:42Z</time>
      </trkpt>
      <trkpt lat="44.74613" lon="0.85875">
        <ele>173</ele>
        <time>2009-01-26T13:09:50Z</time>
      </trkpt>
      <trkpt lat="44.7463" lon="0.85883">
        <ele>171</ele>
        <time>2009-01-26T13:09:58Z</time>
      </trkpt>
      <trkpt lat="44.74623" lon="0.85908">
        <ele>172</ele>
        <time>2009-01-26T13:10:05Z</time>
      </trkpt>
      <trkpt lat="44.7461" lon="0.85928">
        <ele>173</ele>
        <time>2009-01-26T13:10:13Z</time>
      </trkpt>
      <trkpt lat="44.74603" lon="0.85953">
        <ele>177</ele>
        <time>2009-01-26T13:10:20Z</time>
      </trkpt>
      <trkpt lat="44.74598" lon="0.85978">
        <ele>173</ele>
        <time>2009-01-26T13:10:54Z</time>
      </trkpt>
      <trkpt lat="44.74613" lon="0.85995">
        <ele>174</ele>
        <time>2009-01-26T13:11:02Z</time>
      </trkpt>
      <trkpt lat="44.74628" lon="0.86013">
        <ele>169</ele>
        <time>2009-01-26T13:11:08Z</time>
      </trkpt>
      <trkpt lat="44.74643" lon="0.86028">
        <ele>169</ele>
        <time>2009-01-26T13:11:14Z</time>
      </trkpt>
      <trkpt lat="44.74663" lon="0.86043">
        <ele>170</ele>
        <time>2009-01-26T13:11:20Z</time>
      </trkpt>
      <trkpt lat="44.7468" lon="0.86053">
        <ele>171</ele>
        <time>2009-01-26T13:11:25Z</time>
      </trkpt>
      <trkpt lat="44.74698" lon="0.86063">
        <ele>173</ele>
        <time>2009-01-26T13:11:31Z</time>
      </trkpt>
      <trkpt lat="44.74855" lon="0.8645">
        <ele>151</ele>
        <time>2009-01-26T13:17:06Z</time>
      </trkpt>
      <trkpt lat="44.7487" lon="0.86468">
        <ele>146</ele>
        <time>2009-01-26T13:17:31Z</time>
      </trkpt>
      <trkpt lat="44.74868" lon="0.86495">
        <ele>160</ele>
        <time>2009-01-26T13:18:35Z</time>
      </trkpt>
      <trkpt lat="44.74863" lon="0.86523">
        <ele>160</ele>
        <time>2009-01-26T13:18:47Z</time>
      </trkpt>
      <trkpt lat="44.7485" lon="0.86543">
        <ele>156</ele>
        <time>2009-01-26T13:18:56Z</time>
      </trkpt>
      <trkpt lat="44.74835" lon="0.8656">
        <ele>152</ele>
        <time>2009-01-26T13:19:06Z</time>
      </trkpt>
      <trkpt lat="44.74853" lon="0.8657">
        <ele>151</ele>
        <time>2009-01-26T13:19:26Z</time>
      </trkpt>
      <trkpt lat="44.74875" lon="0.86575">
        <ele>146</ele>
        <time>2009-01-26T13:19:34Z</time>
      </trkpt>
      <trkpt lat="44.74898" lon="0.86583">
        <ele>143</ele>
        <time>2009-01-26T13:19:41Z</time>
      </trkpt>
      <trkpt lat="44.74915" lon="0.86593">
        <ele>138</ele>
        <time>2009-01-26T13:19:46Z</time>
      </trkpt>
      <trkpt lat="44.74933" lon="0.8661">
        <ele>135</ele>
        <time>2009-01-26T13:19:51Z</time>
      </trkpt>
      <trkpt lat="44.74953" lon="0.8662">
        <ele>134</ele>
        <time>2009-01-26T13:19:56Z</time>
      </trkpt>
      <trkpt lat="44.74973" lon="0.86623">
        <ele>132</ele>
        <time>2009-01-26T13:20:01Z</time>
      </trkpt>
      <trkpt lat="44.74993" lon="0.86625">
        <ele>133</ele>
        <time>2009-01-26T13:20:06Z</time>
      </trkpt>
      <trkpt lat="44.75015" lon="0.86625">
        <ele>132</ele>
        <time>2009-01-26T13:20:13Z</time>
      </trkpt>
      <trkpt lat="44.75033" lon="0.86633">
        <ele>127</ele>
        <time>2009-01-26T13:20:19Z</time>
      </trkpt>
      <trkpt lat="44.75053" lon="0.86638">
        <ele>125</ele>
        <time>2009-01-26T13:20:29Z</time>
      </trkpt>
      <trkpt lat="44.75073" lon="0.8664">
        <ele>129</ele>
        <time>2009-01-26T13:20:40Z</time>
      </trkpt>
      <trkpt lat="44.7509" lon="0.86648">
        <ele>131</ele>
        <time>2009-01-26T13:20:48Z</time>
      </trkpt>
    </trkseg>
  </trk>
  <trk>
    <name><![CDATA[BBmt71]]></name>
    <trkseg>
      <trkpt lat="44.77818" lon="0.7838">
        <ele>121</ele>
        <time>2009-01-26T11:19:18Z</time>
      </trkpt>
      <trkpt lat="44.77804" lon="0.78342">
        <ele>119</ele>
        <time>2009-06-18T16:43:36Z</time>
      </trkpt>
      <trkpt lat="44.77726" lon="0.78079">
        <ele>116</ele>
        <time>2009-01-26T11:19:39Z</time>
      </trkpt>
      <trkpt lat="44.7766" lon="0.77938">
        <ele>119</ele>
        <time>2009-01-26T11:19:47Z</time>
      </trkpt>
      <trkpt lat="44.77648" lon="0.77918">
        <ele>116</ele>
        <time>2009-01-26T11:19:54Z</time>
      </trkpt>
      <trkpt lat="44.7764" lon="0.77893">
        <ele>119</ele>
        <time>2009-01-26T11:20:00Z</time>
      </trkpt>
      <trkpt lat="44.77633" lon="0.77865">
        <ele>121</ele>
        <time>2009-01-26T11:20:06Z</time>
      </trkpt>
      <trkpt lat="44.77633" lon="0.77835">
        <ele>125</ele>
        <time>2009-01-26T11:20:12Z</time>
      </trkpt>
      <trkpt lat="44.77635" lon="0.77805">
        <ele>129</ele>
        <time>2009-01-26T11:20:18Z</time>
      </trkpt>
      <trkpt lat="44.77635" lon="0.77778">
        <ele>128</ele>
        <time>2009-01-26T11:20:39Z</time>
      </trkpt>
      <trkpt lat="44.77635" lon="0.7775">
        <ele>128</ele>
        <time>2009-01-26T11:20:45Z</time>
      </trkpt>
      <trkpt lat="44.77638" lon="0.77723">
        <ele>128</ele>
        <time>2009-01-26T11:20:49Z</time>
      </trkpt>
      <trkpt lat="44.7764" lon="0.7769">
        <ele>128</ele>
        <time>2009-01-26T11:20:53Z</time>
      </trkpt>
      <trkpt lat="44.77643" lon="0.77655">
        <ele>127</ele>
        <time>2009-01-26T11:20:57Z</time>
      </trkpt>
      <trkpt lat="44.77645" lon="0.77628">
        <ele>127</ele>
        <time>2009-01-26T11:21:00Z</time>
      </trkpt>
      <trkpt lat="44.77645" lon="0.776">
        <ele>126</ele>
        <time>2009-01-26T11:21:03Z</time>
      </trkpt>
      <trkpt lat="44.77645" lon="0.77568">
        <ele>125</ele>
        <time>2009-01-26T11:21:07Z</time>
      </trkpt>
      <trkpt lat="44.77653" lon="0.77543">
        <ele>122</ele>
        <time>2009-01-26T11:21:17Z</time>
      </trkpt>
      <trkpt lat="44.77668" lon="0.7752">
        <ele>119</ele>
        <time>2009-01-26T11:21:23Z</time>
      </trkpt>
      <trkpt lat="44.77683" lon="0.775">
        <ele>118</ele>
        <time>2009-01-26T11:21:31Z</time>
      </trkpt>
      <trkpt lat="44.77695" lon="0.7748">
        <ele>118</ele>
        <time>2009-01-26T11:21:38Z</time>
      </trkpt>
      <trkpt lat="44.77708" lon="0.7746">
        <ele>119</ele>
        <time>2009-01-26T11:21:45Z</time>
      </trkpt>
      <trkpt lat="44.77723" lon="0.7744">
        <ele>118</ele>
        <time>2009-01-26T11:21:52Z</time>
      </trkpt>
      <trkpt lat="44.77738" lon="0.77423">
        <ele>116</ele>
        <time>2009-01-26T11:21:59Z</time>
      </trkpt>
      <trkpt lat="44.7775" lon="0.77403">
        <ele>117</ele>
        <time>2009-01-26T11:22:05Z</time>
      </trkpt>
      <trkpt lat="44.77763" lon="0.77383">
        <ele>117</ele>
        <time>2009-01-26T11:22:12Z</time>
      </trkpt>
      <trkpt lat="44.77775" lon="0.77363">
        <ele>113</ele>
        <time>2009-01-26T11:22:19Z</time>
      </trkpt>
      <trkpt lat="44.7779" lon="0.77343">
        <ele>109</ele>
        <time>2009-01-26T11:22:25Z</time>
      </trkpt>
      <trkpt lat="44.77803" lon="0.77323">
        <ele>105</ele>
        <time>2009-01-26T11:22:32Z</time>
      </trkpt>
      <trkpt lat="44.77813" lon="0.77298">
        <ele>99</ele>
        <time>2009-01-26T11:22:39Z</time>
      </trkpt>
      <trkpt lat="44.77818" lon="0.77273">
        <ele>93</ele>
        <time>2009-01-26T11:22:46Z</time>
      </trkpt>
      <trkpt lat="44.7782" lon="0.7724">
        <ele>90</ele>
        <time>2009-01-26T11:22:51Z</time>
      </trkpt>
      <trkpt lat="44.77823" lon="0.77213">
        <ele>89</ele>
        <time>2009-01-26T11:22:55Z</time>
      </trkpt>
      <trkpt lat="44.77815" lon="0.77188">
        <ele>83</ele>
        <time>2009-01-26T11:23:02Z</time>
      </trkpt>
      <trkpt lat="44.77803" lon="0.77168">
        <ele>84</ele>
        <time>2009-01-26T11:23:33Z</time>
      </trkpt>
      <trkpt lat="44.77793" lon="0.77145">
        <ele>90</ele>
        <time>2009-01-26T11:23:49Z</time>
      </trkpt>
      <trkpt lat="44.77778" lon="0.77128">
        <ele>89</ele>
        <time>2009-01-26T11:24:15Z</time>
      </trkpt>
      <trkpt lat="44.77763" lon="0.77113">
        <ele>91</ele>
        <time>2009-01-26T11:24:52Z</time>
      </trkpt>
      <trkpt lat="44.77745" lon="0.771">
        <ele>97</ele>
        <time>2009-01-26T11:25:37Z</time>
      </trkpt>
      <trkpt lat="44.77728" lon="0.77085">
        <ele>96</ele>
        <time>2009-01-26T11:25:59Z</time>
      </trkpt>
      <trkpt lat="44.7771" lon="0.77073">
        <ele>98</ele>
        <time>2009-01-26T11:26:20Z</time>
      </trkpt>
      <trkpt lat="44.77693" lon="0.7706">
        <ele>99</ele>
        <time>2009-01-26T11:26:40Z</time>
      </trkpt>
      <trkpt lat="44.77675" lon="0.77053">
        <ele>102</ele>
        <time>2009-01-26T11:27:04Z</time>
      </trkpt>
      <trkpt lat="44.77658" lon="0.77043">
        <ele>106</ele>
        <time>2009-01-26T11:27:23Z</time>
      </trkpt>
      <trkpt lat="44.7764" lon="0.77033">
        <ele>112</ele>
        <time>2009-01-26T11:27:44Z</time>
      </trkpt>
      <trkpt lat="44.77625" lon="0.77015">
        <ele>119</ele>
        <time>2009-01-26T11:28:09Z</time>
      </trkpt>
      <trkpt lat="44.77618" lon="0.7699">
        <ele>118</ele>
        <time>2009-01-26T11:28:39Z</time>
      </trkpt>
      <trkpt lat="44.77615" lon="0.76963">
        <ele>119</ele>
        <time>2009-01-26T11:29:03Z</time>
      </trkpt>
      <trkpt lat="44.77612" lon="0.76935">
        <ele>122</ele>
        <time>2009-06-18T16:43:36Z</time>
      </trkpt>
      <trkpt lat="44.776" lon="0.76936">
        <ele>123</ele>
        <time>2009-06-18T16:43:36Z</time>
      </trkpt>
      <trkpt lat="44.77579" lon="0.76937">
        <ele>123</ele>
        <time>2009-06-18T16:43:36Z</time>
      </trkpt>
      <trkpt lat="44.77554" lon="0.76938">
        <ele>124</ele>
        <time>2009-06-18T16:43:36Z</time>
      </trkpt>
      <trkpt lat="44.77528" lon="0.76932">
        <ele>124</ele>
        <time>2009-06-18T16:43:36Z</time>
      </trkpt>
      <trkpt lat="44.7749" lon="0.76911">
        <ele>124</ele>
        <time>2009-06-18T16:43:36Z</time>
      </trkpt>
      <trkpt lat="44.77477" lon="0.76902">
        <ele>124</ele>
        <time>2009-06-18T16:43:36Z</time>
      </trkpt>
      <trkpt lat="44.77457" lon="0.76876">
        <ele>124</ele>
        <time>2009-06-18T16:43:36Z</time>
      </trkpt>
      <trkpt lat="44.77415" lon="0.76836">
        <ele>124</ele>
        <time>2009-06-18T16:43:36Z</time>
      </trkpt>
      <trkpt lat="44.77391" lon="0.76813">
        <ele>124</ele>
        <time>2009-06-18T16:43:36Z</time>
      </trkpt>
      <trkpt lat="44.77366" lon="0.76785">
        <ele>123</ele>
        <time>2009-06-18T16:43:36Z</time>
      </trkpt>
      <trkpt lat="44.77344" lon="0.76742">
        <ele>123</ele>
        <time>2009-06-18T16:43:36Z</time>
      </trkpt>
      <trkpt lat="44.7732" lon="0.767">
        <ele>123</ele>
        <time>2009-01-26T11:29:32Z</time>
      </trkpt>
    </trkseg>
  </trk>
  <trk>
    <name><![CDATA[BBmt72]]></name>
    <trkseg>
      <trkpt lat="44.80708" lon="0.83458">
        <ele>190</ele>
        <time>2009-01-27T10:16:48Z</time>
      </trkpt>
      <trkpt lat="44.80725" lon="0.8345">
        <ele>192</ele>
        <time>2009-01-27T10:17:19Z</time>
      </trkpt>
      <trkpt lat="44.80745" lon="0.83445">
        <ele>192</ele>
        <time>2009-01-27T10:17:36Z</time>
      </trkpt>
      <trkpt lat="44.80765" lon="0.8345">
        <ele>192</ele>
        <time>2009-01-27T10:17:52Z</time>
      </trkpt>
      <trkpt lat="44.80785" lon="0.83455">
        <ele>190</ele>
        <time>2009-01-27T10:18:08Z</time>
      </trkpt>
      <trkpt lat="44.80805" lon="0.83458">
        <ele>186</ele>
        <time>2009-01-27T10:18:26Z</time>
      </trkpt>
      <trkpt lat="44.80825" lon="0.83458">
        <ele>186</ele>
        <time>2009-01-27T10:18:40Z</time>
      </trkpt>
      <trkpt lat="44.80845" lon="0.83458">
        <ele>185</ele>
        <time>2009-01-27T10:18:59Z</time>
      </trkpt>
      <trkpt lat="44.80865" lon="0.8346">
        <ele>187</ele>
        <time>2009-01-27T10:19:11Z</time>
      </trkpt>
      <trkpt lat="44.80885" lon="0.83463">
        <ele>182</ele>
        <time>2009-01-27T10:19:26Z</time>
      </trkpt>
      <trkpt lat="44.80903" lon="0.83455">
        <ele>179</ele>
        <time>2009-01-27T10:19:49Z</time>
      </trkpt>
      <trkpt lat="44.80923" lon="0.83458">
        <ele>176</ele>
        <time>2009-01-27T10:20:06Z</time>
      </trkpt>
      <trkpt lat="44.80943" lon="0.83458">
        <ele>174</ele>
        <time>2009-01-27T10:20:23Z</time>
      </trkpt>
      <trkpt lat="44.80963" lon="0.83458">
        <ele>174</ele>
        <time>2009-01-27T10:20:39Z</time>
      </trkpt>
      <trkpt lat="44.80983" lon="0.83458">
        <ele>174</ele>
        <time>2009-01-27T10:20:53Z</time>
      </trkpt>
      <trkpt lat="44.81" lon="0.8345">
        <ele>176</ele>
        <time>2009-01-27T10:21:09Z</time>
      </trkpt>
      <trkpt lat="44.81015" lon="0.83435">
        <ele>178</ele>
        <time>2009-01-27T10:21:22Z</time>
      </trkpt>
      <trkpt lat="44.81023" lon="0.8341">
        <ele>179</ele>
        <time>2009-01-27T10:21:37Z</time>
      </trkpt>
      <trkpt lat="44.81035" lon="0.8339">
        <ele>178</ele>
        <time>2009-01-27T10:21:51Z</time>
      </trkpt>
      <trkpt lat="44.81043" lon="0.83365">
        <ele>179</ele>
        <time>2009-01-27T10:22:07Z</time>
      </trkpt>
      <trkpt lat="44.8104" lon="0.83338">
        <ele>184</ele>
        <time>2009-01-27T10:22:20Z</time>
      </trkpt>
      <trkpt lat="44.81035" lon="0.83313">
        <ele>190</ele>
        <time>2009-01-27T10:22:34Z</time>
      </trkpt>
      <trkpt lat="44.8103" lon="0.83288">
        <ele>189</ele>
        <time>2009-01-27T10:22:49Z</time>
      </trkpt>
      <trkpt lat="44.81025" lon="0.83263">
        <ele>188</ele>
        <time>2009-01-27T10:23:06Z</time>
      </trkpt>
    </trkseg>
  </trk>
  <trk>
    <name><![CDATA[BBmt73]]></name>
    <trkseg>
      <trkpt lat="44.77998" lon="0.75128">
        <ele>82</ele>
        <time>2009-01-27T10:51:16Z</time>
      </trkpt>
      <trkpt lat="44.77988" lon="0.75158">
        <ele>82</ele>
        <time>2009-01-27T10:51:33Z</time>
      </trkpt>
      <trkpt lat="44.77978" lon="0.75183">
        <ele>83</ele>
        <time>2009-01-27T10:51:38Z</time>
      </trkpt>
      <trkpt lat="44.77963" lon="0.752">
        <ele>82</ele>
        <time>2009-01-27T10:51:42Z</time>
      </trkpt>
      <trkpt lat="44.77948" lon="0.75218">
        <ele>81</ele>
        <time>2009-01-27T10:51:45Z</time>
      </trkpt>
      <trkpt lat="44.77933" lon="0.75233">
        <ele>81</ele>
        <time>2009-01-27T10:51:48Z</time>
      </trkpt>
      <trkpt lat="44.77915" lon="0.75253">
        <ele>80</ele>
        <time>2009-01-27T10:51:51Z</time>
      </trkpt>
      <trkpt lat="44.77898" lon="0.75273">
        <ele>80</ele>
        <time>2009-01-27T10:51:54Z</time>
      </trkpt>
      <trkpt lat="44.77883" lon="0.7529">
        <ele>82</ele>
        <time>2009-01-27T10:51:57Z</time>
      </trkpt>
      <trkpt lat="44.77868" lon="0.7531">
        <ele>80</ele>
        <time>2009-01-27T10:52:00Z</time>
      </trkpt>
      <trkpt lat="44.77853" lon="0.75333">
        <ele>79</ele>
        <time>2009-01-27T10:52:03Z</time>
      </trkpt>
      <trkpt lat="44.77835" lon="0.75355">
        <ele>79</ele>
        <time>2009-01-27T10:52:06Z</time>
      </trkpt>
      <trkpt lat="44.77815" lon="0.75375">
        <ele>78</ele>
        <time>2009-01-27T10:52:09Z</time>
      </trkpt>
      <trkpt lat="44.77793" lon="0.75393">
        <ele>77</ele>
        <time>2009-01-27T10:52:12Z</time>
      </trkpt>
      <trkpt lat="44.7777" lon="0.75408">
        <ele>76</ele>
        <time>2009-01-27T10:52:15Z</time>
      </trkpt>
      <trkpt lat="44.77748" lon="0.7542">
        <ele>75</ele>
        <time>2009-01-27T10:52:18Z</time>
      </trkpt>
      <trkpt lat="44.77735" lon="0.7544">
        <ele>76</ele>
        <time>2009-01-27T10:52:32Z</time>
      </trkpt>
      <trkpt lat="44.77728" lon="0.75468">
        <ele>77</ele>
        <time>2009-01-27T10:52:36Z</time>
      </trkpt>
      <trkpt lat="44.77723" lon="0.75495">
        <ele>77</ele>
        <time>2009-01-27T10:52:39Z</time>
      </trkpt>
      <trkpt lat="44.7772" lon="0.75528">
        <ele>76</ele>
        <time>2009-01-27T10:52:42Z</time>
      </trkpt>
      <trkpt lat="44.77718" lon="0.75555">
        <ele>75</ele>
        <time>2009-01-27T10:52:45Z</time>
      </trkpt>
    </trkseg>
  </trk>
</gpx>